# Wetter Temperatur Luftdruck Luftfeuchtigkeit Sichtweite Windgeschwindigkeit Windrichtung Zeit
1 Clouds 6 1027 60 10000 2.1 130 02:27 05.04.2020
2 Clouds 6 1027 60 10000 2.1 130 01:44 05.04.2020
3 Clouds 6 1026 78 10000 1.5 130 01:23 05.04.2020
4 Clouds 6 1026 78 10000 1.5 130 00:37 05.04.2020
5 Clouds 8 1026 52 10000 2.1 150 00:19 05.04.2020
6 Clouds 8 1026 52 10000 2.1 150 23:42 04.04.2020
7 Clouds 8 1026 76 10000 2.6 160 23:22 04.04.2020
8 Clouds 8 1026 76 10000 2.6 160 22:57 04.04.2020
9 Clouds 8 1026 76 10000 2.6 160 22:39 04.04.2020
10 Clouds 8 1026 61 10000 1 120 22:20 04.04.2020
11 Clouds 8 1026 61 10000 1 120 21:57 04.04.2020
12 Clouds 8 1026 61 10000 1 120 21:57 04.04.2020
13 Clouds 8 1026 61 10000 1 120 21:39 04.04.2020
14 Clouds 10 1025 57 10000 1.5 40 21:19 04.04.2020
15 Clouds 10 1025 57 10000 1.5 40 20:55 04.04.2020
16 Clouds 10 1025 57 10000 1.5 40 20:37 04.04.2020
17 Clouds 12 1025 46 10000 1 210 20:19 04.04.2020
18 Clouds 12 1025 46 10000 1 210 19:54 04.04.2020
19 Clouds 12 1025 46 10000 1 210 19:36 04.04.2020
20 Clouds 13 1025 76 10000 2.6 250 19:18 04.04.2020
21 Clouds 13 1025 76 10000 2.6 250 18:54 04.04.2020
22 Clouds 13 1024 43 10000 3.6 220 18:36 04.04.2020
23 Clouds 13 1024 43 10000 3.6 220 18:18 04.04.2020
24 Clouds 13 1024 43 10000 3.6 220 17:39 04.04.2020
25 Clouds 13 1024 43 10000 4.1 250 17:20 04.04.2020
26 Clouds 13 1024 43 10000 4.1 250 16:46 04.04.2020
27 Clouds 12 1024 46 10000 4.6 250 16:28 04.04.2020
28 Clouds 12 1024 46 10000 4.6 250 15:59 04.04.2020
29 Clouds 12 1024 46 10000 4.6 250 15:40 04.04.2020
30 Clouds 12 1024 46 10000 4.6 250 15:22 04.04.2020
31 Clouds 12 1024 46 10000 4.6 250 14:56 04.04.2020
32 Clouds 12 1024 46 10000 4.6 250 14:38 04.04.2020
33 Clouds 12 1024 50 10000 5.7 240 14:20 04.04.2020
34 Clouds 12 1024 50 10000 5.7 240 13:55 04.04.2020
35 Clouds 12 1024 50 10000 5.7 240 13:37 04.04.2020
36 Clouds 11 1024 53 10000 5.7 250 13:18 04.04.2020
37 Clouds 11 1024 53 10000 5.7 250 12:43 04.04.2020
38 Clouds 9 1023 61 10000 5.7 220 12:23 04.04.2020
39 Clouds 9 1023 61 10000 5.7 220 11:55 04.04.2020
40 Clouds 7 1023 65 10000 5.1 220 11:36 04.04.2020
41 Clouds 7 1023 65 10000 5.1 220 11:18 04.04.2020
42 Clouds 7 1023 65 10000 5.1 220 10:55 04.04.2020
43 Clouds 7 1023 65 10000 5.1 220 10:37 04.04.2020
44 Clouds 5 1023 75 10000 5.1 220 10:18 04.04.2020
45 Clouds 5 1023 75 10000 5.1 220 09:44 04.04.2020
46 Clouds 3 1022 82 10000 4.6 210 09:25 04.04.2020
47 Clouds 3 1022 80 10000 4.6 210 08:58 04.04.2020
48 Clouds 3 1022 80 10000 4.6 210 08:38 04.04.2020
49 Clouds 2 1021 80 10000 3.1 200 08:19 04.04.2020
50 Clouds 2 1021 80 10000 3.1 200 07:40 04.04.2020
51 Clouds 1 1021 86 10000 3.6 210 07:22 04.04.2020
52 Clouds 1 1021 86 10000 3.6 210 06:46 04.04.2020
53 Clouds 1 1021 86 10000 3.6 210 05:57 04.04.2020
54 Clouds 1 1021 86 10000 3.6 210 05:39 04.04.2020
55 Clear 1 1020 86 10000 4.1 220 05:21 04.04.2020
56 Clear 1 1020 86 10000 3.6 210 04:24 04.04.2020
57 Clear 1 1020 86 10000 3.6 210 03:45 04.04.2020
58 Clouds 2 1020 70 10000 3.1 210 02:49 04.04.2020
59 Clouds 2 1020 71 10000 3.1 210 02:30 04.04.2020
60 Clouds 2 1019 80 10000 2.1 240 01:50 04.04.2020
61 Clouds 3 1019 71 10000 3.6 250 01:22 04.04.2020
62 Clouds 3 1019 71 10000 3.6 250 00:47 04.04.2020
63 Clouds 4 1018 69 10000 3.6 280 00:26 04.04.2020
64 Clouds 4 1018 69 10000 3.6 280 23:39 03.04.2020
65 Clouds 4 1018 69 10000 3.6 280 23:39 03.04.2020
66 Clouds 4 1018 64 10000 3.6 280 23:21 03.04.2020
67 Clouds 4 1018 64 10000 3.6 280 22:56 03.04.2020
68 Clouds 4 1018 64 10000 3.6 280 22:38 03.04.2020
69 Clouds 4 1017 70 10000 4.1 310 22:18 03.04.2020
70 Clouds 4 1017 70 10000 4.1 310 21:43 03.04.2020
71 Clouds 5 1017 60 10000 5.1 290 21:23 03.04.2020
72 Clouds 5 1017 60 10000 5.1 290 20:56 03.04.2020
73 Clouds 5 1017 60 10000 5.1 290 20:37 03.04.2020
74 Clouds 6 1016 56 10000 6.7 290 20:19 03.04.2020
75 Clouds 6 1016 56 10000 6.7 290 19:56 03.04.2020
76 Clouds 7 1016 56 10000 7.2 290 19:38 03.04.2020
77 Clouds 7 1016 56 10000 7.2 290 19:20 03.04.2020
78 Clouds 7 1016 56 10000 7.2 290 18:58 03.04.2020
79 Clouds 7 1016 56 10000 7.2 290 18:40 03.04.2020
80 Clouds 7 1015 52 10000 8.7 280 18:22 03.04.2020
81 Clouds 7 1015 52 10000 8.7 280 17:54 03.04.2020
82 Clouds 7 1015 52 10000 8.7 280 17:36 03.04.2020
83 Clouds 7 1015 52 10000 8.2 290 17:18 03.04.2020
84 Clouds 7 1015 52 10000 8.2 290 16:42 03.04.2020
85 Clouds 7 1014 56 10000 8.2 290 16:21 03.04.2020
86 Clouds 7 1014 56 10000 8.2 290 15:58 03.04.2020
87 Clouds 7 1014 56 10000 8.2 290 15:39 03.04.2020
88 Clouds 7 1014 56 10000 8.2 290 15:19 03.04.2020
89 Clouds 8 1014 52 10000 9.8 280 14:55 03.04.2020
90 Clouds 8 1014 52 10000 9.8 280 14:55 03.04.2020
91 Rain 6 1013 71 0 7.55 285 14:37 03.04.2020
92 Rain 6 1013 70 0 7.82 285 14:18 03.04.2020
93 Clouds 7 1013 65 10000 10.8 290 13:42 03.04.2020
94 Clouds 7 1013 65 10000 10.8 290 13:24 03.04.2020
95 Clouds 7 1013 65 10000 10.8 290 12:44 03.04.2020
96 Clouds 6 1013 70 10000 7.2 310 12:20 03.04.2020
97 Rain 7 1012 70 10000 6.7 290 11:57 03.04.2020
98 Rain 7 1012 70 10000 6.7 290 11:39 03.04.2020
99 Clouds 6 1011 70 10000 9.3 300 11:21 03.04.2020
100 Clouds 6 1011 70 10000 9.3 300 10:59 03.04.2020
101 Clouds 6 1011 70 10000 9.3 300 10:39 03.04.2020
102 Clouds 5 1010 70 10000 8.2 280 10:20 03.04.2020
103 Clouds 5 1010 70 10000 8.2 280 10:20 03.04.2020
104 Clouds 5 1010 70 10000 8.2 280 09:59 03.04.2020
105 Clouds 5 1010 70 10000 8.2 280 09:40 03.04.2020
106 Rain 5 1010 70 10000 9.8 300 09:21 03.04.2020
107 Rain 5 1010 70 10000 9.8 300 08:56 03.04.2020
108 Rain 5 1010 70 10000 9.8 300 08:38 03.04.2020
109 Clouds 4 1009 70 10000 8.2 310 08:20 03.04.2020
110 Clouds 4 1009 70 10000 8.2 310 07:46 03.04.2020
111 Rain 5 1008 70 9000 7.7 300 07:28 03.04.2020
112 Rain 5 1008 70 9000 7.7 300 06:41 03.04.2020
113 Clouds 5 1008 60 10000 10.3 290 06:22 03.04.2020
114 Clouds 5 1008 60 10000 10.3 290 05:39 03.04.2020
115 Clouds 5 1007 56 10000 9.8 300 03:42 03.04.2020
116 Clouds 5 1007 60 10000 9.3 290 02:56 03.04.2020
117 Clouds 5 1006 65 9000 9.3 300 02:18 03.04.2020
118 Clouds 6 1006 75 7000 9.8 290 01:22 03.04.2020
119 Clouds 6 1006 81 7000 8.2 290 00:36 03.04.2020
120 Rain 6 1006 81 7000 8.2 290 00:18 03.04.2020
121 Rain 6 1006 81 7000 8.2 290 23:40 02.04.2020
122 Clouds 6 1006 81 10000 7.7 300 23:21 02.04.2020
123 Clouds 6 1006 81 10000 7.7 300 22:57 02.04.2020
124 Clouds 6 1006 81 10000 7.7 300 22:37 02.04.2020
125 Rain 5 1005 86 10000 6.7 310 22:18 02.04.2020
126 Clouds 8 1005 81 10000 8.7 260 21:39 02.04.2020
127 Clouds 8 1005 81 10000 8.7 260 21:20 02.04.2020
128 Clouds 8 1005 81 10000 9.8 260 20:58 02.04.2020
129 Clouds 8 1005 81 10000 9.8 260 20:40 02.04.2020
130 Drizzle 7 1005 87 9000 8.2 260 20:21 02.04.2020
131 Drizzle 8 1005 70 4500 10.3 260 19:44 02.04.2020
132 Rain 8 1005 65 10000 9.8 260 19:21 02.04.2020
133 Rain 8 1005 65 10000 9.8 260 18:59 02.04.2020
134 Rain 8 1005 65 10000 9.8 260 18:39 02.04.2020
135 Rain 8 1005 65 10000 9.8 260 18:39 02.04.2020
136 Clouds 9 1006 66 10000 12.3 280 18:20 02.04.2020
137 Clouds 8 1006 70 10000 11.3 270 17:56 02.04.2020
138 Clouds 8 1006 70 10000 11.3 270 17:38 02.04.2020
139 Clouds 9 1006 61 10000 9.8 250 17:20 02.04.2020
140 Clouds 9 1006 61 10000 9.8 250 16:55 02.04.2020
141 Clouds 9 1006 61 10000 9.8 250 16:37 02.04.2020
142 Clouds 9 1007 61 10000 8.7 250 16:19 02.04.2020
143 Clouds 9 1007 61 10000 8.7 250 15:45 02.04.2020
144 Clouds 9 1007 57 10000 9.8 250 15:22 02.04.2020
145 Clouds 9 1007 57 10000 9.8 250 14:59 02.04.2020
146 Clouds 9 1007 57 10000 9.8 250 14:40 02.04.2020
147 Clouds 10 1008 53 10000 8.7 250 14:20 02.04.2020
148 Clouds 10 1008 53 10000 8.7 250 13:58 02.04.2020
149 Clouds 9 1009 57 10000 9.3 250 13:39 02.04.2020
150 Clouds 9 1009 57 10000 9.3 250 13:21 02.04.2020
151 Clouds 9 1009 57 10000 9.3 250 12:56 02.04.2020
152 Clouds 9 1009 57 10000 9.3 250 12:37 02.04.2020
153 Clouds 8 1010 61 10000 8.2 250 12:19 02.04.2020
154 Clouds 8 1010 61 10000 8.2 250 11:57 02.04.2020
155 Clouds 8 1010 61 10000 8.2 250 11:38 02.04.2020
156 Clouds 7 1010 65 10000 8.7 260 11:19 02.04.2020
157 Clouds 7 1010 65 10000 8.7 260 11:19 02.04.2020
158 Clouds 7 1010 65 10000 8.7 260 10:55 02.04.2020
159 Clouds 7 1010 65 10000 8.7 260 10:55 02.04.2020
160 Clouds 7 1010 65 10000 8.7 260 10:37 02.04.2020
161 Clouds 6 1011 81 10000 5.7 240 10:18 02.04.2020
162 Clouds 6 1011 81 10000 5.7 240 09:43 02.04.2020
163 Clouds 5 1011 86 10000 5.1 240 09:25 02.04.2020
164 Clouds 5 1011 86 10000 5.1 240 08:58 02.04.2020
165 Clouds 5 1011 86 10000 5.1 240 08:40 02.04.2020
166 Clouds 5 1011 86 10000 3.6 240 08:22 02.04.2020
167 Clouds 5 1011 86 10000 3.6 240 07:44 02.04.2020
168 Clouds 5 1012 86 10000 4.1 240 07:20 02.04.2020
169 Clouds 5 1012 86 10000 4.1 240 06:58 02.04.2020
170 Clouds 5 1012 86 10000 4.6 250 06:21 02.04.2020
171 Clouds 5 1012 86 10000 4.6 250 05:44 02.04.2020
172 Clouds 5 1013 86 9000 5.7 250 04:33 02.04.2020
173 Clouds 6 1014 87 8000 5.7 260 01:35 02.04.2020
174 Clouds 6 1015 87 8000 5.7 260 00:48 02.04.2020
175 Clouds 6 1015 87 8000 5.7 260 00:27 02.04.2020
176 Rain 6 1015 87 8000 5.7 260 23:55 01.04.2020
177 Rain 6 1015 87 8000 5.7 260 23:37 01.04.2020
178 Clouds 6 1015 87 10000 5.1 260 23:18 01.04.2020
179 Clouds 6 1015 87 10000 5.1 260 22:40 01.04.2020
180 Clouds 6 1015 87 10000 5.1 260 22:22 01.04.2020
181 Clouds 6 1016 87 10000 4.6 260 21:55 01.04.2020
182 Clouds 6 1016 87 10000 4.6 260 21:37 01.04.2020
183 Clouds 6 1016 87 10000 6.2 280 21:18 01.04.2020
184 Clouds 6 1016 87 10000 6.2 280 20:54 01.04.2020
185 Clouds 6 1016 87 10000 6.2 280 20:54 01.04.2020
186 Clouds 6 1016 87 10000 6.2 280 20:36 01.04.2020
187 Clouds 6 1016 87 10000 6.2 280 20:18 01.04.2020
188 Clouds 6 1016 87 10000 7.2 280 19:42 01.04.2020
189 Clouds 7 1016 81 10000 8.2 290 19:22 01.04.2020
190 Clouds 7 1016 81 10000 8.2 290 18:56 01.04.2020
191 Clouds 7 1016 81 10000 8.2 290 18:56 01.04.2020
192 Clouds 7 1016 81 10000 8.2 290 18:38 01.04.2020
193 Clouds 7 1017 81 10000 7.7 280 18:20 01.04.2020
194 Clouds 7 1017 81 10000 7.7 280 17:55 01.04.2020
195 Clouds 7 1017 81 10000 7.7 280 17:36 01.04.2020
196 Clouds 7 1017 81 10000 8.2 280 17:18 01.04.2020
197 Clouds 7 1017 81 10000 8.2 280 17:18 01.04.2020
198 Clouds 7 1017 81 10000 8.2 280 16:42 01.04.2020
199 Clouds 7 1017 81 10000 8.2 280 16:42 01.04.2020
200 Clouds 8 1018 70 10000 9.3 290 16:24 01.04.2020
201 Clouds 8 1018 70 10000 9.3 290 15:59 01.04.2020
202 Clouds 8 1018 70 10000 9.3 290 15:41 01.04.2020
203 Clouds 9 1018 61 10000 10.3 280 15:21 01.04.2020
204 Clouds 9 1018 61 10000 10.3 280 14:57 01.04.2020
205 Clouds 9 1018 61 10000 10.3 280 14:38 01.04.2020
206 Clouds 9 1018 61 10000 10.3 280 14:38 01.04.2020
207 Clouds 8 1019 65 10000 8.7 280 14:19 01.04.2020
208 Clouds 8 1019 65 10000 8.7 280 14:19 01.04.2020
209 Clouds 8 1019 65 10000 8.7 280 13:58 01.04.2020
210 Clouds 8 1019 65 10000 8.7 280 13:38 01.04.2020
211 Clouds 7 1019 70 10000 5.7 250 13:19 01.04.2020
212 Clouds 7 1019 70 10000 5.7 250 12:56 01.04.2020
213 Clouds 7 1019 70 10000 5.7 250 12:36 01.04.2020
214 Clouds 7 1020 75 10000 7.2 260 12:18 01.04.2020
215 Clouds 7 1020 75 10000 7.2 260 11:42 01.04.2020
216 Clouds 6 1020 81 10000 7.2 260 11:23 01.04.2020
217 Clouds 6 1020 81 10000 7.2 260 10:59 01.04.2020
218 Clouds 6 1020 81 10000 7.2 260 10:38 01.04.2020
219 Clouds 5 1020 80 10000 6.2 250 10:20 01.04.2020
220 Clouds 5 1020 80 10000 6.2 250 09:57 01.04.2020
221 Clouds 5 1020 80 10000 6.2 250 09:39 01.04.2020
222 Clouds 4 1021 86 10000 5.1 250 09:19 01.04.2020
223 Clouds 4 1021 86 10000 5.1 250 08:42 01.04.2020
224 Clouds 4 1021 86 10000 5.1 250 08:18 01.04.2020
225 Clouds 4 1021 86 10000 5.1 250 07:48 01.04.2020
226 Rain 3 1022 86 10000 5.1 250 07:22 01.04.2020
227 Rain 3 1022 86 10000 5.1 250 06:58 01.04.2020
228 Rain 3 1022 86 10000 5.1 250 06:38 01.04.2020
229 Clouds 4 1022 79 10000 5.1 250 06:20 01.04.2020
230 Rain 3 1023 79 10000 3.6 250 04:38 01.04.2020
231 Rain 4 1023 69 10000 5.1 250 03:35 01.04.2020
232 Clouds 3 1024 74 10000 4.1 250 02:57 01.04.2020
233 Clouds 2 1025 80 10000 3.6 250 02:23 01.04.2020
234 Clouds 2 1025 80 10000 3.6 250 01:43 01.04.2020
235 Clouds 1 1026 74 10000 3.1 250 01:23 01.04.2020
236 Clouds 1 1026 74 10000 3.1 250 00:47 01.04.2020
237 Clear 1 1027 69 10000 2.1 250 00:21 01.04.2020
238 Clear 1 1027 69 10000 2.1 250 23:49 31.03.2020
239 Clouds 3 1027 59 10000 2.6 280 23:29 31.03.2020
240 Clouds 3 1027 59 10000 2.6 280 22:59 31.03.2020
241 Clouds 1 1028 64 10000 3.1 320 22:38 31.03.2020
242 Clouds 1 1028 64 10000 3.1 320 22:20 31.03.2020
243 Clouds 1 1028 64 10000 3.1 320 21:57 31.03.2020
244 Clouds 1 1028 59 10000 3.1 320 21:39 31.03.2020
245 Clouds 1 1028 59 10000 3.1 320 21:20 31.03.2020
246 Clouds 3 1028 51 10000 3.6 320 20:56 31.03.2020
247 Clouds 3 1028 51 10000 3.6 320 20:37 31.03.2020
248 Clouds 3 1028 51 10000 3.6 320 20:18 31.03.2020
249 Clouds 4 1029 44 10000 4.6 320 19:55 31.03.2020
250 Clouds 5 1029 41 10000 4.6 320 19:36 31.03.2020
251 Clouds 5 1029 41 10000 4.6 320 19:18 31.03.2020
252 Clouds 5 1029 41 10000 4.6 320 18:41 31.03.2020
253 Clouds 6 1029 41 10000 5.7 310 18:20 31.03.2020
254 Clouds 6 1029 41 10000 5.7 310 17:56 31.03.2020
255 Clouds 6 1029 41 10000 5.7 310 17:56 31.03.2020
256 Clouds 6 1029 41 10000 5.7 310 17:56 31.03.2020
257 Clouds 6 1029 41 10000 5.7 310 17:38 31.03.2020
258 Clouds 6 1030 41 10000 5.1 320 17:20 31.03.2020
259 Clouds 6 1030 41 10000 5.1 320 16:42 31.03.2020
260 Clouds 6 1031 38 10000 3.1 50 16:20 31.03.2020
261 Clouds 6 1031 38 10000 3.1 50 15:59 31.03.2020
262 Clouds 6 1031 38 10000 3.1 50 15:41 31.03.2020
263 Clouds 6 1031 41 10000 1.5 360 15:23 31.03.2020
264 Clouds 6 1031 41 10000 1.5 360 15:00 31.03.2020
265 Clouds 6 1031 41 10000 1.5 360 15:00 31.03.2020
266 Clouds 6 1031 41 10000 1.5 360 14:41 31.03.2020
267 Clouds 5 1031 38 10000 2.6 40 14:22 31.03.2020
268 Clouds 5 1031 38 10000 2.6 40 13:55 31.03.2020
269 Clouds 5 1031 38 10000 2.6 40 13:37 31.03.2020
270 Clouds 5 1032 41 10000 4.1 40 13:18 31.03.2020
271 Clouds 5 1032 48 10000 4.1 80 12:44 31.03.2020
272 Clouds 5 1032 48 10000 4.1 80 12:20 31.03.2020
273 Clouds 5 1032 48 10000 4.1 80 12:20 31.03.2020
274 Clouds 5 1032 48 10000 4.1 80 11:56 31.03.2020
275 Clouds 5 1032 48 10000 4.1 80 11:36 31.03.2020
276 Clouds 4 1033 64 10000 5.1 60 11:18 31.03.2020
277 Clouds 4 1033 64 10000 5.1 60 10:55 31.03.2020
278 Clouds 4 1033 64 10000 5.1 60 10:55 31.03.2020
279 Clouds 4 1033 64 10000 5.1 60 10:37 31.03.2020
280 Clouds 3 1032 74 10000 2.6 60 10:18 31.03.2020
281 Clouds 3 1032 74 10000 2.6 60 10:18 31.03.2020
282 Clouds 3 1032 74 10000 2.6 60 09:43 31.03.2020
283 Clouds 1 1032 80 10000 2.1 50 09:25 31.03.2020
284 Clouds 1 1032 80 10000 2.1 50 08:58 31.03.2020
285 Clouds 1 1032 80 10000 2.1 50 08:39 31.03.2020
286 Clouds -2 1031 79 10000 3.1 40 08:20 31.03.2020
287 Clouds -2 1031 79 10000 3.1 40 08:20 31.03.2020
288 Clouds -2 1031 79 10000 3.1 40 07:57 31.03.2020
289 Clouds -2 1031 79 10000 3.1 40 07:38 31.03.2020
290 Clouds -1 1031 74 10000 2.1 40 07:20 31.03.2020
291 Clouds -1 1031 74 10000 2.1 40 06:51 31.03.2020
292 Clear -1 1031 74 10000 2.1 20 06:31 31.03.2020
293 Clear -1 1031 74 10000 2.1 20 05:41 31.03.2020
294 Clear -1 1030 68 10000 2.6 30 03:57 31.03.2020
295 Clear 0 1030 68 10000 3.6 30 02:26 31.03.2020
296 Clear 0 1030 69 10000 3.6 30 01:46 31.03.2020
297 Clear 1 1030 59 10000 5.1 40 00:52 31.03.2020
298 Clear 1 1029 59 10000 4.6 50 00:25 31.03.2020
299 Clear 1 1029 59 10000 4.6 50 23:59 30.03.2020
300 Clear 1 1029 59 10000 4.6 50 23:38 30.03.2020
301 Clouds 2 1029 59 10000 5.1 60 23:19 30.03.2020
302 Clouds 2 1029 59 10000 5.1 60 22:56 30.03.2020
303 Clouds 2 1029 59 10000 5.1 60 22:37 30.03.2020
304 Clouds 2 1029 59 10000 5.1 60 22:37 30.03.2020
305 Clouds 3 1028 55 10000 4.1 60 22:18 30.03.2020
306 Clouds 3 1028 55 10000 4.1 60 21:55 30.03.2020
307 Clouds 3 1028 55 10000 4.1 60 21:37 30.03.2020
308 Clouds 4 1027 55 10000 4.6 50 21:18 30.03.2020
309 Clouds 4 1027 55 10000 4.6 50 20:42 30.03.2020
310 Clouds 4 1027 55 10000 4.6 50 20:42 30.03.2020
311 Clouds 5 1027 60 10000 5.7 50 20:24 30.03.2020
312 Clouds 5 1027 60 10000 5.7 50 20:24 30.03.2020
313 Clouds 7 1026 56 10000 6.2 60 19:59 30.03.2020
314 Clouds 7 1026 56 10000 6.2 60 19:40 30.03.2020
315 Clouds 6 1025 70 10000 3.6 350 19:22 30.03.2020
316 Clouds 6 1025 70 10000 3.6 350 18:57 30.03.2020
317 Clouds 6 1025 70 10000 3.6 350 18:38 30.03.2020
318 Clouds 6 1025 75 10000 2.6 10 18:20 30.03.2020
319 Clouds 6 1025 75 10000 2.6 10 17:57 30.03.2020
320 Clouds 6 1025 75 10000 2.6 10 17:38 30.03.2020
321 Rain 5 1025 80 10000 3.1 30 17:19 30.03.2020
322 Rain 5 1025 80 10000 3.1 30 16:55 30.03.2020
323 Rain 5 1025 80 10000 3.1 30 16:37 30.03.2020
324 Clouds 7 1025 65 10000 7.7 360 16:19 30.03.2020
325 Clouds 8 1025 70 10000 7.7 330 15:54 30.03.2020
326 Clouds 8 1025 70 10000 7.7 330 15:36 30.03.2020
327 Clouds 7 1025 75 10000 7.2 330 15:18 30.03.2020
328 Clouds 7 1025 75 10000 7.2 330 14:54 30.03.2020
329 Clouds 7 1025 75 10000 7.2 330 14:36 30.03.2020
330 Clouds 7 1025 70 10000 6.7 340 14:18 30.03.2020
331 Rain 6 1025 81 10000 5.1 350 13:43 30.03.2020
332 Rain 7 1025 75 10000 6.2 350 13:21 30.03.2020
333 Snow 6 1025 75 10000 8.2 350 12:57 30.03.2020
334 Snow 6 1025 75 10000 8.2 350 12:38 30.03.2020
335 Snow 6 1025 75 10000 8.2 350 12:38 30.03.2020
336 Rain 7 1026 75 10000 7.7 340 12:19 30.03.2020
337 Clouds 6 1026 81 10000 6.2 320 11:56 30.03.2020
338 Clouds 6 1026 81 10000 6.2 320 11:38 30.03.2020
339 Clouds 4 1026 80 10000 6.7 350 11:20 30.03.2020
340 Rain 5 1026 80 5000 6.2 310 10:39 30.03.2020
341 Clouds 5 1027 86 10000 4.1 290 10:21 30.03.2020
342 Clouds 5 1027 86 10000 4.1 290 09:56 30.03.2020
343 Clouds 5 1027 86 10000 4.1 290 09:37 30.03.2020
344 Clouds 4 1027 86 10000 4.1 260 09:18 30.03.2020
345 Clouds 4 1027 86 10000 4.1 260 08:41 30.03.2020
346 Clouds 3 1027 86 10000 7.2 280 08:22 30.03.2020
347 Clouds 3 1027 86 10000 7.2 280 07:49 30.03.2020
348 Rain 4 1028 78 10000 7.2 300 07:27 30.03.2020
349 Rain 4 1028 78 10000 7.2 300 06:54 30.03.2020
350 Clouds 4 1029 69 10000 4.6 290 06:31 30.03.2020
351 Clouds 4 1029 69 10000 4.6 290 06:31 30.03.2020
352 Clouds 4 1029 69 10000 4.6 290 05:52 30.03.2020
353 Clouds 1 1030 74 10000 1.5 240 05:22 30.03.2020
354 Clouds 0 1031 76 10000 0.5 0 04:23 30.03.2020
355 Clouds 0 1031 76 10000 0.5 0 03:38 30.03.2020
356 Clouds -1 1032 63 10000 1.5 260 02:38 30.03.2020
357 Clouds 0 1033 72 10000 1.5 350 01:44 30.03.2020
358 Clouds 1 1033 59 10000 2.6 10 00:49 30.03.2020
359 Clouds 2 1033 51 10000 4.1 10 00:22 30.03.2020
360 Clear 2 1033 51 10000 4.1 10 23:42 29.03.2020
361 Clouds 2 1033 51 10000 3.1 10 23:23 29.03.2020
362 Clouds 2 1033 51 10000 3.1 10 22:57 29.03.2020
363 Clouds 2 1033 51 10000 3.1 10 22:38 29.03.2020
364 Clouds 1 1034 34 10000 2.1 360 22:19 29.03.2020
365 Clouds 1 1034 34 10000 2.1 360 21:56 29.03.2020
366 Clouds 1 1034 34 10000 2.1 360 21:36 29.03.2020
367 Clouds 1 1033 34 10000 3.6 40 21:18 29.03.2020
368 Clouds 1 1033 34 10000 3.6 40 20:55 29.03.2020
369 Clouds 1 1033 34 10000 3.6 40 20:36 29.03.2020
370 Clouds 3 1033 29 10000 6.7 40 20:18 29.03.2020
371 Clouds 3 1033 29 10000 6.7 40 19:42 29.03.2020
372 Clouds 4 1033 29 10000 7.7 30 19:24 29.03.2020
373 Clouds 4 1033 29 10000 7.7 30 18:58 29.03.2020
374 Clouds 4 1033 29 10000 7.7 30 18:58 29.03.2020
375 Clouds 5 1032 27 10000 8.2 30 18:40 29.03.2020
376 Clouds 5 1032 27 10000 8.2 30 18:21 29.03.2020
377 Clouds 5 1032 27 10000 8.2 30 17:59 29.03.2020
378 Clouds 5 1032 27 10000 8.2 30 17:41 29.03.2020
379 Clouds 5 1032 25 10000 9.8 30 17:22 29.03.2020
380 Clouds 5 1032 25 10000 9.8 30 16:58 29.03.2020
381 Clouds 5 1032 25 10000 9.8 30 16:39 29.03.2020
382 Clouds 5 1032 27 10000 10.8 30 16:21 29.03.2020
383 Clouds 5 1032 27 10000 10.8 30 15:58 29.03.2020
384 Clouds 5 1032 27 10000 10.8 30 15:39 29.03.2020
385 Clouds 6 1032 38 10000 11.3 40 15:19 29.03.2020
386 Clouds 6 1032 38 10000 11.3 40 14:56 29.03.2020
387 Clouds 6 1032 38 10000 11.3 40 14:37 29.03.2020
388 Clouds 5 1031 44 10000 11.8 30 14:18 29.03.2020
389 Clouds 5 1031 44 10000 11.8 30 13:55 29.03.2020
390 Clouds 5 1031 44 10000 11.8 30 13:36 29.03.2020
391 Clouds 4 1031 51 10000 10.8 30 13:18 29.03.2020
392 Clouds 4 1031 51 10000 10.8 30 12:54 29.03.2020
393 Clouds 4 1031 51 10000 12.9 40 12:36 29.03.2020
394 Clouds 4 1031 51 10000 12.9 40 12:18 29.03.2020
395 Clouds 4 1031 51 10000 12.9 40 12:18 29.03.2020
396 Clouds 4 1031 51 10000 12.9 40 11:38 29.03.2020
397 Clouds 3 1030 64 10000 12.9 40 11:20 29.03.2020
398 Clouds 3 1030 64 10000 12.9 40 10:40 29.03.2020
399 Clouds 2 1028 80 10000 12.3 30 10:21 29.03.2020
400 Clouds 2 1028 80 10000 13.4 30 09:59 29.03.2020
401 Clouds 2 1028 80 10000 13.4 30 09:38 29.03.2020
402 Snow 2 1027 80 10000 12.3 30 09:19 29.03.2020
403 Snow 2 1027 80 10000 12.3 30 08:45 29.03.2020
404 Snow 2 1026 80 10000 11.3 30 08:27 29.03.2020
405 Rain 2 1025 80 10000 11.8 20 07:56 29.03.2020
406 Clouds 3 1025 69 10000 12.3 20 07:37 29.03.2020
407 Clouds 3 1025 69 10000 12.3 20 07:19 29.03.2020
408 Clouds 4 1023 60 10000 8.2 20 04:58 29.03.2020
409 Clouds 4 1023 60 10000 8.2 20 03:42 29.03.2020
410 Clouds 4 1023 55 10000 7.2 10 03:23 29.03.2020
411 Clouds 4 1023 55 10000 7.2 10 01:50 29.03.2020
412 Clouds 5 1023 52 10000 7.7 10 01:23 29.03.2020
413 Clouds 5 1023 52 10000 7.7 10 00:48 29.03.2020
414 Clouds 6 1023 48 10000 8.7 10 00:29 29.03.2020
415 Clouds 6 1023 48 10000 8.7 10 23:41 28.03.2020
416 Clouds 6 1023 48 10000 8.7 10 23:41 28.03.2020
417 Clouds 6 1022 60 10000 7.7 360 23:23 28.03.2020
418 Clouds 6 1022 60 10000 7.7 360 22:56 28.03.2020
419 Clouds 6 1022 60 10000 7.7 360 22:37 28.03.2020
420 Clouds 6 1022 75 10000 8.2 350 22:18 28.03.2020
421 Clouds 6 1022 75 10000 8.2 350 21:41 28.03.2020
422 Clouds 5 1022 75 10000 8.2 350 21:23 28.03.2020
423 Clouds 5 1022 75 10000 8.2 350 20:58 28.03.2020
424 Clouds 5 1022 75 10000 8.2 350 20:58 28.03.2020
425 Clouds 5 1022 75 10000 8.2 350 20:39 28.03.2020
426 Clouds 6 1022 70 10000 9.3 340 20:21 28.03.2020
427 Clouds 6 1022 70 10000 9.3 340 19:56 28.03.2020
428 Clouds 6 1022 70 10000 9.3 340 19:37 28.03.2020
429 Clouds 6 1022 70 10000 9.3 340 19:37 28.03.2020
430 Clouds 6 1022 70 10000 10.3 340 19:18 28.03.2020
431 Clouds 6 1022 70 10000 10.3 340 18:55 28.03.2020
432 Clouds 6 1022 70 10000 10.3 340 18:36 28.03.2020
433 Clouds 7 1022 65 10000 9.8 350 18:18 28.03.2020
434 Clouds 7 1022 65 10000 11.3 350 17:38 28.03.2020
435 Clouds 7 1022 65 10000 11.3 350 17:19 28.03.2020
436 Clouds 7 1022 65 10000 11.3 350 16:42 28.03.2020
437 Clouds 8 1022 70 10000 10.3 350 16:20 28.03.2020
438 Clouds 8 1022 70 10000 10.3 350 15:56 28.03.2020
439 Clouds 8 1023 65 10000 8.2 350 15:38 28.03.2020
440 Clouds 8 1023 65 10000 8.2 350 15:19 28.03.2020
441 Clouds 8 1023 65 10000 8.2 350 14:43 28.03.2020
442 Clouds 9 1024 66 10000 7.2 330 14:23 28.03.2020
443 Clouds 9 1024 66 10000 7.2 330 13:57 28.03.2020
444 Clouds 9 1024 66 10000 7.2 330 13:37 28.03.2020
445 Clouds 8 1024 65 10000 6.2 350 13:18 28.03.2020
446 Clouds 8 1024 65 10000 6.2 350 12:38 28.03.2020
447 Clouds 8 1024 65 10000 5.7 350 12:19 28.03.2020
448 Clouds 7 1024 65 10000 5.1 360 11:42 28.03.2020
449 Clouds 7 1024 65 10000 5.1 360 11:21 28.03.2020
450 Clouds 7 1024 65 10000 5.1 360 10:56 28.03.2020
451 Clouds 7 1024 65 10000 5.1 360 10:37 28.03.2020
452 Clear 7 1024 65 10000 4.6 20 10:18 28.03.2020
453 Clear 7 1024 65 10000 4.6 20 09:41 28.03.2020
454 Clear 6 1024 60 10000 4.1 20 09:22 28.03.2020
455 Clear 6 1024 60 10000 4.1 20 08:45 28.03.2020
456 Clear 4 1024 83 10000 3.1 20 08:26 28.03.2020
457 Clouds 4 1024 76 10000 3.1 20 07:59 28.03.2020
458 Clouds 4 1024 76 10000 3.1 20 07:41 28.03.2020
459 Clouds 3 1024 76 10000 3.6 20 06:54 28.03.2020
460 Clouds 3 1024 76 10000 2.6 20 06:29 28.03.2020
461 Clouds 3 1024 86 10000 3.1 20 05:39 28.03.2020
462 Clouds 3 1024 86 10000 3.1 20 05:19 28.03.2020
463 Clouds 3 1024 86 10000 3.1 20 04:39 28.03.2020
464 Clouds 2 1024 77 10000 3.1 30 02:55 28.03.2020
465 Clouds 2 1024 80 10000 3.1 40 01:48 28.03.2020
466 Clouds 3 1025 74 10000 2.6 50 01:24 28.03.2020
467 Clear 3 1025 74 10000 2.6 50 00:54 28.03.2020
468 Clear 3 1025 74 10000 2.6 50 00:33 28.03.2020
469 Clear 3 1025 74 10000 5.1 50 23:45 27.03.2020
470 Clear 4 1025 69 10000 4.6 60 23:26 27.03.2020
471 Clear 4 1025 69 10000 4.6 60 23:26 27.03.2020
472 Clear 4 1025 69 10000 4.6 60 22:58 27.03.2020
473 Clear 4 1025 69 10000 4.6 60 22:39 27.03.2020
474 Clear 5 1024 65 10000 5.1 50 22:21 27.03.2020
475 Clear 5 1024 65 10000 5.1 50 21:59 27.03.2020
476 Clear 5 1024 65 10000 5.1 50 21:41 27.03.2020
477 Clear 7 1024 76 10000 5.7 50 21:23 27.03.2020
478 Clear 7 1024 76 10000 5.7 50 20:57 27.03.2020
479 Clear 7 1024 76 10000 5.7 50 20:39 27.03.2020
480 Clear 8 1024 73 10000 6.7 50 20:19 27.03.2020
481 Clear 8 1024 73 10000 6.7 50 19:56 27.03.2020
482 Clear 8 1024 73 10000 6.7 50 19:38 27.03.2020
483 Clear 10 1023 53 10000 5.7 60 19:19 27.03.2020
484 Clear 10 1023 53 10000 5.7 60 18:43 27.03.2020
485 Clear 12 1023 50 10000 7.2 50 18:23 27.03.2020
486 Clear 12 1023 50 10000 7.2 50 17:57 27.03.2020
487 Clear 14 1023 33 10000 8.2 60 17:38 27.03.2020
488 Clear 14 1023 33 10000 8.2 60 17:19 27.03.2020
489 Clear 14 1023 33 10000 8.2 60 16:44 27.03.2020
490 Clear 14 1023 33 10000 7.7 50 16:25 27.03.2020
491 Clear 14 1023 33 10000 7.7 50 16:25 27.03.2020
492 Clear 14 1023 33 10000 7.7 50 16:25 27.03.2020
493 Clear 14 1023 33 10000 7.7 50 15:45 27.03.2020
494 Clear 8 1024 73 0 6.71 42 15:27 27.03.2020
495 Clear 8 1024 73 0 6.71 42 14:57 27.03.2020
496 Clear 8 1024 73 0 6.71 42 14:39 27.03.2020
497 Clear 8 1024 73 0 6.71 42 14:21 27.03.2020
498 Clear 7 1026 77 0 6.73 41 13:54 27.03.2020
499 Clear 7 1026 77 0 6.73 41 13:36 27.03.2020
500 Clear 7 1026 77 0 6.85 38 13:18 27.03.2020
501 Clear 7 1026 77 0 6.85 38 12:42 27.03.2020
502 Clear 7 1026 77 0 6.85 38 12:19 27.03.2020
503 Clear 7 1026 77 0 6.85 38 11:44 27.03.2020
504 Clear 7 1026 77 0 6.85 38 11:25 27.03.2020
505 Clear 6 1026 76 0 7.16 72 10:59 27.03.2020
506 Clear 6 1026 76 0 7.16 72 10:41 27.03.2020
507 Clear 6 1026 76 0 7.16 72 10:22 27.03.2020
508 Clear 6 1026 76 0 7.16 72 09:58 27.03.2020
509 Clear 6 1026 76 0 7.16 72 09:39 27.03.2020
510 Clear 6 1026 76 0 7.16 72 09:21 27.03.2020
511 Clear 6 1026 76 0 7.16 72 08:58 27.03.2020
512 Clear 6 1026 76 0 7.16 72 08:39 27.03.2020
513 Clear 6 1026 76 0 7.16 72 08:21 27.03.2020
514 Clear 6 1026 76 0 7.54 79 07:53 27.03.2020
515 Clear 6 1026 76 0 7.54 79 07:28 27.03.2020
516 Clear 6 1026 76 0 7.54 79 06:59 27.03.2020
517 Clear 6 1026 76 0 7.54 79 06:37 27.03.2020
518 Clear 6 1026 76 0 7.54 79 05:38 27.03.2020
519 Clear 6 1026 76 0 7.61 78 02:52 27.03.2020
520 Clear 6 1027 75 0 6.97 83 01:54 27.03.2020
521 Clear 6 1027 75 0 6.72 77 00:56 27.03.2020
522 Clear 6 1027 75 0 6.72 77 00:37 27.03.2020
523 Clear 6 1027 75 0 6.72 77 00:18 27.03.2020
524 Clear 6 1027 75 0 6.72 77 00:18 27.03.2020
525 Clear 6 1027 75 0 6.72 77 23:36 26.03.2020
526 Clear 6 1028 71 0 7.67 91 23:18 26.03.2020
527 Clear 6 1028 71 0 7.67 91 22:54 26.03.2020
528 Clear 6 1028 71 0 7.67 91 22:36 26.03.2020
529 Clear 6 1028 71 0 7.67 91 22:18 26.03.2020
530 Clear 6 1028 71 0 7.67 91 21:39 26.03.2020
531 Clear 6 1028 71 0 7.67 91 21:21 26.03.2020
532 Clear 6 1028 71 0 7.67 91 20:58 26.03.2020
533 Clear 6 1028 71 0 7.67 91 20:58 26.03.2020
534 Clear 6 1028 71 0 7.67 91 20:39 26.03.2020
535 Clear 7 1027 70 0 7.01 74 20:20 26.03.2020
536 Clear 7 1027 70 0 7.01 74 19:57 26.03.2020
537 Clear 7 1027 70 0 7.01 74 19:39 26.03.2020
538 Clear 7 1027 70 0 7.01 74 19:20 26.03.2020
539 Clear 7 1027 70 0 7.01 74 18:58 26.03.2020
540 Clear 7 1027 70 0 7.01 74 18:39 26.03.2020
541 Clear 7 1027 70 0 7.01 74 18:21 26.03.2020
542 Clear 7 1027 70 0 7.01 74 17:44 26.03.2020
543 Clear 7 1027 63 0 5.13 80 17:19 26.03.2020
544 Clear 7 1027 63 0 5.13 80 16:55 26.03.2020
545 Clear 7 1027 63 0 5.13 80 16:55 26.03.2020
546 Clear 7 1027 63 0 5.13 80 16:37 26.03.2020
547 Clear 7 1027 63 0 5.13 80 16:18 26.03.2020
548 Clear 7 1027 63 0 5.13 80 15:41 26.03.2020
549 Clear 7 1027 63 0 5.13 80 15:22 26.03.2020
550 Clear 7 1027 63 0 5.13 80 14:59 26.03.2020
551 Clear 7 1027 63 0 5.13 80 14:41 26.03.2020
552 Clear 7 1027 63 0 5.13 80 14:23 26.03.2020
553 Clouds 6 1028 63 0 6.32 100 13:54 26.03.2020
554 Clouds 6 1028 63 0 6.32 100 13:36 26.03.2020
555 Clouds 6 1028 63 0 6.61 98 13:18 26.03.2020
556 Clouds 6 1028 63 0 6.61 98 12:38 26.03.2020
557 Clouds 6 1028 63 0 6.61 98 12:20 26.03.2020
558 Clouds 6 1028 63 0 6.61 98 11:46 26.03.2020
559 Clouds 5 1029 69 0 7.16 107 11:23 26.03.2020
560 Clouds 5 1029 69 0 7.16 107 10:57 26.03.2020
561 Clouds 5 1029 69 0 7.16 107 10:38 26.03.2020
562 Clouds 5 1029 69 0 7.16 107 10:19 26.03.2020
563 Clouds 5 1029 69 0 7.16 107 09:44 26.03.2020
564 Clouds 5 1029 69 0 7.16 107 09:21 26.03.2020
565 Clouds 5 1029 69 0 7.16 107 08:57 26.03.2020
566 Clouds 5 1029 69 0 7.16 107 08:38 26.03.2020
567 Clouds 4 1028 71 0 6.17 113 08:19 26.03.2020
568 Clouds 4 1028 71 0 6.17 113 07:44 26.03.2020
569 Clouds 4 1028 71 0 6.17 113 07:22 26.03.2020
570 Clouds 4 1028 71 0 6.17 113 06:57 26.03.2020
571 Clouds 4 1028 71 0 6.17 113 06:27 26.03.2020
572 Clouds 4 1028 71 0 6.17 113 05:22 26.03.2020
573 Clouds 5 1027 67 0 5.96 134 03:45 26.03.2020
574 Clouds 5 1027 67 0 5.96 134 02:56 26.03.2020
575 Clouds 6 1028 64 0 7.99 134 01:51 26.03.2020
576 Clouds 6 1029 63 0 8.15 138 00:56 26.03.2020
577 Clouds 6 1029 63 0 8.15 138 00:22 26.03.2020
578 Clouds 6 1029 63 0 8.15 138 23:41 25.03.2020
579 Clouds 6 1029 63 0 8.15 138 23:22 25.03.2020
580 Clouds 7 1029 63 0 8.01 128 22:42 25.03.2020
581 Clouds 7 1029 63 0 8.01 128 22:22 25.03.2020
582 Clouds 7 1029 63 0 8.01 128 21:57 25.03.2020
583 Clouds 7 1029 63 0 8.01 128 21:38 25.03.2020
584 Clouds 7 1029 63 0 8.01 128 21:20 25.03.2020
585 Clouds 7 1029 63 0 8.01 128 20:56 25.03.2020
586 Clouds 7 1029 63 0 8.01 128 20:37 25.03.2020
587 Clouds 7 1029 63 0 5.93 104 20:18 25.03.2020
588 Clouds 7 1029 63 0 5.93 104 20:18 25.03.2020
589 Clouds 7 1028 64 0 5.83 108 19:43 25.03.2020
590 Clouds 7 1029 63 0 5.53 103 19:24 25.03.2020
591 Clouds 7 1029 63 0 5.53 103 18:59 25.03.2020
592 Clouds 7 1028 64 0 5.83 108 18:40 25.03.2020
593 Clouds 7 1028 64 0 5.83 108 18:22 25.03.2020
594 Clouds 7 1028 64 0 5.83 108 17:57 25.03.2020
595 Clouds 7 1028 64 0 5.83 108 17:39 25.03.2020
596 Clouds 7 1028 64 0 5.83 108 17:21 25.03.2020
597 Clear 6 1029 63 0 4.4 105 16:55 25.03.2020
598 Clear 6 1029 63 0 4.4 105 16:36 25.03.2020
599 Clear 6 1029 63 0 4.4 105 16:18 25.03.2020
600 Clear 6 1029 63 0 4.4 105 15:41 25.03.2020
601 Clouds 6 1029 63 0 4.03 103 15:20 25.03.2020
602 Clear 6 1029 63 0 4.4 105 14:56 25.03.2020
603 Clear 6 1029 63 0 4.4 105 14:37 25.03.2020
604 Clear 5 1031 67 0 6.1 141 14:18 25.03.2020
605 Clear 5 1031 67 0 6.1 141 13:42 25.03.2020
606 Clear 5 1031 67 0 6.1 141 13:22 25.03.2020
607 Clouds 5 1030 67 0 5.84 143 12:38 25.03.2020
608 Clouds 5 1030 67 0 5.84 143 12:20 25.03.2020
609 Clouds 5 1030 67 0 5.84 143 11:56 25.03.2020
610 Clouds 5 1030 67 0 5.84 143 11:38 25.03.2020
611 Clouds 4 1031 72 0 6.96 149 11:20 25.03.2020
612 Clouds 4 1031 72 0 6.96 149 10:57 25.03.2020
613 Clouds 4 1031 72 0 6.96 149 10:39 25.03.2020
614 Clouds 4 1031 72 0 6.96 149 10:18 25.03.2020
615 Clouds 4 1031 72 0 6.96 149 09:43 25.03.2020
616 Clouds 4 1031 72 0 6.96 149 09:24 25.03.2020
617 Clouds 4 1031 72 0 6.96 149 08:57 25.03.2020
618 Clouds 4 1031 72 0 6.96 149 08:39 25.03.2020
619 Clouds 4 1031 71 0 7.46 172 08:19 25.03.2020
620 Clouds 4 1031 72 0 7.76 171 08:19 25.03.2020
621 Clouds 4 1031 72 0 7.76 171 07:41 25.03.2020
622 Clouds 4 1031 72 0 7.76 171 07:23 25.03.2020
623 Clouds 4 1031 72 0 7.76 171 06:50 25.03.2020
624 Clouds 4 1031 72 0 7.76 171 06:29 25.03.2020
625 Clouds 4 1031 72 0 7.76 171 05:58 25.03.2020
626 Clouds 4 1031 72 0 7.76 171 05:37 25.03.2020
627 Clouds 5 1031 68 0 9.36 173 04:41 25.03.2020
628 Clouds 5 1031 68 0 9.36 173 03:53 25.03.2020
629 Clouds 5 1031 68 0 9.36 173 03:29 25.03.2020
630 Clouds 5 1032 66 0 9.96 168 01:39 25.03.2020
631 Clouds 5 1032 67 0 9.68 171 00:50 25.03.2020
632 Clouds 5 1032 67 0 9.68 171 00:26 25.03.2020
633 Clouds 5 1032 67 0 9.68 171 23:53 24.03.2020
634 Clouds 5 1032 67 0 9.68 171 23:28 24.03.2020
635 Clouds 6 1032 64 0 10.09 165 22:58 24.03.2020
636 Clouds 6 1032 64 0 10.09 165 22:38 24.03.2020
637 Clouds 6 1032 64 0 10.09 165 22:20 24.03.2020
638 Clouds 6 1032 64 0 10.09 165 22:20 24.03.2020
639 Clouds 6 1032 64 0 10.09 165 21:57 24.03.2020
640 Clouds 6 1032 64 0 10.09 165 21:39 24.03.2020
641 Clouds 6 1032 64 0 10.09 165 21:18 24.03.2020
642 Clouds 6 1032 64 0 10.09 165 20:57 24.03.2020
643 Clouds 6 1032 64 0 10.09 165 20:39 24.03.2020
644 Clouds 6 1032 64 0 10.09 165 20:21 24.03.2020
645 Clouds 7 1031 65 0 7.77 158 19:46 24.03.2020
646 Clouds 7 1031 65 0 7.77 158 19:20 24.03.2020
647 Clouds 7 1031 65 0 7.77 158 18:56 24.03.2020
648 Clouds 7 1031 65 0 7.77 158 18:38 24.03.2020
649 Clouds 7 1031 65 0 7.77 158 18:20 24.03.2020
650 Clouds 7 1031 65 0 7.77 158 17:56 24.03.2020
651 Clouds 7 1031 65 0 7.77 158 17:38 24.03.2020
652 Clear 7 1032 62 0 6.8 152 17:20 24.03.2020
653 Clouds 9 1032 23 10000 6.2 150 16:56 24.03.2020
654 Clouds 9 1032 23 10000 5.7 150 16:37 24.03.2020
655 Clouds 9 1032 23 10000 5.7 150 16:19 24.03.2020
656 Clouds 9 1032 23 10000 5.7 150 15:42 24.03.2020
657 Clouds 9 1033 24 10000 5.1 150 15:24 24.03.2020
658 Clouds 9 1033 24 10000 5.1 150 14:44 24.03.2020
659 Clouds 9 1033 24 10000 5.1 150 14:44 24.03.2020
660 Clouds 9 1033 24 10000 5.1 150 14:44 24.03.2020
661 Clear 71 1032 62 0 6.8 152 14:23 24.03.2020
662 Clouds 70 1033 64 0 8.58 164 13:59 24.03.2020
663 Clouds 70 1033 64 0 8.58 164 13:41 24.03.2020
664 Clouds 70 1033 64 0 8.51 166 13:22 24.03.2020
665 Clouds 70 1033 64 0 8.51 166 12:43 24.03.2020
666 Clouds 70 1033 64 0 8.51 166 12:25 24.03.2020
667 Clouds 70 1033 64 0 8.51 166 11:56 24.03.2020
668 Clouds 70 1033 64 0 8.51 166 11:37 24.03.2020
669 Clouds 6 1035 33 10000 6.2 180 11:18 24.03.2020
670 Clouds 6 1035 33 10000 6.2 180 10:41 24.03.2020
671 Clouds 4 1035 35 10000 5.1 170 10:19 24.03.2020
672 Clouds 4 1035 35 10000 5.1 170 09:48 24.03.2020
673 Clouds 2 1034 40 10000 4.1 160 09:27 24.03.2020
674 Clouds 2 1034 40 10000 4.1 160 08:58 24.03.2020
675 Clouds 2 1034 40 10000 4.1 160 08:38 24.03.2020
676 Clouds 0 1034 57 10000 3.6 140 08:20 24.03.2020
677 Clouds 0 1034 57 10000 3.6 140 07:45 24.03.2020
678 Clouds -1 1035 54 10000 3.6 130 07:22 24.03.2020
679 Clouds -1 1035 54 10000 3.6 130 06:42 24.03.2020
680 Clouds -2 1035 54 10000 2.6 120 06:23 24.03.2020
681 Clouds -1 1035 50 10000 2.6 140 04:57 24.03.2020
682 Clouds 0 1035 55 10000 3.1 160 03:46 24.03.2020
683 Clouds 1 1034 43 10000 4.1 150 02:45 24.03.2020
684 Clouds 1 1035 43 10000 3.6 150 01:42 24.03.2020
685 Clouds 1 1035 47 10000 2.6 140 00:44 24.03.2020
686 Clouds 1 1035 47 10000 2.6 140 00:23 24.03.2020
687 Clouds 1 1035 47 10000 2.6 140 23:44 23.03.2020
688 Clouds 1 1035 47 10000 3.1 140 23:26 23.03.2020
689 Clouds 1 1035 47 10000 3.1 140 22:55 23.03.2020
690 Clouds 1 1035 47 10000 3.1 140 22:36 23.03.2020
691 Clouds 2 1036 43 10000 3.1 130 22:18 23.03.2020
692 Clouds 2 1036 43 10000 3.1 130 21:42 23.03.2020
693 Clouds 3 1035 40 10000 3.1 130 21:20 23.03.2020
694 Clouds 3 1035 40 10000 3.1 130 20:57 23.03.2020
695 Clouds 3 1035 40 10000 3.1 130 20:39 23.03.2020
696 Clouds 4 1036 35 10000 2.1 110 20:19 23.03.2020
697 Clouds 4 1036 35 10000 2.1 110 19:45 23.03.2020
698 Clouds 6 1035 28 10000 3.1 140 19:27 23.03.2020
699 Clouds 6 1035 28 10000 3.1 140 18:59 23.03.2020
700 Clouds 7 1035 22 10000 5.1 130 18:40 23.03.2020
701 Clouds 7 1035 22 10000 5.1 130 18:21 23.03.2020
702 Clear 7 1035 22 10000 4.6 140 17:43 23.03.2020
703 Clear 7 1035 22 10000 4.6 140 17:21 23.03.2020
704 Clear 7 1035 22 10000 4.6 140 16:59 23.03.2020
705 Clear 7 1035 22 10000 4.6 140 16:39 23.03.2020
706 Clouds 7 1036 22 10000 5.7 130 16:20 23.03.2020
707 Clouds 7 1036 22 10000 5.7 130 15:42 23.03.2020
708 Clouds 7 1036 24 10000 6.7 130 15:20 23.03.2020
709 Clouds 7 1036 24 10000 6.7 130 14:55 23.03.2020
710 Clouds 7 1036 24 10000 6.7 130 14:36 23.03.2020
711 Clouds 6 1037 26 10000 5.7 140 14:18 23.03.2020
712 Clouds 6 1037 26 10000 5.7 140 13:40 23.03.2020
713 Clouds 6 1037 26 10000 6.2 150 13:21 23.03.2020
714 Clouds 6 1037 26 10000 6.2 150 12:46 23.03.2020
715 Clear 5 1037 27 10000 6.7 140 12:26 23.03.2020
716 Clear 5 1037 27 10000 6.7 140 11:59 23.03.2020
717 Clear 4 1038 27 10000 8.2 150 11:40 23.03.2020
718 Clear 4 1038 27 10000 8.2 150 11:20 23.03.2020
719 Clear 4 1038 27 10000 8.2 150 10:58 23.03.2020
720 Clear 2 1038 40 10000 4.1 140 10:39 23.03.2020
721 Clear 2 1038 40 10000 4.1 140 10:21 23.03.2020
722 Clear 2 1038 40 10000 4.1 140 09:46 23.03.2020
723 Clear 0 1038 53 10000 3.1 130 09:21 23.03.2020
724 Clear 0 1038 53 10000 3.1 130 08:58 23.03.2020
725 Clear -2 1038 54 10000 3.1 120 08:36 23.03.2020
726 Clear -2 1038 54 10000 3.1 120 08:18 23.03.2020
727 Clear -2 1038 54 10000 3.1 120 07:47 23.03.2020
728 Clouds -3 1038 58 10000 2.6 120 07:29 23.03.2020
729 Clouds -3 1038 58 10000 2.6 120 06:52 23.03.2020
730 Clear -3 1038 63 10000 2.1 110 05:55 23.03.2020
731 Clear -2 1037 58 10000 2.6 110 05:29 23.03.2020
732 Clear -2 1037 63 10000 2.6 110 03:41 23.03.2020
733 Clear -1 1037 58 10000 3.1 110 02:29 23.03.2020
734 Clear -1 1037 58 10000 2.1 100 01:34 23.03.2020
735 Clear -1 1037 58 10000 2.1 100 01:34 23.03.2020
736 Clear -1 1037 58 10000 2.1 100 00:40 23.03.2020
737 Clear 0 1037 54 10000 2.6 90 23:53 22.03.2020
738 Clear 1 1037 55 10000 2.1 110 23:26 22.03.2020
739 Clear 1 1037 55 10000 2.1 110 23:26 22.03.2020
740 Clear 1 1037 55 10000 2.1 110 22:56 22.03.2020
741 Clear 1 1037 64 10000 2.1 90 22:36 22.03.2020
742 Clear 1 1037 64 10000 2.1 90 22:18 22.03.2020
743 Clear 1 1037 64 10000 2.1 90 21:39 22.03.2020
744 Clouds 1 1037 59 10000 2.1 80 21:20 22.03.2020
745 Clouds 1 1037 59 10000 2.1 80 20:56 22.03.2020
746 Clouds 1 1037 59 10000 2.1 80 20:38 22.03.2020
747 Clouds 4 1036 48 10000 3.1 100 20:20 22.03.2020
748 Clouds 4 1036 48 10000 3.1 100 19:55 22.03.2020
749 Clouds 4 1036 48 10000 3.1 100 19:37 22.03.2020
750 Clouds 5 1036 41 10000 4.1 110 19:18 22.03.2020
751 Clouds 5 1036 41 10000 4.1 110 18:55 22.03.2020
752 Clouds 5 1036 41 10000 4.1 110 18:37 22.03.2020
753 Clouds 6 1035 38 10000 5.7 110 18:18 22.03.2020
754 Clouds 6 1035 38 10000 5.7 110 17:55 22.03.2020
755 Clouds 6 1035 38 10000 5.7 110 17:36 22.03.2020
756 Clouds 7 1035 36 10000 6.2 120 17:18 22.03.2020
757 Clouds 7 1035 36 10000 6.2 120 16:41 22.03.2020
758 Clouds 7 1036 36 10000 5.1 110 16:22 22.03.2020
759 Clouds 7 1036 36 10000 5.1 110 15:59 22.03.2020
760 Clouds 7 1036 36 10000 5.1 110 15:39 22.03.2020
761 Clouds 6 1036 35 10000 6.2 110 14:47 22.03.2020
762 Clouds 6 1036 41 10000 6.2 120 14:20 22.03.2020
763 Clouds 6 1036 41 10000 6.2 120 13:58 22.03.2020
764 Clouds 6 1036 41 10000 6.2 120 13:58 22.03.2020
765 Clouds 6 1036 41 10000 6.2 120 13:40 22.03.2020
766 Clouds 5 1037 44 10000 6.7 110 13:19 22.03.2020
767 Clouds 5 1037 44 10000 6.7 110 12:47 22.03.2020
768 Clouds 5 1037 44 10000 6.7 100 12:23 22.03.2020
769 Clouds 5 1037 44 10000 6.7 100 11:58 22.03.2020
770 Clouds 5 1037 44 10000 6.7 100 11:39 22.03.2020
771 Clouds 4 1037 44 10000 7.2 110 11:21 22.03.2020
772 Clouds 4 1037 44 10000 7.2 110 10:44 22.03.2020
773 Clouds 3 1037 55 10000 4.6 100 10:24 22.03.2020
774 Clouds 3 1037 55 10000 4.6 100 10:24 22.03.2020
775 Clouds 3 1037 55 10000 4.6 100 10:00 22.03.2020
776 Clouds 3 1037 55 10000 4.6 100 09:40 22.03.2020
777 Clear 1 1037 64 10000 3.6 100 09:19 22.03.2020
778 Clear 1 1037 64 10000 3.6 100 08:42 22.03.2020
779 Clouds -1 1037 68 10000 2.1 90 08:24 22.03.2020
780 Clouds -1 1037 68 10000 2.1 90 07:50 22.03.2020
781 Clouds -2 1036 74 10000 2.6 90 07:23 22.03.2020
782 Clouds -2 1035 74 10000 2.6 90 06:35 22.03.2020
783 Clear -3 1035 79 10000 1 90 05:31 22.03.2020
784 Clear -2 1034 68 10000 2.1 90 03:30 22.03.2020
785 Clear 0 1034 55 10000 2.6 100 01:27 22.03.2020
786 Clear 0 1034 55 10000 2.6 100 00:48 22.03.2020
787 Clear 0 1035 55 10000 2.6 80 00:28 22.03.2020
788 Clear 0 1035 55 10000 2.6 80 23:43 21.03.2020
789 Clear 0 1034 54 10000 2.6 80 23:19 21.03.2020
790 Clear 0 1034 54 10000 2.6 80 22:55 21.03.2020
791 Clear 0 1034 54 10000 2.6 80 22:37 21.03.2020
792 Clear 1 1034 59 10000 4.1 80 22:18 21.03.2020
793 Clear 1 1034 59 10000 4.1 80 21:56 21.03.2020
794 Clear 1 1034 59 10000 4.1 80 21:37 21.03.2020
795 Clear 2 1034 59 10000 4.6 80 21:18 21.03.2020
796 Clear 2 1034 59 10000 4.6 80 20:41 21.03.2020
797 Clear 2 1033 55 10000 4.1 70 20:20 21.03.2020
798 Clear 2 1033 55 10000 4.1 70 19:44 21.03.2020
799 Clouds 5 1033 44 10000 6.2 80 19:25 21.03.2020
800 Clouds 5 1033 44 10000 6.2 80 18:59 21.03.2020
801 Clouds 5 1033 44 10000 6.2 80 18:40 21.03.2020
802 Clouds 6 1032 41 10000 7.2 90 18:20 21.03.2020
803 Clouds 6 1032 41 10000 7.2 90 17:57 21.03.2020
804 Clouds 6 1033 41 10000 8.2 80 17:39 21.03.2020
805 Clouds 6 1033 41 10000 8.2 80 17:21 21.03.2020
806 Clouds 6 1033 41 10000 8.2 80 16:41 21.03.2020
807 Clouds 6 1033 33 10000 8.7 90 16:22 21.03.2020
808 Clouds 6 1033 33 10000 8.7 90 15:58 21.03.2020
809 Clouds 6 1033 33 10000 8.7 90 15:39 21.03.2020
810 Clouds 7 1033 39 10000 7.7 90 15:21 21.03.2020
811 Clouds 7 1033 39 10000 7.7 90 14:55 21.03.2020
812 Clouds 7 1033 39 10000 7.7 90 14:37 21.03.2020
813 Clouds 6 1033 52 10000 9.3 70 14:19 21.03.2020
814 Clouds 6 1033 52 10000 9.3 70 13:57 21.03.2020
815 Clouds 6 1033 52 10000 9.3 70 13:38 21.03.2020
816 Clouds 5 1034 52 10000 9.8 80 13:20 21.03.2020
817 Clouds 5 1034 52 10000 9.8 80 12:41 21.03.2020
818 Clouds 5 1034 52 10000 7.2 90 12:21 21.03.2020
819 Clouds 5 1034 52 10000 7.2 90 11:59 21.03.2020
820 Clouds 5 1034 60 10000 7.2 90 11:39 21.03.2020
821 Clouds 5 1034 60 10000 7.2 90 11:39 21.03.2020
822 Clouds 5 1034 60 10000 7.2 90 11:20 21.03.2020
823 Clouds 4 1034 69 10000 7.7 80 10:58 21.03.2020
824 Clouds 4 1034 69 10000 7.7 80 10:40 21.03.2020
825 Clouds 4 1034 69 10000 8.7 80 10:22 21.03.2020
826 Clouds 4 1034 69 10000 8.7 80 09:59 21.03.2020
827 Clouds 4 1034 69 10000 8.7 80 09:39 21.03.2020
828 Clouds 3 1033 69 10000 7.2 60 09:20 21.03.2020
829 Clouds 3 1033 69 10000 7.2 60 08:55 21.03.2020
830 Clouds 3 1033 69 10000 7.2 60 08:37 21.03.2020
831 Clouds 1 1033 74 10000 5.7 50 08:19 21.03.2020
832 Clouds 1 1033 74 10000 5.7 50 07:37 21.03.2020
833 Clouds 0 1032 69 10000 6.2 50 07:19 21.03.2020
834 Clouds 0 1032 69 10000 6.2 50 06:44 21.03.2020
835 Clouds 0 1032 69 10000 5.1 40 06:24 21.03.2020
836 Clear 0 1032 69 10000 5.1 40 05:40 21.03.2020
837 Clear 0 1032 61 10000 5.1 40 04:26 21.03.2020
838 Clear 1 1032 74 10000 6.2 40 02:37 21.03.2020
839 Clear 2 1032 69 10000 5.7 40 01:49 21.03.2020
840 Clear 2 1032 64 10000 6.2 50 01:26 21.03.2020
841 Clear 2 1032 64 10000 6.2 50 00:43 21.03.2020
842 Clear 3 1032 59 10000 5.7 40 00:23 21.03.2020
843 Clear 3 1032 59 10000 5.7 40 23:44 20.03.2020
844 Clear 4 1031 48 10000 7.2 40 23:22 20.03.2020
845 Clear 4 1031 48 10000 7.2 40 22:44 20.03.2020
846 Clear 4 1031 48 10000 7.2 40 22:44 20.03.2020
847 Clear 4 1031 51 10000 6.2 50 22:25 20.03.2020
848 Clear 4 1031 51 10000 6.2 50 21:59 20.03.2020
849 Clear 4 1031 51 10000 6.2 50 21:40 20.03.2020
850 Clouds 5 1030 60 10000 6.7 50 21:20 20.03.2020
851 Clouds 5 1030 60 10000 6.7 50 20:59 20.03.2020
852 Clouds 5 1030 60 10000 6.7 50 20:41 20.03.2020
853 Clouds 6 1029 70 10000 6.2 60 20:20 20.03.2020
854 Clouds 6 1029 70 10000 6.2 60 19:48 20.03.2020
855 Clouds 7 1029 70 10000 2.6 20 19:22 20.03.2020
856 Clouds 7 1029 70 10000 2.6 20 19:22 20.03.2020
857 Clouds 7 1029 70 10000 2.6 20 18:58 20.03.2020
858 Clouds 7 1029 70 10000 2.6 20 18:39 20.03.2020
859 Clouds 8 1028 70 10000 4.1 10 18:20 20.03.2020
860 Clouds 8 1028 70 10000 4.1 10 17:56 20.03.2020
861 Clouds 8 1028 70 10000 5.1 360 17:38 20.03.2020
862 Clouds 8 1028 70 10000 5.1 360 17:19 20.03.2020
863 Clouds 8 1028 70 10000 5.1 360 16:42 20.03.2020
864 Clouds 8 1028 65 10000 5.1 360 16:21 20.03.2020
865 Clouds 7 1028 70 10000 4.1 360 15:58 20.03.2020
866 Clouds 7 1028 70 10000 4.1 360 15:39 20.03.2020
867 Clouds 8 1028 65 10000 5.1 350 15:20 20.03.2020
868 Clouds 8 1028 65 10000 5.1 350 14:42 20.03.2020
869 Clouds 7 1028 70 10000 4.6 360 14:21 20.03.2020
870 Clouds 7 1028 70 10000 4.6 360 14:21 20.03.2020
871 Clouds 7 1028 70 10000 4.6 360 13:50 20.03.2020
872 Clouds 7 1028 65 10000 5.1 20 13:26 20.03.2020
873 Clouds 7 1028 65 10000 5.1 20 12:59 20.03.2020
874 Clouds 7 1028 65 10000 5.1 20 12:38 20.03.2020
875 Clouds 7 1028 75 10000 5.7 20 12:20 20.03.2020
876 Clouds 7 1028 75 10000 4.6 30 11:41 20.03.2020
877 Clouds 7 1028 75 10000 4.6 30 11:21 20.03.2020
878 Clouds 7 1028 75 10000 4.6 30 10:58 20.03.2020
879 Clouds 7 1028 75 10000 4.6 30 10:40 20.03.2020
880 Clouds 7 1028 81 10000 4.6 30 10:18 20.03.2020
881 Clouds 7 1028 81 10000 4.6 30 09:47 20.03.2020
882 Clouds 6 1028 87 10000 2.6 20 09:21 20.03.2020
883 Clouds 6 1028 87 10000 2.6 20 08:59 20.03.2020
884 Clouds 6 1028 87 10000 2.6 20 08:40 20.03.2020
885 Clouds 5 1027 86 10000 2.1 30 08:19 20.03.2020
886 Clouds 5 1027 86 10000 2.1 30 07:45 20.03.2020
887 Clouds 5 1027 86 10000 2.6 30 07:26 20.03.2020
888 Clouds 5 1027 86 10000 2.6 30 06:47 20.03.2020
889 Clouds 5 1027 86 10000 2.6 20 06:29 20.03.2020
890 Clouds 5 1027 86 10000 2.6 30 04:49 20.03.2020
891 Clouds 5 1027 86 10000 2.1 20 03:18 20.03.2020
892 Clouds 5 1027 86 10000 2.1 30 01:51 20.03.2020
893 Clouds 5 1027 86 10000 1.5 30 00:46 20.03.2020
894 Clouds 6 1027 81 10000 2.6 10 00:25 20.03.2020
895 Clouds 6 1027 81 10000 2.6 360 23:44 19.03.2020
896 Clouds 6 1027 81 10000 2.6 360 23:25 19.03.2020
897 Clouds 6 1027 81 10000 2.6 360 22:56 19.03.2020
898 Clouds 6 1027 81 10000 2.6 360 22:37 19.03.2020
899 Clouds 6 1027 81 10000 1.5 350 22:18 19.03.2020
900 Clouds 6 1027 81 10000 1.5 350 21:41 19.03.2020
901 Clouds 6 1027 81 10000 2.1 360 21:20 19.03.2020
902 Clouds 6 1027 81 10000 2.1 10 20:58 19.03.2020
903 Clouds 6 1027 81 10000 2.1 10 20:39 19.03.2020
904 Clouds 6 1027 81 10000 2.6 360 20:20 19.03.2020
905 Clouds 6 1027 81 10000 2.6 360 19:55 19.03.2020
906 Clouds 6 1027 81 10000 2.6 360 19:37 19.03.2020
907 Clouds 7 1027 75 10000 2.6 360 19:19 19.03.2020
908 Clouds 7 1027 75 10000 2.6 360 18:42 19.03.2020
909 Clouds 7 1027 70 10000 4.1 350 18:22 19.03.2020
910 Clouds 7 1027 70 10000 4.1 350 18:22 19.03.2020
911 Clouds 7 1027 70 10000 4.1 350 17:58 19.03.2020
912 Clouds 8 1026 86 10000 3.6 350 17:40 19.03.2020
913 Clouds 8 1026 82 10000 3.6 350 17:19 19.03.2020
914 Clouds 8 1026 82 10000 3.6 350 16:43 19.03.2020
915 Clouds 9 1026 82 10000 3.6 350 16:23 19.03.2020
916 Clouds 9 1026 82 10000 3.6 350 15:45 19.03.2020
917 Clouds 9 1027 82 10000 3.6 330 15:27 19.03.2020
918 Clouds 9 1027 82 10000 3.6 330 14:55 19.03.2020
919 Clouds 9 1027 82 10000 3.6 330 14:37 19.03.2020
920 Clouds 9 1027 66 10000 3.6 290 14:19 19.03.2020
921 Clouds 9 1027 66 10000 3.6 290 14:19 19.03.2020
922 Clouds 9 1027 66 10000 3.6 290 13:40 19.03.2020
923 Clouds 9 1027 61 10000 2.6 320 13:19 19.03.2020
924 Clouds 9 1027 61 10000 2.6 320 12:55 19.03.2020
925 Clouds 8 1027 75 10000 2.1 320 12:37 19.03.2020
926 Clouds 8 1027 75 10000 2.1 320 12:19 19.03.2020
927 Clouds 7 1026 81 10000 2.1 330 11:41 19.03.2020
928 Clouds 7 1026 81 10000 2.1 330 11:23 19.03.2020
929 Clouds 7 1026 81 10000 2.1 330 11:23 19.03.2020
930 Clouds 7 1026 81 10000 2.1 330 10:56 19.03.2020
931 Clouds 6 1026 87 10000 1 360 10:36 19.03.2020
932 Clouds 6 1026 87 10000 1 360 10:18 19.03.2020
933 Clouds 6 1026 87 10000 1 360 09:44 19.03.2020
934 Clouds 6 1026 87 10000 1 310 09:26 19.03.2020
935 Clouds 6 1026 87 10000 1 310 08:57 19.03.2020
936 Clouds 6 1026 87 10000 1 310 08:37 19.03.2020
937 Clouds 5 1025 100 10000 0.5 0 08:18 19.03.2020
938 Clouds 5 1025 100 10000 0.5 0 07:42 19.03.2020
939 Clouds 5 1025 93 10000 0.5 10 07:22 19.03.2020
940 Drizzle 5 1025 100 10000 1.5 360 06:29 19.03.2020
941 Drizzle 6 1024 93 3000 2.6 360 05:25 19.03.2020
942 Drizzle 6 1024 93 3000 2.6 360 04:51 19.03.2020
943 Drizzle 6 1024 93 4000 2.6 360 04:22 19.03.2020
944 Drizzle 6 1023 93 5000 2.6 340 02:34 19.03.2020
945 Drizzle 6 1023 100 2500 1.5 10 00:55 19.03.2020
946 Drizzle 6 1023 100 2000 1 20 00:20 19.03.2020
947 Drizzle 6 1023 100 2000 1 20 23:45 18.03.2020
948 Drizzle 6 1023 100 4000 1.5 80 23:26 18.03.2020
949 Drizzle 6 1023 100 4000 1.5 80 23:26 18.03.2020
950 Drizzle 6 1023 100 4000 1.5 80 22:43 18.03.2020
951 Drizzle 6 1023 100 4000 2.6 20 22:24 18.03.2020
952 Drizzle 6 1023 100 4000 2.6 20 21:59 18.03.2020
953 Drizzle 6 1023 100 4000 2.6 20 21:41 18.03.2020
954 Drizzle 8 1023 93 3500 3.1 350 21:21 18.03.2020
955 Drizzle 8 1023 93 3500 3.1 350 20:57 18.03.2020
956 Drizzle 8 1023 93 3500 3.1 350 20:38 18.03.2020
957 Drizzle 9 1023 100 2500 4.6 250 20:19 18.03.2020
958 Drizzle 9 1023 100 2500 4.6 250 19:45 18.03.2020
959 Drizzle 10 1022 93 2500 4.6 250 19:21 18.03.2020
960 Drizzle 10 1022 93 2500 4.6 250 18:59 18.03.2020
961 Drizzle 10 1022 93 2500 4.6 250 18:40 18.03.2020
962 Drizzle 10 1022 93 3000 5.7 250 18:19 18.03.2020
963 Drizzle 10 1022 93 3000 5.7 250 17:57 18.03.2020
964 Drizzle 10 1022 93 3000 5.7 250 17:57 18.03.2020
965 Drizzle 10 1022 93 3000 6.7 250 17:39 18.03.2020
966 Drizzle 10 1022 93 3000 6.7 250 17:20 18.03.2020
967 Drizzle 10 1022 93 4000 5.7 250 16:54 18.03.2020
968 Drizzle 10 1022 93 4000 5.7 250 16:36 18.03.2020
969 Drizzle 10 1022 93 3500 5.7 250 16:18 18.03.2020
970 Drizzle 10 1022 93 3500 5.7 250 15:44 18.03.2020
971 Drizzle 10 1022 87 4000 6.2 240 15:20 18.03.2020
972 Drizzle 10 1022 87 6000 7.2 250 14:45 18.03.2020
973 Clouds 11 1022 76 10000 6.2 240 14:21 18.03.2020
974 Clouds 11 1022 76 10000 6.2 240 13:56 18.03.2020
975 Clouds 11 1022 76 10000 6.2 240 13:36 18.03.2020
976 Clouds 10 1023 76 10000 5.7 240 13:18 18.03.2020
977 Clouds 10 1023 76 10000 6.7 250 12:41 18.03.2020
978 Clouds 10 1023 76 10000 6.7 250 12:19 18.03.2020
979 Clouds 9 1023 66 10000 5.1 240 11:39 18.03.2020
980 Clouds 9 1023 66 10000 5.1 240 11:21 18.03.2020
981 Clouds 9 1023 66 10000 5.1 240 10:58 18.03.2020
982 Clouds 9 1023 66 10000 5.1 240 10:39 18.03.2020
983 Clouds 8 1022 65 10000 5.1 230 10:20 18.03.2020
984 Clouds 8 1022 65 10000 5.1 230 09:44 18.03.2020
985 Clouds 8 1022 61 10000 6.2 230 09:26 18.03.2020
986 Clouds 8 1022 61 10000 6.2 230 08:58 18.03.2020
987 Clouds 8 1022 61 10000 6.2 230 08:39 18.03.2020
988 Clouds 8 1021 61 10000 5.7 220 08:21 18.03.2020
989 Clouds 8 1021 61 10000 5.7 220 07:49 18.03.2020
990 Clouds 7 1022 65 10000 5.7 220 07:30 18.03.2020
991 Clouds 7 1022 65 10000 5.7 220 06:45 18.03.2020
992 Clouds 7 1022 65 10000 6.2 220 06:23 18.03.2020
993 Clouds 7 1023 85 10000 5.7 220 05:35 18.03.2020
994 Clouds 7 1022 65 10000 5.7 220 04:27 18.03.2020
995 Clouds 7 1023 65 10000 5.7 220 02:49 18.03.2020
996 Clouds 8 1024 61 10000 6.2 220 01:48 18.03.2020
997 Clouds 8 1024 61 10000 6.2 220 01:27 18.03.2020
998 Clouds 8 1024 61 10000 6.2 220 00:26 18.03.2020
999 Clouds 8 1025 65 10000 5.1 220 23:57 17.03.2020
1000 Clouds 8 1025 65 10000 5.1 220 23:37 17.03.2020
1001 Clouds 9 1025 66 10000 4.6 220 23:18 17.03.2020
1002 Clouds 10 1026 61 10000 4.1 220 22:41 17.03.2020
1003 Clouds 10 1026 61 10000 4.1 220 22:22 17.03.2020
1004 Clouds 10 1026 61 10000 4.1 220 21:42 17.03.2020
1005 Clouds 10 1026 61 10000 3.1 230 21:22 17.03.2020
1006 Clouds 10 1026 61 10000 3.1 230 20:56 17.03.2020
1007 Clouds 10 1026 61 10000 3.1 230 20:37 17.03.2020
1008 Clouds 10 1026 66 10000 3.6 230 20:18 17.03.2020
1009 Clouds 10 1026 66 10000 3.6 230 19:41 17.03.2020
1010 Clouds 10 1026 71 10000 3.1 240 19:18 17.03.2020
1011 Clouds 10 1026 71 10000 3.1 240 18:56 17.03.2020
1012 Clouds 11 1026 62 10000 4.1 250 18:38 17.03.2020
1013 Clouds 11 1026 62 10000 4.1 250 18:20 17.03.2020
1014 Clouds 11 1026 62 10000 4.1 250 17:41 17.03.2020
1015 Clouds 10 1026 71 10000 4.1 250 17:22 17.03.2020
1016 Clouds 10 1026 71 10000 4.1 250 16:57 17.03.2020
1017 Clouds 10 1026 71 10000 4.1 250 16:39 17.03.2020
1018 Rain 11 1026 57 10000 7.7 250 16:18 17.03.2020
1019 Rain 11 1026 57 10000 7.7 250 15:44 17.03.2020
1020 Clouds 11 1026 62 10000 6.2 250 15:22 17.03.2020
1021 Clouds 11 1026 62 10000 6.2 250 14:44 17.03.2020
1022 Clouds 10 1026 61 10000 6.2 250 14:24 17.03.2020
1023 Clouds 10 1026 61 10000 6.2 250 13:57 17.03.2020
1024 Clouds 10 1026 61 10000 6.2 250 13:39 17.03.2020
1025 Clouds 10 1026 66 10000 5.7 240 13:21 17.03.2020
1026 Clouds 10 1026 66 10000 5.7 240 13:21 17.03.2020
1027 Clouds 10 1026 66 10000 5.7 240 12:43 17.03.2020
1028 Clouds 9 1026 66 10000 7.2 240 12:24 17.03.2020
1029 Clouds 9 1026 66 10000 7.2 240 11:48 17.03.2020
1030 Clouds 8 1026 75 10000 6.2 230 11:29 17.03.2020
1031 Clouds 8 1026 75 10000 6.2 230 10:58 17.03.2020
1032 Clouds 8 1026 75 10000 6.2 230 10:58 17.03.2020
1033 Clouds 8 1026 75 10000 6.2 230 10:40 17.03.2020
1034 Clouds 6 1026 87 10000 5.1 220 10:22 17.03.2020
1035 Clouds 6 1026 87 10000 5.1 220 09:59 17.03.2020
1036 Clouds 6 1026 87 10000 5.1 220 09:41 17.03.2020
1037 Clouds 6 1026 87 8000 5.1 220 09:20 17.03.2020
1038 Clouds 5 1026 93 7000 4.1 220 08:50 17.03.2020
1039 Clouds 4 1025 93 6000 3.6 220 08:23 17.03.2020
1040 Clouds 4 1025 93 6000 3.6 220 07:57 17.03.2020
1041 Clouds 4 1025 93 6000 3.6 220 07:38 17.03.2020
1042 Clouds 3 1025 93 7000 3.6 220 07:19 17.03.2020
1043 Clouds 4 1024 93 10000 3.1 210 06:39 17.03.2020
1044 Clouds 4 1024 93 10000 3.1 210 05:58 17.03.2020
1045 Clouds 3 1024 93 10000 2.6 210 03:58 17.03.2020
1046 Clouds 3 1024 93 10000 2.6 210 03:58 17.03.2020
1047 Clouds 4 1024 93 10000 2.6 190 02:56 17.03.2020
1048 Clouds 3 1024 93 10000 2.1 200 01:49 17.03.2020
1049 Clouds 4 1024 93 10000 2.6 210 01:25 17.03.2020
1050 Clouds 4 1024 93 10000 2.6 210 00:47 17.03.2020
1051 Clouds 3 1024 93 10000 2.1 220 23:50 16.03.2020
1052 Fog 3 1023 93 10000 1 160 23:32 16.03.2020
1053 Fog 3 1023 93 10000 1 160 22:43 16.03.2020
1054 Fog 3 1023 93 10000 0.5 170 22:25 16.03.2020
1055 Fog 3 1023 93 10000 0.5 170 21:59 16.03.2020
1056 Fog 3 1023 93 10000 0.5 170 21:40 16.03.2020
1057 Clouds 4 1023 86 10000 0.5 150 21:22 16.03.2020
1058 Clouds 4 1023 86 10000 0.5 150 20:56 16.03.2020
1059 Clouds 4 1023 86 10000 0.5 150 20:38 16.03.2020
1060 Clouds 5 1023 80 10000 3.38 266 20:19 16.03.2020
1061 Clouds 5 1023 80 10000 3.38 266 19:42 16.03.2020
1062 Clouds 6 1022 75 10000 2.1 310 19:22 16.03.2020
1063 Clouds 6 1022 75 10000 2.1 310 18:56 16.03.2020
1064 Clouds 8 1022 70 10000 4.1 320 18:37 16.03.2020
1065 Clouds 8 1022 70 10000 4.1 320 18:18 16.03.2020
1066 Clouds 8 1022 70 10000 4.1 320 17:42 16.03.2020
1067 Clouds 9 1021 70 10000 4.6 310 17:22 16.03.2020
1068 Clouds 9 1021 70 10000 4.6 310 16:46 16.03.2020
1069 Clouds 9 1021 66 10000 6.2 300 16:28 16.03.2020
1070 Clouds 9 1021 66 10000 6.2 300 15:57 16.03.2020
1071 Clouds 9 1021 66 10000 6.2 300 15:39 16.03.2020
1072 Clouds 9 1020 66 10000 6.2 290 15:19 16.03.2020
1073 Clouds 9 1020 66 10000 6.2 290 14:43 16.03.2020
1074 Clouds 9 1019 66 10000 6.7 300 14:19 16.03.2020
1075 Clouds 9 1019 66 10000 6.7 300 13:42 16.03.2020
1076 Clouds 9 1019 70 10000 6.2 300 13:24 16.03.2020
1077 Clouds 8 1019 81 10000 5.7 290 12:55 16.03.2020
1078 Clouds 8 1018 81 10000 7.2 290 12:36 16.03.2020
1079 Clouds 8 1018 81 10000 7.2 290 12:18 16.03.2020
1080 Clouds 8 1018 81 10000 7.2 290 11:41 16.03.2020
1081 Clouds 8 1018 87 10000 6.7 280 11:19 16.03.2020
1082 Clouds 8 1017 81 10000 5.1 270 10:43 16.03.2020
1083 Clouds 8 1016 81 10000 5.1 250 10:24 16.03.2020
1084 Clouds 8 1016 81 10000 5.1 250 09:46 16.03.2020
1085 Clouds 8 1015 81 10000 4.6 250 09:28 16.03.2020
1086 Clouds 8 1015 81 10000 4.6 250 08:58 16.03.2020
1087 Clouds 8 1014 81 10000 5.1 260 08:26 16.03.2020
1088 Clouds 8 1014 81 10000 5.1 260 07:54 16.03.2020
1089 Clouds 9 1013 76 10000 6.2 260 07:28 16.03.2020
1090 Clouds 9 1013 76 10000 6.2 260 06:54 16.03.2020
1091 Clouds 9 1013 76 10000 6.2 260 06:54 16.03.2020
1092 Clouds 8 1013 81 10000 4.1 260 06:27 16.03.2020
1093 Clouds 8 1013 81 10000 4.1 260 05:54 16.03.2020
1094 Clouds 9 1011 76 10000 3.1 210 02:46 16.03.2020
1095 Clouds 10 1011 71 10000 4.1 220 01:20 16.03.2020
1096 Clouds 10 1011 71 10000 4.1 220 00:42 16.03.2020
1097 Clouds 10 1011 66 10000 4.6 210 23:49 15.03.2020
1098 Clouds 10 1011 66 10000 4.1 230 23:21 15.03.2020
1099 Clouds 10 1011 66 10000 4.1 230 22:58 15.03.2020
1100 Clouds 10 1011 66 10000 4.1 230 22:37 15.03.2020
1101 Clouds 10 1011 66 10000 6.2 230 22:19 15.03.2020
1102 Clouds 10 1011 66 10000 6.2 230 21:39 15.03.2020
1103 Clouds 11 1011 66 10000 4.6 230 21:19 15.03.2020
1104 Clouds 11 1011 66 10000 4.6 230 20:43 15.03.2020
1105 Clouds 11 1011 66 10000 3.6 220 20:22 15.03.2020
1106 Clouds 11 1011 66 10000 3.6 220 19:59 15.03.2020
1107 Clouds 11 1011 66 10000 3.6 220 19:40 15.03.2020
1108 Clouds 11 1010 66 10000 4.1 220 19:22 15.03.2020
1109 Clouds 11 1010 66 10000 4.1 220 18:58 15.03.2020
1110 Clouds 12 1010 62 10000 4.6 220 18:39 15.03.2020
1111 Clouds 12 1010 62 10000 4.6 220 18:21 15.03.2020
1112 Clouds 12 1010 62 10000 4.6 220 17:54 15.03.2020
1113 Clouds 12 1010 62 10000 6.2 210 17:36 15.03.2020
1114 Clouds 12 1010 62 10000 6.2 210 17:18 15.03.2020
1115 Clouds 12 1010 62 10000 6.2 210 16:42 15.03.2020
1116 Clouds 13 1010 54 10000 5.7 210 16:23 15.03.2020
1117 Clouds 13 1010 54 10000 5.7 210 15:57 15.03.2020
1118 Clouds 13 1010 54 10000 5.7 210 15:38 15.03.2020
1119 Clouds 13 1010 54 10000 7.7 200 15:19 15.03.2020
1120 Clouds 13 1010 54 10000 7.7 200 14:43 15.03.2020
1121 Clouds 13 1011 54 10000 8.2 200 14:24 15.03.2020
1122 Clouds 13 1011 54 10000 8.2 200 13:57 15.03.2020
1123 Clouds 13 1011 54 10000 8.2 200 13:38 15.03.2020
1124 Clouds 11 1012 66 10000 6.2 190 13:19 15.03.2020
1125 Clouds 11 1012 66 10000 6.2 190 12:41 15.03.2020
1126 Clouds 10 1012 66 10000 7.2 200 12:23 15.03.2020
1127 Clouds 10 1012 66 10000 7.2 200 11:45 15.03.2020
1128 Clouds 9 1013 66 10000 7.2 200 11:26 15.03.2020
1129 Clouds 9 1013 66 10000 7.2 200 11:00 15.03.2020
1130 Clouds 9 1013 66 10000 7.2 200 10:41 15.03.2020
1131 Clouds 8 1013 70 10000 7.2 200 10:23 15.03.2020
1132 Clouds 8 1013 70 10000 7.2 200 09:59 15.03.2020
1133 Clouds 8 1013 70 10000 7.2 200 09:39 15.03.2020
1134 Clouds 8 1013 65 10000 6.7 200 09:20 15.03.2020
1135 Clouds 8 1013 65 10000 6.7 200 08:41 15.03.2020
1136 Clouds 7 1013 70 10000 6.2 200 08:20 15.03.2020
1137 Clouds 7 1013 70 10000 6.2 200 07:50 15.03.2020
1138 Clouds 7 1013 70 10000 5.7 190 07:23 15.03.2020
1139 Clouds 7 1013 70 10000 5.7 190 06:44 15.03.2020
1140 Clouds 6 1013 70 10000 5.1 170 05:49 15.03.2020
1141 Clouds 7 1014 81 10000 6.2 180 04:58 15.03.2020
1142 Clouds 6 1014 81 10000 6.2 180 04:40 15.03.2020
1143 Clouds 7 1015 81 10000 6.7 170 04:21 15.03.2020
1144 Clouds 7 1016 81 10000 6.7 170 03:25 15.03.2020
1145 Clouds 6 1016 81 10000 6.7 170 02:36 15.03.2020
1146 Clouds 6 1017 79 10000 6.7 160 01:20 15.03.2020
1147 Clouds 6 1017 79 10000 6.7 160 00:42 15.03.2020
1148 Clouds 6 1017 79 10000 6.7 160 00:21 15.03.2020
1149 Clouds 6 1017 79 10000 6.7 160 23:41 14.03.2020
1150 Clouds 6 1018 79 10000 6.2 150 23:21 14.03.2020
1151 Clouds 6 1018 79 10000 6.2 150 22:58 14.03.2020
1152 Clouds 6 1018 79 10000 6.2 150 22:40 14.03.2020
1153 Clouds 6 1019 79 10000 5.7 150 22:22 14.03.2020
1154 Clouds 6 1019 79 10000 5.7 150 21:56 14.03.2020
1155 Clouds 6 1019 79 10000 5.7 150 21:36 14.03.2020
1156 Clouds 6 1019 60 10000 4.1 140 21:18 14.03.2020
1157 Clouds 6 1019 60 10000 4.1 140 20:58 14.03.2020
1158 Clouds 6 1019 60 10000 4.1 140 20:40 14.03.2020
1159 Clouds 6 1019 60 10000 3.6 140 20:19 14.03.2020
1160 Clouds 7 1019 60 10000 3.6 140 19:43 14.03.2020
1161 Clouds 7 1019 56 10000 4.6 150 19:25 14.03.2020
1162 Clouds 8 1019 56 10000 4.6 150 18:41 14.03.2020
1163 Clouds 9 1020 52 10000 5.1 160 18:23 14.03.2020
1164 Clouds 9 1020 52 10000 5.1 160 17:56 14.03.2020
1165 Clouds 9 1020 49 10000 6.2 150 17:38 14.03.2020
1166 Clouds 9 1020 49 10000 6.2 150 17:20 14.03.2020
1167 Clouds 8 1020 49 10000 6.2 150 16:41 14.03.2020
1168 Clouds 9 1021 49 10000 5.7 160 16:23 14.03.2020
1169 Clouds 9 1021 49 10000 5.7 160 15:56 14.03.2020
1170 Clouds 9 1021 49 10000 4.6 150 15:26 14.03.2020
1171 Clouds 9 1021 49 10000 4.6 150 14:58 14.03.2020
1172 Clouds 8 1021 49 10000 4.6 150 14:36 14.03.2020
1173 Clouds 8 1022 52 10000 4.1 140 14:18 14.03.2020
1174 Clouds 7 1022 52 10000 4.1 140 13:42 14.03.2020
1175 Clouds 8 1022 52 10000 5.1 180 13:23 14.03.2020
1176 Clouds 7 1022 52 10000 5.1 180 12:47 14.03.2020
1177 Clouds 7 1022 56 10000 5.7 170 12:27 14.03.2020
1178 Clouds 7 1022 56 10000 5.7 170 11:59 14.03.2020
1179 Clouds 6 1023 60 10000 4.1 170 11:39 14.03.2020
1180 Clouds 6 1023 60 10000 4.1 170 11:20 14.03.2020
1181 Clouds 5 1023 64 10000 2.1 160 10:46 14.03.2020
1182 Clouds 5 1023 64 10000 2.1 160 10:27 14.03.2020
1183 Clouds 5 1023 64 10000 2.1 160 09:58 14.03.2020
1184 Clouds 4 1023 64 10000 2.1 160 09:39 14.03.2020
1185 Clouds 3 1022 80 10000 1 0 09:20 14.03.2020
1186 Clouds 1 1022 80 10000 1 0 08:45 14.03.2020
1187 Clouds 1 1022 80 10000 1 0 08:45 14.03.2020
1188 Clouds 0 1022 86 10000 1 150 08:23 14.03.2020
1189 Clouds -2 1022 86 10000 1 150 07:39 14.03.2020
1190 Clouds -2 1022 86 10000 1 150 07:39 14.03.2020
1191 Clouds 0 1021 61 10000 1 200 07:20 14.03.2020
1192 Clouds 1 1021 61 10000 1.5 200 06:41 14.03.2020
1193 Clouds 1 1021 61 10000 1.5 200 05:56 14.03.2020
1194 Clouds 1 1021 56 10000 1.5 200 04:52 14.03.2020
1195 Clouds 1 1021 56 10000 1 260 03:25 14.03.2020
1196 Clouds 2 1021 56 10000 1 270 02:35 14.03.2020
1197 Clouds 1 1021 56 10000 1 260 02:35 14.03.2020
1198 Clouds 1 1021 65 10000 1 270 01:39 14.03.2020
1199 Clouds 3 1020 80 10000 1.5 280 00:22 14.03.2020
1200 Clouds 3 1019 74 10000 2.6 320 23:38 13.03.2020
1201 Clouds 3 1019 74 10000 2.6 320 23:18 13.03.2020
1202 Clouds 3 1019 74 10000 2.6 320 22:41 13.03.2020
1203 Clouds 3 1019 69 10000 3.6 310 22:20 13.03.2020
1204 Clouds 3 1019 69 10000 3.6 310 21:40 13.03.2020
1205 Clouds 4 1018 64 10000 4.6 320 21:18 13.03.2020
1206 Clouds 4 1018 64 10000 5.7 320 20:42 13.03.2020
1207 Clouds 5 1017 64 10000 7.7 320 20:22 13.03.2020
1208 Clouds 5 1017 64 10000 7.7 320 19:55 13.03.2020
1209 Clouds 5 1017 64 10000 7.7 320 19:36 13.03.2020
1210 Clouds 5 1016 64 10000 8.7 320 19:18 13.03.2020
1211 Clouds 5 1016 64 10000 8.7 320 18:39 13.03.2020
1212 Clouds 6 1015 60 10000 9.3 310 18:21 13.03.2020
1213 Clouds 6 1015 60 10000 9.3 310 17:42 13.03.2020
1214 Clouds 7 1014 60 10000 11.3 310 17:21 13.03.2020
1215 Clouds 7 1014 60 10000 11.3 310 16:56 13.03.2020
1216 Clouds 7 1014 60 10000 11.3 310 16:38 13.03.2020
1217 Clouds 7 1013 60 10000 11.3 310 16:20 13.03.2020
1218 Clouds 6 1013 60 10000 11.3 310 15:43 13.03.2020
1219 Clouds 7 1012 68 10000 11.3 300 15:22 13.03.2020
1220 Clouds 7 1012 68 10000 11.3 300 14:56 13.03.2020
1221 Clouds 7 1012 68 10000 11.3 300 14:38 13.03.2020
1222 Rain 8 1010 75 9000 10.3 300 14:18 13.03.2020
1223 Rain 7 1010 75 9000 10.3 300 13:42 13.03.2020
1224 Clouds 8 1010 81 10000 11.3 300 13:22 13.03.2020
1225 Rain 8 1009 81 6000 9.8 300 12:58 13.03.2020
1226 Clouds 8 1007 75 10000 12.3 290 12:38 13.03.2020
1227 Clouds 8 1007 75 10000 12.3 290 12:19 13.03.2020
1228 Clouds 8 1007 75 10000 12.3 290 11:55 13.03.2020
1229 Clouds 7 1006 81 10000 10.3 300 11:36 13.03.2020
1230 Clouds 7 1006 81 10000 10.3 300 11:18 13.03.2020
1231 Clouds 6 1006 81 10000 10.3 300 10:46 13.03.2020
1232 Clouds 7 1003 87 9000 14.9 280 10:25 13.03.2020
1233 Clouds 6 1003 87 9000 14.9 280 09:48 13.03.2020
1234 Rain 6 1002 86 8000 11.3 250 09:28 13.03.2020
1235 Rain 6 1002 86 8000 11.3 250 08:59 13.03.2020
1236 Rain 6 1002 86 8000 11.3 250 08:38 13.03.2020
1237 Rain 5 1002 86 9000 7.7 240 08:20 13.03.2020
1238 Rain 4 1002 86 9000 7.7 240 07:44 13.03.2020
1239 Clouds 5 1002 75 10000 7.7 240 07:25 13.03.2020
1240 Clouds 5 1002 75 10000 7.7 240 06:46 13.03.2020
1241 Clouds 5 1002 80 10000 6.7 240 06:21 13.03.2020
1242 Clouds 5 1002 80 10000 6.7 240 05:45 13.03.2020
1243 Clouds 6 1003 75 10000 7.2 220 04:57 13.03.2020
1244 Clouds 6 1003 80 10000 7.7 220 04:25 13.03.2020
1245 Clouds 6 1004 75 10000 6.2 230 02:43 13.03.2020
1246 Clouds 6 1004 80 10000 6.7 230 01:37 13.03.2020
1247 Rain 5 1004 80 10000 6.2 220 01:18 13.03.2020
1248 Rain 5 1004 80 10000 6.2 220 00:41 13.03.2020
1249 Rain 5 1005 80 10000 6.7 220 00:19 13.03.2020
1250 Rain 5 1005 80 10000 6.7 220 00:19 13.03.2020
1251 Clouds 4 1005 80 10000 5.1 210 23:39 12.03.2020
1252 Clouds 4 1005 80 10000 5.1 210 23:19 12.03.2020
1253 Clouds 4 1005 80 10000 5.1 210 22:47 12.03.2020
1254 Clouds 4 1005 73 10000 5.1 230 22:28 12.03.2020
1255 Clouds 4 1005 73 10000 5.1 230 21:59 12.03.2020
1256 Clouds 4 1005 73 10000 5.1 230 21:40 12.03.2020
1257 Clouds 5 1005 73 10000 7.2 240 21:21 12.03.2020
1258 Clouds 5 1005 73 10000 7.2 240 20:42 12.03.2020
1259 Clouds 6 1005 70 10000 5.7 240 20:20 12.03.2020
1260 Clouds 6 1005 70 10000 5.7 240 20:20 12.03.2020
1261 Clouds 6 1005 70 10000 5.7 240 19:56 12.03.2020
1262 Clouds 6 1005 70 10000 5.7 240 19:37 12.03.2020
1263 Clouds 6 1005 70 10000 5.7 240 19:37 12.03.2020
1264 Clouds 7 1005 65 10000 5.7 240 19:19 12.03.2020
1265 Clouds 7 1005 65 10000 5.7 240 18:42 12.03.2020
1266 Clouds 8 1005 78 10000 8.2 260 18:22 12.03.2020
1267 Clouds 8 1005 78 10000 8.2 260 17:56 12.03.2020
1268 Clouds 8 1005 78 10000 10.8 260 17:37 12.03.2020
1269 Clouds 8 1005 70 10000 10.8 260 17:18 12.03.2020
1270 Clouds 8 1005 70 10000 10.8 260 16:43 12.03.2020
1271 Clouds 8 1005 56 10000 11.8 260 16:23 12.03.2020
1272 Clouds 8 1005 56 10000 11.8 260 15:59 12.03.2020
1273 Clouds 8 1005 56 10000 11.8 260 15:39 12.03.2020
1274 Clouds 8 1005 56 10000 13.4 270 15:21 12.03.2020
1275 Clouds 7 1005 56 10000 13.4 270 14:38 12.03.2020
1276 Clouds 7 1004 56 10000 12.9 270 14:19 12.03.2020
1277 Clouds 7 1004 56 10000 12.9 270 13:40 12.03.2020
1278 Clouds 7 1004 60 10000 14.4 270 13:21 12.03.2020
1279 Clouds 7 1004 60 10000 14.4 270 13:21 12.03.2020
1280 Clouds 7 1004 60 10000 14.4 270 12:55 12.03.2020
1281 Clouds 7 1002 64 10000 14.9 280 12:37 12.03.2020
1282 Clouds 7 1002 64 10000 14.9 280 12:18 12.03.2020
1283 Clouds 7 1002 64 10000 14.9 280 11:56 12.03.2020
1284 Clouds 7 1001 70 10000 11.3 270 11:37 12.03.2020
1285 Clouds 7 1001 70 10000 11.3 270 11:19 12.03.2020
1286 Clouds 6 1001 75 10000 13.4 260 10:55 12.03.2020
1287 Clouds 5 1001 75 10000 13.4 260 10:37 12.03.2020
1288 Rain 5 1001 75 7000 14.4 260 10:18 12.03.2020
1289 Clouds 6 1000 70 10000 13.9 260 09:42 12.03.2020
1290 Clouds 7 999 67 10000 13.4 260 09:23 12.03.2020
1291 Clouds 7 998 65 10000 13.9 270 08:40 12.03.2020
1292 Clouds 7 997 65 10000 13.4 260 08:19 12.03.2020
1293 Clouds 7 997 65 10000 13.4 260 07:52 12.03.2020
1294 Clouds 8 996 65 10000 14.4 260 07:23 12.03.2020
1295 Clouds 8 996 70 3700 14.9 260 06:44 12.03.2020
1296 Clouds 10 997 76 10000 8.7 250 05:40 12.03.2020
1297 Clouds 10 997 87 10000 6.7 230 04:27 12.03.2020
1298 Clouds 10 999 81 10000 5.1 240 02:34 12.03.2020
1299 Clouds 10 1001 76 10000 4.6 240 01:30 12.03.2020
1300 Clouds 9 1001 81 10000 5.7 230 00:42 12.03.2020
1301 Clouds 9 1002 81 10000 5.1 220 00:24 12.03.2020
1302 Clouds 10 1003 76 10000 4.6 230 23:42 11.03.2020
1303 Clouds 10 1003 76 10000 4.6 230 23:23 11.03.2020
1304 Clouds 10 1003 76 10000 4.6 230 22:45 11.03.2020
1305 Clouds 9 1004 81 10000 4.1 230 22:27 11.03.2020
1306 Clouds 9 1004 81 10000 4.1 230 21:59 11.03.2020
1307 Clouds 9 1004 81 10000 4.1 230 21:41 11.03.2020
1308 Clouds 9 1005 76 10000 4.1 230 21:22 11.03.2020
1309 Clouds 9 1005 76 10000 5.1 230 20:58 11.03.2020
1310 Clouds 9 1005 76 10000 5.1 230 20:58 11.03.2020
1311 Clouds 9 1005 76 10000 5.1 230 20:39 11.03.2020
1312 Clouds 9 1006 76 10000 3.1 220 20:19 11.03.2020
1313 Clouds 9 1006 76 10000 3.1 220 19:43 11.03.2020
1314 Clouds 10 1007 66 10000 4.1 240 19:25 11.03.2020
1315 Clouds 10 1007 66 10000 4.1 240 18:58 11.03.2020
1316 Clouds 10 1007 66 10000 4.1 240 18:39 11.03.2020
1317 Clouds 11 1007 57 10000 5.1 250 18:20 11.03.2020
1318 Clouds 11 1007 57 10000 5.1 250 17:56 11.03.2020
1319 Clouds 10 1008 71 10000 3.6 270 17:37 11.03.2020
1320 Clouds 10 1008 71 10000 3.6 270 17:19 11.03.2020
1321 Clouds 8 1007 82 0 7.97 242 16:45 11.03.2020
1322 Clouds 8 1007 82 0 7.97 242 16:22 11.03.2020
1323 Clouds 8 1007 82 0 7.97 242 15:45 11.03.2020
1324 Clouds 8 1007 82 0 7.97 242 15:24 11.03.2020
1325 Clouds 8 1007 82 0 7.97 242 14:58 11.03.2020
1326 Clouds 8 1007 82 0 7.97 242 14:40 11.03.2020
1327 Clouds 8 1007 82 0 7.97 242 14:21 11.03.2020
1328 Clouds 7 1008 82 0 8.4 246 13:44 11.03.2020
1329 Clouds 7 1007 82 0 8.14 243 13:26 11.03.2020
1330 Clouds 7 1007 82 0 8.14 243 12:58 11.03.2020
1331 Clouds 11 1005 61 0 8.14 243 12:40 11.03.2020
1332 Clouds 11 1005 61 0 8.14 243 12:19 11.03.2020
1333 Clouds 9 1007 66 10000 6.7 270 11:42 11.03.2020
1334 Clouds 9 1007 66 10000 6.7 270 11:24 11.03.2020
1335 Clouds 9 1007 66 10000 6.7 270 10:59 11.03.2020
1336 Clouds 9 1007 66 10000 6.7 270 10:41 11.03.2020
1337 Clouds 9 1007 75 10000 7.2 260 10:18 11.03.2020
1338 Clouds 8 1007 75 10000 7.2 260 09:43 11.03.2020
1339 Clouds 8 1007 75 10000 7.2 260 09:43 11.03.2020
1340 Clouds 8 1006 75 10000 5.7 250 09:24 11.03.2020
1341 Clouds 7 1006 75 10000 5.7 250 08:45 11.03.2020
1342 Clouds 7 1005 87 10000 6.2 250 08:27 11.03.2020
1343 Clouds 7 1005 87 10000 6.2 250 07:59 11.03.2020
1344 Clouds 6 1005 87 10000 6.2 250 07:38 11.03.2020
1345 Clouds 6 1005 87 10000 7.2 260 07:18 11.03.2020
1346 Clouds 6 1005 87 10000 7.2 260 06:37 11.03.2020
1347 Clouds 7 1003 81 10000 5.7 270 05:35 11.03.2020
1348 Clouds 7 1003 81 10000 7.7 280 04:18 11.03.2020
1349 Clouds 8 1000 81 10000 10.8 280 02:19 11.03.2020
1350 Clouds 8 1000 81 10000 11.3 280 01:27 11.03.2020
1351 Clouds 8 999 81 10000 10.8 270 00:46 11.03.2020
1352 Clouds 9 998 81 10000 9.8 260 23:58 10.03.2020
1353 Clouds 9 998 87 10000 9.8 270 23:39 10.03.2020
1354 Clouds 9 998 87 10000 9.8 270 23:20 10.03.2020
1355 Clouds 9 998 87 10000 9.8 270 22:39 10.03.2020
1356 Clouds 9 997 93 10000 10.8 270 22:20 10.03.2020
1357 Clouds 9 997 93 10000 10.8 270 21:57 10.03.2020
1358 Clouds 9 997 93 10000 10.8 270 21:57 10.03.2020
1359 Clouds 9 997 93 10000 10.8 270 21:38 10.03.2020
1360 Clouds 9 996 87 10000 12.3 280 21:20 10.03.2020
1361 Clouds 9 996 87 10000 12.3 280 20:58 10.03.2020
1362 Clouds 9 996 87 10000 12.3 280 20:40 10.03.2020
1363 Drizzle 10 996 93 3800 13.4 270 20:18 10.03.2020
1364 Drizzle 10 995 93 3200 10.3 250 19:56 10.03.2020
1365 Drizzle 11 995 93 3200 10.3 250 19:37 10.03.2020
1366 Drizzle 11 995 87 3500 8.2 250 19:19 10.03.2020
1367 Drizzle 11 995 87 6000 8.2 240 18:44 10.03.2020
1368 Drizzle 10 995 93 10000 7.7 240 18:25 10.03.2020
1369 Drizzle 11 995 87 2200 7.7 240 17:57 10.03.2020
1370 Drizzle 11 995 93 9000 7.7 240 17:39 10.03.2020
1371 -273 0 0 0 0 0 17:21 10.03.2020
1372 Drizzle 11 996 93 2500 6.7 240 16:39 10.03.2020
1373 Drizzle 10 996 100 3000 6.2 240 16:19 10.03.2020
1374 Drizzle 10 996 100 6000 6.2 230 15:56 10.03.2020
1375 Drizzle 10 996 100 6000 6.2 230 15:37 10.03.2020
1376 Drizzle 10 997 93 2500 5.7 230 15:19 10.03.2020
1377 Drizzle 10 997 93 2500 5.7 230 14:41 10.03.2020
1378 Drizzle 11 997 93 10000 5.1 240 14:20 10.03.2020
1379 Drizzle 11 997 93 10000 5.1 240 13:58 10.03.2020
1380 Drizzle 10 997 93 10000 5.1 240 13:38 10.03.2020
1381 Clouds 9 998 93 10000 4.6 230 13:20 10.03.2020
1382 Clouds 9 998 93 10000 4.6 230 12:42 10.03.2020
1383 Clouds 9 997 93 10000 5.7 230 12:19 10.03.2020
1384 Clouds 9 997 93 10000 5.7 230 11:58 10.03.2020
1385 Clouds 9 997 93 10000 5.7 230 11:40 10.03.2020
1386 Clouds 9 997 93 9000 5.7 230 11:22 10.03.2020
1387 Drizzle 8 997 100 4500 6.7 220 10:43 10.03.2020
1388 Drizzle 8 997 93 8000 7.2 210 10:23 10.03.2020
1389 Drizzle 7 997 93 5000 6.7 210 09:58 10.03.2020
1390 Drizzle 6 997 93 5000 6.7 210 09:40 10.03.2020
1391 Drizzle 6 997 93 7000 8.2 200 09:19 10.03.2020
1392 Drizzle 6 997 93 7000 8.2 200 09:19 10.03.2020
1393 Drizzle 5 997 93 7000 8.2 200 08:51 10.03.2020
1394 Drizzle 6 997 93 7000 8.2 200 08:32 10.03.2020
1395 Drizzle 6 997 93 7000 8.2 200 08:32 10.03.2020
1396 -273 0 0 0 0 0 07:51 10.03.2020
1397 Drizzle 5 999 86 6000 7.2 200 07:32 10.03.2020
1398 Drizzle 5 999 86 6000 7.2 200 06:48 10.03.2020
1399 Rain 5 1001 93 10000 6.7 190 06:30 10.03.2020
1400 Rain 5 1001 93 10000 6.7 190 06:30 10.03.2020
1401 Rain 5 1002 86 10000 5.7 200 05:42 10.03.2020
1402 Rain 5 1002 86 10000 5.7 200 05:42 10.03.2020
1403 Rain 5 1002 86 10000 5.7 200 04:53 10.03.2020
1404 Rain 6 1004 87 10000 4.6 190 04:20 10.03.2020
1405 Clouds 6 1006 81 10000 4.6 200 02:44 10.03.2020
1406 Clouds 6 1008 81 10000 4.6 210 01:30 10.03.2020
1407 Clouds 6 1008 81 10000 4.6 210 00:47 10.03.2020
1408 Clouds 6 1009 81 10000 5.1 210 00:27 10.03.2020
1409 Clouds 6 1009 81 10000 5.1 210 23:41 09.03.2020
1410 Clouds 6 1010 81 10000 4.1 220 23:22 09.03.2020
1411 Clouds 6 1010 81 10000 4.1 220 22:55 09.03.2020
1412 Clouds 6 1010 81 10000 4.1 220 22:36 09.03.2020
1413 Clouds 6 1010 81 10000 4.6 240 22:18 09.03.2020
1414 Clouds 6 1010 81 10000 4.6 240 21:41 09.03.2020
1415 Clouds 6 1010 81 10000 3.6 230 21:21 09.03.2020
1416 Clouds 7 1010 81 10000 4.1 220 20:58 09.03.2020
1417 Clouds 6 1010 81 10000 4.1 220 20:39 09.03.2020
1418 Clouds 6 1011 86 10000 2.6 190 20:20 09.03.2020
1419 Clouds 6 1011 86 10000 2.6 190 19:45 09.03.2020
1420 Clouds 7 1011 81 10000 1.5 230 19:26 09.03.2020
1421 Clouds 7 1011 81 10000 1.5 230 18:59 09.03.2020
1422 Clouds 6 1011 81 10000 1.5 230 18:40 09.03.2020
1423 Rain 7 1011 81 10000 5.1 260 18:20 09.03.2020
1424 Rain 7 1011 81 10000 5.1 260 17:58 09.03.2020
1425 Rain 7 1011 81 10000 5.1 260 17:38 09.03.2020
1426 Rain 7 1010 81 9000 5.1 280 17:20 09.03.2020
1427 Rain 7 1010 81 9000 5.1 280 16:58 09.03.2020
1428 Rain 7 1010 81 9000 5.1 280 16:40 09.03.2020
1429 Rain 8 1010 81 10000 3.6 270 16:22 09.03.2020
1430 Rain 8 1010 81 10000 3.6 270 15:58 09.03.2020
1431 Rain 7 1010 87 10000 5.1 270 15:39 09.03.2020
1432 Rain 7 1010 87 10000 5.1 270 15:21 09.03.2020
1433 Rain 7 1010 87 10000 5.1 270 14:57 09.03.2020
1434 Rain 8 1009 75 10000 6.2 280 14:37 09.03.2020
1435 Rain 8 1009 75 10000 6.2 280 14:19 09.03.2020
1436 Rain 8 1009 75 10000 6.2 280 13:57 09.03.2020
1437 Clouds 9 1009 76 10000 6.2 260 13:38 09.03.2020
1438 Clouds 9 1009 76 10000 6.2 260 13:18 09.03.2020
1439 Clouds 9 1009 76 10000 6.2 260 12:43 09.03.2020
1440 Clouds 9 1009 76 10000 6.2 250 12:22 09.03.2020
1441 Clouds 8 1009 81 10000 6.2 250 11:55 09.03.2020
1442 Clouds 8 1008 87 10000 4.6 240 11:37 09.03.2020
1443 Clouds 8 1008 87 10000 4.6 240 11:19 09.03.2020
1444 Clouds 8 1008 87 10000 4.6 240 10:55 09.03.2020
1445 Clouds 7 1007 93 10000 4.1 230 10:36 09.03.2020
1446 Clouds 7 1007 93 10000 4.1 230 10:18 09.03.2020
1447 Clouds 7 1007 93 10000 4.1 230 09:39 09.03.2020
1448 Clouds 7 1007 93 10000 4.1 230 09:39 09.03.2020
1449 Clouds 7 1007 93 10000 4.1 230 09:21 09.03.2020
1450 Clouds 7 1007 87 10000 4.1 220 08:44 09.03.2020
1451 Clouds 6 1006 93 8000 3.6 220 08:26 09.03.2020
1452 Clouds 6 1006 93 8000 3.6 220 07:42 09.03.2020
1453 Drizzle 7 1006 93 8000 3.6 220 07:22 09.03.2020
1454 Drizzle 7 1006 93 8000 3.6 220 06:46 09.03.2020
1455 Clouds 7 1006 93 10000 3.6 220 06:27 09.03.2020
1456 Clouds 7 1006 93 10000 3.6 220 05:58 09.03.2020
1457 Clouds 7 1006 93 10000 3.6 220 05:39 09.03.2020
1458 Clouds 7 1005 93 10000 3.1 220 04:43 09.03.2020
1459 Clouds 8 1005 87 10000 3.1 230 04:23 09.03.2020
1460 Clouds 8 1005 87 10000 4.1 200 03:29 09.03.2020
1461 Rain 8 1005 93 5000 4.1 200 01:58 09.03.2020
1462 Rain 8 1005 87 10000 3.6 190 00:40 09.03.2020
1463 Clouds 8 1006 87 10000 3.6 190 00:22 09.03.2020
1464 Clouds 8 1006 87 10000 3.6 190 23:53 08.03.2020
1465 Clouds 8 1006 87 10000 4.6 200 23:25 08.03.2020
1466 Clouds 8 1006 87 10000 4.6 200 22:58 08.03.2020
1467 Clouds 8 1006 87 10000 4.6 210 22:39 08.03.2020
1468 Clouds 8 1006 87 10000 4.6 210 22:21 08.03.2020
1469 Clouds 8 1006 87 10000 4.6 210 22:21 08.03.2020
1470 Clouds 8 1007 87 10000 4.6 210 21:57 08.03.2020
1471 Clouds 8 1007 87 10000 5.1 200 21:38 08.03.2020
1472 Clouds 8 1007 87 10000 5.1 200 21:19 08.03.2020
1473 Clouds 8 1007 87 10000 5.1 200 20:56 08.03.2020
1474 Clouds 8 1007 87 10000 4.6 200 20:37 08.03.2020
1475 Clouds 8 1007 87 10000 4.6 200 20:18 08.03.2020
1476 Clouds 8 1007 87 10000 4.6 200 19:37 08.03.2020
1477 Clouds 8 1007 93 10000 5.7 210 19:19 08.03.2020
1478 Clouds 8 1007 93 10000 5.7 210 18:42 08.03.2020
1479 Clouds 8 1007 93 9000 6.7 210 18:24 08.03.2020
1480 Rain 8 1006 87 0 9.55 196 17:57 08.03.2020
1481 Drizzle 9 1007 81 6000 5.7 210 17:38 08.03.2020
1482 Drizzle 9 1007 81 6000 5.7 210 17:20 08.03.2020
1483 Drizzle 9 1007 81 6000 5.7 210 16:47 08.03.2020
1484 Drizzle 9 1007 76 10000 7.2 210 16:28 08.03.2020
1485 Drizzle 9 1007 76 10000 7.2 210 15:59 08.03.2020
1486 Drizzle 9 1007 76 10000 7.2 210 15:40 08.03.2020
1487 Drizzle 9 1007 76 10000 7.2 210 15:21 08.03.2020
1488 Rain 9 1007 76 10000 7.2 210 14:55 08.03.2020
1489 Rain 9 1007 76 10000 7.2 210 14:37 08.03.2020
1490 Clouds 10 1007 66 10000 6.2 210 14:18 08.03.2020
1491 Clouds 10 1007 66 10000 6.2 210 13:40 08.03.2020
1492 Clouds 10 1008 66 10000 8.2 210 13:20 08.03.2020
1493 Clouds 10 1008 66 10000 8.2 210 12:43 08.03.2020
1494 Clouds 10 1008 66 10000 9.3 210 12:25 08.03.2020
1495 Clouds 10 1008 66 10000 9.3 210 11:57 08.03.2020
1496 Clouds 10 1008 66 10000 9.3 210 11:57 08.03.2020
1497 Clouds 10 1008 66 10000 9.3 210 11:39 08.03.2020
1498 Clouds 9 1008 70 10000 8.2 200 11:20 08.03.2020
1499 Clouds 9 1008 70 10000 8.2 200 10:41 08.03.2020
1500 Clouds 9 1009 70 10000 8.2 200 10:23 08.03.2020
1501 Clouds 9 1009 70 10000 8.2 200 09:57 08.03.2020
1502 Clouds 9 1009 70 10000 8.2 200 09:36 08.03.2020
1503 Clouds 8 1009 75 10000 6.7 200 09:18 08.03.2020
1504 Clouds 8 1009 75 10000 6.7 200 09:18 08.03.2020
1505 Clouds 7 1010 75 10000 6.2 200 08:40 08.03.2020
1506 Clouds 7 1010 75 10000 6.2 200 08:19 08.03.2020
1507 Clouds 7 1010 75 10000 6.2 200 07:44 08.03.2020
1508 Clouds 7 1010 75 10000 5.1 200 07:25 08.03.2020
1509 Clouds 7 1010 75 10000 5.1 200 06:42 08.03.2020
1510 Clouds 7 1010 75 10000 6.2 200 06:22 08.03.2020
1511 Clouds 7 1010 75 10000 6.2 200 05:39 08.03.2020
1512 Clouds 7 1012 75 10000 5.1 200 03:52 08.03.2020
1513 Clouds 7 1013 70 10000 6.2 210 02:30 08.03.2020
1514 Clouds 7 1013 70 10000 6.2 210 01:34 08.03.2020
1515 Clouds 7 1014 65 10000 5.1 200 00:52 08.03.2020
1516 Clouds 7 1014 65 10000 4.6 200 00:27 08.03.2020
1517 Clouds 7 1014 65 10000 4.6 200 23:46 07.03.2020
1518 Clouds 7 1015 65 10000 4.1 200 23:24 07.03.2020
1519 Clouds 7 1015 65 10000 4.1 200 22:55 07.03.2020
1520 Clouds 7 1015 65 10000 4.1 190 22:36 07.03.2020
1521 Clouds 7 1015 65 10000 4.1 190 22:18 07.03.2020
1522 Clouds 7 1015 65 10000 4.1 190 21:43 07.03.2020
1523 Clouds 7 1015 65 10000 3.6 190 21:19 07.03.2020
1524 Clouds 6 1016 70 10000 2.6 180 20:39 07.03.2020
1525 Clouds 6 1016 70 10000 2.6 180 20:20 07.03.2020
1526 Clouds 6 1016 70 10000 2.6 180 19:41 07.03.2020
1527 Clouds 5 1016 75 10000 2.1 150 19:22 07.03.2020
1528 Clouds 5 1016 75 10000 2.1 150 18:47 07.03.2020
1529 Clouds 7 1016 65 10000 1.5 0 18:29 07.03.2020
1530 Clouds 7 1016 65 10000 1.5 0 17:59 07.03.2020
1531 Clouds 7 1016 65 10000 1.5 0 17:41 07.03.2020
1532 Clouds 7 1015 65 10000 4.1 280 17:19 07.03.2020
1533 Clouds 7 1015 65 10000 4.1 280 16:56 07.03.2020
1534 Clouds 7 1015 82 10000 5.7 290 16:38 07.03.2020
1535 Clouds 7 1015 82 10000 5.7 290 16:19 07.03.2020
1536 Clouds 7 1015 82 10000 5.7 290 15:42 07.03.2020
1537 Clouds 7 1015 82 10000 6.7 300 15:22 07.03.2020
1538 Clouds 7 1015 82 10000 6.7 300 14:59 07.03.2020
1539 Clouds 7 1015 65 10000 6.2 300 14:41 07.03.2020
1540 Clouds 7 1015 65 10000 6.2 300 14:23 07.03.2020
1541 Clouds 7 1015 65 10000 6.2 300 13:43 07.03.2020
1542 Clouds 7 1015 65 10000 6.7 280 13:22 07.03.2020
1543 Clouds 7 1015 65 10000 6.7 280 12:59 07.03.2020
1544 Clouds 6 1014 70 10000 5.1 290 12:38 07.03.2020
1545 Clouds 6 1014 70 10000 5.1 290 12:19 07.03.2020
1546 Clouds 6 1014 70 10000 5.1 290 11:44 07.03.2020
1547 Clouds 6 1014 75 10000 4.1 310 11:24 07.03.2020
1548 Clouds 6 1014 75 10000 4.1 310 10:59 07.03.2020
1549 Clouds 6 1013 75 10000 2.6 310 10:38 07.03.2020
1550 Clouds 6 1013 75 10000 2.6 310 10:19 07.03.2020
1551 Clouds 6 1013 75 10000 2.6 310 09:41 07.03.2020
1552 Clouds 5 1012 80 10000 2.6 320 09:20 07.03.2020
1553 Clouds 5 1012 80 10000 2.6 320 08:58 07.03.2020
1554 Clouds 5 1012 80 10000 2.6 320 08:40 07.03.2020
1555 Clouds 4 1011 80 10000 5.1 330 08:20 07.03.2020
1556 Clouds 4 1011 80 10000 5.1 330 07:47 07.03.2020
1557 Clear 6 1011 81 0 6.11 323 07:21 07.03.2020
1558 Clear 6 1011 81 0 6.11 323 06:43 07.03.2020
1559 Clear 6 1011 81 0 6.11 323 06:25 07.03.2020
1560 Clear 6 1011 81 0 6.11 323 06:25 07.03.2020
1561 Clouds 4 1009 86 10000 4.6 320 05:41 07.03.2020
1562 Clouds 4 1008 86 10000 4.6 320 03:57 07.03.2020
1563 Clouds 4 1007 86 10000 4.6 320 02:45 07.03.2020
1564 Clouds 4 1007 86 10000 4.6 320 01:58 07.03.2020
1565 Clouds 3 1006 93 10000 3.1 330 01:19 07.03.2020
1566 Clouds 4 1005 86 10000 4.1 350 00:28 07.03.2020
1567 Clouds 4 1005 86 10000 4.1 350 23:59 06.03.2020
1568 Clouds 4 1004 93 10000 3.1 340 23:40 06.03.2020
1569 Clouds 4 1004 93 10000 3.1 340 23:22 06.03.2020
1570 Clouds 4 1004 93 10000 3.1 340 22:46 06.03.2020
1571 Clouds 4 1003 86 10000 4.6 360 22:20 06.03.2020
1572 Clouds 4 1003 86 10000 4.6 360 21:50 06.03.2020
1573 Clouds 5 1002 86 9000 6.2 10 21:21 06.03.2020
1574 Clouds 5 1002 86 9000 6.2 10 20:56 06.03.2020
1575 Clouds 5 1001 86 9000 6.7 10 20:36 06.03.2020
1576 Clouds 5 1001 86 9000 6.7 10 20:18 06.03.2020
1577 Drizzle 5 1000 86 6000 5.1 10 19:42 06.03.2020
1578 Drizzle 5 1000 86 6000 5.1 10 19:23 06.03.2020
1579 Drizzle 5 1000 86 6000 5.1 10 18:42 06.03.2020
1580 Drizzle 5 998 86 7000 6.2 20 18:21 06.03.2020
1581 Drizzle 5 998 86 7000 6.2 20 18:21 06.03.2020
1582 Drizzle 5 998 86 7000 6.2 20 17:57 06.03.2020
1583 Drizzle 5 998 86 7000 6.2 20 17:39 06.03.2020
1584 Drizzle 5 998 86 7000 6.2 20 17:39 06.03.2020
1585 Drizzle 5 998 86 7000 6.2 20 17:20 06.03.2020
1586 Rain 6 998 80 0 9.45 12 16:56 06.03.2020
1587 Drizzle 5 996 86 6000 7.2 30 16:37 06.03.2020
1588 Drizzle 5 996 86 6000 7.2 30 16:19 06.03.2020
1589 Drizzle 5 996 86 6000 7.2 30 15:42 06.03.2020
1590 Drizzle 5 995 86 6000 7.2 30 15:23 06.03.2020
1591 Drizzle 5 995 86 6000 7.2 30 14:41 06.03.2020
1592 Drizzle 5 995 86 6000 7.7 30 14:23 06.03.2020
1593 Drizzle 5 995 86 6000 7.7 30 13:58 06.03.2020
1594 Drizzle 5 995 86 6000 7.7 30 13:58 06.03.2020
1595 Drizzle 5 995 86 6000 7.7 30 13:40 06.03.2020
1596 Drizzle 5 994 86 6000 7.7 30 13:20 06.03.2020
1597 Drizzle 5 994 86 6000 7.7 30 12:54 06.03.2020
1598 Drizzle 5 994 86 7000 9.3 40 12:36 06.03.2020
1599 Drizzle 5 994 86 7000 9.3 40 12:18 06.03.2020
1600 Drizzle 5 994 86 7000 9.3 40 11:42 06.03.2020
1601 Drizzle 5 993 86 7000 9.3 40 11:20 06.03.2020
1602 Drizzle 5 993 86 7000 9.3 40 10:56 06.03.2020
1603 Rain 4 993 93 6000 8.7 40 10:36 06.03.2020
1604 Rain 4 993 93 6000 8.7 40 10:18 06.03.2020
1605 Rain 4 993 93 6000 8.7 40 09:42 06.03.2020
1606 Rain 4 993 86 6000 8.2 40 09:23 06.03.2020
1607 Rain 4 993 86 6000 8.2 40 09:23 06.03.2020
1608 Rain 4 993 86 6000 8.2 40 08:56 06.03.2020
1609 Rain 4 992 86 6000 9.3 50 08:37 06.03.2020
1610 Rain 4 992 86 6000 9.3 50 08:18 06.03.2020
1611 Rain 4 992 86 6000 9.3 50 07:42 06.03.2020
1612 Rain 4 992 86 7000 8.2 50 07:22 06.03.2020
1613 Rain 4 992 86 9000 7.2 60 06:43 06.03.2020
1614 Rain 5 991 80 10000 7.7 50 06:22 06.03.2020
1615 Clouds 5 991 75 10000 7.2 70 05:39 06.03.2020
1616 Clouds 5 991 75 10000 7.2 70 05:20 06.03.2020
1617 Clouds 5 991 75 10000 7.7 70 04:39 06.03.2020
1618 Clouds 5 992 80 10000 7.2 70 01:45 06.03.2020
1619 Clouds 5 992 75 10000 6.2 70 01:26 06.03.2020
1620 Clouds 5 992 75 10000 6.2 70 00:57 06.03.2020
1621 Clouds 6 993 75 10000 6.7 80 00:31 06.03.2020
1622 Clouds 6 993 75 10000 6.7 80 23:44 05.03.2020
1623 Clouds 6 993 75 10000 7.2 70 23:25 05.03.2020
1624 Clouds 6 993 75 10000 7.2 70 22:56 05.03.2020
1625 Clouds 6 994 75 10000 6.2 70 22:37 05.03.2020
1626 Clouds 6 994 75 10000 6.2 70 22:18 05.03.2020
1627 Clouds 6 994 75 10000 6.2 70 21:55 05.03.2020
1628 Clouds 6 995 81 10000 7.2 80 21:37 05.03.2020
1629 Clouds 6 995 81 10000 7.2 80 21:19 05.03.2020
1630 Clouds 7 996 70 10000 6.2 70 20:43 05.03.2020
1631 Clouds 7 996 70 10000 6.2 70 20:21 05.03.2020
1632 Clouds 7 996 70 10000 6.2 70 19:59 05.03.2020
1633 Clouds 7 996 70 10000 6.2 70 19:40 05.03.2020
1634 Clouds 7 995 70 10000 5.7 70 19:22 05.03.2020
1635 Clouds 7 995 70 10000 5.7 70 19:00 05.03.2020
1636 Clouds 7 995 70 10000 5.1 70 18:38 05.03.2020
1637 Clouds 7 995 70 10000 5.1 70 18:19 05.03.2020
1638 Clouds 7 995 70 10000 5.1 70 17:58 05.03.2020
1639 Clouds 7 995 70 10000 5.1 70 17:40 05.03.2020
1640 Clouds 8 996 65 10000 5.1 80 17:21 05.03.2020
1641 Clouds 8 997 65 10000 4.6 90 16:42 05.03.2020
1642 Clouds 8 997 65 10000 4.6 90 16:24 05.03.2020
1643 Clouds 8 997 65 10000 4.6 90 15:59 05.03.2020
1644 Clouds 8 997 65 10000 4.6 90 15:40 05.03.2020
1645 Clouds 8 998 65 10000 4.1 80 15:21 05.03.2020
1646 Clouds 8 998 65 10000 4.1 80 14:54 05.03.2020
1647 Clouds 8 999 70 10000 4.1 100 14:36 05.03.2020
1648 Clouds 8 999 70 10000 4.1 100 14:18 05.03.2020
1649 Clouds 8 999 70 10000 4.1 100 13:41 05.03.2020
1650 Clouds 7 1000 70 10000 3.6 100 13:21 05.03.2020
1651 Clouds 7 1000 70 10000 3.6 100 13:21 05.03.2020
1652 Clouds 7 1000 70 10000 3.6 100 12:56 05.03.2020
1653 Clouds 5 1001 80 10000 3.1 90 12:38 05.03.2020
1654 Clouds 5 1001 80 10000 3.1 90 12:18 05.03.2020
1655 Clouds 5 1001 80 10000 3.1 90 11:56 05.03.2020
1656 Clouds 4 1002 93 8000 2.6 120 11:37 05.03.2020
1657 Clouds 4 1002 93 8000 2.6 120 11:18 05.03.2020
1658 Clouds 4 1002 93 8000 2.6 120 11:18 05.03.2020
1659 Clouds 4 1002 93 8000 2.6 120 10:56 05.03.2020
1660 Mist 3 1002 93 5000 2.6 130 10:38 05.03.2020
1661 Mist 3 1002 93 5000 2.6 130 10:38 05.03.2020
1662 Mist 3 1002 93 5000 2.6 130 10:20 05.03.2020
1663 Mist 1 1002 100 1800 2.1 110 09:44 05.03.2020
1664 Mist 1 1002 100 1000 2.1 120 09:26 05.03.2020
1665 Fog 0 1003 85 300 3.1 130 08:44 05.03.2020
1666 Fog 0 1003 85 600 2.6 130 08:25 05.03.2020
1667 Fog 0 1003 82 600 2.6 130 07:47 05.03.2020
1668 Fog 0 1004 82 300 1.5 120 07:22 05.03.2020
1669 Fog 0 1004 82 300 1.5 120 06:49 05.03.2020
1670 Fog -2 1004 100 100 1 120 06:22 05.03.2020
1671 Fog -2 1004 100 100 1 120 05:57 05.03.2020
1672 Fog -2 1005 92 50 1 130 05:25 05.03.2020
1673 Fog -1 1005 100 50 1 90 04:22 05.03.2020
1674 Fog -1 1005 100 50 1 90 03:51 05.03.2020
1675 Fog 1 1007 100 10000 2.1 200 02:21 05.03.2020
1676 Fog 2 1007 93 10000 2.6 200 01:22 05.03.2020
1677 Clouds 3 1007 93 10000 2.1 210 00:26 05.03.2020
1678 Clouds 3 1007 93 10000 2.1 210 23:43 04.03.2020
1679 Clouds 3 1008 93 10000 3.1 210 23:24 04.03.2020
1680 Clouds 3 1008 93 10000 3.1 210 22:59 04.03.2020
1681 Clouds 4 1008 93 10000 3.1 220 22:39 04.03.2020
1682 Clouds 4 1008 93 10000 3.1 220 22:19 04.03.2020
1683 Clouds 4 1008 93 10000 3.1 220 21:58 04.03.2020
1684 Clouds 4 1008 93 10000 3.1 220 21:40 04.03.2020
1685 Clouds 4 1008 93 10000 2.1 210 21:20 04.03.2020
1686 Clouds 4 1008 93 10000 3.1 220 20:56 04.03.2020
1687 Clouds 4 1008 93 10000 1.5 240 20:37 04.03.2020
1688 Clouds 4 1008 93 10000 1.5 240 20:18 04.03.2020
1689 Clouds 4 1008 93 10000 1.5 240 19:42 04.03.2020
1690 Clouds 5 1008 86 10000 1 230 19:23 04.03.2020
1691 Clouds 5 1008 86 10000 1 0 18:57 04.03.2020
1692 Clouds 6 1007 81 10000 2.1 250 18:37 04.03.2020
1693 Clouds 6 1007 81 10000 2.1 250 18:18 04.03.2020
1694 Clouds 6 1007 87 10000 3.6 280 17:55 04.03.2020
1695 Clouds 7 1007 81 10000 4.1 260 17:37 04.03.2020
1696 Clouds 7 1007 81 10000 4.1 260 17:19 04.03.2020
1697 Clouds 7 1007 81 10000 4.1 260 16:44 04.03.2020
1698 Rain 6 1007 75 10000 4.6 290 16:25 04.03.2020
1699 Clouds 7 1007 75 10000 4.6 270 15:59 04.03.2020
1700 Clouds 7 1007 75 10000 4.6 270 15:40 04.03.2020
1701 Clouds 7 1007 75 10000 4.6 260 15:21 04.03.2020
1702 Clouds 7 1007 75 10000 4.6 250 14:55 04.03.2020
1703 Clouds 6 1008 81 10000 4.1 250 14:37 04.03.2020
1704 Clouds 6 1008 81 10000 4.1 250 14:18 04.03.2020
1705 Clouds 6 1008 87 9000 3.6 230 13:55 04.03.2020
1706 Clouds 6 1008 81 9000 3.6 240 13:36 04.03.2020
1707 Clouds 6 1008 81 9000 3.6 240 13:18 04.03.2020
1708 Clouds 6 1008 81 9000 3.6 240 12:43 04.03.2020
1709 Clouds 5 1008 86 9000 3.6 230 12:25 04.03.2020
1710 Clouds 5 1007 86 6000 4.1 230 11:56 04.03.2020
1711 Clouds 5 1007 86 8000 4.6 220 11:37 04.03.2020
1712 Clouds 5 1007 86 8000 4.6 220 11:19 04.03.2020
1713 Clouds 5 1007 86 8000 4.6 220 10:47 04.03.2020
1714 Mist 3 1007 93 3800 4.1 210 10:26 04.03.2020
1715 Mist 3 1007 93 3800 4.1 210 09:58 04.03.2020
1716 Mist 3 1007 93 3800 4.1 210 09:40 04.03.2020
1717 Rain 3 1007 93 4000 4.6 210 09:20 04.03.2020
1718 Mist 2 1007 100 3500 3.1 210 08:43 04.03.2020
1719 Mist 2 1007 93 3500 2.6 210 08:25 04.03.2020
1720 Mist 2 1007 93 3500 2.6 210 07:52 04.03.2020
1721 Mist 2 1007 93 3500 3.1 220 07:33 04.03.2020
1722 Clouds 2 1007 93 6000 3.6 220 06:54 04.03.2020
1723 Clouds 2 1007 93 6000 3.6 220 06:54 04.03.2020
1724 Clouds 3 1006 86 7000 3.1 220 06:27 04.03.2020
1725 Clouds 3 1006 86 7000 3.1 220 05:59 04.03.2020
1726 Clouds 3 1006 86 7000 3.1 220 05:41 04.03.2020
1727 Clouds 2 1006 93 10000 3.1 230 04:19 04.03.2020
1728 Clouds 1 1006 80 10000 3.1 220 03:38 04.03.2020
1729 Clouds 1 1006 80 10000 3.1 220 02:59 04.03.2020
1730 Clouds 2 1006 80 10000 3.1 230 02:32 04.03.2020
1731 Clouds 2 1006 81 10000 3.1 230 01:58 04.03.2020
1732 Clouds 2 1005 81 10000 3.1 230 01:38 04.03.2020
1733 Clear 2 1005 93 10000 4.1 220 00:42 04.03.2020
1734 Clear 2 1005 93 10000 4.1 220 00:24 04.03.2020
1735 Clear 2 1005 93 10000 4.1 220 23:45 03.03.2020
1736 Clouds 3 1005 86 10000 2.6 240 23:27 03.03.2020
1737 Clouds 3 1005 86 10000 2.6 240 22:56 03.03.2020
1738 Clouds 2 1004 93 10000 3.1 220 22:38 03.03.2020
1739 Clouds 2 1004 93 10000 3.1 220 22:19 03.03.2020
1740 Clouds 2 1004 93 10000 3.1 220 21:56 03.03.2020
1741 Clouds 2 1004 93 10000 3.1 220 21:36 03.03.2020
1742 Clouds 2 1004 93 10000 3.1 220 21:18 03.03.2020
1743 Clouds 3 1003 86 10000 3.1 220 20:40 03.03.2020
1744 Clouds 3 1003 86 10000 3.1 220 20:20 03.03.2020
1745 Clouds 3 1003 86 10000 3.1 220 20:20 03.03.2020
1746 Clouds 3 1003 86 10000 3.1 220 19:59 03.03.2020
1747 Clouds 4 1003 80 10000 2.6 220 19:37 03.03.2020
1748 Clouds 4 1003 80 10000 2.6 220 19:37 03.03.2020
1749 Clouds 4 1003 80 10000 2.6 220 19:19 03.03.2020
1750 Clouds 4 1003 80 10000 2.6 220 18:58 03.03.2020
1751 Clouds 4 1003 80 10000 2.6 220 18:40 03.03.2020
1752 Clouds 6 1002 70 10000 4.1 250 18:21 03.03.2020
1753 Clouds 6 1002 70 10000 4.1 250 17:56 03.03.2020
1754 Rain 7 1001 65 10000 5.7 290 17:37 03.03.2020
1755 Rain 7 1001 65 10000 5.7 290 17:19 03.03.2020
1756 Rain 7 1001 65 10000 5.7 290 16:57 03.03.2020
1757 Clouds 7 1000 81 10000 6.2 290 16:37 03.03.2020
1758 Clouds 7 1000 82 10000 6.2 290 16:18 03.03.2020
1759 Clouds 7 1000 81 10000 6.2 290 15:44 03.03.2020
1760 Clouds 8 1000 65 10000 6.7 290 15:22 03.03.2020
1761 Clouds 8 1000 65 10000 6.7 290 14:57 03.03.2020
1762 Clouds 8 999 65 10000 7.2 290 14:37 03.03.2020
1763 Clouds 8 999 65 10000 7.2 290 14:19 03.03.2020
1764 Clouds 8 999 65 10000 7.2 290 13:56 03.03.2020
1765 Clouds 7 999 75 10000 5.1 260 13:38 03.03.2020
1766 Clouds 7 999 75 10000 5.1 260 13:19 03.03.2020
1767 Clouds 7 999 75 10000 5.1 260 12:43 03.03.2020
1768 Clouds 7 999 75 10000 4.6 260 12:24 03.03.2020
1769 Clouds 7 999 75 10000 4.6 260 12:24 03.03.2020
1770 Clouds 7 999 75 10000 4.6 260 11:56 03.03.2020
1771 Clouds 6 998 81 10000 4.1 260 11:37 03.03.2020
1772 Clouds 6 998 81 10000 4.1 260 11:18 03.03.2020
1773 Clouds 6 998 81 10000 4.1 260 10:55 03.03.2020
1774 Clouds 5 998 86 10000 5.1 260 10:37 03.03.2020
1775 Clouds 5 998 86 10000 5.1 260 10:18 03.03.2020
1776 Clouds 5 998 86 10000 5.1 260 09:43 03.03.2020
1777 Clouds 5 998 86 10000 4.6 260 09:22 03.03.2020
1778 Clouds 5 997 86 10000 4.1 290 08:56 03.03.2020
1779 Clouds 5 996 86 10000 5.1 290 08:37 03.03.2020
1780 Clouds 5 996 86 10000 5.1 290 08:19 03.03.2020
1781 Clouds 5 996 86 10000 5.1 290 07:42 03.03.2020
1782 Rain 5 996 93 8000 6.2 290 07:19 03.03.2020
1783 Rain 5 996 93 8000 6.2 290 06:41 03.03.2020
1784 Drizzle 5 995 93 8000 3.6 270 06:22 03.03.2020
1785 Drizzle 5 995 93 2800 2.1 260 05:47 03.03.2020
1786 Drizzle 5 994 93 8000 3.6 280 04:58 03.03.2020
1787 Drizzle 5 994 93 7000 3.1 280 04:24 03.03.2020
1788 Rain 5 992 93 10000 2.1 140 01:40 03.03.2020
1789 Rain 5 992 86 10000 1.5 140 00:48 03.03.2020
1790 Rain 6 992 81 10000 1.5 140 00:26 03.03.2020
1791 Rain 6 992 81 10000 1.5 140 23:57 02.03.2020
1792 Rain 6 992 87 10000 2.1 120 23:38 02.03.2020
1793 Rain 6 992 87 10000 2.1 120 23:19 02.03.2020
1794 Rain 6 992 87 10000 2.1 120 22:54 02.03.2020
1795 Clouds 7 992 75 10000 2.6 170 22:36 02.03.2020
1796 Clouds 7 992 75 10000 2.6 170 22:18 02.03.2020
1797 Clouds 7 992 75 10000 2.6 170 21:41 02.03.2020
1798 Clouds 7 992 70 10000 1.5 170 21:23 02.03.2020
1799 Rain 7 991 70 10000 3.1 150 20:58 02.03.2020
1800 Rain 7 991 70 10000 1.5 130 20:39 02.03.2020
1801 Rain 7 991 70 10000 1.5 130 20:20 02.03.2020
1802 Rain 7 991 70 10000 1.5 130 19:56 02.03.2020
1803 Rain 8 990 61 10000 2.6 140 19:37 02.03.2020
1804 Rain 8 990 61 10000 2.6 140 19:19 02.03.2020
1805 Rain 8 990 61 10000 2.6 140 18:44 02.03.2020
1806 Rain 8 990 61 10000 3.1 140 18:20 02.03.2020
1807 Rain 8 990 61 10000 3.1 140 17:59 02.03.2020
1808 Rain 8 990 61 10000 3.1 140 17:41 02.03.2020
1809 Clouds 9 989 57 10000 3.1 130 17:21 02.03.2020
1810 Clouds 9 989 57 10000 3.1 130 17:21 02.03.2020
1811 -273 0 0 0 0 0 17:21 02.03.2020
1812 Clouds 9 989 57 10000 3.1 130 16:55 02.03.2020
1813 Clouds 9 990 57 10000 5.1 140 16:37 02.03.2020
1814 Clouds 9 990 57 10000 5.1 140 16:19 02.03.2020
1815 Clouds 9 990 57 10000 5.1 140 15:43 02.03.2020
1816 Clouds 9 990 61 10000 4.1 140 15:20 02.03.2020
1817 Clouds 9 990 61 10000 4.1 140 14:55 02.03.2020
1818 Clouds 8 990 65 10000 3.6 150 14:36 02.03.2020
1819 Clouds 8 990 65 10000 3.6 150 14:18 02.03.2020
1820 Clouds 8 991 65 10000 4.1 180 13:39 02.03.2020
1821 Clouds 8 991 65 10000 4.1 180 13:19 02.03.2020
1822 Clouds 8 991 65 10000 4.1 180 12:44 02.03.2020
1823 Clouds 6 991 75 10000 4.1 180 12:21 02.03.2020
1824 Clouds 6 991 75 10000 4.1 180 11:57 02.03.2020
1825 Clouds 5 991 80 10000 4.1 200 11:37 02.03.2020
1826 Clouds 5 991 80 10000 4.1 200 11:18 02.03.2020
1827 Clouds 5 991 80 10000 4.1 200 10:55 02.03.2020
1828 Clouds 4 991 86 10000 4.1 210 10:36 02.03.2020
1829 Clouds 4 991 86 10000 4.1 210 10:18 02.03.2020
1830 Clouds 4 991 86 10000 4.1 210 09:44 02.03.2020
1831 Clouds 3 991 86 10000 4.1 200 09:25 02.03.2020
1832 Clouds 3 991 86 10000 4.1 200 08:47 02.03.2020
1833 Clouds 3 990 86 10000 3.6 200 08:22 02.03.2020
1834 Clouds 3 990 86 10000 3.6 200 07:44 02.03.2020
1835 Clouds 3 990 86 10000 3.6 200 07:20 02.03.2020
1836 Clouds 3 990 86 10000 3.6 200 06:49 02.03.2020
1837 Clouds 3 990 86 10000 3.6 210 05:57 02.03.2020
1838 Clouds 3 990 86 10000 2.6 200 04:51 02.03.2020
1839 Clouds 4 990 80 10000 2.6 210 03:23 02.03.2020
1840 Clouds 4 990 80 10000 2.6 210 02:49 02.03.2020
1841 Clouds 4 990 80 10000 2.1 210 01:54 02.03.2020
1842 Clouds 5 990 75 10000 3.6 220 01:33 02.03.2020
1843 Clouds 4 990 81 10000 3.6 190 00:24 02.03.2020
1844 Clouds 4 990 81 10000 3.6 190 23:59 01.03.2020
1845 Clouds 4 990 81 10000 3.6 190 23:41 01.03.2020
1846 Clouds 4 990 80 10000 2.6 160 23:21 01.03.2020
1847 Clouds 4 990 80 10000 2.6 160 22:43 01.03.2020
1848 Clouds 4 990 80 10000 1.5 220 22:21 01.03.2020
1849 Clouds 4 990 80 10000 1.5 220 21:57 01.03.2020
1850 Clouds 6 990 70 10000 3.1 210 21:39 01.03.2020
1851 Clouds 6 990 70 10000 3.1 210 21:20 01.03.2020
1852 Clouds 6 990 70 10000 3.1 210 20:45 01.03.2020
1853 Clouds 6 991 70 10000 5.1 210 20:26 01.03.2020
1854 Clouds 6 991 70 10000 5.1 210 19:59 01.03.2020
1855 Clouds 6 991 70 10000 5.1 210 19:40 01.03.2020
1856 Clouds 7 990 65 10000 4.6 220 19:21 01.03.2020
1857 Clouds 7 990 65 10000 4.6 220 18:56 01.03.2020
1858 Rain 7 990 70 10000 5.7 210 18:38 01.03.2020
1859 Rain 7 990 70 10000 5.7 210 18:18 01.03.2020
1860 Rain 7 990 70 10000 5.7 210 17:55 01.03.2020
1861 Rain 7 990 70 10000 5.7 230 17:36 01.03.2020
1862 Rain 7 990 70 10000 5.7 230 17:18 01.03.2020
1863 Rain 7 990 70 10000 5.7 230 16:40 01.03.2020
1864 Rain 7 990 70 10000 5.7 230 16:40 01.03.2020
1865 Rain 7 990 70 10000 5.7 230 16:40 01.03.2020
1866 Rain 8 990 61 10000 7.2 240 16:20 01.03.2020
1867 Rain 8 990 61 10000 7.2 240 15:59 01.03.2020
1868 Rain 8 990 61 10000 7.2 240 15:40 01.03.2020
1869 Rain 8 990 61 10000 7.2 240 15:40 01.03.2020
1870 Rain 8 989 65 10000 7.2 240 15:22 01.03.2020
1871 Rain 8 989 65 10000 7.2 240 14:58 01.03.2020
1872 Rain 8 989 65 10000 7.2 240 14:39 01.03.2020
1873 Clouds 8 989 65 10000 8.2 230 14:21 01.03.2020
1874 Clouds 8 989 65 10000 8.2 230 14:21 01.03.2020
1875 Clouds 8 989 65 10000 8.2 230 13:59 01.03.2020
1876 Clouds 8 989 65 10000 8.2 230 13:41 01.03.2020
1877 Clouds 8 989 65 10000 9.8 220 13:20 01.03.2020
1878 Clouds 8 989 65 10000 9.8 220 12:56 01.03.2020
1879 Clouds 7 988 65 10000 8.7 220 12:38 01.03.2020
1880 Clouds 7 988 65 10000 8.7 220 12:19 01.03.2020
1881 Clouds 7 988 65 10000 8.7 220 11:40 01.03.2020
1882 Clouds 6 988 70 10000 9.3 220 11:20 01.03.2020
1883 Clouds 6 988 70 10000 9.3 220 10:56 01.03.2020
1884 Clouds 6 988 70 10000 7.7 210 10:37 01.03.2020
1885 Clouds 6 988 70 10000 7.7 210 10:37 01.03.2020
1886 Clouds 6 988 70 10000 7.7 210 10:37 01.03.2020
1887 Clouds 6 988 70 10000 7.7 210 10:18 01.03.2020
1888 Clouds 6 988 70 10000 7.7 210 09:45 01.03.2020
1889 Clouds 5 988 78 10000 8.2 210 09:26 01.03.2020
1890 Clouds 5 988 78 10000 8.2 210 08:51 01.03.2020
1891 Clouds 5 988 80 10000 8.7 220 08:29 01.03.2020
1892 Clouds 5 988 82 10000 8.7 220 07:59 01.03.2020
1893 Clouds 5 988 82 10000 8.7 220 07:40 01.03.2020
1894 Clouds 5 988 75 10000 8.2 220 07:22 01.03.2020
1895 Clouds 5 988 75 10000 8.2 220 06:43 01.03.2020
1896 Clouds 5 988 75 10000 9.8 220 06:21 01.03.2020
1897 Clouds 5 988 78 10000 9.3 210 03:40 01.03.2020
1898 Clouds 5 988 78 10000 8.2 210 02:23 01.03.2020
1899 Clouds 5 988 74 10000 8.2 210 01:46 01.03.2020
1900 Clouds 5 988 73 10000 7.2 220 01:20 01.03.2020
1901 Clouds 5 988 74 10000 7.2 220 01:20 01.03.2020
1902 Clouds 5 988 73 10000 7.2 220 00:40 01.03.2020
1903 Clouds 5 988 73 10000 6.7 210 00:19 01.03.2020
1904 Clouds 5 988 73 10000 6.7 210 23:42 29.02.2020
1905 Rain 5 988 75 10000 6.7 210 23:23 29.02.2020
1906 Rain 5 988 75 10000 6.7 210 22:40 29.02.2020
1907 Clouds 5 988 80 10000 6.7 230 22:22 29.02.2020
1908 Clouds 5 987 75 10000 7.7 250 21:42 29.02.2020
1909 Clouds 5 987 75 10000 7.7 250 21:22 29.02.2020
1910 Clouds 5 987 73 10000 9.3 260 20:43 29.02.2020
1911 Clouds 7 986 75 10000 8.2 250 20:21 29.02.2020
1912 Clouds 7 986 75 10000 8.2 250 19:56 29.02.2020
1913 Clouds 7 986 75 10000 8.2 250 19:56 29.02.2020
1914 Clouds 7 984 81 8000 12.9 260 19:37 29.02.2020
1915 Clouds 7 984 81 8000 12.9 260 19:19 29.02.2020
1916 Clouds 7 984 81 8000 12.9 260 18:42 29.02.2020
1917 Clouds 8 984 81 9000 12.3 250 18:23 29.02.2020
1918 Drizzle 12 982 62 4000 7.7 200 17:57 29.02.2020
1919 Clouds 12 982 62 10000 5.7 160 17:39 29.02.2020
1920 Clouds 12 982 62 10000 5.7 160 17:20 29.02.2020
1921 Clouds 12 982 62 10000 5.7 160 16:45 29.02.2020
1922 Clouds 14 984 54 10000 8.2 190 16:21 29.02.2020
1923 Clouds 14 984 54 10000 8.2 190 15:58 29.02.2020
1924 Clouds 13 985 58 10000 7.2 180 15:39 29.02.2020
1925 Clouds 13 985 58 10000 7.2 180 15:21 29.02.2020
1926 Clouds 12 986 66 10000 5.7 170 14:41 29.02.2020
1927 Clouds 12 986 66 10000 5.7 170 14:22 29.02.2020
1928 Clouds 11 988 76 10000 6.2 190 13:46 29.02.2020
1929 Clouds 11 988 76 10000 6.2 190 13:28 29.02.2020
1930 Clouds 11 988 76 10000 6.2 190 12:59 29.02.2020
1931 Clouds 11 988 76 10000 6.2 190 12:40 29.02.2020
1932 Clouds 10 989 81 10000 6.7 210 12:21 29.02.2020
1933 Clouds 10 989 81 10000 6.7 210 11:55 29.02.2020
1934 Clouds 9 990 87 10000 6.7 210 11:37 29.02.2020
1935 Clouds 9 990 87 10000 6.7 210 11:18 29.02.2020
1936 Clouds 9 990 87 10000 6.7 210 10:44 29.02.2020
1937 Clouds 9 990 87 8000 6.2 210 10:26 29.02.2020
1938 Clouds 8 990 93 7000 6.2 210 09:47 29.02.2020
1939 Mist 8 991 93 5000 6.2 210 09:23 29.02.2020
1940 Drizzle 8 991 93 3000 6.2 200 08:42 29.02.2020
1941 Drizzle 7 991 93 3500 6.2 210 08:22 29.02.2020
1942 Drizzle 7 991 93 3500 6.2 210 07:56 29.02.2020
1943 Drizzle 6 992 100 4500 6.2 200 07:36 29.02.2020
1944 Drizzle 6 992 100 4500 6.2 200 07:18 29.02.2020
1945 Drizzle 6 992 100 4500 6.2 200 06:41 29.02.2020
1946 Drizzle 5 993 100 4000 6.2 200 06:22 29.02.2020
1947 Drizzle 5 993 93 4500 6.2 190 05:40 29.02.2020
1948 Drizzle 3 994 93 6000 5.7 180 04:44 29.02.2020
1949 Drizzle 3 995 93 4000 5.7 180 03:40 29.02.2020
1950 Drizzle 2 996 93 3500 6.2 160 03:21 29.02.2020
1951 Drizzle 2 997 93 5000 5.7 170 02:34 29.02.2020
1952 Snow 1 1000 92 3800 7.7 160 00:58 29.02.2020
1953 Snow 1 1000 92 9000 7.2 170 00:36 29.02.2020
1954 Snow 2 1001 92 6000 7.2 150 23:43 28.02.2020
1955 Snow 2 1002 93 8000 7.2 150 23:25 28.02.2020
1956 Drizzle 3 1003 86 7000 6.7 160 22:54 28.02.2020
1957 Drizzle 4 1005 94 10000 7.2 190 22:36 28.02.2020
1958 Drizzle 4 1005 94 10000 7.2 190 22:18 28.02.2020
1959 Drizzle 4 1005 94 10000 7.2 190 21:41 28.02.2020
1960 Drizzle 4 1005 94 10000 7.2 190 21:41 28.02.2020
1961 Clouds 5 1006 65 10000 4.6 170 21:21 28.02.2020
1962 Clouds 5 1006 65 10000 4.6 170 20:41 28.02.2020
1963 Clouds 5 1007 86 10000 4.1 170 20:22 28.02.2020
1964 Clouds 5 1007 86 10000 4.1 170 20:22 28.02.2020
1965 Clouds 5 1007 86 10000 4.1 170 20:22 28.02.2020
1966 Clouds 5 1007 79 10000 4.1 170 19:59 28.02.2020
1967 Clouds 5 1009 79 10000 4.1 190 19:39 28.02.2020
1968 Clouds 5 1009 79 10000 4.1 190 19:21 28.02.2020
1969 Clouds 5 1009 79 10000 4.1 190 18:57 28.02.2020
1970 Clouds 5 1010 79 10000 3.6 210 18:39 28.02.2020
1971 Clouds 5 1010 79 10000 3.6 210 18:20 28.02.2020
1972 Clouds 5 1010 79 10000 3.6 210 17:41 28.02.2020
1973 Clouds 6 1010 79 10000 5.1 220 17:22 28.02.2020
1974 Clouds 6 1010 81 10000 5.1 220 16:47 28.02.2020
1975 Clouds 7 1011 81 10000 5.7 240 16:21 28.02.2020
1976 Clouds 7 1011 81 10000 5.7 240 15:59 28.02.2020
1977 Clouds 7 1011 81 10000 6.7 250 15:41 28.02.2020
1978 Clouds 7 1011 81 10000 6.7 250 15:20 28.02.2020
1979 Clouds 7 1011 81 10000 6.7 250 14:58 28.02.2020
1980 Clouds 7 1012 65 10000 7.2 250 14:39 28.02.2020
1981 Clouds 7 1012 65 10000 7.2 250 14:19 28.02.2020
1982 Clouds 7 1012 65 10000 7.2 250 13:57 28.02.2020
1983 Clouds 6 1012 70 10000 8.2 260 13:39 28.02.2020
1984 Clouds 6 1012 70 10000 8.2 260 13:19 28.02.2020
1985 Clouds 6 1012 70 10000 8.2 260 12:41 28.02.2020
1986 Clouds 6 1012 70 10000 9.3 260 12:23 28.02.2020
1987 Clouds 6 1012 70 10000 9.3 260 11:43 28.02.2020
1988 Clouds 5 1011 80 10000 7.7 250 11:24 28.02.2020
1989 Clouds 5 1011 80 10000 7.7 250 10:59 28.02.2020
1990 Clouds 5 1011 80 10000 7.2 250 10:40 28.02.2020
1991 Clouds 5 1011 80 10000 7.2 250 10:20 28.02.2020
1992 Clouds 5 1011 80 10000 7.2 250 09:47 28.02.2020
1993 Clouds 5 1011 80 10000 7.2 250 09:47 28.02.2020
1994 Clouds 3 1010 86 10000 5.1 250 09:21 28.02.2020
1995 Clouds 3 1010 86 10000 5.1 250 08:57 28.02.2020
1996 Clouds 3 1010 86 10000 5.1 250 08:57 28.02.2020
1997 Clouds 5 1009 80 10000 5.1 270 08:37 28.02.2020
1998 Clouds 5 1009 80 10000 5.1 270 08:19 28.02.2020
1999 Clouds 4 1009 80 10000 4.6 260 07:40 28.02.2020
2000 Clouds 4 1009 80 10000 4.6 260 07:21 28.02.2020
2001 Clouds 4 1009 80 10000 4.6 260 06:45 28.02.2020
2002 Clouds 3 1008 79 10000 5.7 290 06:20 28.02.2020
2003 Rain 3 1007 86 10000 7.2 310 04:45 28.02.2020
2004 Clouds 3 1006 86 10000 8.2 290 04:18 28.02.2020
2005 Rain 4 1005 77 8000 6.7 300 02:46 28.02.2020
2006 Rain 4 1005 77 8000 6.7 300 02:46 28.02.2020
2007 Clouds 4 1004 80 10000 5.1 300 02:25 28.02.2020
2008 Drizzle 2 1003 93 8000 2.6 250 00:48 28.02.2020
2009 Clouds 1 1003 78 7000 4.6 250 00:26 28.02.2020
2010 Clouds 2 1002 78 7000 5.7 250 23:42 27.02.2020
2011 Drizzle 3 1002 86 9000 3.6 230 23:19 27.02.2020
2012 Drizzle 3 1001 86 10000 4.1 250 22:43 27.02.2020
2013 Clouds 2 1001 93 10000 2.1 240 22:25 27.02.2020
2014 Clouds 2 1001 93 10000 2.1 240 21:58 27.02.2020
2015 Clouds 2 999 93 10000 2.6 210 21:39 27.02.2020
2016 Clouds 2 999 93 10000 2.6 210 21:19 27.02.2020
2017 Clouds 2 999 93 10000 2.6 210 20:56 27.02.2020
2018 Clouds 2 999 93 10000 1.5 190 20:38 27.02.2020
2019 Clouds 2 999 73 10000 1.5 190 20:20 27.02.2020
2020 Clouds 2 999 70 10000 1.5 190 19:54 27.02.2020
2021 Clouds 2 998 70 10000 2.1 180 19:36 27.02.2020
2022 Clouds 2 998 70 10000 2.1 180 19:18 27.02.2020
2023 Clouds 2 998 70 10000 2.1 180 18:40 27.02.2020
2024 Clouds 3 997 70 10000 3.1 200 18:21 27.02.2020
2025 Clouds 3 997 70 10000 3.1 200 17:57 27.02.2020
2026 Clouds 3 997 70 10000 3.1 200 17:57 27.02.2020
2027 Clouds 3 997 70 10000 2.6 180 17:39 27.02.2020
2028 Clouds 3 997 72 10000 2.6 180 17:19 27.02.2020
2029 Clouds 3 997 72 10000 2.6 180 16:55 27.02.2020
2030 Rain 3 997 72 10000 4.1 220 16:37 27.02.2020
2031 Rain 3 997 72 10000 4.1 220 16:18 27.02.2020
2032 Rain 3 997 72 10000 4.1 220 15:54 27.02.2020
2033 Clouds 5 997 75 10000 4.1 220 15:36 27.02.2020
2034 Clouds 5 997 75 10000 4.1 220 15:18 27.02.2020
2035 Clouds 5 997 75 10000 4.1 220 14:40 27.02.2020
2036 Clouds 5 998 75 10000 4.1 200 14:22 27.02.2020
2037 Clouds 5 998 75 10000 4.1 200 13:56 27.02.2020
2038 Clouds 4 998 80 10000 4.1 210 13:38 27.02.2020
2039 Clouds 4 998 80 10000 4.1 210 13:20 27.02.2020
2040 Clouds 4 998 80 10000 4.6 210 12:45 27.02.2020
2041 Clouds 4 999 80 10000 4.6 210 12:22 27.02.2020
2042 Clouds 4 999 80 10000 4.6 210 11:56 27.02.2020
2043 Clouds 3 999 86 10000 4.6 220 11:37 27.02.2020
2044 Clouds 3 999 86 10000 4.6 220 11:18 27.02.2020
2045 Clouds 3 999 86 10000 4.6 220 10:41 27.02.2020
2046 Clouds 2 1000 93 10000 4.1 220 10:20 27.02.2020
2047 Clouds 2 1000 93 10000 4.1 220 09:45 27.02.2020
2048 Clouds 1 1000 77 10000 4.1 220 09:26 27.02.2020
2049 Clouds 1 1000 77 10000 4.1 220 08:56 27.02.2020
2050 Clouds 1 1000 77 10000 4.1 230 08:38 27.02.2020
2051 Clouds 1 1000 69 10000 4.1 230 08:18 27.02.2020
2052 Clouds 2 1000 93 10000 6.2 250 07:42 27.02.2020
2053 Snow 2 1000 93 10000 4.6 240 07:24 27.02.2020
2054 Snow 2 1000 93 10000 4.6 240 07:24 27.02.2020
2055 Snow 2 1000 93 10000 5.1 240 06:30 27.02.2020
2056 Clouds 2 1000 93 10000 4.6 220 05:23 27.02.2020
2057 Snow 2 1001 93 10000 5.7 260 03:20 27.02.2020
2058 Clouds 2 1000 93 10000 3.1 240 01:39 27.02.2020
2059 Clouds 2 1000 93 10000 3.1 240 00:42 27.02.2020
2060 Rain 2 1000 93 10000 3.1 240 00:19 27.02.2020
2061 Clouds 2 1000 93 10000 2.6 220 23:38 26.02.2020
2062 Clouds 2 1000 93 10000 2.6 220 23:18 26.02.2020
2063 Clouds 1 1000 73 10000 2.6 220 22:55 26.02.2020
2064 Clouds 1 1000 73 10000 1 240 22:37 26.02.2020
2065 Clouds 1 1000 73 10000 1 240 22:19 26.02.2020
2066 Clouds 1 1000 73 10000 1 240 21:40 26.02.2020
2067 Rain 2 999 73 10000 3.1 310 21:20 26.02.2020
2068 Rain 2 999 73 10000 3.1 310 20:56 26.02.2020
2069 Clouds 2 999 73 10000 1 320 20:38 26.02.2020
2070 Clouds 2 999 74 10000 1 320 20:19 26.02.2020
2071 Clouds 2 999 76 10000 1 320 19:57 26.02.2020
2072 Rain 2 998 76 10000 2.1 320 19:38 26.02.2020
2073 Rain 2 998 76 10000 2.1 320 19:19 26.02.2020
2074 Rain 2 998 76 10000 2.1 320 18:57 26.02.2020
2075 Rain 4 997 69 10000 5.7 310 18:37 26.02.2020
2076 Rain 4 997 69 10000 5.7 310 18:19 26.02.2020
2077 Rain 4 997 69 10000 5.7 310 17:41 26.02.2020
2078 Rain 4 997 69 10000 5.7 310 17:41 26.02.2020
2079 Rain 5 996 73 10000 5.1 310 17:20 26.02.2020
2080 Rain 5 996 73 10000 5.1 310 16:57 26.02.2020
2081 Clouds 6 995 70 10000 6.7 310 16:38 26.02.2020
2082 Clouds 6 995 70 10000 6.7 310 16:20 26.02.2020
2083 Clouds 6 995 70 10000 6.7 310 15:45 26.02.2020
2084 Clouds 6 994 70 10000 6.7 300 15:27 26.02.2020
2085 Clouds 6 994 70 10000 6.7 300 14:55 26.02.2020
2086 Clouds 6 994 70 10000 6.7 300 14:55 26.02.2020
2087 Rain 5 994 80 10000 6.7 290 14:37 26.02.2020
2088 Rain 5 994 80 10000 6.7 290 14:18 26.02.2020
2089 Rain 5 994 80 10000 6.7 290 13:42 26.02.2020
2090 Rain 5 993 80 10000 6.2 300 13:20 26.02.2020
2091 Clouds 5 992 80 10000 5.7 290 12:39 26.02.2020
2092 Clouds 5 992 80 10000 5.7 290 12:20 26.02.2020
2093 Clouds 5 992 80 10000 5.7 290 11:57 26.02.2020
2094 Clouds 4 992 86 10000 3.6 260 11:39 26.02.2020
2095 Clouds 4 992 86 10000 3.6 260 11:21 26.02.2020
2096 Clouds 4 992 86 10000 3.6 260 10:42 26.02.2020
2097 Rain 3 991 93 10000 3.6 280 10:23 26.02.2020
2098 Rain 3 991 93 10000 3.6 280 09:57 26.02.2020
2099 Rain 2 991 93 10000 2.6 240 09:39 26.02.2020
2100 Rain 2 991 93 10000 2.6 240 09:20 26.02.2020
2101 Rain 2 990 93 10000 4.1 270 08:39 26.02.2020
2102 Rain 2 990 93 10000 4.1 270 08:20 26.02.2020
2103 Rain 2 990 93 5000 2.6 270 07:51 26.02.2020
2104 Clouds 2 990 93 10000 2.6 220 07:30 26.02.2020
2105 Clouds 2 990 93 10000 2.6 220 06:59 26.02.2020
2106 Clouds 2 990 93 10000 2.6 220 06:40 26.02.2020
2107 Clouds 2 989 93 10000 2.6 230 06:21 26.02.2020
2108 Clouds 2 989 93 10000 2.6 230 05:48 26.02.2020
2109 Clouds 2 989 93 10000 3.1 250 04:58 26.02.2020
2110 Clouds 3 990 86 10000 3.1 260 02:56 26.02.2020
2111 Clouds 2 990 93 10000 4.1 230 01:56 26.02.2020
2112 Clouds 3 990 86 10000 3.6 240 01:24 26.02.2020
2113 Clouds 3 990 86 10000 4.6 240 00:38 26.02.2020
2114 Clouds 3 990 86 10000 4.6 240 00:19 26.02.2020
2115 Clouds 3 990 86 10000 5.7 250 23:41 25.02.2020
2116 Clouds 3 991 86 10000 6.2 250 23:21 25.02.2020
2117 Clouds 3 991 86 10000 6.2 250 22:56 25.02.2020
2118 Clouds 3 991 86 10000 5.7 250 22:36 25.02.2020
2119 Clouds 3 991 86 10000 5.7 250 22:18 25.02.2020
2120 Clouds 3 991 86 10000 6.2 250 21:38 25.02.2020
2121 Clouds 3 991 86 10000 6.2 250 21:20 25.02.2020
2122 Clouds 3 991 86 10000 6.2 250 20:57 25.02.2020
2123 Clouds 3 992 86 10000 6.7 250 20:38 25.02.2020
2124 Clouds 3 992 86 10000 6.7 250 20:19 25.02.2020
2125 Clouds 3 992 86 10000 6.7 250 19:45 25.02.2020
2126 Rain 4 992 80 10000 8.7 260 19:23 25.02.2020
2127 Rain 4 992 80 10000 8.7 260 18:59 25.02.2020
2128 Rain 4 992 80 10000 10.3 260 18:40 25.02.2020
2129 Rain 4 992 80 10000 10.3 260 18:21 25.02.2020
2130 Clouds 4 992 80 10000 10.3 260 17:56 25.02.2020
2131 Rain 4 992 86 10000 9.8 280 17:37 25.02.2020
2132 Rain 4 992 86 10000 9.8 280 17:18 25.02.2020
2133 Rain 4 992 86 10000 9.8 280 16:56 25.02.2020
2134 Rain 4 992 86 10000 12.3 270 16:37 25.02.2020
2135 Rain 4 992 86 10000 12.3 270 16:19 25.02.2020
2136 Rain 5 992 75 3500 11.8 270 15:45 25.02.2020
2137 Rain 4 992 86 9000 14.9 280 15:20 25.02.2020
2138 Rain 5 992 80 6000 13.9 280 14:59 25.02.2020
2139 Rain 7 991 65 10000 13.4 260 14:39 25.02.2020
2140 Rain 7 991 65 10000 13.4 260 14:19 25.02.2020
2141 Rain 7 991 65 10000 13.4 260 14:19 25.02.2020
2142 Rain 7 991 65 10000 13.4 260 14:18 25.02.2020
2143 Rain 7 991 65 10000 13.4 260 13:59 25.02.2020
2144 Rain 7 991 65 10000 13.4 260 13:59 25.02.2020
2145 Rain 7 991 65 10000 13.4 260 13:40 25.02.2020
2146 Rain 6 991 70 10000 14.9 260 13:21 25.02.2020
2147 Rain 6 991 75 10000 11.3 270 12:59 25.02.2020
2148 Clouds 5 992 80 7000 9.8 260 12:39 25.02.2020
2149 Clouds 5 992 80 7000 9.8 260 12:20 25.02.2020
2150 Clouds 6 991 70 10000 14.4 250 11:56 25.02.2020
2151 Clouds 6 992 70 10000 11.3 250 11:37 25.02.2020
2152 Clouds 6 992 70 10000 11.3 250 11:18 25.02.2020
2153 Clouds 6 992 70 10000 11.3 250 10:42 25.02.2020
2154 Clouds 6 992 70 10000 11.8 250 10:23 25.02.2020
2155 Rain 6 992 70 10000 10.8 250 09:57 25.02.2020
2156 Rain 6 993 70 10000 10.8 250 09:39 25.02.2020
2157 Rain 6 993 70 10000 10.8 250 09:18 25.02.2020
2158 Rain 6 993 70 10000 10.8 250 08:42 25.02.2020
2159 Rain 5 993 80 10000 10.8 260 08:24 25.02.2020
2160 Rain 5 993 80 10000 10.8 260 07:49 25.02.2020
2161 Rain 5 993 80 8000 11.3 250 07:24 25.02.2020
2162 Clouds 6 994 70 10000 10.3 250 06:56 25.02.2020
2163 Clouds 6 994 70 10000 11.3 250 06:25 25.02.2020
2164 Clouds 6 994 75 10000 10.8 250 05:22 25.02.2020
2165 Clouds 7 994 81 10000 11.3 270 02:37 25.02.2020
2166 Rain 9 994 87 8000 7.7 240 00:58 25.02.2020
2167 Clouds 9 994 87 10000 8.2 240 00:32 25.02.2020
2168 Clouds 9 994 87 9000 8.2 240 23:56 24.02.2020
2169 Rain 9 995 93 5000 8.2 240 23:37 24.02.2020
2170 Rain 9 995 93 5000 8.2 240 23:18 24.02.2020
2171 Drizzle 8 995 100 3700 7.7 240 22:37 24.02.2020
2172 Drizzle 8 995 100 3700 7.7 240 22:18 24.02.2020
2173 Drizzle 8 995 100 3700 7.7 240 21:55 24.02.2020
2174 Drizzle 6 996 100 2000 5.7 210 21:37 24.02.2020
2175 Drizzle 6 996 100 2000 5.7 210 21:18 24.02.2020
2176 Drizzle 6 996 100 2000 5.7 210 20:54 24.02.2020
2177 Drizzle 4 997 93 1500 3.6 170 20:36 24.02.2020
2178 Drizzle 4 997 93 1500 3.6 170 20:18 24.02.2020
2179 Drizzle 2 997 100 2000 4.6 160 19:55 24.02.2020
2180 Rain 1 999 100 5000 4.1 140 19:36 24.02.2020
2181 Rain 1 999 100 5000 4.1 140 19:18 24.02.2020
2182 Rain 1 999 100 5000 4.1 140 18:41 24.02.2020
2183 Rain 0 1001 96 4000 5.1 130 18:22 24.02.2020
2184 Rain 0 1001 96 4000 5.1 130 17:55 24.02.2020
2185 Snow 0 1002 96 2000 5.7 120 17:36 24.02.2020
2186 Snow 0 1002 97 2000 5.7 120 17:18 24.02.2020
2187 Snow 0 1004 97 1000 5.1 120 16:55 24.02.2020
2188 Snow 1 1006 86 700 4.1 120 16:36 24.02.2020
2189 Snow 1 1006 86 700 4.1 120 16:18 24.02.2020
2190 Snow 1 1006 86 700 4.1 120 15:55 24.02.2020
2191 Rain 3 1010 93 4000 4.6 190 15:37 24.02.2020
2192 Rain 3 1010 93 4000 4.6 190 15:18 24.02.2020
2193 Rain 3 1010 93 4000 4.6 190 14:40 24.02.2020
2194 Rain 4 1010 86 4000 6.2 180 14:22 24.02.2020
2195 Rain 5 1011 80 3000 4.6 180 13:58 24.02.2020
2196 Rain 5 1011 80 3000 4.6 180 13:58 24.02.2020
2197 Rain 5 1011 80 3000 4.6 180 13:58 24.02.2020
2198 Clouds 5 1013 86 10000 9.63 196 13:39 24.02.2020
2199 Clouds 5 1013 86 10000 9.78 192 13:21 24.02.2020
2200 Clouds 5 1013 86 10000 9.78 192 12:57 24.02.2020
2201 Clouds 5 1014 86 10000 3.6 200 12:39 24.02.2020
2202 Clouds 5 1014 86 10000 3.6 200 12:21 24.02.2020
2203 Clouds 5 1014 86 10000 3.6 200 11:46 24.02.2020
2204 Clouds 5 1016 93 10000 3.6 210 11:28 24.02.2020
2205 Clouds 5 1016 93 10000 3.6 210 10:48 24.02.2020
2206 Clouds 5 1016 93 10000 4.1 220 10:30 24.02.2020
2207 Clouds 5 1017 86 10000 3.6 230 09:55 24.02.2020
2208 Clouds 5 1017 86 10000 4.6 240 09:37 24.02.2020
2209 Clouds 5 1017 86 10000 4.6 240 09:18 24.02.2020
2210 Clouds 5 1017 86 10000 4.6 240 08:47 24.02.2020
2211 Clouds 6 1017 81 10000 4.6 260 08:28 24.02.2020
2212 Clouds 6 1017 81 10000 4.6 260 07:48 24.02.2020
2213 Clouds 6 1018 81 10000 5.7 280 07:30 24.02.2020
2214 Clouds 6 1018 81 10000 5.7 280 06:45 24.02.2020
2215 Clouds 6 1017 81 10000 7.7 300 06:21 24.02.2020
2216 Clouds 6 1017 87 10000 7.7 280 05:31 24.02.2020
2217 Clouds 6 1017 87 10000 7.7 280 04:48 24.02.2020
2218 Clouds 6 1016 81 10000 8.2 270 02:56 24.02.2020
2219 Clouds 6 1016 75 10000 9.8 280 01:50 24.02.2020
2220 Clouds 5 1015 80 10000 9.3 290 01:28 24.02.2020
2221 Rain 6 1014 75 10000 10.8 290 00:36 24.02.2020
2222 Rain 6 1014 75 10000 10.8 290 00:18 24.02.2020
2223 Rain 6 1014 75 10000 10.8 290 23:42 23.02.2020
2224 Clouds 5 1013 75 10000 10.8 290 23:20 23.02.2020
2225 Clouds 5 1013 75 10000 10.8 290 22:57 23.02.2020
2226 Clouds 5 1011 75 10000 10.3 300 22:39 23.02.2020
2227 Clouds 5 1011 75 10000 10.3 300 22:19 23.02.2020
2228 Clouds 5 1011 75 10000 10.3 300 21:46 23.02.2020
2229 Clouds 5 1011 75 10000 10.3 300 21:46 23.02.2020
2230 Clouds 4 1010 80 10000 10.3 300 21:20 23.02.2020
2231 Clouds 4 1010 80 10000 10.3 300 20:57 23.02.2020
2232 Clouds 5 1009 75 5000 14.9 290 20:39 23.02.2020
2233 -273 0 0 0 0 0 20:21 23.02.2020
2234 Clouds 5 1008 86 10000 11.3 280 19:58 23.02.2020
2235 Clouds 5 1008 86 10000 11.3 280 19:40 23.02.2020
2236 Clouds 5 1007 80 10000 8.2 290 19:19 23.02.2020
2237 Clouds 5 1007 80 10000 8.2 290 18:58 23.02.2020
2238 Clouds 5 1006 86 10000 8.7 290 18:37 23.02.2020
2239 Clouds 5 1006 86 10000 8.7 290 18:19 23.02.2020
2240 Rain 5 1005 86 10000 7.7 310 17:57 23.02.2020
2241 Rain 5 1003 93 8000 8.7 310 17:38 23.02.2020
2242 Rain 5 1003 93 8000 8.7 310 17:19 23.02.2020
2243 Rain 5 1003 93 8000 8.7 310 16:46 23.02.2020
2244 Rain 4 1001 100 6000 7.7 300 16:27 23.02.2020
2245 Rain 4 1001 100 6000 7.7 300 15:59 23.02.2020
2246 Rain 4 1001 100 6000 7.7 300 15:39 23.02.2020
2247 Drizzle 5 1001 93 4500 6.7 290 15:21 23.02.2020
2248 Drizzle 5 1001 86 6000 3.6 250 14:59 23.02.2020
2249 Drizzle 5 1001 86 6000 3.6 250 14:40 23.02.2020
2250 Drizzle 5 1001 86 6000 3.6 250 14:22 23.02.2020
2251 Rain 5 1002 93 10000 3.6 250 13:57 23.02.2020
2252 Rain 5 1002 86 10000 3.6 240 13:39 23.02.2020
2253 Rain 5 1002 86 10000 3.6 240 13:20 23.02.2020
2254 Rain 5 1004 93 10000 4.6 240 12:43 23.02.2020
2255 Rain 5 1002 86 10000 3.6 240 12:43 23.02.2020
2256 Rain 5 1004 93 10000 4.6 240 12:22 23.02.2020
2257 Rain 5 1004 93 10000 4.6 240 11:58 23.02.2020
2258 Rain 5 1006 93 9000 4.1 220 11:37 23.02.2020
2259 Rain 5 1006 93 9000 4.1 220 11:18 23.02.2020
2260 Rain 5 1006 93 9000 4.1 220 10:55 23.02.2020
2261 Rain 5 1007 93 9000 3.6 240 10:37 23.02.2020
2262 Rain 5 1007 93 9000 3.6 240 10:19 23.02.2020
2263 Rain 5 1007 93 9000 3.6 240 09:40 23.02.2020
2264 Rain 5 1009 86 9000 6.2 240 09:21 23.02.2020
2265 Rain 5 1009 86 9000 6.2 240 08:56 23.02.2020
2266 Rain 5 1010 86 10000 5.1 260 08:38 23.02.2020
2267 Rain 5 1010 86 10000 5.1 260 08:18 23.02.2020
2268 Rain 5 1010 86 10000 5.1 260 07:40 23.02.2020
2269 Rain 7 1011 70 10000 9.3 260 06:52 23.02.2020
2270 Clouds 7 1010 75 10000 11.8 260 05:50 23.02.2020
2271 Clouds 7 1011 70 10000 12.3 260 04:42 23.02.2020
2272 Clouds 7 1012 65 10000 9.3 260 03:21 23.02.2020
2273 Clouds 7 1012 65 10000 10.8 260 02:27 23.02.2020
2274 Clouds 7 1012 65 10000 12.9 270 01:25 23.02.2020
2275 Clouds 7 1012 65 10000 12.9 270 00:48 23.02.2020
2276 Clouds 7 1011 70 10000 11.3 260 00:26 23.02.2020
2277 Clouds 7 1011 70 10000 11.3 260 23:47 22.02.2020
2278 Clouds 6 1011 81 10000 8.7 270 23:29 22.02.2020
2279 Clouds 6 1011 81 10000 8.7 270 22:59 22.02.2020
2280 Clouds 6 1011 81 10000 8.7 270 22:40 22.02.2020
2281 Clouds 6 1011 81 10000 9.3 270 22:18 22.02.2020
2282 Clouds 8 1011 65 10000 10.8 260 21:41 22.02.2020
2283 Clouds 8 1011 65 10000 10.8 260 21:23 22.02.2020
2284 Clouds 8 1011 65 10000 10.8 260 20:47 22.02.2020
2285 Clouds 9 1011 61 10000 12.3 260 20:25 22.02.2020
2286 Clouds 9 1011 61 10000 12.3 260 19:59 22.02.2020
2287 Clouds 8 1010 70 10000 11.3 260 19:41 22.02.2020
2288 Clouds 8 1010 70 10000 11.3 260 19:21 22.02.2020
2289 Clouds 8 1010 70 10000 11.3 260 18:41 22.02.2020
2290 Clouds 8 1010 70 10000 11.8 260 18:22 22.02.2020
2291 Clouds 8 1010 70 10000 11.8 260 17:58 22.02.2020
2292 Clouds 8 1010 70 10000 11.8 260 17:40 22.02.2020
2293 Clouds 8 1008 70 10000 12.3 270 17:22 22.02.2020
2294 Clouds 8 1008 70 10000 12.3 270 16:58 22.02.2020
2295 Clouds 9 1007 70 10000 12.3 260 16:39 22.02.2020
2296 Clouds 9 1007 70 10000 12.3 260 16:20 22.02.2020
2297 Clouds 9 1007 70 10000 12.3 260 15:45 22.02.2020
2298 Clouds 9 1007 76 10000 12.9 260 15:26 22.02.2020
2299 Clouds 9 1007 76 10000 12.9 260 14:56 22.02.2020
2300 Drizzle 8 1007 93 3500 10.8 240 14:38 22.02.2020
2301 Drizzle 8 1007 93 3500 10.8 240 14:19 22.02.2020
2302 Drizzle 8 1007 93 3500 10.8 240 13:41 22.02.2020
2303 Drizzle 8 1007 87 3500 10.8 240 13:19 22.02.2020
2304 Drizzle 7 1007 93 6000 10.3 240 12:47 22.02.2020
2305 Drizzle 7 1007 93 3500 11.3 240 12:24 22.02.2020
2306 Drizzle 7 1007 87 5000 10.8 240 11:56 22.02.2020
2307 Drizzle 7 1007 87 9000 10.3 240 11:37 22.02.2020
2308 Drizzle 7 1007 87 9000 10.3 240 11:18 22.02.2020
2309 Drizzle 6 1008 87 10000 10.3 220 10:41 22.02.2020
2310 Drizzle 6 1008 87 10000 10.3 220 10:20 22.02.2020
2311 Drizzle 6 1008 87 10000 10.3 220 09:59 22.02.2020
2312 Drizzle 6 1008 87 10000 10.3 220 09:39 22.02.2020
2313 Drizzle 6 1008 87 10000 10.3 220 09:21 22.02.2020
2314 Drizzle 6 1008 93 9000 9.3 220 08:51 22.02.2020
2315 Drizzle 6 1009 93 9000 8.7 220 08:28 22.02.2020
2316 Drizzle 7 1009 87 6000 8.2 220 07:52 22.02.2020
2317 Drizzle 7 1009 81 6000 8.7 230 07:20 22.02.2020
2318 Rain 8 1009 75 10000 8.7 230 06:50 22.02.2020
2319 Clouds 8 1009 75 10000 9.3 230 06:32 22.02.2020
2320 Rain 8 1011 75 10000 9.3 230 04:42 22.02.2020
2321 Rain 8 1012 75 10000 9.3 230 03:45 22.02.2020
2322 Rain 8 1014 75 10000 7.7 230 02:33 22.02.2020
2323 Rain 8 1014 75 10000 7.7 230 01:47 22.02.2020
2324 Rain 7 1015 81 10000 8.7 230 01:27 22.02.2020
2325 Rain 7 1015 81 10000 8.7 230 00:46 22.02.2020
2326 Rain 7 1015 87 10000 8.2 230 00:28 22.02.2020
2327 Rain 7 1015 87 10000 8.2 230 23:48 21.02.2020
2328 Rain 7 1016 87 5000 7.2 230 23:24 21.02.2020
2329 Rain 7 1016 87 5000 7.2 230 22:57 21.02.2020
2330 Rain 7 1017 87 6000 7.7 230 22:39 21.02.2020
2331 Rain 7 1017 87 6000 7.7 230 22:20 21.02.2020
2332 Rain 7 1017 87 6000 7.7 230 21:42 21.02.2020
2333 Rain 7 1017 87 6000 7.7 230 21:42 21.02.2020
2334 Rain 6 1017 93 10000 7.7 220 21:24 21.02.2020
2335 Rain 6 1017 93 10000 7.7 220 20:50 21.02.2020
2336 Drizzle 6 1018 87 9000 7.2 220 20:32 21.02.2020
2337 Drizzle 6 1018 87 9000 7.2 220 19:59 21.02.2020
2338 Drizzle 6 1018 87 9000 7.2 240 19:39 21.02.2020
2339 Drizzle 6 1018 87 9000 7.2 240 19:19 21.02.2020
2340 Rain 6 1018 87 9000 6.2 230 18:40 21.02.2020
2341 Rain 6 1018 87 9000 6.2 230 18:22 21.02.2020
2342 Rain 6 1018 87 9000 6.2 230 18:22 21.02.2020
2343 Rain 6 1018 87 9000 6.2 230 17:56 21.02.2020
2344 Rain 7 1018 75 10000 7.7 240 17:36 21.02.2020
2345 Rain 7 1018 75 10000 7.7 240 17:18 21.02.2020
2346 Rain 8 1018 70 10000 6.7 240 16:42 21.02.2020
2347 Clouds 7 1018 75 10000 7.2 230 16:22 21.02.2020
2348 Clouds 7 1018 75 10000 7.2 230 15:58 21.02.2020
2349 Clouds 7 1018 75 10000 7.7 230 15:38 21.02.2020
2350 Clouds 7 1018 75 10000 7.7 230 15:18 21.02.2020
2351 Clouds 7 1018 75 10000 7.7 230 15:18 21.02.2020
2352 Clouds 7 1018 75 10000 7.7 230 14:42 21.02.2020
2353 Clouds 7 1019 70 10000 6.7 240 14:21 21.02.2020
2354 Clouds 7 1019 75 10000 7.7 240 13:58 21.02.2020
2355 Clouds 7 1019 75 10000 6.7 250 13:38 21.02.2020
2356 Clouds 7 1019 75 10000 6.7 250 13:20 21.02.2020
2357 Clouds 7 1019 75 10000 6.7 250 12:42 21.02.2020
2358 Clouds 6 1018 81 10000 8.2 250 12:24 21.02.2020
2359 Clouds 6 1018 81 10000 8.2 250 11:55 21.02.2020
2360 Clouds 6 1018 81 10000 7.7 250 11:37 21.02.2020
2361 Clouds 6 1018 81 10000 7.7 250 11:19 21.02.2020
2362 Clouds 6 1018 81 10000 7.7 250 10:42 21.02.2020
2363 Clouds 6 1017 75 10000 8.7 260 10:20 21.02.2020
2364 Clouds 6 1017 75 10000 8.7 260 09:58 21.02.2020
2365 Rain 6 1016 75 10000 9.3 260 09:39 21.02.2020
2366 Rain 6 1016 75 10000 9.3 260 09:20 21.02.2020
2367 Rain 6 1016 75 10000 9.3 260 08:54 21.02.2020
2368 Clouds 5 1015 80 10000 7.7 260 08:36 21.02.2020
2369 Clouds 5 1015 80 10000 7.7 260 08:18 21.02.2020
2370 Clouds 5 1015 80 10000 7.7 260 07:41 21.02.2020
2371 Clouds 5 1014 80 10000 7.2 270 07:20 21.02.2020
2372 Clouds 5 1014 80 10000 7.2 270 06:55 21.02.2020
2373 Clouds 6 1013 70 10000 8.7 270 06:32 21.02.2020
2374 Clouds 6 1013 70 10000 8.7 270 05:56 21.02.2020
2375 Clouds 5 1012 75 10000 12.3 280 05:30 21.02.2020
2376 Clouds 5 1011 74 10000 10.8 290 04:26 21.02.2020
2377 Clouds 5 1011 74 10000 10.8 290 03:46 21.02.2020
2378 Clouds 5 1010 75 10000 10.8 280 02:59 21.02.2020
2379 Clouds 5 1008 75 10000 10.3 310 01:34 21.02.2020
2380 Rain 6 1007 75 6000 12.9 290 00:54 21.02.2020
2381 Drizzle 5 1005 80 10000 12.9 290 00:36 21.02.2020
2382 Drizzle 5 1005 80 10000 12.9 290 00:18 21.02.2020
2383 Rain 5 1005 86 6000 12.3 290 23:39 20.02.2020
2384 Rain 5 1005 86 6000 12.3 290 23:21 20.02.2020
2385 Drizzle 6 1004 81 10000 10.8 290 22:40 20.02.2020
2386 Rain 7 1001 93 8000 9.8 220 22:21 20.02.2020
2387 Rain 7 1001 93 8000 9.8 220 21:57 20.02.2020
2388 Clouds 7 1001 93 10000 7.2 210 21:39 20.02.2020
2389 Clouds 7 1001 93 10000 7.2 210 21:19 20.02.2020
2390 Clouds 7 1001 87 10000 7.7 210 20:56 20.02.2020
2391 Clouds 8 1002 81 10000 7.7 200 20:38 20.02.2020
2392 Clouds 8 1002 81 10000 7.7 200 20:19 20.02.2020
2393 Clouds 8 1002 81 10000 7.7 200 20:19 20.02.2020
2394 Clouds 8 1002 81 10000 7.7 200 20:19 20.02.2020
2395 Clouds 8 1002 81 10000 7.7 200 19:59 20.02.2020
2396 Clouds 8 1002 81 10000 7.7 200 19:40 20.02.2020
2397 Clouds 9 1003 70 10000 6.7 200 19:22 20.02.2020
2398 Clouds 9 1003 70 10000 6.7 200 18:55 20.02.2020
2399 Clouds 8 1005 81 10000 6.2 200 18:37 20.02.2020
2400 Clouds 8 1005 81 10000 6.2 200 18:18 20.02.2020
2401 -273 0 0 0 0 0 17:39 20.02.2020
2402 Clouds 8 1005 81 10000 6.2 200 17:19 20.02.2020
2403 Clouds 9 1006 76 10000 6.7 210 16:58 20.02.2020
2404 Clouds 9 1007 76 10000 6.2 210 16:39 20.02.2020
2405 Clouds 9 1007 76 10000 6.2 210 16:19 20.02.2020
2406 Clouds 9 1007 76 10000 6.2 210 15:56 20.02.2020
2407 Clouds 8 1008 87 10000 6.7 210 15:37 20.02.2020
2408 Clouds 8 1008 87 10000 6.7 210 15:19 20.02.2020
2409 Clouds 8 1008 87 10000 6.7 210 14:43 20.02.2020
2410 Clouds 8 1009 87 10000 7.2 210 14:25 20.02.2020
2411 Clouds 8 1009 87 10000 7.2 210 13:58 20.02.2020
2412 Clouds 8 1009 87 10000 7.2 210 13:40 20.02.2020
2413 Drizzle 8 1009 87 4000 7.7 210 13:19 20.02.2020
2414 Drizzle 8 1009 87 4000 7.7 210 12:43 20.02.2020
2415 Clouds 8 1010 87 10000 6.7 210 12:21 20.02.2020
2416 Drizzle 7 1010 93 2500 6.7 220 11:59 20.02.2020
2417 Drizzle 7 1010 93 2500 6.7 220 11:41 20.02.2020
2418 Drizzle 7 1010 93 2000 7.7 210 11:22 20.02.2020
2419 Drizzle 7 1010 93 2500 6.2 210 10:56 20.02.2020
2420 Drizzle 6 1011 93 2500 5.1 200 10:38 20.02.2020
2421 Drizzle 6 1011 93 2500 5.1 200 10:20 20.02.2020
2422 Drizzle 6 1011 93 2500 5.1 200 09:42 20.02.2020
2423 Drizzle 6 1011 93 3000 5.7 200 09:23 20.02.2020
2424 Drizzle 6 1011 93 4000 6.2 200 08:57 20.02.2020
2425 Drizzle 5 1011 93 4500 5.7 200 08:37 20.02.2020
2426 Drizzle 5 1011 93 4500 5.7 200 08:19 20.02.2020
2427 Drizzle 5 1011 93 4500 5.7 200 07:44 20.02.2020
2428 Drizzle 5 1012 93 4500 5.7 200 07:20 20.02.2020
2429 Drizzle 5 1012 93 4500 5.7 200 06:44 20.02.2020
2430 Clouds 4 1012 93 7000 5.7 200 06:20 20.02.2020
2431 Clouds 4 1012 93 7000 5.7 200 05:43 20.02.2020
2432 Drizzle 4 1013 93 6000 5.7 190 04:50 20.02.2020
2433 Drizzle 4 1014 86 7000 5.1 210 03:47 20.02.2020
2434 Drizzle 4 1015 80 9000 4.6 210 02:59 20.02.2020
2435 Clouds 3 1015 85 10000 4.1 200 01:52 20.02.2020
2436 Clouds 3 1015 85 10000 4.1 210 00:56 20.02.2020
2437 Clouds 3 1016 86 10000 4.6 220 00:26 20.02.2020
2438 Clouds 3 1016 86 10000 4.6 220 23:49 19.02.2020
2439 Clouds 3 1016 86 10000 4.1 230 23:22 19.02.2020
2440 Clouds 3 1016 86 10000 4.1 230 22:44 19.02.2020
2441 Clouds 5 1016 75 10000 5.1 240 22:26 19.02.2020
2442 Clouds 5 1016 75 10000 5.1 240 21:59 19.02.2020
2443 Clouds 5 1016 75 10000 5.1 240 21:41 19.02.2020
2444 Clouds 5 1016 80 10000 7.7 250 21:19 19.02.2020
2445 Clouds 5 1016 80 10000 7.2 250 20:58 19.02.2020
2446 Clouds 6 1016 70 10000 7.2 260 20:39 19.02.2020
2447 Clouds 6 1016 70 10000 7.2 260 20:20 19.02.2020
2448 Clouds 6 1016 70 10000 7.2 260 19:58 19.02.2020
2449 Clouds 6 1015 81 10000 7.2 260 19:38 19.02.2020
2450 Clouds 6 1015 81 10000 7.2 260 19:38 19.02.2020
2451 Clouds 6 1015 81 10000 7.2 260 19:20 19.02.2020
2452 Clouds 6 1015 81 10000 7.2 260 18:58 19.02.2020
2453 Clouds 6 1015 81 10000 7.2 260 18:40 19.02.2020
2454 Clouds 6 1014 81 10000 8.7 270 18:22 19.02.2020
2455 Clouds 6 1014 81 10000 8.7 270 17:59 19.02.2020
2456 Clouds 6 1014 81 10000 8.7 270 17:41 19.02.2020
2457 Rain 6 1014 87 8000 10.3 270 17:19 19.02.2020
2458 Rain 6 1014 87 8000 10.3 270 16:43 19.02.2020
2459 Rain 6 1013 87 10000 9.8 280 16:19 19.02.2020
2460 Rain 6 1013 87 10000 9.8 280 15:57 19.02.2020
2461 Clouds 6 1012 81 10000 9.8 270 15:38 19.02.2020
2462 Clouds 6 1012 81 10000 9.8 270 15:19 19.02.2020
2463 Clouds 6 1011 81 10000 10.3 270 14:41 19.02.2020
2464 Clouds 6 1011 81 10000 10.3 270 14:23 19.02.2020
2465 Clouds 6 1011 81 10000 10.3 270 13:55 19.02.2020
2466 Clouds 6 1011 81 10000 8.7 270 13:37 19.02.2020
2467 Clouds 6 1011 81 10000 8.7 270 13:18 19.02.2020
2468 Clouds 5 1011 80 10000 8.2 260 12:39 19.02.2020
2469 Clouds 5 1011 80 10000 8.2 260 12:19 19.02.2020
2470 Clouds 5 1011 80 10000 8.2 260 11:55 19.02.2020
2471 Rain 6 1009 75 10000 8.7 280 11:37 19.02.2020
2472 Rain 6 1009 75 10000 8.7 280 11:18 19.02.2020
2473 Rain 6 1009 75 10000 8.7 280 10:55 19.02.2020
2474 Rain 5 1009 80 10000 8.7 280 10:36 19.02.2020
2475 Rain 5 1009 80 10000 8.7 280 10:18 19.02.2020
2476 Rain 5 1009 80 10000 8.7 280 09:41 19.02.2020
2477 Clouds 4 1008 80 10000 7.2 290 09:20 19.02.2020
2478 Clouds 4 1008 80 10000 7.2 290 08:56 19.02.2020
2479 Rain 4 1007 86 10000 8.7 260 08:37 19.02.2020
2480 Rain 4 1007 86 10000 8.7 260 08:18 19.02.2020
2481 Rain 4 1007 86 10000 8.7 260 07:41 19.02.2020
2482 Clouds 4 1007 86 10000 6.2 250 07:20 19.02.2020
2483 Clouds 4 1007 86 10000 6.2 250 06:46 19.02.2020
2484 Rain 5 1006 86 5000 6.2 250 05:35 19.02.2020
2485 Clouds 4 1006 86 10000 5.7 250 03:56 19.02.2020
2486 Drizzle 4 1007 86 5000 9.8 260 02:45 19.02.2020
2487 Drizzle 6 1007 87 10000 8.2 210 01:54 19.02.2020
2488 Drizzle 6 1008 87 10000 7.2 220 01:23 19.02.2020
2489 -273 0 0 0 0 0 00:42 19.02.2020
2490 Clouds 6 1009 81 10000 7.2 210 00:23 19.02.2020
2491 Clouds 6 1009 81 10000 7.2 210 23:41 18.02.2020
2492 Rain 6 1010 81 10000 7.7 210 23:20 18.02.2020
2493 Rain 6 1010 81 10000 7.7 210 22:56 18.02.2020
2494 Clouds 6 1011 81 10000 6.7 220 22:37 18.02.2020
2495 Clouds 6 1011 81 10000 6.7 220 22:19 18.02.2020
2496 Clouds 6 1011 81 10000 6.7 220 21:55 18.02.2020
2497 Rain 6 1012 81 10000 7.7 220 21:36 18.02.2020
2498 Rain 6 1012 81 10000 7.7 220 21:18 18.02.2020
2499 Clouds 5 1012 93 10000 6.2 230 20:55 18.02.2020
2500 Rain 6 1013 81 10000 7.7 230 20:36 18.02.2020
2501 Rain 6 1013 81 10000 7.7 230 20:18 18.02.2020
2502 Clouds 7 1013 70 10000 6.7 240 19:42 18.02.2020
2503 Clouds 7 1013 70 10000 6.7 240 19:20 18.02.2020
2504 Clouds 7 1013 70 10000 6.7 240 18:58 18.02.2020
2505 Clouds 7 1013 70 10000 7.2 250 18:40 18.02.2020
2506 Clouds 7 1013 70 10000 7.2 250 18:19 18.02.2020
2507 Clouds 7 1013 70 10000 7.2 250 17:42 18.02.2020
2508 Clouds 7 1013 65 10000 9.3 250 17:20 18.02.2020
2509 Clouds 7 1013 65 10000 9.3 250 16:41 18.02.2020
2510 Clouds 7 1014 70 10000 8.7 250 16:22 18.02.2020
2511 Clouds 7 1014 70 10000 8.7 250 15:59 18.02.2020
2512 Clouds 7 1014 70 10000 8.2 240 15:40 18.02.2020
2513 Clouds 7 1014 70 10000 8.2 240 15:19 18.02.2020
2514 Clouds 7 1014 70 10000 8.2 240 14:56 18.02.2020
2515 Clouds 7 1014 65 10000 10.3 250 14:38 18.02.2020
2516 Clouds 7 1014 65 10000 10.3 250 14:20 18.02.2020
2517 Clouds 7 1014 65 10000 10.3 250 13:41 18.02.2020
2518 Clouds 7 1014 65 10000 11.8 250 13:22 18.02.2020
2519 Clouds 7 1014 65 10000 11.8 250 12:56 18.02.2020
2520 Clouds 6 1014 75 10000 12.9 250 12:38 18.02.2020
2521 Clouds 6 1014 75 10000 12.9 250 12:38 18.02.2020
2522 Clouds 6 1014 75 10000 12.9 250 12:19 18.02.2020
2523 Clouds 6 1014 75 10000 12.9 250 11:44 18.02.2020
2524 Rain 6 1013 75 10000 8.2 250 11:26 18.02.2020
2525 Rain 6 1013 75 10000 8.2 250 10:57 18.02.2020
2526 Rain 5 1012 80 8000 9.3 250 10:38 18.02.2020
2527 Rain 5 1012 80 8000 9.3 250 10:18 18.02.2020
2528 Rain 5 1012 80 8000 9.3 250 09:56 18.02.2020
2529 Clouds 5 1012 80 10000 8.2 240 09:37 18.02.2020
2530 Clouds 5 1012 80 10000 8.2 240 09:18 18.02.2020
2531 Clouds 5 1012 80 10000 8.2 240 09:18 18.02.2020
2532 Clouds 5 1012 80 10000 10.3 250 08:43 18.02.2020
2533 Rain 4 1012 86 6000 12.9 260 08:21 18.02.2020
2534 Rain 5 1011 75 8000 9.8 250 07:56 18.02.2020
2535 Clouds 5 1011 80 10000 8.7 250 07:33 18.02.2020
2536 Clouds 5 1011 80 10000 8.7 250 06:57 18.02.2020
2537 Clouds 6 1011 75 10000 8.7 260 06:39 18.02.2020
2538 Clouds 6 1011 75 10000 8.7 260 06:20 18.02.2020
2539 Clouds 6 1010 87 10000 8.7 250 05:34 18.02.2020
2540 Clouds 6 1010 87 10000 6.2 240 04:28 18.02.2020
2541 Clouds 6 1010 87 10000 6.2 240 03:31 18.02.2020
2542 Rain 6 1009 87 10000 5.1 290 01:59 18.02.2020
2543 Clouds 7 1009 81 10000 6.7 230 01:19 18.02.2020
2544 Clouds 6 1008 87 10000 6.2 230 00:22 18.02.2020
2545 Clouds 6 1008 87 10000 6.2 230 23:56 17.02.2020
2546 Clouds 6 1008 81 10000 8.2 250 23:37 17.02.2020
2547 Clouds 6 1008 81 10000 8.2 250 23:19 17.02.2020
2548 Clouds 6 1008 81 10000 8.2 250 22:41 17.02.2020
2549 Rain 6 1008 87 8000 6.7 230 22:21 17.02.2020
2550 Rain 6 1008 87 8000 6.7 230 21:59 17.02.2020
2551 Rain 6 1008 87 8000 6.7 230 21:59 17.02.2020
2552 Clouds 6 1008 87 10000 5.1 220 21:38 17.02.2020
2553 Clouds 6 1008 87 10000 5.1 220 21:18 17.02.2020
2554 Clouds 6 1008 87 10000 5.1 220 21:18 17.02.2020
2555 Clouds 6 1008 87 10000 5.1 240 20:42 17.02.2020
2556 Clouds 7 1008 75 10000 6.2 230 20:21 17.02.2020
2557 Clouds 7 1008 75 10000 6.2 230 19:59 17.02.2020
2558 Clouds 6 1007 81 10000 5.7 230 19:40 17.02.2020
2559 Clouds 6 1007 81 10000 5.7 230 19:20 17.02.2020
2560 Clouds 7 1007 75 10000 6.7 240 18:38 17.02.2020
2561 Clouds 7 1007 75 10000 6.7 240 18:38 17.02.2020
2562 Clouds 7 1007 75 10000 6.7 240 18:20 17.02.2020
2563 Clouds 7 1007 75 10000 6.7 240 17:58 17.02.2020
2564 Clouds 7 1006 75 10000 8.7 220 17:38 17.02.2020
2565 Clouds 7 1006 75 10000 8.7 220 17:19 17.02.2020
2566 Clouds 7 1006 75 10000 8.7 220 16:56 17.02.2020
2567 Rain 8 1006 65 7000 9.3 250 16:38 17.02.2020
2568 Rain 8 1006 65 7000 9.3 250 16:20 17.02.2020
2569 Rain 8 1006 65 7000 9.3 250 16:20 17.02.2020
2570 Clouds 9 1006 66 10000 8.7 230 15:45 17.02.2020
2571 Rain 9 1006 66 10000 8.7 230 15:26 17.02.2020
2572 Rain 9 1006 66 10000 8.7 230 14:56 17.02.2020
2573 Clouds 9 1006 66 10000 8.7 230 14:37 17.02.2020
2574 Clouds 9 1006 66 10000 8.7 230 14:19 17.02.2020
2575 Clouds 9 1006 66 10000 8.7 230 13:41 17.02.2020
2576 Clouds 9 1006 66 10000 9.3 230 13:21 17.02.2020
2577 Clouds 9 1006 66 10000 9.3 230 12:59 17.02.2020
2578 Clouds 9 1006 66 10000 9.3 230 12:40 17.02.2020
2579 Clouds 9 1006 61 10000 9.8 230 12:22 17.02.2020
2580 Clouds 8 1006 65 10000 8.2 230 11:47 17.02.2020
2581 Clouds 7 1005 70 10000 8.7 230 11:27 17.02.2020
2582 Clouds 7 1005 70 10000 8.7 230 10:58 17.02.2020
2583 Clouds 8 1006 65 10000 8.7 230 10:40 17.02.2020
2584 Clouds 8 1006 65 10000 8.7 230 10:21 17.02.2020
2585 Clouds 8 1006 65 10000 8.7 230 09:58 17.02.2020
2586 Clouds 7 1005 70 10000 8.2 230 09:40 17.02.2020
2587 Clouds 7 1005 70 10000 8.2 230 09:19 17.02.2020
2588 Clouds 7 1005 70 10000 8.2 230 08:56 17.02.2020
2589 Clouds 7 1004 70 10000 9.8 240 08:38 17.02.2020
2590 Clouds 7 1004 70 10000 9.8 240 08:19 17.02.2020
2591 Clouds 6 1004 70 10000 9.8 240 07:40 17.02.2020
2592 Clouds 7 1004 65 10000 9.3 240 07:22 17.02.2020
2593 Clouds 7 1004 65 10000 9.3 240 06:49 17.02.2020
2594 Clouds 7 1003 65 10000 10.8 250 06:30 17.02.2020
2595 Clouds 7 1003 65 10000 10.8 250 05:40 17.02.2020
2596 Clouds 8 1001 65 10000 11.8 250 04:40 17.02.2020
2597 Clouds 8 1000 70 10000 8.2 240 03:18 17.02.2020
2598 Clouds 8 998 75 10000 9.3 240 01:25 17.02.2020
2599 Clouds 8 997 81 10000 9.8 240 00:39 17.02.2020
2600 Clouds 8 997 81 10000 9.8 240 00:19 17.02.2020
2601 Clouds 8 997 81 10000 9.8 240 23:52 16.02.2020
2602 Clouds 8 996 81 10000 7.7 230 23:28 16.02.2020
2603 Clouds 8 996 81 10000 7.7 230 22:57 16.02.2020
2604 Rain 7 995 93 10000 8.2 220 22:38 16.02.2020
2605 Rain 7 995 93 10000 8.2 220 22:20 16.02.2020
2606 Rain 7 995 93 10000 8.2 220 21:56 16.02.2020
2607 Rain 7 995 93 6000 7.2 250 21:38 16.02.2020
2608 Rain 7 995 93 6000 7.2 250 21:19 16.02.2020
2609 Rain 7 994 93 8000 6.7 260 20:56 16.02.2020
2610 Rain 7 994 93 4500 9.8 290 20:38 16.02.2020
2611 Rain 7 994 93 4500 9.8 290 20:19 16.02.2020
2612 Rain 8 993 93 3500 8.7 290 19:56 16.02.2020
2613 Rain 8 992 93 2800 9.3 300 19:37 16.02.2020
2614 Rain 8 992 93 2800 9.3 300 19:18 16.02.2020
2615 Rain 13 991 82 9000 9.3 220 18:42 16.02.2020
2616 Rain 13 991 82 9000 9.3 220 18:42 16.02.2020
2617 Rain 13 991 82 9000 9.3 220 18:23 16.02.2020
2618 Rain 13 991 82 9000 9.3 220 17:46 16.02.2020
2619 Rain 9 992 93 5000 2.1 260 17:21 16.02.2020
2620 Rain 9 993 93 3000 4.6 270 16:58 16.02.2020
2621 Rain 9 994 87 3500 10.8 280 16:39 16.02.2020
2622 Rain 9 994 87 3500 10.8 280 16:21 16.02.2020
2623 Rain 9 994 87 3500 10.8 280 16:21 16.02.2020
2624 Rain 9 994 87 3500 10.8 280 15:59 16.02.2020
2625 Clouds 14 994 71 10000 11.3 220 15:39 16.02.2020
2626 Clouds 14 994 71 10000 11.3 220 15:21 16.02.2020
2627 Clouds 14 995 71 10000 11.8 220 14:41 16.02.2020
2628 Clouds 14 995 71 10000 11.8 220 14:23 16.02.2020
2629 Clouds 14 995 71 10000 11.8 220 13:48 16.02.2020
2630 Clouds 13 995 82 10000 12.3 220 13:25 16.02.2020
2631 Clouds 13 995 82 10000 11.8 220 12:58 16.02.2020
2632 Clouds 12 995 87 10000 10.8 210 12:39 16.02.2020
2633 Clouds 12 995 87 10000 10.8 210 12:19 16.02.2020
2634 Drizzle 12 995 81 7000 11.8 210 11:40 16.02.2020
2635 Drizzle 12 995 81 7000 11.8 210 11:19 16.02.2020
2636 Drizzle 12 995 81 7000 11.8 210 11:19 16.02.2020
2637 Drizzle 12 995 81 7000 11.8 210 10:58 16.02.2020
2638 Clouds 12 996 81 10000 12.3 210 10:40 16.02.2020
2639 Clouds 12 996 81 10000 12.3 210 10:21 16.02.2020
2640 Clouds 12 996 81 10000 12.3 210 10:21 16.02.2020
2641 Clouds 12 996 81 10000 12.3 210 09:59 16.02.2020
2642 Clouds 12 997 76 10000 10.8 200 09:38 16.02.2020
2643 Clouds 12 997 76 10000 10.8 200 09:20 16.02.2020
2644 Clouds 12 997 76 10000 10.8 200 08:50 16.02.2020
2645 Clouds 12 997 76 10000 10.3 210 08:22 16.02.2020
2646 Clouds 13 997 66 10000 10.3 200 07:59 16.02.2020
2647 Clouds 12 998 71 10000 10.3 200 07:39 16.02.2020
2648 Clouds 12 999 71 10000 8.7 200 06:47 16.02.2020
2649 Clouds 12 999 71 10000 8.7 200 05:43 16.02.2020
2650 Clouds 12 1001 66 10000 8.2 210 04:37 16.02.2020
2651 Clouds 12 1002 62 10000 9.3 210 03:19 16.02.2020
2652 Clouds 12 1002 62 10000 9.3 210 01:58 16.02.2020
2653 Clouds 11 1002 62 10000 10.8 200 01:38 16.02.2020
2654 Clouds 11 1002 62 10000 10.8 200 01:19 16.02.2020
2655 Clouds 11 1002 62 10000 10.8 200 00:41 16.02.2020
2656 Clouds 11 1003 62 10000 10.3 200 00:22 16.02.2020
2657 Clouds 11 1003 62 10000 10.3 200 23:43 15.02.2020
2658 Clouds 11 1005 62 10000 9.3 200 23:25 15.02.2020
2659 Clouds 11 1005 62 10000 9.3 200 22:57 15.02.2020
2660 Clouds 11 1005 62 10000 8.7 190 22:39 15.02.2020
2661 Clouds 11 1005 62 10000 8.7 190 22:19 15.02.2020
2662 Clouds 11 1005 62 10000 8.7 190 21:44 15.02.2020
2663 Clouds 11 1007 66 10000 8.2 200 21:24 15.02.2020
2664 Clouds 11 1007 66 10000 8.2 200 20:58 15.02.2020
2665 Clouds 11 1008 66 10000 6.7 190 20:37 15.02.2020
2666 Clouds 11 1008 66 10000 6.7 190 20:19 15.02.2020
2667 Clouds 11 1008 66 10000 6.7 190 19:42 15.02.2020
2668 Clouds 11 1010 71 10000 7.2 190 19:22 15.02.2020
2669 Clouds 11 1010 71 10000 7.2 190 19:22 15.02.2020
2670 Clouds 11 1010 71 10000 7.2 190 18:42 15.02.2020
2671 Clouds 11 1010 71 10000 6.2 200 18:21 15.02.2020
2672 Clouds 11 1010 71 10000 6.2 200 17:57 15.02.2020
2673 Clouds 11 1011 71 10000 6.2 190 17:37 15.02.2020
2674 Clouds 11 1011 71 10000 6.2 190 17:19 15.02.2020
2675 Clouds 11 1011 71 10000 6.2 190 16:42 15.02.2020
2676 Clouds 11 1012 71 10000 6.2 200 16:24 15.02.2020
2677 Clouds 11 1012 71 10000 6.2 200 15:57 15.02.2020
2678 Clouds 10 1012 76 10000 6.2 190 15:39 15.02.2020
2679 Clouds 10 1012 76 10000 6.2 190 15:20 15.02.2020
2680 Clouds 10 1012 76 10000 6.2 190 14:43 15.02.2020
2681 Clouds 9 1014 81 10000 6.2 210 14:19 15.02.2020
2682 Clouds 9 1014 81 10000 6.2 210 13:43 15.02.2020
2683 Clouds 9 1014 81 10000 7.2 210 13:25 15.02.2020
2684 Clouds 9 1014 81 10000 7.2 210 12:59 15.02.2020
2685 Clouds 9 1014 81 10000 7.2 210 12:41 15.02.2020
2686 Clouds 9 1014 81 10000 7.2 210 12:41 15.02.2020
2687 Clouds 8 1015 81 10000 6.2 200 12:22 15.02.2020
2688 Clouds 8 1015 81 10000 6.2 200 11:48 15.02.2020
2689 Clouds 8 1015 81 10000 6.2 200 11:29 15.02.2020
2690 Clouds 8 1015 75 10000 6.7 210 10:52 15.02.2020
2691 Clouds 7 1016 81 10000 6.2 200 10:30 15.02.2020
2692 Clouds 7 1016 81 10000 6.2 200 09:59 15.02.2020
2693 Clouds 7 1016 81 10000 6.2 200 09:41 15.02.2020
2694 Clouds 7 1016 87 10000 5.1 200 09:23 15.02.2020
2695 Clouds 6 1016 87 10000 5.1 200 08:44 15.02.2020
2696 Clouds 7 1016 81 10000 5.1 200 08:25 15.02.2020
2697 Clouds 7 1016 81 10000 5.1 200 07:56 15.02.2020
2698 Clouds 7 1016 81 10000 6.2 210 07:38 15.02.2020
2699 Clouds 7 1016 81 10000 6.2 210 06:59 15.02.2020
2700 Clouds 7 1017 81 10000 5.7 210 06:36 15.02.2020
2701 Clouds 6 1017 81 10000 5.7 210 05:46 15.02.2020
2702 Clouds 6 1017 81 10000 6.2 200 04:46 15.02.2020
2703 Clouds 6 1017 81 10000 6.2 200 03:43 15.02.2020
2704 Clouds 7 1018 81 10000 6.2 200 02:58 15.02.2020
2705 Clouds 6 1019 75 10000 5.7 200 02:23 15.02.2020
2706 Clouds 6 1019 75 10000 5.7 200 01:41 15.02.2020
2707 Clouds 6 1019 75 10000 5.7 190 00:43 15.02.2020
2708 Clouds 6 1019 75 10000 5.1 190 00:24 15.02.2020
2709 Clouds 5 1019 80 10000 5.1 200 23:42 14.02.2020
2710 Clouds 5 1020 80 10000 4.6 200 23:20 14.02.2020
2711 Clouds 5 1020 80 10000 3.6 200 22:54 14.02.2020
2712 Clouds 5 1020 80 10000 3.1 190 22:36 14.02.2020
2713 Clouds 5 1020 80 10000 3.1 190 22:18 14.02.2020
2714 Clouds 5 1020 80 10000 3.1 190 21:40 14.02.2020
2715 Clouds 5 1021 75 10000 3.1 180 21:20 14.02.2020
2716 Clouds 5 1021 75 10000 3.1 180 20:43 14.02.2020
2717 Clouds 5 1021 80 10000 2.6 210 20:19 14.02.2020
2718 Clouds 5 1021 80 10000 2.6 210 19:56 14.02.2020
2719 Clouds 6 1021 75 10000 3.6 210 19:38 14.02.2020
2720 Clouds 6 1021 75 10000 3.6 210 19:18 14.02.2020
2721 Clouds 6 1021 75 10000 3.6 210 18:55 14.02.2020
2722 Clouds 6 1020 75 10000 2.1 210 18:37 14.02.2020
2723 Clouds 6 1020 75 10000 2.1 210 18:18 14.02.2020
2724 Clouds 5 1020 75 10000 2.1 210 17:41 14.02.2020
2725 Clouds 6 1020 75 10000 1.5 0 17:19 14.02.2020
2726 Clouds 6 1019 75 10000 2.1 260 16:57 14.02.2020
2727 Clouds 7 1019 75 10000 3.6 280 16:39 14.02.2020
2728 Clouds 7 1019 75 10000 3.6 280 16:20 14.02.2020
2729 Clouds 7 1019 75 10000 3.6 280 15:55 14.02.2020
2730 Clouds 6 1018 75 10000 2.1 280 15:37 14.02.2020
2731 Clouds 6 1018 75 10000 2.1 280 15:19 14.02.2020
2732 Clouds 6 1018 75 10000 2.1 280 14:55 14.02.2020
2733 Clouds 6 1018 75 10000 2.6 290 14:37 14.02.2020
2734 Clouds 6 1018 75 10000 2.6 290 14:18 14.02.2020
2735 Clouds 6 1017 80 9000 2.1 320 13:39 14.02.2020
2736 Clouds 6 1017 80 9000 2.1 320 13:20 14.02.2020
2737 Clouds 6 1017 80 9000 2.1 320 12:58 14.02.2020
2738 Clouds 5 1016 86 8000 2.1 360 12:39 14.02.2020
2739 Clouds 5 1016 86 8000 2.1 360 12:20 14.02.2020
2740 Clouds 5 1016 86 8000 2.1 360 12:20 14.02.2020
2741 Clouds 5 1016 86 8000 2.1 360 12:20 14.02.2020
2742 Clouds 5 1016 86 8000 2.1 360 11:58 14.02.2020
2743 Clouds 5 1016 86 8000 2.1 290 11:40 14.02.2020
2744 Clouds 5 1016 86 8000 2.1 290 11:20 14.02.2020
2745 Clouds 4 1016 93 7000 1.5 290 10:55 14.02.2020
2746 Mist 3 1014 93 5000 1 310 10:36 14.02.2020
2747 Mist 3 1014 93 5000 1 310 10:18 14.02.2020
2748 Mist 3 1013 93 4000 2.6 20 09:39 14.02.2020
2749 Mist 3 1013 93 4000 2.6 20 09:19 14.02.2020
2750 Mist 3 1013 93 4000 2.6 20 08:43 14.02.2020
2751 Mist 3 1011 100 2500 4.1 10 08:24 14.02.2020
2752 Mist 3 1011 100 2500 4.1 10 07:51 14.02.2020
2753 Mist 4 1011 93 2500 2.6 10 07:33 14.02.2020
2754 Mist 3 1009 100 2200 0.5 10 06:56 14.02.2020
2755 Drizzle 3 1009 100 2500 0.5 90 06:23 14.02.2020
2756 Mist 3 1008 93 3000 0.5 0 05:47 14.02.2020
2757 Mist 3 1006 93 3500 0.5 350 04:28 14.02.2020
2758 Mist 3 1004 100 5000 1 270 03:29 14.02.2020
2759 Mist 3 1003 93 5000 2.1 210 02:29 14.02.2020
2760 Clouds 3 1002 93 6000 1.5 210 01:25 14.02.2020
2761 Clouds 2 1001 93 6000 1 0 00:43 14.02.2020
2762 Clouds 2 1001 93 6000 1 0 00:23 14.02.2020
2763 Clouds 2 1001 93 6000 1 0 23:43 13.02.2020
2764 Rain 2 1000 93 6000 1.5 130 23:21 13.02.2020
2765 Rain 2 1000 93 6000 1.5 130 22:44 13.02.2020
2766 Mist 2 999 93 5000 2.1 130 22:20 13.02.2020
2767 Mist 2 999 93 5000 2.1 130 22:20 13.02.2020
2768 Mist 2 999 93 5000 2.1 130 21:59 13.02.2020
2769 Mist 1 999 100 4500 1.5 130 21:40 13.02.2020
2770 Mist 1 999 100 4500 1.5 130 21:22 13.02.2020
2771 Mist 1 998 100 4800 1 140 20:58 13.02.2020
2772 Mist 1 998 91 4800 2.6 130 20:39 13.02.2020
2773 Mist 1 998 93 4800 2.6 130 20:21 13.02.2020
2774 Mist 1 998 93 4800 2.6 130 19:56 13.02.2020
2775 Mist 0 998 93 4500 3.6 120 19:36 13.02.2020
2776 Mist 0 998 93 4500 3.6 120 19:18 13.02.2020
2777 Snow 0 997 93 4000 3.6 130 18:43 13.02.2020
2778 Snow 0 997 93 4000 3.6 130 18:24 13.02.2020
2779 Snow 1 997 93 2200 5.7 130 17:59 13.02.2020
2780 Snow 2 997 93 5000 5.7 130 17:40 13.02.2020
2781 Snow 2 997 93 5000 5.7 130 17:20 13.02.2020
2782 Snow 2 998 93 6000 5.7 140 16:58 13.02.2020
2783 Rain 3 998 93 10000 7.2 140 16:38 13.02.2020
2784 Rain 3 998 93 10000 7.2 140 16:19 13.02.2020
2785 Rain 3 998 93 10000 7.2 140 15:56 13.02.2020
2786 Rain 3 1000 93 10000 6.7 140 15:37 13.02.2020
2787 Rain 3 1000 93 10000 6.7 140 15:19 13.02.2020
2788 Rain 3 1000 93 10000 6.7 140 14:56 13.02.2020
2789 Rain 3 1000 93 10000 6.2 140 14:38 13.02.2020
2790 Rain 3 1000 93 10000 6.2 140 14:20 13.02.2020
2791 Drizzle 3 1001 93 10000 5.7 150 13:44 13.02.2020
2792 Drizzle 3 1002 93 10000 11.66 161 13:18 13.02.2020
2793 Drizzle 3 1002 93 10000 11.48 160 13:18 13.02.2020
2794 Drizzle 3 1002 93 10000 11.66 161 13:18 13.02.2020
2795 Rain 3 1003 86 10000 5.1 150 12:56 13.02.2020
2796 Rain 3 1003 86 10000 4.6 150 12:37 13.02.2020
2797 Rain 3 1003 86 10000 4.6 150 12:19 13.02.2020
2798 Rain 3 1004 86 7000 6.2 160 11:43 13.02.2020
2799 Clouds 3 1005 88 10000 4.1 150 11:20 13.02.2020
2800 Clouds 2 1005 88 10000 4.1 150 10:48 13.02.2020
2801 Clouds 2 1007 88 10000 4.1 160 10:28 13.02.2020
2802 Clouds 2 1007 88 10000 4.1 160 09:57 13.02.2020
2803 Clouds 2 1007 88 10000 3.6 170 09:38 13.02.2020
2804 Clouds 2 1007 88 10000 3.6 170 09:20 13.02.2020
2805 Clouds 1 1007 88 10000 3.6 170 08:42 13.02.2020
2806 Clouds 2 1009 85 10000 4.6 200 08:19 13.02.2020
2807 Clouds 1 1009 85 10000 4.6 200 07:41 13.02.2020
2808 Clouds 2 1009 86 10000 4.6 210 07:22 13.02.2020
2809 Clouds 2 1009 86 10000 4.6 210 07:21 13.02.2020
2810 Clouds 1 1009 86 10000 4.6 210 06:49 13.02.2020
2811 Clouds 2 1010 80 10000 3.6 230 06:29 13.02.2020
2812 Clouds 2 1010 85 10000 4.1 200 05:37 13.02.2020
2813 Clouds 3 1010 79 10000 5.7 200 04:28 13.02.2020
2814 Clouds 3 1010 79 10000 5.7 200 03:57 13.02.2020
2815 Clouds 3 1010 79 10000 8.99 241 03:29 13.02.2020
2816 Clouds 3 1010 79 10000 8.99 241 02:55 13.02.2020
2817 Clouds 4 1010 75 10000 9.3 240 02:19 13.02.2020
2818 Clouds 4 1010 75 10000 7.2 240 01:36 13.02.2020
2819 Clouds 4 1010 73 10000 7.2 240 00:44 13.02.2020
2820 Clouds 5 1010 80 10000 8.2 240 00:25 13.02.2020
2821 Clouds 4 1010 80 10000 8.2 240 23:42 12.02.2020
2822 Clouds 5 1009 80 8000 9.8 240 23:23 12.02.2020
2823 Clouds 5 1009 80 8000 9.8 240 22:54 12.02.2020
2824 Clouds 5 1009 72 8000 10.3 250 22:36 12.02.2020
2825 Clouds 5 1009 72 8000 10.3 250 22:18 12.02.2020
2826 Clouds 4 1009 72 10000 10.3 250 21:55 12.02.2020
2827 Clouds 4 1009 86 9000 7.7 260 21:36 12.02.2020
2828 Clouds 4 1009 86 9000 7.7 260 21:18 12.02.2020
2829 Clouds 4 1009 72 9000 9.3 260 20:42 12.02.2020
2830 Clouds 5 1008 80 8000 12.3 260 20:23 12.02.2020
2831 Clouds 5 1008 80 8000 12.3 260 19:57 12.02.2020
2832 Clouds 5 1007 68 10000 12.3 270 19:37 12.02.2020
2833 Clouds 5 1007 68 10000 12.3 270 19:19 12.02.2020
2834 Clouds 5 1007 68 10000 12.3 270 18:47 12.02.2020
2835 Thunderstorm 5 1007 68 10000 11.8 270 18:20 12.02.2020
2836 Clouds 5 1006 75 10000 11.8 270 17:58 12.02.2020
2837 Rain 6 1005 75 10000 12.3 270 17:38 12.02.2020
2838 Rain 6 1005 75 10000 12.3 270 17:19 12.02.2020
2839 Rain 6 1005 75 10000 11.3 270 16:40 12.02.2020
2840 Rain 6 1005 75 10000 11.3 270 16:22 12.02.2020
2841 Rain 6 1005 75 10000 11.3 270 15:58 12.02.2020
2842 Clouds 5 1005 75 10000 12.3 270 15:37 12.02.2020
2843 Clouds 5 1005 75 10000 12.3 270 15:18 12.02.2020
2844 Clouds 6 1004 69 10000 10.3 270 14:42 12.02.2020
2845 Clouds 6 1004 71 10000 10.3 270 14:21 12.02.2020
2846 Clouds 6 1004 69 10000 10.3 270 13:59 12.02.2020
2847 Clouds 5 1004 69 10000 10.3 270 13:40 12.02.2020
2848 Clouds 5 1003 69 8000 13.4 250 13:21 12.02.2020
2849 Clouds 5 1003 69 8000 13.4 250 12:58 12.02.2020
2850 Clouds 5 1002 75 8000 12.9 250 12:39 12.02.2020
2851 Clouds 5 1002 75 8000 12.9 250 12:39 12.02.2020
2852 Clouds 5 1002 75 8000 12.9 250 12:19 12.02.2020
2853 Clouds 4 1002 80 7000 11.3 250 11:59 12.02.2020
2854 Clouds 5 1002 80 7000 11.3 250 11:40 12.02.2020
2855 Rain 5 1002 86 8000 9.3 250 11:21 12.02.2020
2856 Rain 5 1001 80 3500 11.8 260 10:58 12.02.2020
2857 Rain 4 1001 80 6000 12.3 260 10:39 12.02.2020
2858 Rain 4 1001 80 6000 12.3 260 10:20 12.02.2020
2859 Clouds 4 1000 80 10000 12.3 250 09:42 12.02.2020
2860 Clouds 4 1000 80 10000 12.3 250 09:42 12.02.2020
2861 Clouds 4 1000 80 9000 10.8 240 09:24 12.02.2020
2862 Thunderstorm 3 1000 73 5000 12.9 240 08:58 12.02.2020
2863 Rain 4 1000 80 5000 12.3 250 08:38 12.02.2020
2864 Rain 4 1000 80 5000 12.3 250 08:20 12.02.2020
2865 Clouds 4 999 86 10000 10.3 260 07:58 12.02.2020
2866 Clouds 4 999 86 10000 10.3 260 07:58 12.02.2020
2867 Clouds 4 999 86 10000 10.3 260 07:39 12.02.2020
2868 Rain 4 999 73 8000 10.8 240 07:19 12.02.2020
2869 Rain 4 999 73 8000 10.8 240 06:43 12.02.2020
2870 Clouds 4 999 86 10000 9.8 250 06:19 12.02.2020
2871 Clouds 5 998 73 5000 13.4 10 05:30 12.02.2020
2872 Clouds 3 999 72 10000 11.3 10 04:43 12.02.2020
2873 Rain 3 998 72 6000 15.9 10 03:58 12.02.2020
2874 Clouds 4 998 72 8000 12.3 10 03:29 12.02.2020
2875 Thunderstorm 4 998 72 10000 9.3 10 02:44 12.02.2020
2876 Clouds 5 998 72 9000 12.3 10 02:25 12.02.2020
2877 Clouds 5 997 69 4500 12.9 10 01:34 12.02.2020
2878 Clouds 4 997 67 3000 11.3 260 00:41 12.02.2020
2879 Clouds 4 997 67 3000 11.3 260 00:22 12.02.2020
2880 Thunderstorm 4 997 67 10000 11.3 270 23:49 11.02.2020
2881 Clouds 5 997 67 7000 9.8 270 23:31 11.02.2020
2882 Clouds 5 997 80 10000 9.3 260 22:58 11.02.2020
2883 Clouds 4 997 67 3000 11.3 260 22:40 11.02.2020
2884 Clouds 4 997 67 3000 11.3 260 22:20 11.02.2020
2885 Clouds 3 997 67 8000 8.2 270 21:57 11.02.2020
2886 Clouds 4 997 69 1500 10.8 270 21:39 11.02.2020
2887 Clouds 5 997 69 1500 10.8 270 21:19 11.02.2020
2888 Clouds 5 997 69 7000 12.3 260 20:58 11.02.2020
2889 Clouds 5 996 67 8000 11.8 260 20:39 11.02.2020
2890 Clouds 5 996 67 8000 11.8 260 20:19 11.02.2020
2891 Clouds 5 996 65 10000 12.9 260 19:58 11.02.2020
2892 Clouds 5 996 67 10000 11.8 270 19:39 11.02.2020
2893 Clouds 5 996 67 10000 11.8 270 19:39 11.02.2020
2894 Clouds 5 996 67 10000 11.8 270 19:21 11.02.2020
2895 Rain 5 996 67 6000 11.8 270 18:45 11.02.2020
2896 Clouds 5 996 67 8000 12.3 270 18:27 11.02.2020
2897 Rain 6 995 67 3500 12.3 270 17:57 11.02.2020
2898 Rain 5 994 67 8000 14.9 270 17:39 11.02.2020
2899 Rain 5 994 71 8000 14.9 270 17:19 11.02.2020
2900 Rain 5 994 71 8000 14.9 270 16:58 11.02.2020
2901 Rain 5 993 75 5000 14.4 260 16:39 11.02.2020
2902 Rain 5 993 75 5000 14.4 260 16:21 11.02.2020
2903 Rain 5 993 75 5000 14.4 260 15:58 11.02.2020
2904 Rain 4 993 86 3000 10.3 260 15:39 11.02.2020
2905 Rain 4 993 86 3000 10.3 260 15:21 11.02.2020
2906 Clouds 5 993 86 7000 12.9 260 14:42 11.02.2020
2907 Rain 5 992 80 3500 12.9 260 14:19 11.02.2020
2908 Rain 5 992 80 9000 14.4 260 13:57 11.02.2020
2909 Clouds 4 992 80 10000 13.4 270 13:38 11.02.2020
2910 Clouds 4 992 80 10000 13.4 270 13:20 11.02.2020
2911 Clouds 4 992 80 10000 13.4 270 12:55 11.02.2020
2912 Rain 4 991 80 8000 13.9 270 12:36 11.02.2020
2913 Rain 4 991 80 8000 13.9 270 12:18 11.02.2020
2914 Rain 4 991 86 8000 14.4 270 11:41 11.02.2020
2915 Snow 4 991 86 5000 13.9 260 11:19 11.02.2020
2916 Clouds 4 990 80 10000 17 260 10:55 11.02.2020
2917 Clouds 4 990 80 10000 17 260 10:54 11.02.2020
2918 Rain 4 989 86 9000 14.9 260 10:36 11.02.2020
2919 Rain 4 989 86 9000 14.9 260 10:18 11.02.2020
2920 Rain 4 989 86 9000 14.9 260 09:44 11.02.2020
2921 Rain 4 990 80 6000 14.9 260 09:22 11.02.2020
2922 Rain 4 988 80 9000 15.4 260 08:57 11.02.2020
2923 Rain 5 989 86 10000 12.3 270 08:39 11.02.2020
2924 Rain 5 989 86 10000 12.3 270 08:20 11.02.2020
2925 Clouds 5 988 75 3800 13.9 270 07:45 11.02.2020
2926 Clouds 6 987 75 10000 14.9 260 07:25 11.02.2020
2927 Clouds 5 987 75 10000 14.9 260 06:43 11.02.2020
2928 Clouds 5 987 80 10000 12.3 260 06:22 11.02.2020
2929 Clouds 5 987 80 10000 12.3 260 05:47 11.02.2020
2930 Clouds 5 987 80 10000 11.3 250 05:23 11.02.2020
2931 Rain 4 987 71 10000 10.3 270 04:37 11.02.2020
2932 Clouds 4 987 86 8000 8.2 250 02:53 11.02.2020
2933 Rain 4 987 86 10000 15.9 290 02:27 11.02.2020
2934 Clouds 3 987 79 10000 5.1 240 01:36 11.02.2020
2935 Clouds 3 986 72 10000 6.2 230 00:40 11.02.2020
2936 Clouds 3 986 72 10000 6.2 230 23:57 10.02.2020
2937 Clouds 3 986 72 10000 6.7 220 23:38 10.02.2020
2938 Clouds 3 986 76 10000 6.7 220 23:19 10.02.2020
2939 Clouds 4 986 76 10000 9.3 230 22:40 10.02.2020
2940 Clouds 4 986 76 10000 9.3 230 22:20 10.02.2020
2941 Clouds 5 986 76 10000 9.3 230 21:46 10.02.2020
2942 Clouds 6 987 75 10000 5.1 220 21:27 10.02.2020
2943 Clouds 6 988 75 10000 5.7 220 20:58 10.02.2020
2944 Clouds 6 989 76 10000 5.7 230 20:39 10.02.2020
2945 Clouds 6 989 73 10000 5.7 230 20:21 10.02.2020
2946 Clouds 6 989 72 10000 5.7 230 19:59 10.02.2020
2947 Clouds 6 990 72 10000 8.7 260 19:39 10.02.2020
2948 Clouds 6 990 72 10000 8.7 260 19:19 10.02.2020
2949 Clouds 6 990 72 10000 8.7 260 18:59 10.02.2020
2950 Clouds 6 990 72 10000 8.7 260 18:40 10.02.2020
2951 Clouds 6 991 72 10000 11.3 260 18:21 10.02.2020
2952 Clouds 6 991 72 10000 11.3 260 17:58 10.02.2020
2953 Clouds 6 990 70 10000 13.9 260 17:38 10.02.2020
2954 Clouds 6 990 70 10000 13.9 260 17:20 10.02.2020
2955 Clouds 6 990 70 10000 13.9 260 16:59 10.02.2020
2956 Clouds 7 990 70 8000 13.9 270 16:40 10.02.2020
2957 Clouds 7 990 70 8000 13.9 270 16:20 10.02.2020
2958 Clouds 7 990 70 8000 13.9 270 15:56 10.02.2020
2959 Rain 7 990 75 9000 10.8 280 15:38 10.02.2020
2960 Rain 7 990 75 9000 10.8 280 15:20 10.02.2020
2961 Rain 7 990 70 3500 14.4 270 14:56 10.02.2020
2962 Rain 5 989 86 9000 15.4 280 14:37 10.02.2020
2963 Rain 5 989 86 9000 15.4 280 14:18 10.02.2020
2964 Rain 7 989 70 9000 13.4 270 13:43 10.02.2020
2965 Rain 7 987 81 10000 12.9 270 13:24 10.02.2020
2966 Rain 7 987 81 10000 12.9 270 12:56 10.02.2020
2967 Clouds 6 986 80 10000 15.4 290 12:37 10.02.2020
2968 Clouds 6 986 80 10000 15.4 290 12:19 10.02.2020
2969 Clouds 6 986 80 10000 15.4 290 11:45 10.02.2020
2970 Rain 6 985 80 8000 13.9 280 11:21 10.02.2020
2971 Rain 6 985 80 8000 13.9 280 10:48 10.02.2020
2972 Rain 7 983 75 10000 11.3 270 10:30 10.02.2020
2973 Rain 7 983 75 10000 11.3 270 09:55 10.02.2020
2974 Clouds 7 981 81 10000 10.3 270 09:36 10.02.2020
2975 Clouds 7 981 81 10000 10.3 270 09:18 10.02.2020
2976 Clouds 6 981 81 8000 12.3 270 08:38 10.02.2020
2977 Clouds 6 981 81 8000 12.3 270 08:20 10.02.2020
2978 Clouds 7 980 81 10000 11.3 260 07:52 10.02.2020
2979 Clouds 8 980 75 10000 13.4 260 07:32 10.02.2020
2980 Clouds 8 980 75 10000 13.4 260 06:49 10.02.2020
2981 Clouds 8 979 75 10000 13.9 260 04:59 10.02.2020
2982 Clouds 8 979 81 10000 12.9 260 03:54 10.02.2020
2983 Clouds 8 978 75 10000 12.3 260 02:58 10.02.2020
2984 Clouds 9 977 81 10000 9.3 250 02:40 10.02.2020
2985 Clouds 9 978 76 10000 8.7 230 01:24 10.02.2020
2986 Clouds 9 979 81 10000 7.7 240 00:40 10.02.2020
2987 Clouds 9 979 81 10000 7.7 240 00:21 10.02.2020
2988 Clouds 9 979 81 10000 7.7 240 23:41 09.02.2020
2989 Clouds 9 979 81 10000 9.3 230 23:23 09.02.2020
2990 Clouds 9 979 81 10000 9.3 230 22:44 09.02.2020
2991 Rain 8 980 93 10000 8.7 240 22:22 09.02.2020
2992 Rain 6 981 93 5000 8.7 260 21:56 09.02.2020
2993 Rain 8 983 87 5000 11.3 270 21:38 09.02.2020
2994 Rain 8 983 87 5000 11.3 270 21:19 09.02.2020
2995 Clouds 11 982 87 2000 13.9 230 20:44 09.02.2020
2996 Rain 11 982 81 9000 13.4 220 20:21 09.02.2020
2997 Rain 11 982 81 9000 13.4 220 19:55 09.02.2020
2998 Drizzle 11 984 76 10000 12.3 220 19:37 09.02.2020
2999 Drizzle 11 984 76 10000 12.3 220 19:18 09.02.2020
3000 Drizzle 11 984 76 10000 12.3 220 18:42 09.02.2020
3001 Clouds 11 986 66 10000 14.9 220 18:23 09.02.2020
3002 Clouds 11 986 66 10000 14.9 220 17:56 09.02.2020
3003 Clouds 11 988 58 10000 14.9 220 17:37 09.02.2020
3004 Clouds 11 988 58 10000 14.9 220 17:19 09.02.2020
3005 Clouds 12 988 58 10000 14.9 220 16:41 09.02.2020
3006 Clouds 12 989 54 10000 12.9 220 16:22 09.02.2020
3007 Clouds 12 989 54 10000 12.9 220 15:58 09.02.2020
3008 Clouds 12 989 54 10000 12.9 220 15:40 09.02.2020
3009 Clouds 11 991 53 10000 11.8 210 15:21 09.02.2020
3010 Clouds 11 991 53 10000 11.8 210 14:56 09.02.2020
3011 Clouds 11 992 53 10000 12.9 210 14:37 09.02.2020
3012 Clouds 11 992 53 10000 12.9 210 14:19 09.02.2020
3013 Clouds 10 994 61 10000 12.3 210 13:42 09.02.2020
3014 Clouds 9 996 66 10000 11.8 200 13:24 09.02.2020
3015 Clouds 9 996 66 10000 11.8 200 12:55 09.02.2020
3016 Clouds 9 999 70 10000 9.8 200 12:37 09.02.2020
3017 Clouds 9 999 70 10000 9.8 200 12:18 09.02.2020
3018 Rain 8 1002 75 10000 9.3 210 11:40 09.02.2020
3019 Rain 8 1002 75 10000 9.3 210 11:19 09.02.2020
3020 Rain 8 1002 75 10000 9.3 210 11:19 09.02.2020
3021 Rain 8 1002 75 10000 9.3 210 10:54 09.02.2020
3022 Clouds 8 1004 75 10000 9.3 210 10:36 09.02.2020
3023 Clouds 8 1004 75 10000 9.3 210 10:18 09.02.2020
3024 Clouds 8 1006 75 10000 7.7 210 09:39 09.02.2020
3025 Clouds 8 1006 75 10000 7.7 210 09:20 09.02.2020
3026 Clouds 8 1006 75 10000 7.7 210 08:44 09.02.2020
3027 Clouds 8 1007 81 10000 9.3 210 08:25 09.02.2020
3028 Clouds 8 1007 81 10000 9.3 210 07:54 09.02.2020
3029 Clouds 8 1009 81 10000 7.2 200 07:34 09.02.2020
3030 Clouds 8 1009 81 10000 7.2 200 06:44 09.02.2020
3031 Clouds 8 1011 81 10000 6.2 210 05:56 09.02.2020
3032 Clouds 7 1011 87 10000 6.7 200 05:35 09.02.2020
3033 Clouds 8 1012 81 10000 5.7 210 04:52 09.02.2020
3034 Clouds 8 1014 87 10000 6.7 220 03:30 09.02.2020
3035 Clouds 8 1014 87 10000 6.7 220 02:43 09.02.2020
3036 Clouds 7 1014 93 10000 5.1 210 01:55 09.02.2020
3037 Clouds 7 1015 87 10000 3.6 200 01:34 09.02.2020
3038 Clouds 7 1016 87 8000 4.6 220 00:40 09.02.2020
3039 Clouds 7 1016 87 8000 4.6 220 00:18 09.02.2020
3040 Clouds 7 1016 87 8000 4.6 220 23:42 08.02.2020
3041 Drizzle 7 1017 93 8000 4.1 230 23:19 08.02.2020
3042 Drizzle 7 1017 93 8000 4.1 230 22:41 08.02.2020
3043 Drizzle 8 1017 87 7000 4.1 240 22:21 08.02.2020
3044 Drizzle 8 1017 87 7000 4.1 240 21:58 08.02.2020
3045 Drizzle 8 1017 87 7000 4.1 240 21:40 08.02.2020
3046 Clouds 8 1016 81 8000 4.1 230 21:19 08.02.2020
3047 Clouds 8 1016 81 8000 4.1 230 20:55 08.02.2020
3048 Drizzle 8 1016 81 6000 5.1 220 20:37 08.02.2020
3049 Drizzle 8 1016 81 6000 5.1 220 20:19 08.02.2020
3050 Drizzle 8 1016 81 6000 5.1 220 19:54 08.02.2020
3051 Clouds 8 1016 70 8000 4.1 200 19:36 08.02.2020
3052 Clouds 8 1016 70 8000 4.1 200 19:18 08.02.2020
3053 Clouds 8 1016 70 8000 4.1 200 18:42 08.02.2020
3054 Clouds 7 1016 75 8000 3.6 210 18:23 08.02.2020
3055 Clouds 7 1016 75 8000 3.6 210 17:43 08.02.2020
3056 Clouds 8 1016 70 10000 4.1 210 17:21 08.02.2020
3057 Clouds 8 1016 70 10000 4.1 210 16:58 08.02.2020
3058 Clouds 8 1017 65 10000 4.6 210 16:39 08.02.2020
3059 Clouds 8 1017 65 10000 4.6 210 16:20 08.02.2020
3060 Clouds 8 1017 65 10000 4.6 210 15:42 08.02.2020
3061 Clouds 8 1017 70 10000 4.6 210 15:19 08.02.2020
3062 Clouds 8 1017 70 10000 4.6 210 14:59 08.02.2020
3063 Clouds 8 1017 65 10000 4.6 200 14:39 08.02.2020
3064 Clouds 8 1017 65 10000 4.6 200 14:19 08.02.2020
3065 Clouds 8 1017 65 10000 4.6 200 13:43 08.02.2020
3066 Clouds 8 1018 84 10000 5.1 210 13:23 08.02.2020
3067 Clouds 8 1018 84 10000 5.1 210 12:57 08.02.2020
3068 Clouds 8 1018 84 10000 5.1 210 12:57 08.02.2020
3069 Clouds 6 1018 84 10000 3.6 200 12:37 08.02.2020
3070 Clouds 6 1018 84 10000 3.6 200 12:19 08.02.2020
3071 Clouds 5 1018 84 10000 3.6 200 11:43 08.02.2020
3072 Clouds 4 1018 69 10000 4.6 190 11:21 08.02.2020
3073 Clouds 4 1018 69 10000 4.6 190 10:57 08.02.2020
3074 Clouds 3 1018 69 10000 4.1 190 10:38 08.02.2020
3075 Clouds 3 1018 69 10000 4.1 190 10:20 08.02.2020
3076 Clouds 3 1018 69 10000 4.1 190 09:49 08.02.2020
3077 Clouds 2 1018 74 10000 4.1 180 09:24 08.02.2020
3078 Clouds 2 1018 74 10000 4.1 180 08:46 08.02.2020
3079 Clouds 2 1018 80 10000 4.1 180 08:24 08.02.2020
3080 Clouds 2 1018 80 10000 4.1 180 07:53 08.02.2020
3081 Clouds 2 1019 80 10000 4.6 170 07:34 08.02.2020
3082 Clouds 2 1019 80 10000 4.6 170 06:55 08.02.2020
3083 Clouds 1 1019 86 10000 4.6 180 06:22 08.02.2020
3084 Clouds 2 1019 80 10000 5.1 180 05:34 08.02.2020
3085 Clear 2 1019 80 10000 5.1 180 04:55 08.02.2020
3086 Clear 2 1020 80 10000 5.1 170 04:24 08.02.2020
3087 Clear 3 1021 78 10000 5.1 160 03:38 08.02.2020
3088 Clear 3 1022 78 10000 5.1 160 02:29 08.02.2020
3089 Clear 3 1022 78 10000 5.1 160 02:29 08.02.2020
3090 Clear 3 1022 86 10000 4.1 160 01:34 08.02.2020
3091 Clear 3 1022 86 10000 4.1 160 00:54 08.02.2020
3092 Clear 4 1023 80 10000 4.6 150 00:25 08.02.2020
3093 Clear 4 1023 80 10000 4.6 150 23:59 07.02.2020
3094 Clear 4 1023 80 10000 4.1 150 23:39 07.02.2020
3095 Clear 4 1023 80 10000 4.1 150 23:20 07.02.2020
3096 Clear 4 1023 80 10000 4.1 150 22:55 07.02.2020
3097 Clear 4 1023 80 10000 4.6 150 22:37 07.02.2020
3098 Clear 4 1023 80 10000 4.6 150 22:18 07.02.2020
3099 Clear 4 1023 80 10000 4.6 150 21:41 07.02.2020
3100 Clear 4 1024 80 10000 4.1 140 21:21 07.02.2020
3101 Clouds 4 1025 80 10000 4.1 150 20:40 07.02.2020
3102 Clouds 4 1025 80 10000 4.1 150 20:21 07.02.2020
3103 Clouds 4 1025 80 10000 4.1 150 19:56 07.02.2020
3104 Clouds 5 1025 75 10000 5.7 160 19:37 07.02.2020
3105 Clouds 5 1025 75 10000 5.7 160 19:19 07.02.2020
3106 Clouds 5 1025 75 10000 5.7 160 18:46 07.02.2020
3107 Clouds 6 1025 75 10000 5.7 160 18:26 07.02.2020
3108 Clouds 6 1025 75 10000 5.7 160 17:57 07.02.2020
3109 Clouds 6 1026 75 10000 5.7 150 17:39 07.02.2020
3110 Clouds 6 1026 75 10000 5.7 150 17:20 07.02.2020
3111 Clouds 6 1026 75 10000 5.7 150 16:52 07.02.2020
3112 Clouds 6 1026 75 10000 4.6 160 16:24 07.02.2020
3113 Clouds 6 1026 75 10000 4.6 150 15:55 07.02.2020
3114 Clouds 6 1027 75 10000 3.1 150 15:36 07.02.2020
3115 Clouds 6 1027 75 10000 3.1 150 15:18 07.02.2020
3116 Clouds 6 1027 75 10000 3.1 150 14:42 07.02.2020
3117 Clouds 6 1028 75 10000 3.1 160 14:24 07.02.2020
3118 Clouds 6 1028 75 10000 3.1 160 13:57 07.02.2020
3119 Clouds 6 1028 75 10000 3.1 170 13:38 07.02.2020
3120 Clouds 6 1028 75 10000 3.1 170 13:20 07.02.2020
3121 Clouds 6 1028 75 10000 3.1 170 12:44 07.02.2020
3122 Clouds 6 1029 75 10000 2.1 180 12:26 07.02.2020
3123 Clouds 6 1029 75 10000 2.1 180 11:58 07.02.2020
3124 Clouds 6 1029 75 10000 1.5 170 11:39 07.02.2020
3125 Clouds 6 1029 75 10000 1.5 170 11:18 07.02.2020
3126 Clouds 5 1029 80 10000 1 190 10:40 07.02.2020
3127 Clouds 5 1029 80 10000 1 190 10:21 07.02.2020
3128 Clouds 5 1029 80 10000 1 190 09:47 07.02.2020
3129 Clouds 5 1029 80 10000 1.5 210 09:27 07.02.2020
3130 Clouds 5 1029 80 10000 1.5 210 08:58 07.02.2020
3131 Clouds 5 1029 80 10000 1.5 210 08:40 07.02.2020
3132 Clouds 5 1029 80 10000 1.5 210 08:20 07.02.2020
3133 Clouds 5 1029 80 10000 1.5 210 07:43 07.02.2020
3134 Clouds 5 1029 80 10000 0.5 0 07:24 07.02.2020
3135 Clouds 5 1029 80 10000 0.5 0 06:44 07.02.2020
3136 Clouds 5 1029 80 10000 1.5 0 06:23 07.02.2020
3137 Clouds 5 1029 80 10000 1.5 0 05:44 07.02.2020
3138 Clouds 6 1029 81 10000 3.1 280 04:24 07.02.2020
3139 Clouds 6 1029 81 10000 2.6 280 02:32 07.02.2020
3140 Clouds 6 1029 81 10000 2.6 280 01:35 07.02.2020
3141 Clouds 6 1029 81 10000 2.6 280 00:45 07.02.2020
3142 Clouds 6 1029 81 10000 2.6 290 00:18 07.02.2020
3143 Clouds 6 1029 81 10000 3.6 280 23:37 06.02.2020
3144 Clouds 6 1029 81 10000 3.6 280 23:18 06.02.2020
3145 Clouds 6 1029 81 10000 3.6 280 22:44 06.02.2020
3146 Clouds 6 1029 81 10000 4.1 280 22:24 06.02.2020
3147 Clouds 6 1029 81 10000 3.1 280 21:38 06.02.2020
3148 Clouds 6 1029 81 10000 3.1 280 21:19 06.02.2020
3149 Clouds 6 1029 81 10000 3.1 290 20:58 06.02.2020
3150 Clouds 6 1029 81 10000 3.6 290 20:39 06.02.2020
3151 Clouds 6 1029 81 10000 3.6 290 20:19 06.02.2020
3152 Clouds 6 1029 81 10000 3.6 290 19:59 06.02.2020
3153 Clouds 6 1029 81 10000 3.6 290 19:40 06.02.2020
3154 Clouds 6 1029 81 10000 4.1 290 19:22 06.02.2020
3155 Clouds 6 1029 81 10000 4.1 290 18:58 06.02.2020
3156 Clouds 6 1029 81 10000 4.6 290 18:39 06.02.2020
3157 Clouds 6 1029 81 10000 4.6 290 18:20 06.02.2020
3158 Clouds 6 1029 81 10000 4.6 290 17:44 06.02.2020
3159 Clouds 7 1029 87 10000 4.1 290 17:21 06.02.2020
3160 Clouds 7 1029 87 10000 4.1 290 16:59 06.02.2020
3161 Clouds 7 1028 87 10000 4.6 270 16:40 06.02.2020
3162 Clouds 7 1028 87 10000 4.6 270 16:22 06.02.2020
3163 Clouds 6 1028 87 10000 4.6 270 15:42 06.02.2020
3164 Clouds 6 1028 87 10000 4.6 270 15:22 06.02.2020
3165 Clouds 6 1028 87 10000 4.6 270 14:49 06.02.2020
3166 Clouds 7 1028 81 10000 4.6 270 14:28 06.02.2020
3167 Clouds 7 1028 81 10000 4.6 270 13:57 06.02.2020
3168 Clouds 7 1029 75 10000 3.6 270 13:39 06.02.2020
3169 Clouds 7 1029 75 10000 3.6 270 13:19 06.02.2020
3170 Clouds 7 1029 75 10000 3.6 270 12:44 06.02.2020
3171 Clouds 7 1029 87 10000 3.1 260 12:19 06.02.2020
3172 Clouds 7 1029 87 10000 3.1 260 11:57 06.02.2020
3173 Drizzle 6 1029 93 10000 4.1 270 11:39 06.02.2020
3174 Drizzle 6 1029 93 10000 4.1 270 11:19 06.02.2020
3175 Drizzle 6 1029 93 10000 4.1 270 10:56 06.02.2020
3176 Drizzle 6 1028 93 10000 4.1 270 10:38 06.02.2020
3177 Drizzle 6 1028 93 10000 4.1 270 10:19 06.02.2020
3178 Drizzle 6 1028 93 10000 4.1 270 09:55 06.02.2020
3179 Drizzle 5 1028 93 8000 6.2 260 09:36 06.02.2020
3180 Drizzle 5 1028 93 8000 6.2 260 09:18 06.02.2020
3181 Drizzle 5 1028 93 8000 6.2 260 08:40 06.02.2020
3182 Drizzle 5 1028 93 8000 4.6 270 08:20 06.02.2020
3183 Clouds 5 1028 86 10000 5.7 260 07:46 06.02.2020
3184 Clouds 5 1028 86 10000 5.7 270 07:25 06.02.2020
3185 Clouds 5 1028 86 10000 5.7 260 06:21 06.02.2020
3186 Clouds 5 1028 86 10000 5.7 260 06:21 06.02.2020
3187 Clouds 5 1028 86 10000 5.7 260 06:21 06.02.2020
3188 Clouds 5 1028 86 10000 5.7 260 06:21 06.02.2020
3189 Clouds 5 1028 86 10000 5.7 260 05:54 06.02.2020
3190 Clouds 4 1029 93 10000 5.1 270 04:22 06.02.2020
3191 Clouds 4 1029 86 10000 6.2 260 03:20 06.02.2020
3192 Clouds 5 1030 86 10000 6.2 260 02:28 06.02.2020
3193 Clouds 4 1030 86 10000 5.7 260 01:26 06.02.2020
3194 Clouds 4 1030 86 10000 5.7 260 00:58 06.02.2020
3195 Clouds 4 1031 86 10000 5.1 260 00:26 06.02.2020
3196 Clouds 4 1031 86 10000 5.1 260 23:45 05.02.2020
3197 Clouds 5 1031 80 10000 6.2 260 23:25 05.02.2020
3198 Clouds 5 1031 80 10000 6.2 260 22:57 05.02.2020
3199 Clouds 5 1031 80 10000 6.2 260 22:39 05.02.2020
3200 Clouds 5 1031 80 10000 6.2 260 22:21 05.02.2020
3201 Clouds 4 1031 80 10000 6.2 260 21:42 05.02.2020
3202 Clouds 5 1031 80 10000 5.7 260 21:24 05.02.2020
3203 Clouds 5 1032 75 10000 5.1 260 20:59 05.02.2020
3204 Clouds 6 1032 75 10000 4.1 270 20:38 05.02.2020
3205 Clouds 6 1032 75 10000 4.1 270 20:19 05.02.2020
3206 Clouds 6 1032 75 10000 4.1 270 19:56 05.02.2020
3207 Clouds 5 1032 75 10000 4.6 270 19:38 05.02.2020
3208 Clouds 5 1032 75 10000 4.6 270 19:19 05.02.2020
3209 Clouds 5 1032 75 10000 4.6 270 18:45 05.02.2020
3210 Clouds 6 1032 82 10000 5.1 290 18:21 05.02.2020
3211 Clouds 6 1032 82 10000 5.1 290 18:21 05.02.2020
3212 Clouds 6 1032 82 10000 5.1 290 18:21 05.02.2020
3213 Clouds 6 1032 82 10000 5.1 290 17:58 05.02.2020
3214 Clouds 6 1033 70 10000 5.1 300 17:37 05.02.2020
3215 Clouds 6 1033 70 10000 5.1 300 17:18 05.02.2020
3216 Clouds 6 1033 70 10000 5.1 300 16:55 05.02.2020
3217 Clouds 6 1033 70 10000 5.1 300 16:37 05.02.2020
3218 Clouds 6 1033 70 10000 5.1 300 16:18 05.02.2020
3219 Clouds 6 1033 70 10000 6.2 290 15:41 05.02.2020
3220 Clouds 6 1033 70 10000 5.7 290 15:19 05.02.2020
3221 Clouds 7 1033 70 10000 5.7 270 14:55 05.02.2020
3222 Clouds 7 1033 70 10000 4.6 270 14:37 05.02.2020
3223 Clouds 7 1033 70 10000 4.6 270 14:19 05.02.2020
3224 Clouds 7 1033 70 10000 4.6 270 13:40 05.02.2020
3225 Clouds 7 1034 75 10000 4.1 260 13:22 05.02.2020
3226 Clouds 6 1034 75 10000 4.1 260 12:44 05.02.2020
3227 Clouds 7 1034 79 10000 2.1 250 12:25 05.02.2020
3228 Clouds 7 1034 79 10000 2.1 250 11:57 05.02.2020
3229 Clouds 5 1033 64 10000 2.1 230 11:39 05.02.2020
3230 Clouds 5 1033 64 10000 2.1 230 11:20 05.02.2020
3231 Clouds 4 1033 64 10000 2.1 230 10:43 05.02.2020
3232 Clouds 4 1033 69 10000 1.5 240 10:25 05.02.2020
3233 Clouds 4 1033 69 10000 1.5 240 09:59 05.02.2020
3234 Clouds -2 1032 86 10000 4.16 266 09:38 05.02.2020
3235 Clouds -1 1032 86 10000 4.16 266 09:20 05.02.2020
3236 Clouds 0 1032 86 10000 4.16 266 08:46 05.02.2020
3237 Clouds 2 1031 74 10000 1.5 10 08:24 05.02.2020
3238 Clouds 2 1031 74 10000 1.5 10 07:55 05.02.2020
3239 Clear 3 1031 69 10000 2.1 360 07:36 05.02.2020
3240 Clear 3 1031 69 10000 2.1 360 06:54 05.02.2020
3241 Clear 3 1030 74 10000 2.1 30 06:36 05.02.2020
3242 Clear 3 1030 74 10000 2.1 30 06:18 05.02.2020
3243 Clear 3 1029 74 10000 2.6 20 05:19 05.02.2020
3244 Clear 3 1029 74 10000 2.6 20 04:54 05.02.2020
3245 Clear 3 1028 74 10000 3.6 10 03:57 05.02.2020
3246 Clear 4 1026 69 10000 4.1 10 02:31 05.02.2020
3247 Clear 4 1026 69 10000 4.1 10 01:55 05.02.2020
3248 Clear 5 1024 69 10000 6.2 360 00:54 05.02.2020
3249 Clouds 5 1023 80 10000 4.6 20 23:59 04.02.2020
3250 Clouds 6 1021 80 10000 7.2 360 23:39 04.02.2020
3251 Clouds 6 1021 80 10000 7.2 360 23:19 04.02.2020
3252 Clouds 6 1021 80 10000 7.2 360 22:57 04.02.2020
3253 Clouds 7 1020 81 10000 7.7 350 22:39 04.02.2020
3254 Clouds 7 1020 81 10000 7.7 350 22:20 04.02.2020
3255 Clouds 7 1020 81 10000 7.7 350 21:54 04.02.2020
3256 Clouds 7 1018 81 10000 7.2 340 21:36 04.02.2020
3257 Clouds 7 1018 81 10000 7.2 340 21:18 04.02.2020
3258 Clouds 6 1018 81 10000 7.2 340 20:44 04.02.2020
3259 Clouds 6 1018 81 10000 7.7 340 20:21 04.02.2020
3260 Clouds 7 1017 81 10000 7.7 340 19:59 04.02.2020
3261 Clouds 6 1017 81 10000 7.7 340 19:40 04.02.2020
3262 Clouds 6 1016 86 10000 6.2 330 19:22 04.02.2020
3263 Clouds 6 1016 86 10000 6.2 330 18:57 04.02.2020
3264 Clouds 6 1013 86 10000 5.7 320 18:38 04.02.2020
3265 Clouds 6 1013 86 10000 5.7 320 18:19 04.02.2020
3266 Clouds 6 1013 86 10000 5.7 320 18:19 04.02.2020
3267 Clouds 6 1013 86 10000 5.7 320 17:54 04.02.2020
3268 Clouds 6 1012 75 10000 6.7 320 17:36 04.02.2020
3269 Clouds 6 1012 75 10000 6.7 320 17:18 04.02.2020
3270 Clouds 7 1011 75 10000 7.2 320 16:38 04.02.2020
3271 Clouds 7 1011 75 10000 7.2 320 16:38 04.02.2020
3272 Clouds 7 1011 75 10000 7.2 320 16:20 04.02.2020
3273 Clouds 7 1011 75 10000 7.2 320 15:56 04.02.2020
3274 Clouds 7 1009 70 10000 7.2 310 15:38 04.02.2020
3275 Clouds 7 1009 70 10000 7.2 310 15:19 04.02.2020
3276 Clouds 7 1009 70 10000 7.2 310 14:45 04.02.2020
3277 Clouds 7 1008 70 10000 7.2 310 14:23 04.02.2020
3278 Clouds 7 1008 70 10000 7.2 310 13:59 04.02.2020
3279 Clouds 7 1008 70 10000 7.2 310 13:40 04.02.2020
3280 -273 0 0 0 0 0 13:22 04.02.2020
3281 Rain 7 1007 81 10000 6.2 300 12:54 04.02.2020
3282 Rain 6 1007 75 10000 5.7 300 12:36 04.02.2020
3283 Rain 6 1007 75 10000 5.7 300 12:18 04.02.2020
3284 Rain 6 1007 75 10000 5.7 300 11:54 04.02.2020
3285 Rain 6 1007 75 10000 5.7 300 11:54 04.02.2020
3286 Clouds 4 1006 80 10000 7.7 310 11:36 04.02.2020
3287 Clouds 4 1006 80 10000 7.7 310 11:18 04.02.2020
3288 Mist 6 1005 81 3700 6.7 290 10:41 04.02.2020
3289 Mist 6 1005 81 3700 6.7 290 10:22 04.02.2020
3290 Rain 5 1004 80 10000 5.1 280 09:42 04.02.2020
3291 Rain 5 1003 80 10000 4.6 280 09:23 04.02.2020
3292 Rain 5 1003 80 10000 4.6 280 08:58 04.02.2020
3293 Thunderstorm 5 1003 75 10000 9.3 310 08:39 04.02.2020
3294 Thunderstorm 5 1003 75 10000 9.3 310 08:21 04.02.2020
3295 Thunderstorm 5 1003 75 10000 9.3 310 07:46 04.02.2020
3296 Thunderstorm 5 1003 80 10000 8.7 290 07:22 04.02.2020
3297 Clouds 5 1002 80 10000 8.2 310 06:44 04.02.2020
3298 Clouds 5 1002 80 10000 8.2 310 06:44 04.02.2020
3299 Clouds 5 1001 80 10000 8.2 310 06:18 04.02.2020
3300 Clouds 5 1001 80 10000 7.7 320 05:29 04.02.2020
3301 Clouds 6 1001 86 10000 5.1 280 03:53 04.02.2020
3302 Clouds 6 1001 80 10000 4.1 280 03:34 04.02.2020
3303 Clouds 6 1001 80 10000 4.1 280 02:56 04.02.2020
3304 Clouds 6 1001 86 10000 3.6 260 02:32 04.02.2020
3305 Clouds 6 1001 86 10000 3.6 260 01:54 04.02.2020
3306 Clouds 6 1002 86 10000 4.1 270 01:35 04.02.2020
3307 Clouds 6 1002 86 10000 4.1 270 01:35 04.02.2020
3308 Clouds 6 1002 86 10000 4.1 270 00:45 04.02.2020
3309 -273 0 0 0 0 0 00:21 04.02.2020
3310 Clouds 6 1002 81 10000 6.2 260 23:40 03.02.2020
3311 Clouds 7 1003 81 10000 5.7 260 23:22 03.02.2020
3312 Clouds 7 1004 81 10000 7.2 260 22:40 03.02.2020
3313 Clouds 7 1004 81 10000 7.2 260 22:21 03.02.2020
3314 Clouds 7 1004 81 10000 7.2 260 21:56 03.02.2020
3315 Clouds 6 1005 81 10000 7.7 260 21:37 03.02.2020
3316 Clouds 6 1005 81 10000 7.7 260 21:19 03.02.2020
3317 Clouds 6 1005 81 10000 7.7 260 20:42 03.02.2020
3318 Clouds 7 1006 75 10000 8.2 260 20:19 03.02.2020
3319 Clouds 7 1006 75 10000 8.2 260 19:58 03.02.2020
3320 Clouds 7 1006 75 10000 8.2 260 19:58 03.02.2020
3321 Clouds 7 1006 81 10000 7.7 270 19:40 03.02.2020
3322 Clouds 7 1006 81 10000 7.7 270 19:20 03.02.2020
3323 Clouds 7 1006 81 10000 7.2 270 18:56 03.02.2020
3324 Clouds 7 1006 81 10000 9.3 270 18:37 03.02.2020
3325 Clouds 7 1006 81 10000 9.3 270 18:18 03.02.2020
3326 Clouds 7 1006 81 10000 8.7 270 17:40 03.02.2020
3327 Clouds 7 1006 81 10000 8.7 270 17:20 03.02.2020
3328 Clouds 7 1006 87 10000 6.7 270 16:59 03.02.2020
3329 Clouds 8 1006 81 10000 8.2 280 16:39 03.02.2020
3330 Clouds 8 1006 81 10000 8.2 280 16:20 03.02.2020
3331 Clouds 8 1006 81 10000 8.2 280 15:56 03.02.2020
3332 Clouds 8 1006 87 10000 8.2 280 15:37 03.02.2020
3333 Clouds 8 1006 87 10000 8.2 280 15:19 03.02.2020
3334 Clouds 8 1006 87 10000 8.2 280 14:42 03.02.2020
3335 Clouds 8 1006 87 10000 9.3 270 14:24 03.02.2020
3336 Clouds 8 1006 87 10000 9.3 270 14:24 03.02.2020
3337 Clouds 8 1006 87 8000 9.3 280 13:58 03.02.2020
3338 Clouds 8 1006 87 9000 8.7 270 13:39 03.02.2020
3339 Clouds 8 1006 87 9000 8.7 270 13:19 03.02.2020
3340 Clouds 8 1006 87 9000 8.7 270 12:56 03.02.2020
3341 Clouds 8 1006 87 8000 7.7 270 12:37 03.02.2020
3342 Clouds 8 1006 87 8000 7.7 270 12:19 03.02.2020
3343 Rain 8 1005 87 3700 7.7 270 11:39 03.02.2020
3344 Rain 8 1005 87 3700 7.7 270 11:19 03.02.2020
3345 Rain 8 1005 87 3700 7.7 270 11:19 03.02.2020
3346 Rain 8 1005 87 3700 7.7 270 10:58 03.02.2020
3347 Rain 8 1005 87 5000 7.2 260 10:38 03.02.2020
3348 Drizzle 8 1005 87 6000 7.2 260 10:20 03.02.2020
3349 Clouds 8 1005 87 8000 6.7 260 09:39 03.02.2020
3350 Clouds 8 1005 87 8000 6.7 260 09:20 03.02.2020
3351 Clouds 8 1005 87 8000 6.7 260 08:41 03.02.2020
3352 Clouds 8 1005 87 8000 6.7 260 08:41 03.02.2020
3353 Clouds 7 1004 93 10000 5.7 260 08:23 03.02.2020
3354 Clouds 7 1004 93 10000 5.7 260 07:58 03.02.2020
3355 Clouds 7 1004 93 9000 5.7 280 07:39 03.02.2020
3356 Clouds 7 1004 93 9000 5.7 280 07:20 03.02.2020
3357 Clouds 7 1004 93 9000 5.7 280 07:20 03.02.2020
3358 Clouds 7 1004 93 9000 5.7 280 07:20 03.02.2020
3359 Clouds 7 1004 93 9000 5.7 280 06:43 03.02.2020
3360 Drizzle 7 1004 93 10000 5.7 260 06:24 03.02.2020
3361 Clouds 6 1003 93 10000 4.1 240 05:36 03.02.2020
3362 Clouds 6 1003 93 10000 4.1 240 04:56 03.02.2020
3363 Clouds 6 1004 93 10000 4.6 250 02:58 03.02.2020
3364 Clouds 6 1004 93 10000 4.6 250 02:33 03.02.2020
3365 Mist 5 1004 100 4500 3.1 210 01:30 03.02.2020
3366 Mist 5 1004 100 4500 3.1 210 00:46 03.02.2020
3367 Drizzle 5 1005 100 4500 2.6 230 00:22 03.02.2020
3368 Drizzle 5 1005 100 5000 2.1 230 23:38 02.02.2020
3369 Drizzle 5 1005 100 5000 2.1 230 23:20 02.02.2020
3370 Drizzle 5 1005 100 5000 2.1 230 22:57 02.02.2020
3371 Drizzle 5 1005 100 5000 1.5 220 22:37 02.02.2020
3372 Drizzle 5 1005 100 5000 1.5 220 22:19 02.02.2020
3373 Drizzle 5 1005 100 5000 1.5 220 21:54 02.02.2020
3374 Drizzle 5 1005 100 7000 1.5 280 21:36 02.02.2020
3375 Drizzle 5 1005 100 7000 1.5 280 21:18 02.02.2020
3376 Drizzle 5 1005 100 7000 1.5 280 20:55 02.02.2020
3377 Drizzle 5 1005 93 7000 1 240 20:36 02.02.2020
3378 Drizzle 5 1005 93 7000 1 240 20:18 02.02.2020
3379 Drizzle 5 1005 93 7000 1 240 19:42 02.02.2020
3380 Drizzle 5 1004 93 7000 1 260 19:23 02.02.2020
3381 Drizzle 5 1004 93 7000 1 260 18:59 02.02.2020
3382 Drizzle 5 1004 93 7000 1.5 230 18:38 02.02.2020
3383 Drizzle 5 1004 93 7000 1.5 230 18:20 02.02.2020
3384 Drizzle 5 1004 93 4000 0.5 230 17:58 02.02.2020
3385 Rain 5 1004 93 3000 1.5 320 17:38 02.02.2020
3386 Rain 5 1004 93 3000 1.5 320 17:19 02.02.2020
3387 Rain 5 1004 93 3000 1.5 320 16:58 02.02.2020
3388 Rain 6 1003 87 7000 3.1 310 16:39 02.02.2020
3389 Rain 6 1003 87 7000 3.1 310 16:19 02.02.2020
3390 Rain 6 1003 87 7000 3.1 310 15:57 02.02.2020
3391 Rain 7 1003 81 8000 3.1 290 15:39 02.02.2020
3392 Rain 7 1003 81 8000 3.1 290 15:20 02.02.2020
3393 Rain 7 1003 81 8000 3.1 290 15:20 02.02.2020
3394 Rain 7 1003 81 8000 3.1 290 14:56 02.02.2020
3395 Rain 7 1003 87 8000 3.1 260 14:38 02.02.2020
3396 Rain 7 1003 87 8000 3.1 260 14:18 02.02.2020
3397 Rain 7 1003 87 8000 3.1 260 13:54 02.02.2020
3398 Clouds 6 1004 93 10000 2.6 250 13:36 02.02.2020
3399 Clouds 6 1004 93 10000 2.6 250 13:18 02.02.2020
3400 Clouds 6 1004 93 10000 2.6 250 12:41 02.02.2020
3401 Clouds 6 1005 93 10000 3.1 260 12:22 02.02.2020
3402 Clouds 6 1005 93 10000 3.1 260 11:56 02.02.2020
3403 Clouds 6 1005 87 10000 4.6 260 11:37 02.02.2020
3404 Clouds 6 1005 87 10000 4.6 260 11:18 02.02.2020
3405 Clouds 6 1005 87 10000 4.6 260 10:55 02.02.2020
3406 Clouds 6 1005 87 10000 4.6 260 10:55 02.02.2020
3407 Clouds 6 1005 87 10000 4.1 260 10:36 02.02.2020
3408 Clouds 6 1005 87 10000 4.1 260 10:18 02.02.2020
3409 Clouds 6 1005 87 10000 4.1 260 09:41 02.02.2020
3410 Clouds 6 1005 87 10000 4.1 280 09:21 02.02.2020
3411 Clouds 6 1005 87 10000 4.1 280 08:57 02.02.2020
3412 Clouds 6 1004 87 10000 5.7 280 08:39 02.02.2020
3413 Clouds 6 1004 87 10000 5.7 280 08:20 02.02.2020
3414 Clouds 6 1004 87 10000 5.7 280 07:44 02.02.2020
3415 Clouds 6 1004 87 9000 5.1 290 07:26 02.02.2020
3416 Rain 7 1004 87 7000 5.7 280 06:39 02.02.2020
3417 Rain 7 1004 87 7000 5.7 280 06:21 02.02.2020
3418 Clouds 7 1003 87 8000 7.2 290 05:36 02.02.2020
3419 Drizzle 7 1002 93 3000 8.7 270 04:34 02.02.2020
3420 Drizzle 7 1002 93 4000 9.3 260 03:24 02.02.2020
3421 Drizzle 7 1001 87 5000 10.8 270 02:24 02.02.2020
3422 Drizzle 7 1001 87 5000 10.8 270 01:52 02.02.2020
3423 Clouds 8 1000 75 10000 11.8 270 01:19 02.02.2020
3424 Clouds 8 1000 75 10000 11.8 270 00:41 02.02.2020
3425 Clouds 8 999 75 10000 12.3 260 00:19 02.02.2020
3426 Clouds 8 999 75 10000 12.3 260 23:45 01.02.2020
3427 Clouds 9 999 66 10000 11.3 260 23:21 01.02.2020
3428 Clouds 9 999 66 10000 11.3 260 22:48 01.02.2020
3429 Clouds 9 999 66 10000 11.3 260 22:19 01.02.2020
3430 Clouds 9 999 66 10000 11.3 260 22:19 01.02.2020
3431 Clouds 9 999 66 10000 11.3 260 21:45 01.02.2020
3432 Clouds 9 998 66 10000 10.8 260 21:20 01.02.2020
3433 Clouds 9 998 66 10000 10.8 260 21:20 01.02.2020
3434 Clouds 9 998 66 10000 10.8 260 20:58 01.02.2020
3435 Clouds 9 998 70 10000 10.3 260 20:40 01.02.2020
3436 Clouds 9 998 70 10000 10.3 260 20:20 01.02.2020
3437 Clouds 9 998 70 10000 10.3 260 19:56 01.02.2020
3438 Clouds 9 998 70 10000 10.3 260 19:38 01.02.2020
3439 Clouds 9 998 70 10000 10.3 260 19:19 01.02.2020
3440 Clouds 9 998 70 10000 10.3 260 18:57 01.02.2020
3441 Clouds 9 997 70 10000 10.3 270 18:38 01.02.2020
3442 Clouds 9 997 70 10000 10.3 270 18:20 01.02.2020
3443 Clouds 9 997 70 10000 10.3 270 17:56 01.02.2020
3444 Clouds 9 997 76 10000 7.7 270 17:38 01.02.2020
3445 Clouds 9 997 76 10000 7.7 270 17:19 01.02.2020
3446 Clouds 9 997 76 10000 7.7 270 16:42 01.02.2020
3447 Clouds 10 997 76 10000 8.7 270 16:23 01.02.2020
3448 Clouds 10 997 76 10000 8.7 270 15:58 01.02.2020
3449 Clouds 10 996 81 10000 8.2 260 15:38 01.02.2020
3450 Clouds 10 996 81 10000 8.2 260 15:18 01.02.2020
3451 Clouds 10 996 81 10000 8.2 260 14:40 01.02.2020
3452 Clouds 10 997 81 10000 7.2 260 14:21 01.02.2020
3453 Clouds 11 997 81 10000 8.2 260 13:45 01.02.2020
3454 Clouds 11 997 81 10000 5.7 250 13:24 01.02.2020
3455 Clouds 11 997 81 10000 5.7 250 12:59 01.02.2020
3456 Clouds 11 997 81 10000 5.7 250 12:41 01.02.2020
3457 Clouds 10 997 87 10000 5.7 240 12:22 01.02.2020
3458 Clouds 10 997 87 10000 5.7 240 11:44 01.02.2020
3459 Clouds 10 997 87 10000 6.7 250 11:24 01.02.2020
3460 Clouds 10 997 87 10000 6.7 250 10:59 01.02.2020
3461 Clouds 10 997 87 10000 6.7 250 10:40 01.02.2020
3462 Clouds 10 997 87 10000 7.2 260 10:22 01.02.2020
3463 Clouds 10 997 87 10000 7.2 260 09:59 01.02.2020
3464 Clouds 10 998 93 10000 5.7 250 09:40 01.02.2020
3465 Clouds 10 998 93 10000 5.7 250 09:21 01.02.2020
3466 Clouds 10 998 93 10000 5.7 250 08:52 01.02.2020
3467 Drizzle 10 998 93 4000 6.2 240 07:56 01.02.2020
3468 Drizzle 10 998 93 4000 6.2 230 07:38 01.02.2020
3469 Drizzle 10 998 93 4000 6.2 230 07:19 01.02.2020
3470 Drizzle 10 998 93 4000 6.2 230 06:42 01.02.2020
3471 Clouds 10 999 93 10000 6.2 240 05:54 01.02.2020
3472 Drizzle 10 999 93 2500 5.7 240 04:22 01.02.2020
3473 Drizzle 10 999 93 2500 5.7 240 04:22 01.02.2020
3474 Drizzle 10 1000 93 2000 6.7 240 03:25 01.02.2020
3475 Drizzle 10 1000 100 2500 6.2 240 02:53 01.02.2020
3476 Rain 10 1000 93 3200 6.7 240 02:31 01.02.2020
3477 Rain 10 1000 93 3200 6.7 240 01:59 01.02.2020
3478 Drizzle 11 1000 87 3500 6.7 250 01:38 01.02.2020
3479 Clouds 11 1000 87 10000 7.2 250 00:46 01.02.2020
3480 Clouds 11 1001 87 10000 7.2 250 00:23 01.02.2020
3481 Clouds 11 1001 87 10000 6.7 240 23:39 31.01.2020
3482 Clouds 11 1001 87 10000 6.7 240 23:18 31.01.2020
3483 Clouds 11 1001 87 10000 7.2 250 22:55 31.01.2020
3484 Clouds 10 1001 93 10000 7.7 230 22:37 31.01.2020
3485 Clouds 10 1001 93 10000 7.7 230 22:19 31.01.2020
3486 Rain 10 1002 87 8000 5.1 240 21:39 31.01.2020
3487 Rain 10 1002 87 8000 5.1 240 21:21 31.01.2020
3488 Rain 10 1002 87 8000 5.1 240 20:57 31.01.2020
3489 Rain 10 1002 87 8000 5.1 240 20:39 31.01.2020
3490 Rain 10 1002 87 8000 5.1 240 20:21 31.01.2020
3491 Rain 10 1002 87 8000 6.7 250 19:57 31.01.2020
3492 Clouds 9 1003 93 9000 5.1 250 19:38 31.01.2020
3493 Clouds 9 1003 93 9000 5.1 250 19:20 31.01.2020
3494 Clouds 9 1003 93 9000 5.1 250 18:56 31.01.2020
3495 Clouds 9 1003 87 10000 6.7 250 18:36 31.01.2020
3496 Clouds 9 1003 87 10000 6.7 250 18:18 31.01.2020
3497 Clouds 9 1003 87 10000 6.7 250 17:43 31.01.2020
3498 Clouds 9 1003 87 10000 7.2 250 17:24 31.01.2020
3499 Clouds 9 1003 87 10000 7.2 250 16:56 31.01.2020
3500 Clouds 9 1003 87 10000 6.2 250 16:38 31.01.2020
3501 Clouds 9 1003 87 10000 6.2 250 16:19 31.01.2020
3502 Clouds 9 1003 87 10000 6.2 250 15:57 31.01.2020
3503 Clouds 9 1003 87 10000 6.2 240 15:38 31.01.2020
3504 Clouds 9 1003 87 10000 6.2 240 15:19 31.01.2020
3505 Clouds 9 1003 81 10000 5.7 240 14:42 31.01.2020
3506 Clouds 9 1003 81 10000 5.7 240 14:23 31.01.2020
3507 Clouds 9 1003 81 10000 5.7 240 13:53 31.01.2020
3508 Clouds 9 1003 81 10000 7.2 250 13:33 31.01.2020
3509 Clouds 9 1003 81 10000 7.2 250 12:58 31.01.2020
3510 Clouds 9 1003 81 10000 6.7 250 12:39 31.01.2020
3511 Clouds 9 1003 81 10000 6.7 250 12:21 31.01.2020
3512 Clouds 8 1003 81 10000 6.7 250 11:44 31.01.2020
3513 Clouds 8 1003 81 10000 6.7 250 11:26 31.01.2020
3514 Clouds 8 1003 81 10000 6.7 250 10:59 31.01.2020
3515 Clouds 8 1003 81 10000 6.7 250 10:41 31.01.2020
3516 Clouds 7 1003 87 10000 8.2 260 10:21 31.01.2020
3517 Clouds 7 1003 87 10000 8.2 260 09:57 31.01.2020
3518 -273 0 0 0 0 0 09:38 31.01.2020
3519 Clouds 7 1002 87 10000 8.2 270 09:38 31.01.2020
3520 Clouds 7 1002 87 10000 8.2 270 09:19 31.01.2020
3521 Clouds 7 1002 87 10000 8.2 270 08:50 31.01.2020
3522 Clouds 7 1002 87 10000 8.2 270 08:50 31.01.2020
3523 Clouds 7 1002 87 10000 8.2 270 08:50 31.01.2020
3524 Clouds 7 1001 81 10000 7.2 270 08:25 31.01.2020
3525 Clouds 7 1001 81 10000 7.2 270 07:53 31.01.2020
3526 Clouds 7 1000 81 10000 7.7 270 07:25 31.01.2020
3527 Clouds 7 1000 81 10000 7.7 270 06:48 31.01.2020
3528 Clouds 8 999 87 10000 8.7 270 06:18 31.01.2020
3529 Clouds 8 999 87 10000 8.7 270 05:46 31.01.2020
3530 Clouds 8 997 81 10000 8.7 270 04:55 31.01.2020
3531 Clouds 9 996 87 8000 10.3 270 02:58 31.01.2020
3532 Drizzle 9 994 87 5000 10.3 270 01:38 31.01.2020
3533 Drizzle 9 993 93 3500 9.8 260 00:46 31.01.2020
3534 Drizzle 9 993 93 3500 8.2 250 00:26 31.01.2020
3535 Drizzle 8 993 93 2500 8.2 240 23:57 30.01.2020
3536 Drizzle 8 993 93 2800 7.2 240 23:25 30.01.2020
3537 Drizzle 8 994 93 4500 7.7 230 22:57 30.01.2020
3538 Clouds 8 995 87 10000 7.7 220 22:37 30.01.2020
3539 Clouds 8 995 87 10000 7.7 220 22:18 30.01.2020
3540 Clouds 8 995 87 10000 7.7 220 22:18 30.01.2020
3541 Clouds 8 995 87 10000 7.7 220 21:57 30.01.2020
3542 Clouds 8 996 87 10000 7.2 230 21:38 30.01.2020
3543 Clouds 8 996 87 10000 7.2 230 21:38 30.01.2020
3544 Clouds 8 996 87 10000 7.2 230 21:18 30.01.2020
3545 Drizzle 8 996 81 5000 7.2 220 20:41 30.01.2020
3546 Drizzle 8 996 81 5000 7.2 220 20:22 30.01.2020
3547 Clouds 8 997 81 10000 6.2 220 19:57 30.01.2020
3548 Clouds 8 998 81 10000 6.7 220 19:39 30.01.2020
3549 Clouds 8 998 81 10000 6.7 220 19:19 30.01.2020
3550 Clouds 8 998 81 10000 6.7 220 18:42 30.01.2020
3551 Clouds 8 1000 81 10000 5.1 230 18:23 30.01.2020
3552 Clouds 8 1000 81 10000 5.1 230 17:58 30.01.2020
3553 Clouds 8 1001 81 10000 4.6 230 17:39 30.01.2020
3554 Clouds 8 1001 81 10000 4.6 230 17:19 30.01.2020
3555 Clouds 8 1001 81 10000 4.6 230 16:58 30.01.2020
3556 Clouds 8 1002 81 10000 4.6 240 16:39 30.01.2020
3557 Clouds 8 1002 81 10000 4.6 240 16:20 30.01.2020
3558 Clouds 8 1002 81 10000 4.6 240 15:44 30.01.2020
3559 Clouds 8 1002 81 10000 6.7 250 15:21 30.01.2020
3560 Clouds 8 1002 81 10000 6.7 250 14:54 30.01.2020
3561 Clouds 8 1003 81 10000 7.7 250 14:36 30.01.2020
3562 Clouds 8 1003 81 10000 7.7 250 14:18 30.01.2020
3563 Clouds 8 1003 81 10000 7.7 250 13:40 30.01.2020
3564 Clouds 8 1004 81 10000 7.7 260 13:22 30.01.2020
3565 Clouds 8 1004 81 10000 7.7 260 12:54 30.01.2020
3566 Clouds 7 1004 87 9000 7.7 260 12:36 30.01.2020
3567 Clouds 7 1004 87 9000 7.7 260 12:18 30.01.2020
3568 Clouds 7 1004 87 9000 7.7 260 11:40 30.01.2020
3569 Clouds 7 1003 87 7000 7.7 260 11:22 30.01.2020
3570 Clouds 7 1003 87 7000 7.7 260 11:22 30.01.2020
3571 Drizzle 7 1003 87 4500 9.3 260 10:58 30.01.2020
3572 Drizzle 7 1003 87 3700 8.2 260 10:39 30.01.2020
3573 Drizzle 7 1003 87 3700 8.2 260 10:20 30.01.2020
3574 Drizzle 7 1003 87 3700 8.2 260 09:45 30.01.2020
3575 Drizzle 7 1003 87 4000 8.7 260 09:24 30.01.2020
3576 Drizzle 6 1003 93 4000 7.7 260 08:42 30.01.2020
3577 Drizzle 6 1003 93 4000 7.7 260 08:22 30.01.2020
3578 Drizzle 6 1003 93 4000 7.7 260 07:57 30.01.2020
3579 Drizzle 6 1002 93 7000 7.2 250 07:39 30.01.2020
3580 Drizzle 6 1002 93 7000 7.2 250 07:39 30.01.2020
3581 Drizzle 6 1002 93 7000 7.2 250 07:18 30.01.2020
3582 Drizzle 6 1002 93 7000 7.2 250 06:43 30.01.2020
3583 Drizzle 6 1002 93 7000 8.7 250 06:25 30.01.2020
3584 Drizzle 6 1002 87 9000 8.2 250 05:29 30.01.2020
3585 Drizzle 6 1002 87 9000 8.2 250 04:50 30.01.2020
3586 Drizzle 6 1002 87 10000 8.7 250 03:47 30.01.2020
3587 Drizzle 5 1003 93 6000 8.7 230 02:56 30.01.2020
3588 Rain 5 1004 93 8000 7.2 230 01:30 30.01.2020
3589 Clouds 5 1005 86 10000 6.2 240 00:30 30.01.2020
3590 Clouds 5 1005 86 10000 6.2 240 23:58 29.01.2020
3591 Clouds 5 1005 80 10000 5.7 240 23:39 29.01.2020
3592 Clouds 5 1005 80 10000 5.7 240 23:20 29.01.2020
3593 Clouds 5 1005 80 10000 5.7 240 22:55 29.01.2020
3594 Clouds 4 1005 93 10000 5.7 250 22:37 29.01.2020
3595 Clouds 4 1005 93 10000 5.7 250 22:18 29.01.2020
3596 Clouds 4 1005 93 10000 5.7 250 21:54 29.01.2020
3597 Clouds 4 1005 86 10000 5.7 250 21:36 29.01.2020
3598 Clouds 4 1005 86 10000 5.7 250 21:18 29.01.2020
3599 Clouds 4 1005 86 10000 5.7 250 20:41 29.01.2020
3600 Clouds 5 1004 80 10000 8.2 260 20:22 29.01.2020
3601 Clouds 5 1004 80 10000 8.2 260 20:22 29.01.2020
3602 Clouds 5 1004 80 10000 8.2 260 19:58 29.01.2020
3603 Clouds 5 1004 80 10000 8.7 260 19:38 29.01.2020
3604 Clouds 5 1004 80 10000 8.7 260 19:20 29.01.2020
3605 Clouds 5 1004 80 10000 8.7 260 18:58 29.01.2020
3606 Clouds 6 1003 80 10000 8.2 280 18:38 29.01.2020
3607 Clouds 6 1003 80 10000 8.2 280 18:19 29.01.2020
3608 Clouds 5 1003 80 10000 8.2 280 17:41 29.01.2020
3609 Clouds 6 1002 81 10000 6.2 270 17:23 29.01.2020
3610 Clouds 6 1002 81 10000 6.2 270 16:55 29.01.2020
3611 Clouds 6 1001 81 10000 6.7 270 16:37 29.01.2020
3612 Clouds 6 1001 81 10000 6.7 270 16:19 29.01.2020
3613 Clouds 6 1001 81 10000 6.7 270 16:19 29.01.2020
3614 Rain 6 999 86 8000 7.7 280 15:39 29.01.2020
3615 Rain 6 999 86 8000 7.7 280 15:21 29.01.2020
3616 Rain 6 999 86 8000 7.7 280 14:55 29.01.2020
3617 Rain 5 999 93 6000 5.1 250 14:37 29.01.2020
3618 Rain 5 999 93 6000 5.1 250 14:18 29.01.2020
3619 Rain 5 998 80 6000 8.2 260 13:40 29.01.2020
3620 Rain 5 998 80 6000 8.2 260 13:22 29.01.2020
3621 Rain 5 998 86 10000 8.7 260 12:56 29.01.2020
3622 Clouds 5 998 86 10000 8.2 260 12:38 29.01.2020
3623 Clouds 5 998 86 10000 8.2 260 12:20 29.01.2020
3624 Rain 4 998 93 7000 9.3 290 11:47 29.01.2020
3625 Clouds 5 996 86 8000 10.3 260 11:24 29.01.2020
3626 Clouds 5 996 80 8000 10.8 260 10:58 29.01.2020
3627 Clouds 5 996 80 8000 10.8 260 10:40 29.01.2020
3628 Clouds 5 996 80 8000 10.8 260 10:20 29.01.2020
3629 Clouds 5 995 86 8000 9.3 260 09:40 29.01.2020
3630 Clouds 5 995 86 8000 9.3 260 09:22 29.01.2020
3631 Clouds 5 995 86 8000 9.3 260 08:58 29.01.2020
3632 Rain 4 995 93 3700 5.1 300 08:39 29.01.2020
3633 Rain 4 995 93 3700 5.1 300 08:20 29.01.2020
3634 Rain 4 995 93 4500 7.7 280 07:45 29.01.2020
3635 Rain 3 995 93 7000 5.7 260 07:25 29.01.2020
3636 Rain 4 995 93 4500 9.8 300 06:55 29.01.2020
3637 Rain 5 994 93 5000 5.7 240 06:37 29.01.2020
3638 Rain 5 994 93 5000 5.7 240 06:18 29.01.2020
3639 Rain 4 994 93 5000 5.7 240 05:45 29.01.2020
3640 Clouds 4 993 93 10000 6.2 240 05:26 29.01.2020
3641 Clouds 4 993 93 10000 5.7 240 04:38 29.01.2020
3642 Clouds 4 993 93 10000 5.7 240 03:50 29.01.2020
3643 Drizzle 4 993 86 10000 7.7 260 02:33 29.01.2020
3644 Rain 3 993 86 10000 5.7 250 00:44 29.01.2020
3645 Clouds 4 992 86 10000 7.7 260 00:25 29.01.2020
3646 Clouds 4 992 86 10000 7.7 260 23:58 28.01.2020
3647 Clouds 4 992 80 10000 9.3 260 23:37 28.01.2020
3648 Clouds 4 992 80 10000 9.3 260 23:19 28.01.2020
3649 Clouds 4 992 80 10000 9.3 260 22:44 28.01.2020
3650 Clouds 4 992 86 8000 7.2 270 22:26 28.01.2020
3651 Clouds 4 992 86 8000 7.2 270 21:54 28.01.2020
3652 Clouds 5 990 75 10000 11.8 280 21:36 28.01.2020
3653 Clouds 5 990 75 10000 11.8 280 21:18 28.01.2020
3654 Clouds 5 990 75 10000 11.8 280 21:18 28.01.2020
3655 Clouds 5 990 75 10000 11.8 280 21:18 28.01.2020
3656 Clouds 5 990 75 10000 11.8 280 20:45 28.01.2020
3657 Clouds 5 990 80 10000 11.3 270 20:25 28.01.2020
3658 Rain 5 989 86 10000 11.3 300 19:55 28.01.2020
3659 Rain 4 989 86 8000 13.9 290 19:37 28.01.2020
3660 Rain 4 989 86 8000 13.9 290 19:18 28.01.2020
3661 Rain 4 989 86 8000 13.9 290 19:18 28.01.2020
3662 Rain 3 988 93 7000 13.9 290 18:41 28.01.2020
3663 Rain 3 987 93 7000 13.9 290 18:23 28.01.2020
3664 Rain 3 987 93 5000 10.3 270 17:59 28.01.2020
3665 Snow 1 987 84 2000 8.2 260 17:39 28.01.2020
3666 Snow 1 987 95 2000 8.2 260 17:21 28.01.2020
3667 Snow 1 987 95 1300 6.7 250 16:58 28.01.2020
3668 Drizzle 2 986 93 7000 7.7 250 16:40 28.01.2020
3669 Drizzle 2 986 93 7000 7.7 250 16:21 28.01.2020
3670 Drizzle 3 986 93 3200 5.7 240 15:47 28.01.2020
3671 Rain 5 985 86 10000 7.2 240 15:19 28.01.2020
3672 Rain 5 985 86 10000 7.2 240 14:58 28.01.2020
3673 Drizzle 5 985 93 4500 3.6 270 14:39 28.01.2020
3674 Drizzle 5 985 93 4500 3.6 270 14:18 28.01.2020
3675 Drizzle 6 985 87 2500 2.1 250 13:41 28.01.2020
3676 Drizzle 6 985 93 6000 3.6 220 13:23 28.01.2020
3677 Drizzle 5 985 93 4500 3.1 220 12:44 28.01.2020
3678 Drizzle 6 985 87 6000 4.6 200 12:24 28.01.2020
3679 Clouds 6 986 87 10000 4.6 210 11:58 28.01.2020
3680 Clouds 6 986 87 10000 4.6 210 11:40 28.01.2020
3681 Clouds 6 986 81 10000 4.6 220 11:21 28.01.2020
3682 Clouds 6 986 81 10000 4.6 220 10:43 28.01.2020
3683 Clouds 6 986 87 10000 4.1 220 10:24 28.01.2020
3684 Clouds 6 986 87 10000 3.6 210 09:58 28.01.2020
3685 Clouds 6 987 87 10000 6.2 220 09:38 28.01.2020
3686 Clouds 6 987 87 10000 6.2 220 09:19 28.01.2020
3687 Clouds 6 987 87 10000 6.2 220 08:44 28.01.2020
3688 Drizzle 5 987 93 9000 6.2 220 08:25 28.01.2020
3689 Drizzle 5 987 93 9000 6.2 220 07:44 28.01.2020
3690 Clouds 6 988 87 10000 5.1 220 07:26 28.01.2020
3691 Clouds 6 988 87 10000 5.1 220 06:47 28.01.2020
3692 Clouds 6 988 93 10000 7.7 220 06:24 28.01.2020
3693 Drizzle 5 988 93 6000 7.2 170 05:37 28.01.2020
3694 Drizzle 5 988 93 6000 7.2 170 05:19 28.01.2020
3695 Rain 5 989 93 6000 5.1 160 03:47 28.01.2020
3696 Rain 6 991 87 9000 4.6 160 02:44 28.01.2020
3697 Rain 6 993 87 8000 4.1 150 02:25 28.01.2020
3698 Rain 6 993 87 8000 4.1 150 01:53 28.01.2020
3699 Clouds 6 995 93 7000 3.6 170 01:20 28.01.2020
3700 Clouds 6 995 93 7000 3.6 170 00:43 28.01.2020
3701 Clouds 7 996 87 6000 3.6 180 00:19 28.01.2020
3702 Clouds 7 996 87 6000 3.6 180 23:43 27.01.2020
3703 Clouds 7 997 87 6000 3.6 180 23:19 27.01.2020
3704 Clouds 7 997 87 6000 3.6 180 22:45 27.01.2020
3705 Clouds 7 998 87 7000 3.1 180 22:20 27.01.2020
3706 Clouds 7 998 87 7000 3.1 180 22:20 27.01.2020
3707 Clouds 7 998 87 7000 3.1 180 22:20 27.01.2020
3708 Clouds 7 998 87 7000 3.1 180 22:20 27.01.2020
3709 Clouds 7 998 87 7000 3.1 180 21:57 27.01.2020
3710 Clouds 7 998 87 7000 3.1 180 21:57 27.01.2020
3711 Clouds 7 999 93 6000 3.1 190 21:39 27.01.2020
3712 Clouds 7 999 93 6000 3.1 190 21:19 27.01.2020
3713 Clouds 7 999 93 8000 3.1 180 20:56 27.01.2020
3714 Clouds 7 1000 93 9000 2.6 200 20:37 27.01.2020
3715 Clouds 7 1000 93 9000 2.6 200 20:19 27.01.2020
3716 Clouds 7 1000 93 9000 2.6 200 19:55 27.01.2020
3717 Clouds 8 1001 87 9000 3.6 190 19:37 27.01.2020
3718 Clouds 8 1001 87 9000 3.6 190 19:19 27.01.2020
3719 Clouds 8 1002 87 7000 3.6 200 18:39 27.01.2020
3720 Clouds 8 1002 87 7000 3.6 200 18:21 27.01.2020
3721 Clouds 8 1002 87 7000 3.6 200 17:57 27.01.2020
3722 Clouds 8 1002 87 6000 3.6 200 17:38 27.01.2020
3723 Clouds 8 1002 87 6000 3.6 200 17:19 27.01.2020
3724 Clouds 8 1002 87 6000 3.6 200 16:56 27.01.2020
3725 Clouds 8 1003 87 10000 4.1 210 16:37 27.01.2020
3726 Clouds 8 1003 87 10000 4.1 210 16:19 27.01.2020
3727 Clouds 8 1003 87 10000 4.1 210 15:41 27.01.2020
3728 Clouds 8 1003 87 10000 4.6 220 15:20 27.01.2020
3729 Clouds 8 1003 93 8000 4.6 210 14:57 27.01.2020
3730 Drizzle 8 1003 93 5000 4.6 210 14:39 27.01.2020
3731 Drizzle 8 1003 93 5000 4.6 210 14:20 27.01.2020
3732 Drizzle 8 1004 87 4000 4.6 210 13:42 27.01.2020
3733 Clouds 8 1004 87 9000 4.6 210 13:22 27.01.2020
3734 Clouds 8 1004 87 9000 4.6 210 12:58 27.01.2020
3735 Clouds 8 1005 87 9000 5.1 210 12:39 27.01.2020
3736 Clouds 8 1005 87 9000 5.1 210 12:21 27.01.2020
3737 Clouds 7 1005 93 9000 5.1 210 11:43 27.01.2020
3738 Clouds 7 1005 93 7000 5.1 220 11:22 27.01.2020
3739 Clouds 7 1005 93 7000 5.1 220 10:56 27.01.2020
3740 Clouds 7 1005 93 7000 6.2 220 10:38 27.01.2020
3741 Clouds 7 1005 93 7000 6.2 220 10:20 27.01.2020
3742 Drizzle 6 1005 93 5000 5.1 220 09:39 27.01.2020
3743 Drizzle 6 1005 93 5000 5.1 220 09:19 27.01.2020
3744 Drizzle 6 1005 93 5000 5.1 220 08:55 27.01.2020
3745 Drizzle 6 1005 93 4500 5.7 210 08:37 27.01.2020
3746 Drizzle 6 1005 93 4500 5.7 210 08:18 27.01.2020
3747 Drizzle 6 1005 93 5000 5.1 210 07:45 27.01.2020
3748 Drizzle 6 1006 93 6000 5.7 210 07:25 27.01.2020
3749 Rain 5 1006 93 4000 4.6 190 06:38 27.01.2020
3750 Rain 5 1006 93 4000 4.6 190 05:43 27.01.2020
3751 Clouds 5 1008 86 9000 5.1 190 04:37 27.01.2020
3752 Clouds 5 1009 86 9000 4.6 190 03:35 27.01.2020
3753 Clouds 5 1009 86 10000 4.1 190 01:55 27.01.2020
3754 Clouds 4 1010 93 10000 4.1 180 01:27 27.01.2020
3755 Clouds 4 1010 93 10000 4.1 180 00:41 27.01.2020
3756 Clouds 4 1010 86 10000 3.6 180 00:21 27.01.2020
3757 Clouds 4 1010 86 10000 3.6 180 23:43 26.01.2020
3758 Clouds 4 1011 86 9000 3.1 170 23:22 26.01.2020
3759 Clouds 4 1011 86 9000 3.1 170 22:58 26.01.2020
3760 Clouds 4 1012 86 9000 3.6 170 22:38 26.01.2020
3761 Clouds 4 1012 86 9000 3.6 170 22:20 26.01.2020
3762 Clouds 4 1012 86 9000 3.6 170 21:58 26.01.2020
3763 Clouds 4 1012 86 8000 3.1 200 21:39 26.01.2020
3764 Clouds 4 1012 86 8000 3.1 200 21:20 26.01.2020
3765 Clouds 3 1012 93 8000 2.6 190 20:58 26.01.2020
3766 Clouds 3 1012 93 8000 4.1 180 20:38 26.01.2020
3767 Clouds 3 1012 93 8000 4.1 180 20:38 26.01.2020
3768 Clouds 3 1012 93 8000 4.1 180 20:19 26.01.2020
3769 Clouds 3 1012 93 8000 4.1 180 19:58 26.01.2020
3770 Clouds 3 1013 93 8000 5.1 180 19:38 26.01.2020
3771 Clouds 3 1013 93 8000 5.1 180 19:38 26.01.2020
3772 Clouds 3 1013 93 8000 5.1 180 19:19 26.01.2020
3773 Clouds 3 1013 93 8000 5.1 180 18:56 26.01.2020
3774 Clouds 3 1013 93 6000 5.1 180 18:38 26.01.2020
3775 Clouds 3 1013 93 6000 5.1 180 18:19 26.01.2020
3776 Clouds 3 1013 93 6000 5.1 180 17:55 26.01.2020
3777 Mist 3 1013 93 5000 4.6 170 17:36 26.01.2020
3778 Mist 3 1013 93 5000 4.6 170 17:18 26.01.2020
3779 Mist 3 1013 93 5000 4.6 170 16:55 26.01.2020
3780 Mist 3 1013 93 5000 3.6 170 16:37 26.01.2020
3781 Mist 3 1013 93 5000 3.6 170 16:18 26.01.2020
3782 Clouds 6 1013 84 0 6.56 188 15:43 26.01.2020
3783 Clouds 6 1013 84 0 6.56 188 15:21 26.01.2020
3784 Clouds 6 1013 84 0 6.56 188 14:56 26.01.2020
3785 Clouds 6 1013 84 0 6.56 188 14:38 26.01.2020
3786 Clouds 5 1014 81 0 8.14 180 14:19 26.01.2020
3787 Clouds 5 1014 81 0 8.14 180 13:39 26.01.2020
3788 Clouds 5 1014 80 0 8.28 185 13:19 26.01.2020
3789 Clouds 5 1014 80 0 8.28 185 12:56 26.01.2020
3790 Clouds 5 1014 80 0 8.28 185 12:36 26.01.2020
3791 Clouds 5 1014 80 0 8.28 185 12:18 26.01.2020
3792 Clouds 5 1014 80 0 8.28 185 11:56 26.01.2020
3793 Clouds 5 1014 80 0 8.28 185 11:36 26.01.2020
3794 Clouds 4 1016 80 0 8.2 188 11:18 26.01.2020
3795 Mist 0 1016 80 1400 4.6 190 10:39 26.01.2020
3796 Mist 0 1016 80 1400 4.6 190 10:21 26.01.2020
3797 Mist 0 1016 80 1400 4.6 190 09:59 26.01.2020
3798 Mist 0 1016 80 2800 3.1 170 09:41 26.01.2020
3799 Mist 0 1016 80 2800 3.1 170 09:23 26.01.2020
3800 Mist 0 1016 80 3500 3.6 180 08:57 26.01.2020
3801 Mist 0 1016 80 3500 3.6 180 08:57 26.01.2020
3802 Clouds 1 1017 80 7000 3.6 190 08:39 26.01.2020
3803 Clouds 1 1017 83 7000 3.6 190 08:20 26.01.2020
3804 Clouds 1 1017 83 7000 3.6 190 07:47 26.01.2020
3805 Clouds 1 1017 83 8000 3.6 200 07:25 26.01.2020
3806 Clouds 1 1017 83 8000 3.1 200 06:38 26.01.2020
3807 Clouds 1 1017 83 8000 3.1 200 06:18 26.01.2020
3808 Clouds 1 1017 83 7000 3.6 200 05:26 26.01.2020
3809 Clouds 1 1018 87 6000 3.6 210 03:23 26.01.2020
3810 Clouds 1 1018 87 6000 3.6 210 02:24 26.01.2020
3811 Clouds 1 1018 88 6000 3.6 210 01:40 26.01.2020
3812 Clouds 2 1018 93 6000 2.6 210 01:21 26.01.2020
3813 Clouds 2 1018 93 6000 2.6 210 00:41 26.01.2020
3814 Clouds 2 1019 93 6000 3.6 210 00:20 26.01.2020
3815 Clouds 3 1017 85 0 6.59 213 23:38 25.01.2020
3816 Clouds 4 1019 85 0 7.27 211 23:20 25.01.2020
3817 Clouds 4 1019 85 0 7.27 211 22:45 25.01.2020
3818 Clouds 4 1019 85 0 7.27 211 22:21 25.01.2020
3819 Clouds 4 1019 85 0 7.27 211 21:59 25.01.2020
3820 Clouds 4 1019 85 0 7.27 211 21:41 25.01.2020
3821 Clouds 4 1019 85 0 7.27 211 21:23 25.01.2020
3822 Clouds 4 1019 85 0 7.27 211 20:56 25.01.2020
3823 Clouds 4 1019 85 0 7.27 211 20:38 25.01.2020
3824 Clouds 4 1019 89 0 6.63 217 20:19 25.01.2020
3825 Clouds 4 1019 89 0 6.63 217 19:43 25.01.2020
3826 Clouds 4 1018 86 0 6.58 216 19:20 25.01.2020
3827 Clouds 4 1019 89 0 6.63 217 18:57 25.01.2020
3828 Clouds 4 1019 89 0 6.63 217 18:38 25.01.2020
3829 Clouds 4 1019 89 0 6.63 217 18:20 25.01.2020
3830 Clouds 4 1018 86 0 6.58 216 17:40 25.01.2020
3831 Clouds 4 1019 91 0 7.23 229 17:21 25.01.2020
3832 Clouds 4 1019 91 0 7.23 229 16:58 25.01.2020
3833 Clouds 5 1019 89 0 6.96 233 16:39 25.01.2020
3834 Clouds 5 1019 89 0 6.96 233 16:19 25.01.2020
3835 Clouds 5 1019 89 0 6.96 233 15:47 25.01.2020
3836 Clouds 5 1019 89 0 6.96 233 15:25 25.01.2020
3837 Clouds 5 1019 89 0 6.96 233 14:59 25.01.2020
3838 Clouds 5 1019 89 0 6.96 233 14:41 25.01.2020
3839 Clouds 5 1020 92 0 8.17 231 14:18 25.01.2020
3840 Clouds 5 1020 92 0 8.17 231 13:43 25.01.2020
3841 Rain 5 1020 91 0 8.25 232 13:24 25.01.2020
3842 Drizzle 3 1021 93 2800 4.1 230 12:46 25.01.2020
3843 Drizzle 3 1021 93 2800 4.1 230 12:26 25.01.2020
3844 Drizzle 3 1021 93 2800 4.1 230 11:46 25.01.2020
3845 Drizzle 3 1020 93 2800 4.6 230 11:22 25.01.2020
3846 Drizzle 3 1020 93 2800 4.6 230 11:00 25.01.2020
3847 Drizzle 3 1020 93 2800 4.6 230 10:40 25.01.2020
3848 Drizzle 3 1020 93 2500 3.6 230 10:21 25.01.2020
3849 Drizzle 3 1020 93 2500 3.6 230 09:57 25.01.2020
3850 Drizzle 3 1020 93 2800 4.1 230 09:37 25.01.2020
3851 Drizzle 3 1020 93 2800 4.1 230 09:18 25.01.2020
3852 Drizzle 3 1020 93 2800 4.1 230 08:42 25.01.2020
3853 Drizzle 3 1019 93 2800 4.1 230 07:53 25.01.2020
3854 Drizzle 3 1019 93 2800 4.1 230 07:53 25.01.2020
3855 Drizzle 3 1019 93 2800 4.1 230 06:58 25.01.2020
3856 Drizzle 3 1019 93 3000 4.1 230 06:31 25.01.2020
3857 Drizzle 3 1019 93 3000 4.1 230 05:50 25.01.2020
3858 Drizzle 3 1019 93 3500 3.1 240 05:30 25.01.2020
3859 Drizzle 3 1019 93 3500 3.6 240 03:55 25.01.2020
3860 Drizzle 3 1020 93 3500 4.1 240 03:34 25.01.2020
3861 Drizzle 3 1020 93 4000 4.1 240 02:35 25.01.2020
3862 Drizzle 3 1020 93 4000 4.1 240 01:54 25.01.2020
3863 Drizzle 3 1020 93 4500 3.6 240 00:59 25.01.2020
3864 Drizzle 3 1020 93 4000 4.6 240 00:37 25.01.2020
3865 Drizzle 3 1020 93 4000 4.6 240 00:18 25.01.2020
3866 Drizzle 3 1020 93 4000 4.6 240 00:18 25.01.2020
3867 Drizzle 3 1020 93 4000 4.6 240 23:41 24.01.2020
3868 Drizzle 3 1020 93 4000 4.6 240 23:41 24.01.2020
3869 Drizzle 3 1020 93 3000 4.1 240 23:23 24.01.2020
3870 Drizzle 3 1020 93 3000 4.1 240 22:46 24.01.2020
3871 Drizzle 3 1020 93 2500 4.6 230 22:27 24.01.2020
3872 Drizzle 3 1020 93 2500 4.6 230 21:58 24.01.2020
3873 Drizzle 3 1020 93 2800 4.1 250 21:40 24.01.2020
3874 Drizzle 3 1020 93 2800 4.1 250 21:18 24.01.2020
3875 Drizzle 3 1020 93 2800 4.1 250 20:43 24.01.2020
3876 Drizzle 3 1020 93 2500 4.1 240 20:22 24.01.2020
3877 Drizzle 3 1020 93 2500 4.1 240 19:58 24.01.2020
3878 Drizzle 3 1020 93 2500 3.6 240 19:40 24.01.2020
3879 Drizzle 3 1020 93 2500 3.6 240 19:22 24.01.2020
3880 Drizzle 3 1020 93 2500 3.6 240 18:54 24.01.2020
3881 Drizzle 3 1020 93 2200 3.6 240 18:36 24.01.2020
3882 Drizzle 3 1020 93 2200 3.6 240 18:18 24.01.2020
3883 Drizzle 3 1020 93 2200 3.6 240 17:42 24.01.2020
3884 Drizzle 3 1020 93 1800 3.6 240 17:21 24.01.2020
3885 Drizzle 3 1020 93 1800 4.1 240 16:43 24.01.2020
3886 Drizzle 3 1020 93 2000 4.1 230 16:22 24.01.2020
3887 Drizzle 3 1020 93 2000 4.1 230 16:22 24.01.2020
3888 Drizzle 3 1020 93 2000 4.1 230 15:57 24.01.2020
3889 Mist 3 1020 93 2400 3.6 250 15:39 24.01.2020
3890 Mist 3 1020 93 2400 3.6 250 15:20 24.01.2020
3891 Mist 3 1020 93 2400 3.6 250 14:41 24.01.2020
3892 Mist 3 1020 100 2500 3.6 240 14:23 24.01.2020
3893 Mist 3 1020 100 2500 3.6 240 14:23 24.01.2020
3894 Mist 3 1020 100 2500 3.6 240 13:57 24.01.2020
3895 Mist 3 1021 93 2800 3.6 240 13:39 24.01.2020
3896 Mist 3 1021 93 2800 3.6 240 13:19 24.01.2020
3897 Mist 2 1021 100 3000 4.1 230 12:41 24.01.2020
3898 Mist 2 1021 100 3000 4.1 230 12:18 24.01.2020
3899 Mist 2 1021 100 3000 3.6 230 11:43 24.01.2020
3900 Mist 2 1021 100 3000 3.6 230 11:19 24.01.2020
3901 Mist 2 1021 93 2000 4.1 220 10:43 24.01.2020
3902 Mist 1 1022 100 1500 4.1 230 10:22 24.01.2020
3903 Mist 1 1022 100 1500 4.1 230 09:57 24.01.2020
3904 Drizzle 1 1022 100 1000 4.1 230 09:39 24.01.2020
3905 Drizzle 1 1022 100 1000 4.1 230 09:21 24.01.2020
3906 Drizzle 1 1022 100 1000 4.1 230 08:40 24.01.2020
3907 Drizzle 1 1022 90 1500 4.1 220 08:19 24.01.2020
3908 Drizzle 1 1022 90 1500 4.1 220 07:50 24.01.2020
3909 Drizzle 1 1022 100 800 4.1 230 07:32 24.01.2020
3910 Drizzle 1 1022 100 800 4.1 230 06:48 24.01.2020
3911 Drizzle 1 1022 100 800 4.1 230 06:29 24.01.2020
3912 Drizzle 1 1022 100 800 4.1 230 05:58 24.01.2020
3913 Mist 2 1023 93 1800 4.1 220 04:57 24.01.2020
3914 Mist 2 1024 93 3000 4.1 240 02:53 24.01.2020
3915 Mist 2 1025 93 3000 3.6 230 02:25 24.01.2020
3916 Mist 2 1025 93 3000 3.6 230 01:46 24.01.2020
3917 Mist 2 1025 100 4000 3.1 230 01:28 24.01.2020
3918 Mist 3 1026 93 2500 2.6 230 00:25 24.01.2020
3919 Mist 3 1026 93 2500 2.6 230 23:49 23.01.2020
3920 Mist 3 1026 93 2500 3.6 230 23:31 23.01.2020
3921 Mist 3 1026 93 2500 3.6 230 22:59 23.01.2020
3922 Mist 3 1026 93 3500 3.6 230 22:38 23.01.2020
3923 Mist 3 1026 93 3500 3.6 230 22:38 23.01.2020
3924 Mist 3 1026 93 3500 3.6 230 22:19 23.01.2020
3925 Mist 3 1027 93 4000 4.1 260 21:58 23.01.2020
3926 Mist 3 1027 93 5000 3.6 270 21:39 23.01.2020
3927 Mist 3 1027 93 5000 3.6 270 21:20 23.01.2020
3928 Clouds 3 1027 93 10000 4.1 260 20:59 23.01.2020
3929 Clouds 3 1028 93 10000 3.6 260 20:39 23.01.2020
3930 Clouds 3 1028 93 10000 3.6 260 20:20 23.01.2020
3931 Clouds 3 1028 93 10000 3.6 260 19:56 23.01.2020
3932 Clouds 4 1028 86 10000 3.1 260 19:38 23.01.2020
3933 Clouds 4 1028 86 10000 3.1 260 19:19 23.01.2020
3934 Clouds 4 1028 86 10000 3.1 260 18:56 23.01.2020
3935 Clouds 4 1029 86 10000 4.6 260 18:37 23.01.2020
3936 Clouds 4 1029 86 10000 4.6 260 18:19 23.01.2020
3937 Clouds 4 1029 93 9000 4.1 260 17:43 23.01.2020
3938 Clouds 4 1029 93 9000 4.1 260 17:20 23.01.2020
3939 Clouds 4 1029 93 9000 4.1 260 16:58 23.01.2020
3940 Clouds 4 1029 93 9000 2.6 240 16:37 23.01.2020
3941 Clouds 4 1029 93 9000 2.6 240 16:18 23.01.2020
3942 Clouds 4 1029 93 8000 3.1 260 15:57 23.01.2020
3943 Clouds 5 1029 86 8000 4.6 260 15:37 23.01.2020
3944 Clouds 5 1029 86 8000 4.6 260 15:18 23.01.2020
3945 Clouds 5 1029 86 8000 4.6 260 15:18 23.01.2020
3946 Clouds 5 1030 86 10000 5.1 260 14:56 23.01.2020
3947 Clouds 5 1030 86 10000 5.1 260 14:56 23.01.2020
3948 Clouds 5 1031 86 10000 2.6 240 14:38 23.01.2020
3949 Clouds 5 1031 86 10000 2.6 240 14:20 23.01.2020
3950 Clouds 5 1031 86 10000 2.6 240 13:44 23.01.2020
3951 Clouds 6 1032 87 10000 2.1 250 13:21 23.01.2020
3952 Clouds 6 1032 87 10000 2.1 250 12:55 23.01.2020
3953 Clouds 5 1033 93 10000 2.6 240 12:36 23.01.2020
3954 Clouds 5 1033 93 10000 2.6 240 12:18 23.01.2020
3955 Clouds 5 1033 93 10000 2.6 240 11:43 23.01.2020
3956 Clouds 4 1033 93 10000 2.6 230 11:24 23.01.2020
3957 Clouds 4 1033 93 10000 2.6 230 10:58 23.01.2020
3958 Clouds 4 1033 93 10000 2.6 260 10:40 23.01.2020
3959 Clouds 4 1033 93 10000 2.6 260 10:18 23.01.2020
3960 Clouds 4 1033 93 10000 2.6 260 09:41 23.01.2020
3961 Clouds 4 1033 93 10000 2.1 250 09:22 23.01.2020
3962 Clouds 4 1033 93 10000 2.1 250 08:56 23.01.2020
3963 Clouds 4 1033 93 10000 2.6 250 08:38 23.01.2020
3964 Clouds 4 1033 93 10000 2.6 250 08:19 23.01.2020
3965 Clouds 4 1033 93 10000 1.5 240 07:39 23.01.2020
3966 Clouds 4 1033 93 10000 1.5 240 07:18 23.01.2020
3967 Clouds 4 1033 93 10000 1.5 240 06:44 23.01.2020
3968 Clouds 4 1034 93 10000 2.1 230 06:18 23.01.2020
3969 Fog 3 1034 93 900 2.6 220 04:25 23.01.2020
3970 Fog 3 1035 93 800 2.6 230 03:36 23.01.2020
3971 Fog 2 1035 100 400 2.1 230 01:55 23.01.2020
3972 Fog 2 1035 100 500 1.5 230 00:46 23.01.2020
3973 Fog 3 1035 100 50 1.5 280 00:24 23.01.2020
3974 Fog 3 1035 100 50 1.5 280 23:46 22.01.2020
3975 Fog 4 1035 93 10000 1 340 23:28 22.01.2020
3976 Fog 4 1035 93 10000 1 340 22:55 22.01.2020
3977 Fog 4 1035 93 10000 2.6 330 22:36 22.01.2020
3978 Fog 4 1035 93 10000 2.6 330 22:18 22.01.2020
3979 Fog 4 1035 93 10000 2.6 300 21:38 22.01.2020
3980 Fog 4 1035 93 10000 2.6 300 21:20 22.01.2020
3981 Fog 4 1035 93 10000 2.6 300 20:55 22.01.2020
3982 Clouds 4 1035 93 10000 1 280 20:36 22.01.2020
3983 Clouds 4 1035 93 10000 1 280 20:18 22.01.2020
3984 Clouds 4 1035 93 10000 1 280 19:55 22.01.2020
3985 Clouds 5 1034 93 10000 2.1 300 19:36 22.01.2020
3986 Clouds 5 1034 93 10000 2.1 300 19:36 22.01.2020
3987 Clouds 5 1034 93 10000 2.1 300 19:18 22.01.2020
3988 Clouds 5 1034 93 10000 2.1 300 18:54 22.01.2020
3989 Clouds 5 1034 93 10000 3.6 310 18:36 22.01.2020
3990 Clouds 5 1034 93 10000 3.6 310 18:18 22.01.2020
3991 Clouds 6 1033 87 10000 5.1 320 17:39 22.01.2020
3992 Clouds 6 1033 87 10000 5.1 320 17:20 22.01.2020
3993 Clouds 6 1033 87 10000 5.1 320 16:57 22.01.2020
3994 Clouds 7 1033 81 10000 5.1 320 16:39 22.01.2020
3995 Clouds 7 1033 81 10000 5.1 320 16:20 22.01.2020
3996 Clouds 7 1033 81 10000 5.1 320 15:55 22.01.2020
3997 Clouds 7 1033 87 10000 5.1 310 15:37 22.01.2020
3998 Clouds 7 1033 87 10000 5.1 310 15:18 22.01.2020
3999 Clouds 7 1033 87 10000 4.6 320 14:39 22.01.2020
4000 Clouds 7 1033 87 10000 4.6 320 14:20 22.01.2020
4001 Clouds 7 1033 87 10000 4.6 320 13:58 22.01.2020
4002 Clouds 7 1034 87 10000 5.7 310 13:37 22.01.2020
4003 Clouds 7 1034 87 10000 5.7 310 13:19 22.01.2020
4004 Clouds 7 1034 87 10000 5.7 310 12:57 22.01.2020
4005 Clouds 7 1033 87 10000 4.6 310 12:39 22.01.2020
4006 Clouds 7 1033 87 10000 4.6 310 12:19 22.01.2020
4007 Clouds 7 1033 87 10000 4.6 310 11:57 22.01.2020
4008 Clouds 6 1033 93 10000 5.1 310 11:39 22.01.2020
4009 Clouds 6 1033 93 10000 5.1 310 11:19 22.01.2020
4010 Clouds 6 1033 93 10000 5.1 310 10:46 22.01.2020
4011 Clouds 6 1033 93 10000 3.6 310 10:21 22.01.2020
4012 Clouds 6 1033 93 10000 3.6 310 09:59 22.01.2020
4013 Clouds 6 1033 93 10000 3.6 310 09:40 22.01.2020
4014 Drizzle 6 1033 93 10000 5.7 310 09:22 22.01.2020
4015 Drizzle 6 1033 93 3000 6.2 320 08:56 22.01.2020
4016 Clouds 6 1032 93 8000 6.2 310 08:37 22.01.2020
4017 Clouds 6 1032 93 8000 6.2 310 08:19 22.01.2020
4018 Drizzle 6 1032 93 2200 6.7 310 07:44 22.01.2020
4019 Drizzle 6 1032 93 3000 6.2 310 07:26 22.01.2020
4020 Drizzle 5 1032 93 1600 5.7 260 06:37 22.01.2020
4021 Drizzle 5 1032 93 1600 5.7 260 06:18 22.01.2020
4022 Drizzle 5 1033 93 2500 7.2 270 04:27 22.01.2020
4023 Drizzle 5 1033 93 2500 6.7 260 03:27 22.01.2020
4024 Clouds 5 1033 86 8000 7.2 260 02:48 22.01.2020
4025 Clouds 6 1035 86 10000 4.6 250 01:30 22.01.2020
4026 Clouds 5 1035 86 10000 4.6 250 00:40 22.01.2020
4027 Clouds 5 1035 86 10000 5.7 260 00:19 22.01.2020
4028 Clouds 6 1035 86 10000 6.2 260 23:37 21.01.2020
4029 Clouds 6 1035 86 10000 6.2 260 23:19 21.01.2020
4030 Clouds 6 1036 86 10000 5.7 260 22:42 21.01.2020
4031 Clouds 6 1036 86 10000 5.7 260 22:23 21.01.2020
4032 Clouds 6 1036 86 10000 5.7 260 21:58 21.01.2020
4033 Clouds 6 1036 81 10000 5.7 280 21:39 21.01.2020
4034 Clouds 6 1036 81 10000 5.7 280 21:21 21.01.2020
4035 Clouds 6 1036 81 10000 5.7 280 20:57 21.01.2020
4036 Clouds 5 1036 86 10000 6.2 290 20:39 21.01.2020
4037 Clouds 5 1036 86 10000 6.2 290 20:20 21.01.2020
4038 Clouds 5 1036 86 10000 6.2 290 19:58 21.01.2020
4039 Mist 5 1036 86 5000 5.7 260 19:39 21.01.2020
4040 Mist 5 1036 86 5000 5.7 260 19:39 21.01.2020
4041 Mist 5 1036 86 5000 5.7 260 19:21 21.01.2020
4042 Mist 5 1036 86 5000 5.7 260 18:57 21.01.2020
4043 Mist 4 1037 93 4000 4.6 260 18:38 21.01.2020
4044 Mist 4 1037 93 4000 4.6 260 18:20 21.01.2020
4045 Mist 4 1037 93 4000 4.6 260 17:56 21.01.2020
4046 Mist 4 1037 93 2000 5.1 240 17:37 21.01.2020
4047 Mist 4 1037 93 2000 5.1 240 17:18 21.01.2020
4048 Mist 4 1037 93 2500 4.6 240 16:37 21.01.2020
4049 Mist 4 1037 93 2500 4.6 240 16:19 21.01.2020
4050 Mist 4 1037 93 2500 5.1 240 15:58 21.01.2020
4051 Mist 5 1038 86 2800 4.6 240 15:38 21.01.2020
4052 Mist 5 1038 86 2800 4.6 240 15:19 21.01.2020
4053 Mist 5 1038 86 4000 6.7 260 14:39 21.01.2020
4054 Mist 5 1038 86 4000 6.7 260 14:39 21.01.2020
4055 Mist 5 1038 86 4000 6.7 260 14:21 21.01.2020
4056 Mist 4 1038 93 5000 5.1 250 13:43 21.01.2020
4057 Mist 4 1039 86 5000 5.7 260 13:20 21.01.2020
4058 Mist 4 1039 86 5000 5.7 260 12:59 21.01.2020
4059 Mist 4 1039 86 5000 5.7 260 12:41 21.01.2020
4060 Clouds 4 1040 86 6000 7.2 260 12:23 21.01.2020
4061 Clouds 4 1040 86 6000 7.2 260 11:56 21.01.2020
4062 Mist 3 1040 93 5000 6.7 260 11:37 21.01.2020
4063 Mist 3 1040 93 5000 6.7 260 11:18 21.01.2020
4064 Mist 4 1039 93 3000 6.7 250 10:42 21.01.2020
4065 Mist 4 1039 93 3000 6.7 250 10:22 21.01.2020
4066 Mist 4 1039 93 3000 6.7 250 10:22 21.01.2020
4067 Mist 3 1039 100 2000 5.7 250 09:55 21.01.2020
4068 Mist 4 1039 93 1500 5.7 250 09:37 21.01.2020
4069 Mist 4 1039 93 1500 5.7 250 09:18 21.01.2020
4070 Mist 4 1039 93 1500 5.7 250 08:41 21.01.2020
4071 Mist 3 1039 100 1500 5.1 250 08:21 21.01.2020
4072 Mist 3 1039 100 2500 4.6 250 07:43 21.01.2020
4073 Mist 3 1040 93 3500 4.6 250 07:23 21.01.2020
4074 Mist 3 1040 93 3500 4.6 250 06:57 21.01.2020
4075 Mist 3 1039 93 3500 4.6 250 06:38 21.01.2020
4076 Mist 2 1039 100 4500 4.6 250 05:53 21.01.2020
4077 Mist 2 1040 93 5000 4.1 230 04:41 21.01.2020
4078 Clouds 3 1040 93 7000 4.1 250 04:19 21.01.2020
4079 Clouds 4 1041 93 6000 4.1 240 02:27 21.01.2020
4080 Clouds 4 1042 93 6000 4.1 250 01:36 21.01.2020
4081 Clouds 4 1042 93 6000 4.1 250 00:41 21.01.2020
4082 Clouds 4 1042 93 6000 4.1 240 00:22 21.01.2020
4083 Clouds 4 1042 93 6000 4.1 240 23:41 20.01.2020
4084 Clouds 5 1042 93 6000 3.6 240 23:19 20.01.2020
4085 Clouds 5 1042 93 6000 3.6 240 23:00 20.01.2020
4086 Mist 5 1043 93 5000 4.6 250 22:39 20.01.2020
4087 Mist 5 1043 93 5000 4.6 250 22:21 20.01.2020
4088 Mist 5 1043 93 5000 4.6 250 21:58 20.01.2020
4089 Mist 5 1043 93 5000 4.6 250 21:58 20.01.2020
4090 Clouds 4 1043 93 6000 4.6 230 21:38 20.01.2020
4091 Clouds 4 1043 93 6000 4.6 230 21:20 20.01.2020
4092 Clouds 4 1043 93 6000 4.6 230 20:58 20.01.2020
4093 Clouds 4 1043 93 10000 4.1 230 20:39 20.01.2020
4094 Clouds 4 1043 93 10000 4.1 230 20:20 20.01.2020
4095 Clouds 4 1043 93 10000 4.1 230 19:58 20.01.2020
4096 Clouds 4 1043 93 10000 4.1 230 19:40 20.01.2020
4097 Clouds 4 1043 93 10000 3.1 220 19:19 20.01.2020
4098 Clouds 4 1043 93 10000 3.1 220 18:54 20.01.2020
4099 Clouds 5 1043 86 10000 3.6 240 18:36 20.01.2020
4100 Clouds 5 1043 86 10000 3.6 240 18:18 20.01.2020
4101 Clouds 5 1044 86 10000 3.6 230 17:38 20.01.2020
4102 Clouds 5 1044 86 10000 3.6 230 17:19 20.01.2020
4103 Clouds 5 1044 86 10000 3.6 230 16:46 20.01.2020
4104 Clouds 6 1044 87 10000 3.6 230 16:26 20.01.2020
4105 Clouds 6 1044 87 10000 3.6 230 15:59 20.01.2020
4106 Clouds 6 1044 87 10000 4.1 240 15:40 20.01.2020
4107 Clouds 6 1044 87 10000 4.1 240 15:22 20.01.2020
4108 Clouds 6 1044 87 10000 4.1 240 14:56 20.01.2020
4109 Clouds 5 1045 93 10000 4.6 230 14:37 20.01.2020
4110 Clouds 5 1045 93 10000 4.6 230 14:19 20.01.2020
4111 Clouds 5 1045 93 10000 3.6 240 13:42 20.01.2020
4112 Clouds 5 1045 93 10000 3.6 240 13:24 20.01.2020
4113 Clouds 5 1045 93 10000 3.6 240 12:58 20.01.2020
4114 Clouds 5 1045 93 10000 4.1 230 12:40 20.01.2020
4115 Clouds 5 1045 93 10000 4.1 230 12:21 20.01.2020
4116 Clouds 5 1045 93 10000 4.1 230 11:54 20.01.2020
4117 Clouds 5 1045 93 10000 4.1 260 11:36 20.01.2020
4118 Clouds 5 1045 93 10000 4.1 260 11:18 20.01.2020
4119 Clouds 5 1045 93 10000 4.1 260 10:41 20.01.2020
4120 Clouds 5 1045 86 10000 3.6 260 10:20 20.01.2020
4121 Clouds 5 1045 86 10000 3.6 260 09:41 20.01.2020
4122 Clouds 5 1045 86 10000 3.1 250 09:23 20.01.2020
4123 Clouds 5 1045 86 10000 3.1 250 08:55 20.01.2020
4124 Clouds 5 1045 93 10000 2.1 270 08:31 20.01.2020
4125 Clouds 5 1045 93 10000 2.1 270 07:55 20.01.2020
4126 Clouds 4 1044 93 9000 1.5 240 07:37 20.01.2020
4127 Clouds 4 1044 93 9000 1.5 240 07:19 20.01.2020
4128 Clouds 4 1044 93 9000 1.5 240 06:40 20.01.2020
4129 Fog 4 1044 93 6000 2.1 250 06:20 20.01.2020
4130 Fog 4 1044 100 6000 2.6 260 05:38 20.01.2020
4131 Fog 4 1044 100 6000 2.6 260 05:19 20.01.2020
4132 Fog 4 1044 93 6000 2.6 260 03:55 20.01.2020
4133 Fog 5 1044 93 10000 2.6 280 01:58 20.01.2020
4134 Clouds 4 1044 100 10000 2.1 310 01:39 20.01.2020
4135 Clouds 4 1044 100 10000 2.1 310 00:56 20.01.2020
4136 Clouds 4 1044 100 10000 1.5 310 00:38 20.01.2020
4137 Clouds 4 1044 100 10000 1.5 310 00:20 20.01.2020
4138 Clouds 6 1043 93 10000 2.1 290 23:38 19.01.2020
4139 Clouds 6 1043 93 10000 2.1 290 23:18 19.01.2020
4140 Clouds 6 1043 93 10000 2.1 290 22:55 19.01.2020
4141 Clouds 6 1042 86 10000 2.1 340 22:37 19.01.2020
4142 Clouds 6 1042 86 10000 2.1 340 22:19 19.01.2020
4143 Clouds 6 1042 86 10000 2.1 340 21:56 19.01.2020
4144 Clouds 6 1041 86 10000 3.6 350 21:37 19.01.2020
4145 Clouds 6 1041 86 10000 3.6 350 21:19 19.01.2020
4146 Clouds 6 1041 86 10000 3.6 350 20:56 19.01.2020
4147 Clouds 6 1041 86 10000 3.1 350 20:38 19.01.2020
4148 Clouds 6 1041 86 10000 3.1 350 20:19 19.01.2020
4149 Clouds 6 1041 86 10000 3.1 350 19:55 19.01.2020
4150 Clouds 6 1040 81 10000 3.6 350 19:37 19.01.2020
4151 Clouds 6 1040 81 10000 3.6 350 19:19 19.01.2020
4152 Clouds 6 1040 81 10000 3.6 350 18:55 19.01.2020
4153 -273 0 0 0 0 0 18:37 19.01.2020
4154 Clouds 6 1039 81 10000 3.6 340 18:19 19.01.2020
4155 Clouds 6 1039 81 10000 3.6 340 18:19 19.01.2020
4156 Clouds 6 1039 81 10000 3.6 340 17:57 19.01.2020
4157 Clouds 6 1038 81 10000 5.1 330 17:38 19.01.2020
4158 Clouds 6 1038 81 10000 5.1 330 17:20 19.01.2020
4159 Clouds 6 1038 81 10000 5.1 330 16:57 19.01.2020
4160 Clouds 7 1037 75 10000 5.1 330 16:37 19.01.2020
4161 Clouds 7 1037 75 10000 5.1 330 16:19 19.01.2020
4162 Clouds 7 1037 75 10000 5.1 330 15:56 19.01.2020
4163 Clouds 7 1036 70 10000 5.7 330 15:37 19.01.2020
4164 Clouds 7 1036 70 10000 5.7 330 15:19 19.01.2020
4165 Clouds 7 1036 70 10000 5.7 330 14:56 19.01.2020
4166 Clouds 7 1036 65 10000 6.2 340 14:37 19.01.2020
4167 Clouds 7 1036 65 10000 6.2 340 14:18 19.01.2020
4168 Clouds 7 1036 65 10000 6.2 340 13:54 19.01.2020
4169 Clouds 7 1036 65 10000 5.7 340 13:36 19.01.2020
4170 Clouds 7 1036 65 10000 5.7 340 13:18 19.01.2020
4171 Clouds 7 1036 65 10000 5.7 340 12:42 19.01.2020
4172 Clouds 7 1035 70 10000 4.1 340 12:23 19.01.2020
4173 Clouds 7 1035 70 10000 4.1 340 11:58 19.01.2020
4174 Clouds 6 1034 81 10000 5.1 340 11:39 19.01.2020
4175 Clouds 6 1034 81 10000 5.1 340 11:20 19.01.2020
4176 Clouds 6 1034 81 10000 5.1 340 10:55 19.01.2020
4177 Clouds 6 1033 86 10000 3.6 330 10:37 19.01.2020
4178 Clouds 6 1033 86 10000 3.6 330 10:18 19.01.2020
4179 Clouds 5 1032 86 10000 3.6 340 09:44 19.01.2020
4180 Clouds 5 1032 86 10000 3.6 340 09:25 19.01.2020
4181 Clouds 5 1032 86 10000 3.6 340 08:58 19.01.2020
4182 Clouds 5 1030 86 10000 3.1 340 08:39 19.01.2020
4183 Clouds 5 1030 86 10000 3.1 340 08:20 19.01.2020
4184 Clouds 5 1030 86 10000 3.1 340 07:42 19.01.2020
4185 Clouds 5 1030 86 10000 2.6 320 07:21 19.01.2020
4186 Clouds 5 1030 86 10000 2.6 320 06:50 19.01.2020
4187 Clouds 4 1028 93 10000 1.5 260 05:21 19.01.2020
4188 Clouds 4 1026 86 10000 4.1 290 02:43 19.01.2020
4189 Clouds 5 1026 80 10000 3.6 290 02:21 19.01.2020
4190 Clouds 5 1025 86 10000 3.1 260 01:24 19.01.2020
4191 Clouds 4 1025 86 10000 3.1 260 00:45 19.01.2020
4192 Clouds 5 1024 80 10000 3.1 270 00:27 19.01.2020
4193 Clouds 5 1024 80 10000 3.1 270 23:56 18.01.2020
4194 Clouds 5 1024 86 10000 3.1 280 23:38 18.01.2020
4195 Clouds 5 1024 86 10000 3.1 280 23:18 18.01.2020
4196 Clouds 5 1024 86 10000 3.1 280 22:55 18.01.2020
4197 Rain 5 1024 86 10000 1 300 22:36 18.01.2020
4198 Rain 5 1024 86 10000 1 300 22:18 18.01.2020
4199 Rain 5 1024 86 10000 1 300 22:18 18.01.2020
4200 Rain 5 1024 86 10000 1 300 21:56 18.01.2020
4201 Rain 5 1023 86 10000 4.6 270 21:36 18.01.2020
4202 Rain 5 1023 86 10000 4.6 270 21:18 18.01.2020
4203 Rain 5 1024 86 5000 4.1 270 20:42 18.01.2020
4204 Rain 5 1023 86 10000 5.1 280 20:20 18.01.2020
4205 Rain 5 1023 86 10000 5.1 280 19:55 18.01.2020
4206 Clouds 5 1022 86 10000 3.6 250 19:37 18.01.2020
4207 Clouds 5 1022 86 10000 3.6 250 19:37 18.01.2020
4208 Clouds 5 1022 86 10000 3.6 250 19:19 18.01.2020
4209 Clouds 4 1022 86 10000 3.6 250 18:42 18.01.2020
4210 Clouds 4 1021 86 10000 3.6 250 18:21 18.01.2020
4211 Clouds 4 1021 86 10000 3.6 250 17:55 18.01.2020
4212 Clouds 4 1021 86 10000 3.6 250 17:37 18.01.2020
4213 Clouds 4 1021 86 10000 3.6 250 17:18 18.01.2020
4214 Rain 4 1021 86 10000 4.1 270 16:41 18.01.2020
4215 Rain 5 1020 80 10000 7.2 270 16:23 18.01.2020
4216 Rain 5 1020 80 10000 7.2 270 15:59 18.01.2020
4217 Rain 5 1020 80 10000 7.2 270 15:41 18.01.2020
4218 Clouds 5 1020 86 10000 5.7 250 15:22 18.01.2020
4219 Clouds 5 1020 86 10000 5.7 250 14:54 18.01.2020
4220 Clouds 4 1019 93 10000 6.7 250 14:36 18.01.2020
4221 Clouds 4 1019 93 10000 6.7 250 14:18 18.01.2020
4222 Clouds 4 1019 93 10000 6.7 250 13:43 18.01.2020
4223 Rain 4 1019 93 10000 5.7 240 13:24 18.01.2020
4224 Rain 4 1019 93 10000 5.7 240 12:56 18.01.2020
4225 Rain 4 1019 86 9000 6.2 250 12:38 18.01.2020
4226 Rain 4 1019 86 9000 6.2 250 12:19 18.01.2020
4227 Rain 4 1019 86 9000 6.2 250 11:44 18.01.2020
4228 Clouds 4 1018 86 9000 6.2 240 11:21 18.01.2020
4229 Clouds 4 1018 86 9000 6.2 240 10:56 18.01.2020
4230 Clouds 4 1017 86 10000 7.2 240 10:38 18.01.2020
4231 Clouds 4 1017 86 10000 7.2 240 10:18 18.01.2020
4232 Clouds 4 1017 86 10000 7.2 240 10:18 18.01.2020
4233 Clouds 4 1017 86 10000 7.2 240 09:42 18.01.2020
4234 Clouds 3 1017 93 10000 7.2 220 09:20 18.01.2020
4235 Clouds 3 1017 93 10000 7.2 220 08:55 18.01.2020
4236 Clouds 4 1017 80 10000 6.7 220 08:37 18.01.2020
4237 Clouds 4 1017 80 10000 6.7 220 08:18 18.01.2020
4238 Clouds 4 1017 80 10000 6.7 220 07:40 18.01.2020
4239 Clouds 4 1016 86 10000 6.2 230 07:21 18.01.2020
4240 Clouds 4 1016 86 10000 6.2 230 06:46 18.01.2020
4241 Clouds 4 1016 86 10000 5.7 240 05:55 18.01.2020
4242 Clouds 5 1015 86 10000 5.7 240 04:35 18.01.2020
4243 Clouds 5 1014 86 10000 9.3 260 02:50 18.01.2020
4244 Clouds 6 1013 81 10000 7.2 250 01:51 18.01.2020
4245 Clouds 6 1013 81 10000 6.2 240 01:20 18.01.2020
4246 Clouds 7 1012 81 10000 6.2 240 00:36 18.01.2020
4247 Clouds 7 1012 81 10000 6.2 240 00:18 18.01.2020
4248 Clouds 7 1012 93 10000 5.7 230 23:40 17.01.2020
4249 Clouds 7 1012 93 10000 5.7 230 23:19 17.01.2020
4250 Clouds 7 1012 93 10000 5.7 230 22:44 17.01.2020
4251 Clouds 8 1012 93 9000 4.6 230 22:21 17.01.2020
4252 Clouds 8 1012 93 9000 4.6 230 21:58 17.01.2020
4253 Clouds 8 1012 93 9000 4.6 230 21:58 17.01.2020
4254 Clouds 8 1012 93 9000 4.6 230 21:40 17.01.2020
4255 Drizzle 8 1012 93 6000 5.1 230 21:22 17.01.2020
4256 Drizzle 8 1012 93 6000 5.1 230 20:55 17.01.2020
4257 Drizzle 8 1011 93 5000 4.6 220 20:37 17.01.2020
4258 Drizzle 8 1011 93 5000 4.6 220 20:19 17.01.2020
4259 Drizzle 8 1011 93 5000 4.6 220 19:55 17.01.2020
4260 Drizzle 8 1011 87 7000 4.6 220 19:37 17.01.2020
4261 Drizzle 8 1011 87 7000 4.6 220 19:18 17.01.2020
4262 Drizzle 8 1011 87 7000 4.6 220 19:18 17.01.2020
4263 Rain 8 1012 87 10000 3.1 200 18:45 17.01.2020
4264 Rain 8 1011 87 10000 4.1 220 18:27 17.01.2020
4265 Rain 8 1011 87 10000 4.1 220 17:56 17.01.2020
4266 Clouds 9 1011 76 10000 4.1 220 17:38 17.01.2020
4267 Clouds 9 1011 76 10000 4.1 220 17:20 17.01.2020
4268 Clouds 9 1011 76 10000 4.1 220 16:42 17.01.2020
4269 Clouds 9 1011 76 10000 4.1 210 16:20 17.01.2020
4270 Clouds 9 1011 76 10000 4.1 210 15:48 17.01.2020
4271 Clouds 10 1011 71 10000 3.6 210 15:28 17.01.2020
4272 Clouds 10 1011 71 10000 4.1 210 14:57 17.01.2020
4273 Clouds 10 1012 66 10000 5.1 210 14:38 17.01.2020
4274 Clouds 10 1012 66 10000 5.1 210 14:20 17.01.2020
4275 Clouds 10 1012 66 10000 5.1 210 13:41 17.01.2020
4276 Clouds 9 1012 70 10000 5.1 200 13:22 17.01.2020
4277 Clouds 9 1012 70 10000 5.1 200 13:22 17.01.2020
4278 Clouds 9 1012 70 10000 5.1 200 12:46 17.01.2020
4279 Clouds 9 1013 70 10000 6.2 190 12:23 17.01.2020
4280 Clouds 9 1013 70 10000 6.2 190 11:41 17.01.2020
4281 Clouds 8 1014 70 10000 5.7 180 11:20 17.01.2020
4282 Clouds 8 1014 70 10000 5.7 180 10:56 17.01.2020
4283 Clouds 8 1014 75 10000 5.1 190 10:37 17.01.2020
4284 Clouds 8 1014 75 10000 5.1 190 10:19 17.01.2020
4285 Clouds 7 1014 75 10000 5.1 190 09:43 17.01.2020
4286 Clouds 7 1014 75 10000 5.7 170 09:21 17.01.2020
4287 Clouds 7 1014 75 10000 5.7 170 08:58 17.01.2020
4288 Clouds 7 1014 75 10000 5.7 170 08:40 17.01.2020
4289 Clouds 7 1015 75 10000 5.7 170 08:21 17.01.2020
4290 Clouds 7 1015 75 10000 5.7 170 07:46 17.01.2020
4291 Clouds 7 1015 81 10000 5.7 180 07:28 17.01.2020
4292 Clouds 7 1015 81 10000 5.7 180 06:55 17.01.2020
4293 Clouds 8 1016 75 10000 5.7 180 06:35 17.01.2020
4294 Clouds 7 1013 74 0 9.81 180 04:32 17.01.2020
4295 Clouds 8 1013 74 0 9.81 180 03:38 17.01.2020
4296 Clouds 7 1014 74 0 9.81 180 02:39 17.01.2020
4297 Clouds 7 1014 82 0 10.25 175 01:44 17.01.2020
4298 Clouds 7 1014 82 0 10.45 176 01:25 17.01.2020
4299 Clouds 7 1015 82 0 10.45 176 00:40 17.01.2020
4300 Clouds 7 1015 82 0 10.45 176 00:19 17.01.2020
4301 Clouds 7 1020 81 10000 5.1 170 23:41 16.01.2020
4302 Clouds 7 1020 81 10000 5.1 170 23:22 16.01.2020
4303 Clouds 7 1020 81 10000 5.1 170 22:42 16.01.2020
4304 Clouds 7 1021 81 10000 5.7 170 22:22 16.01.2020
4305 Clouds 7 1021 81 10000 5.7 170 21:57 16.01.2020
4306 Clouds 7 1021 75 10000 5.1 170 21:38 16.01.2020
4307 Clouds 7 1021 75 10000 5.1 170 21:19 16.01.2020
4308 Clouds 6 1022 81 10000 5.1 160 20:58 16.01.2020
4309 Clouds 6 1022 81 10000 3.6 150 20:39 16.01.2020
4310 Clouds 6 1022 81 10000 3.6 150 20:19 16.01.2020
4311 Clouds 6 1022 81 10000 3.6 150 19:56 16.01.2020
4312 Clouds 6 1023 86 10000 2.6 140 19:37 16.01.2020
4313 Clouds 6 1023 86 10000 2.6 140 19:19 16.01.2020
4314 Clouds 6 1023 86 10000 2.6 140 18:55 16.01.2020
4315 Clouds 6 1023 87 10000 3.1 150 18:37 16.01.2020
4316 Clouds 6 1023 87 10000 3.1 150 18:18 16.01.2020
4317 Clouds 6 1023 87 10000 3.1 150 18:18 16.01.2020
4318 Clouds 6 1023 87 10000 3.1 150 17:42 16.01.2020
4319 Clouds 7 1024 81 10000 3.1 150 17:23 16.01.2020
4320 Clouds 7 1024 81 10000 3.1 150 16:57 16.01.2020
4321 Clouds 8 1024 75 10000 2.6 170 16:39 16.01.2020
4322 Clouds 8 1024 75 10000 2.6 170 16:19 16.01.2020
4323 Clouds 8 1024 75 10000 2.6 170 15:44 16.01.2020
4324 Clouds 8 1024 75 10000 3.6 200 15:23 16.01.2020
4325 Clouds 8 1024 75 10000 3.6 200 14:57 16.01.2020
4326 Clouds 8 1024 75 10000 3.6 200 14:57 16.01.2020
4327 Clouds 8 1024 81 10000 3.1 200 14:39 16.01.2020
4328 Clouds 8 1024 81 10000 3.1 200 14:20 16.01.2020
4329 Clouds 8 1024 81 10000 3.1 200 13:45 16.01.2020
4330 Clouds 8 1025 75 10000 4.1 220 13:26 16.01.2020
4331 Clouds 8 1025 75 10000 4.1 220 12:47 16.01.2020
4332 Clouds 6 1025 87 10000 5.1 220 12:29 16.01.2020
4333 Clouds 6 1025 87 10000 5.1 220 11:59 16.01.2020
4334 Clouds 6 1025 87 10000 5.1 220 11:41 16.01.2020
4335 Clouds 6 1025 87 10000 5.1 220 11:41 16.01.2020
4336 Clouds 5 1025 86 8000 5.7 220 11:23 16.01.2020
4337 Clouds 5 1025 86 8000 5.7 220 10:55 16.01.2020
4338 Mist 4 1024 93 5000 5.1 220 10:36 16.01.2020
4339 Mist 4 1024 93 5000 5.1 220 10:18 16.01.2020
4340 Mist 4 1024 93 5000 5.1 220 09:42 16.01.2020
4341 Mist 4 1023 93 4000 5.7 220 09:24 16.01.2020
4342 Mist 4 1023 93 4000 5.7 220 08:58 16.01.2020
4343 Clouds 4 1023 93 7000 5.7 230 08:39 16.01.2020
4344 Clouds 4 1023 93 7000 5.7 230 08:18 16.01.2020
4345 Clouds 4 1023 93 7000 5.7 230 07:42 16.01.2020
4346 Clouds 5 1022 86 8000 5.7 220 07:23 16.01.2020
4347 Clouds 5 1022 86 8000 5.7 220 06:50 16.01.2020
4348 Clouds 5 1021 93 7000 5.7 230 06:32 16.01.2020
4349 Clouds 5 1021 93 7000 5.7 230 05:49 16.01.2020
4350 Clouds 5 1021 93 8000 6.2 230 04:46 16.01.2020
4351 Clouds 5 1021 93 8000 6.2 230 04:46 16.01.2020
4352 Clouds 6 1020 93 9000 6.2 230 03:56 16.01.2020
4353 Clouds 6 1019 93 10000 5.1 230 02:46 16.01.2020
4354 Clouds 6 1017 87 10000 5.7 240 01:32 16.01.2020
4355 Clouds 6 1017 87 10000 5.7 240 00:43 16.01.2020
4356 Clouds 6 1017 87 10000 5.1 250 00:23 16.01.2020
4357 Clouds 5 1016 93 10000 5.1 240 23:44 15.01.2020
4358 Clouds 5 1016 93 10000 5.1 240 23:44 15.01.2020
4359 Clouds 6 1015 87 10000 4.6 240 23:22 15.01.2020
4360 Clouds 6 1015 87 10000 4.6 240 22:56 15.01.2020
4361 Clouds 6 1014 87 10000 4.6 250 22:38 15.01.2020
4362 Clouds 6 1014 87 10000 4.6 250 22:18 15.01.2020
4363 Clouds 6 1014 87 10000 4.6 250 21:56 15.01.2020
4364 Clouds 7 1013 87 10000 5.7 260 21:37 15.01.2020
4365 Clouds 7 1013 87 10000 5.7 260 21:18 15.01.2020
4366 Clouds 7 1013 87 10000 5.7 260 20:55 15.01.2020
4367 Rain 7 1011 87 10000 6.2 280 20:37 15.01.2020
4368 Rain 7 1011 87 10000 6.2 280 20:18 15.01.2020
4369 Rain 7 1011 87 10000 6.2 280 19:54 15.01.2020
4370 Rain 7 1010 87 10000 6.2 270 19:36 15.01.2020
4371 Rain 7 1010 87 10000 6.2 270 19:18 15.01.2020
4372 Rain 7 1009 81 10000 8.7 260 18:55 15.01.2020
4373 Rain 7 1009 81 10000 8.7 260 18:55 15.01.2020
4374 Rain 7 1009 81 10000 8.7 260 18:55 15.01.2020
4375 Rain 9 1008 81 10000 7.2 240 18:37 15.01.2020
4376 Rain 9 1008 81 10000 7.2 240 18:37 15.01.2020
4377 Rain 9 1008 81 10000 7.2 240 18:19 15.01.2020
4378 Rain 9 1008 81 10000 7.2 240 18:19 15.01.2020
4379 Clouds 11 1007 62 10000 8.2 230 17:41 15.01.2020
4380 Clouds 11 1007 62 10000 8.2 230 17:23 15.01.2020
4381 Clouds 11 1007 62 10000 8.2 230 16:59 15.01.2020
4382 Rain 11 1006 62 10000 9.3 230 16:39 15.01.2020
4383 Rain 11 1006 62 10000 9.3 230 16:39 15.01.2020
4384 Rain 11 1006 62 10000 9.3 230 16:21 15.01.2020
4385 Rain 12 1006 62 10000 9.3 230 15:44 15.01.2020
4386 Clouds 12 1005 62 10000 6.7 210 15:21 15.01.2020
4387 Clouds 12 1005 62 10000 6.7 210 15:21 15.01.2020
4388 Clouds 12 1005 62 10000 6.7 210 14:59 15.01.2020
4389 Clouds 12 1005 62 10000 6.7 210 14:41 15.01.2020
4390 Clouds 12 1006 62 10000 7.7 220 14:18 15.01.2020
4391 Clouds 11 1006 62 10000 7.7 220 13:46 15.01.2020
4392 Clouds 12 1006 62 10000 8.7 220 13:26 15.01.2020
4393 Clouds 12 1006 62 10000 8.7 220 12:59 15.01.2020
4394 Clouds 12 1006 66 10000 8.2 220 12:39 15.01.2020
4395 Clouds 12 1006 66 10000 8.2 220 12:19 15.01.2020
4396 Clouds 12 1006 66 10000 8.2 220 11:56 15.01.2020
4397 Clouds 12 1005 62 10000 9.3 220 11:37 15.01.2020
4398 Clouds 12 1005 62 10000 9.3 220 11:19 15.01.2020
4399 Clouds 12 1005 62 10000 9.3 220 11:19 15.01.2020
4400 Clouds 11 1005 62 10000 9.3 220 10:43 15.01.2020
4401 Clouds 12 1005 66 10000 9.3 210 10:25 15.01.2020
4402 Clouds 12 1004 66 10000 9.8 220 09:44 15.01.2020
4403 Clouds 12 1004 66 10000 9.8 220 09:23 15.01.2020
4404 Clouds 12 1004 66 10000 9.8 220 08:56 15.01.2020
4405 Clouds 12 1003 71 10000 8.7 220 08:38 15.01.2020
4406 Clouds 12 1003 71 10000 8.7 220 08:19 15.01.2020
4407 Clouds 12 1003 71 10000 8.7 220 07:51 15.01.2020
4408 Rain 12 1003 71 10000 9.8 220 07:31 15.01.2020
4409 Rain 12 1003 71 10000 9.8 220 06:45 15.01.2020
4410 Clouds 11 1003 81 10000 9.3 220 06:19 15.01.2020
4411 Clouds 11 1003 81 10000 9.8 220 04:42 15.01.2020
4412 Clouds 12 1002 71 10000 10.3 220 02:38 15.01.2020
4413 Clouds 12 1002 71 10000 8.7 220 01:28 15.01.2020
4414 Clouds 12 1002 71 10000 8.7 220 00:45 15.01.2020
4415 Clouds 11 1001 76 10000 9.3 220 00:27 15.01.2020
4416 Clouds 11 1001 76 10000 9.3 220 23:56 14.01.2020
4417 Clouds 11 1001 76 10000 8.2 210 23:38 14.01.2020
4418 Clouds 11 1001 76 10000 8.2 210 23:19 14.01.2020
4419 Clouds 11 1001 76 10000 8.2 210 22:41 14.01.2020
4420 Clouds 11 1001 76 10000 9.3 210 22:19 14.01.2020
4421 Clouds 11 1001 76 10000 9.3 210 21:58 14.01.2020
4422 Clouds 11 1001 76 10000 9.3 210 21:58 14.01.2020
4423 Clouds 11 1000 76 10000 10.8 210 21:40 14.01.2020
4424 Clouds 11 1000 76 10000 10.8 210 21:21 14.01.2020
4425 Clouds 10 1000 81 10000 10.3 210 20:59 14.01.2020
4426 Clouds 10 1001 81 10000 8.7 210 20:40 14.01.2020
4427 Clouds 10 1001 81 10000 8.7 210 20:20 14.01.2020
4428 Clouds 10 1001 81 10000 8.7 210 19:56 14.01.2020
4429 Clouds 9 1001 87 10000 8.2 200 19:38 14.01.2020
4430 Clouds 9 1001 87 10000 8.2 200 19:18 14.01.2020
4431 Clouds 9 1001 87 10000 8.2 200 18:56 14.01.2020
4432 Rain 9 1002 87 8000 6.7 210 18:37 14.01.2020
4433 Rain 9 1002 87 8000 6.7 210 18:18 14.01.2020
4434 Rain 9 1002 87 10000 4.6 200 17:38 14.01.2020
4435 Rain 9 1002 87 10000 4.6 200 17:19 14.01.2020
4436 Rain 9 1002 87 10000 4.6 200 16:55 14.01.2020
4437 Clouds 9 1003 87 10000 5.7 210 16:37 14.01.2020
4438 Clouds 9 1003 87 10000 5.7 210 16:19 14.01.2020
4439 Clouds 9 1003 87 10000 5.7 220 15:43 14.01.2020
4440 Clouds 9 1003 87 10000 6.2 220 15:19 14.01.2020
4441 Clouds 9 1003 87 10000 6.2 220 14:57 14.01.2020
4442 Clouds 10 1003 87 10000 7.2 230 14:39 14.01.2020
4443 Clouds 10 1003 87 10000 7.2 230 14:18 14.01.2020
4444 Clouds 10 1003 87 10000 7.2 230 13:42 14.01.2020
4445 Clouds 10 1002 93 10000 6.2 240 13:20 14.01.2020
4446 Clouds 10 1002 93 10000 6.2 240 12:56 14.01.2020
4447 Rain 8 1002 93 9000 4.6 240 12:38 14.01.2020
4448 Rain 8 1002 93 9000 4.6 240 12:20 14.01.2020
4449 Rain 8 1002 93 9000 4.6 240 11:41 14.01.2020
4450 Rain 8 1002 93 6000 5.1 250 11:22 14.01.2020
4451 Drizzle 7 1002 93 6000 5.1 260 10:56 14.01.2020
4452 Drizzle 9 1001 87 3000 8.7 230 10:38 14.01.2020
4453 Drizzle 9 1001 87 3000 8.7 230 10:19 14.01.2020
4454 Drizzle 9 1000 87 6000 8.7 220 09:55 14.01.2020
4455 Drizzle 9 1000 87 9000 7.7 210 09:37 14.01.2020
4456 Drizzle 9 1000 87 9000 7.7 210 09:19 14.01.2020
4457 Drizzle 9 1000 87 9000 7.7 210 08:41 14.01.2020
4458 Drizzle 9 1000 87 9000 7.7 210 08:41 14.01.2020
4459 Drizzle 8 1000 93 9000 8.2 200 08:22 14.01.2020
4460 Drizzle 8 1000 93 9000 8.2 200 07:53 14.01.2020
4461 Drizzle 8 1000 93 9000 7.2 200 07:26 14.01.2020
4462 Drizzle 8 1000 93 9000 7.2 200 06:44 14.01.2020
4463 Drizzle 9 1000 87 10000 7.2 200 06:18 14.01.2020
4464 Drizzle 8 1001 81 10000 8.2 190 04:56 14.01.2020
4465 Clouds 9 1002 75 10000 7.2 190 03:48 14.01.2020
4466 Clouds 8 1003 81 10000 7.2 190 02:41 14.01.2020
4467 Clouds 7 1005 75 10000 6.2 190 01:34 14.01.2020
4468 Clouds 7 1005 81 10000 6.7 190 00:49 14.01.2020
4469 Clouds 7 1006 81 10000 6.7 180 00:27 14.01.2020
4470 Clouds 7 1006 81 10000 6.7 180 23:47 13.01.2020
4471 Clouds 7 1007 81 10000 7.2 180 23:19 13.01.2020
4472 Clouds 7 1008 81 10000 6.2 180 22:59 13.01.2020
4473 Clouds 6 1009 81 10000 6.2 170 22:40 13.01.2020
4474 Clouds 6 1009 81 10000 6.2 170 22:20 13.01.2020
4475 Clouds 6 1009 81 10000 6.2 170 21:56 13.01.2020
4476 Clouds 6 1009 81 10000 5.7 170 21:37 13.01.2020
4477 Clouds 6 1009 81 10000 5.7 170 21:37 13.01.2020
4478 Clouds 6 1009 81 10000 5.7 170 21:18 13.01.2020
4479 Clouds 6 1010 81 10000 6.2 170 20:56 13.01.2020
4480 Clouds 5 1011 86 10000 5.1 170 20:38 13.01.2020
4481 Clouds 5 1011 86 10000 5.1 170 20:20 13.01.2020
4482 Clouds 6 1011 81 10000 4.6 170 19:56 13.01.2020
4483 Clouds 6 1012 81 10000 4.6 180 19:37 13.01.2020
4484 Clouds 6 1012 81 10000 4.6 180 19:18 13.01.2020
4485 Clouds 6 1012 81 10000 3.6 190 18:55 13.01.2020
4486 Clouds 6 1013 81 10000 4.1 200 18:36 13.01.2020
4487 Clouds 6 1013 81 10000 4.1 200 18:18 13.01.2020
4488 Clouds 7 1013 81 10000 3.1 210 17:40 13.01.2020
4489 Clouds 7 1013 81 10000 3.1 210 17:22 13.01.2020
4490 Clouds 7 1013 81 10000 3.1 210 16:56 13.01.2020
4491 Clouds 6 1012 88 0 8.04 186 16:37 13.01.2020
4492 Clouds 6 1012 88 0 8.04 186 16:19 13.01.2020
4493 Clouds 6 1012 88 0 8.04 186 15:43 13.01.2020
4494 Clouds 6 1012 88 0 8.04 186 15:23 13.01.2020
4495 Clouds 6 1012 88 0 8.04 186 14:57 13.01.2020
4496 Clouds 6 1012 88 0 8.04 186 14:38 13.01.2020
4497 Clouds 6 1015 89 0 8.95 215 14:19 13.01.2020
4498 Clouds 6 1015 89 0 8.95 215 13:42 13.01.2020
4499 Clouds 6 1015 89 0 8.86 212 13:24 13.01.2020
4500 Clouds 6 1017 87 10000 4.6 230 12:59 13.01.2020
4501 Clouds 6 1017 87 10000 4.6 230 12:40 13.01.2020
4502 Clouds 6 1017 87 10000 4.6 230 12:22 13.01.2020
4503 Clouds 6 1017 87 10000 4.6 230 11:57 13.01.2020
4504 Clouds 6 1017 93 6000 4.1 220 11:37 13.01.2020
4505 Clouds 6 1017 93 6000 4.1 220 11:19 13.01.2020
4506 Mist 6 1017 93 5000 4.6 220 10:55 13.01.2020
4507 Mist 5 1017 100 5000 3.6 230 10:37 13.01.2020
4508 Mist 5 1017 100 5000 3.6 230 10:19 13.01.2020
4509 Mist 5 1017 100 5000 3.6 230 09:43 13.01.2020
4510 Rain 5 1017 93 4500 4.6 220 09:23 13.01.2020
4511 Clouds 5 1017 93 6000 3.6 220 08:44 13.01.2020
4512 Clouds 5 1017 93 10000 3.6 210 08:24 13.01.2020
4513 Clouds 4 1017 93 10000 3.1 220 07:59 13.01.2020
4514 Clouds 4 1017 93 10000 3.1 220 07:59 13.01.2020
4515 Clouds 4 1017 93 10000 3.1 220 07:41 13.01.2020
4516 Clouds 4 1017 93 10000 3.6 220 07:19 13.01.2020
4517 Clouds 4 1017 93 10000 4.1 220 06:37 13.01.2020
4518 Clouds 4 1017 93 10000 4.1 220 06:37 13.01.2020
4519 Clouds 5 1018 93 10000 5.1 220 05:37 13.01.2020
4520 Clouds 5 1018 93 10000 4.6 230 04:56 13.01.2020
4521 Clouds 6 1018 87 10000 5.1 250 03:38 13.01.2020
4522 Clouds 6 1018 87 10000 5.1 250 02:49 13.01.2020
4523 Clouds 7 1018 87 10000 7.7 260 02:30 13.01.2020
4524 Clouds 7 1018 87 10000 7.7 260 02:30 13.01.2020
4525 Clouds 7 1018 87 10000 7.7 260 02:30 13.01.2020
4526 Clouds 6 1017 93 10000 5.7 270 01:33 13.01.2020
4527 Clouds 6 1017 93 10000 5.7 270 00:44 13.01.2020
4528 Drizzle 6 1016 100 10000 8.2 290 00:26 13.01.2020
4529 Drizzle 6 1016 100 10000 8.2 290 23:57 12.01.2020
4530 Drizzle 7 1015 93 8000 6.7 280 23:39 12.01.2020
4531 Drizzle 7 1015 93 8000 6.7 280 23:21 12.01.2020
4532 Drizzle 7 1015 93 8000 6.7 280 22:56 12.01.2020
4533 Drizzle 7 1014 93 8000 7.7 260 22:37 12.01.2020
4534 Drizzle 7 1014 93 8000 7.7 260 22:18 12.01.2020
4535 Drizzle 7 1014 93 8000 7.7 260 21:42 12.01.2020
4536 Clouds 7 1013 93 10000 7.7 260 21:20 12.01.2020
4537 Drizzle 8 1013 87 6000 7.7 250 20:59 12.01.2020
4538 Clouds 8 1013 87 10000 7.2 250 20:39 12.01.2020
4539 Clouds 8 1013 87 10000 7.2 250 20:21 12.01.2020
4540 Clouds 8 1013 87 10000 7.2 250 19:57 12.01.2020
4541 Clouds 7 1012 93 7000 7.2 240 19:38 12.01.2020
4542 Clouds 7 1012 93 7000 7.2 240 19:19 12.01.2020
4543 Clouds 7 1012 93 7000 7.2 240 19:19 12.01.2020
4544 Clouds 7 1012 93 7000 7.2 240 18:58 12.01.2020
4545 Drizzle 7 1012 93 7000 6.7 230 18:40 12.01.2020
4546 Drizzle 7 1012 93 7000 6.7 230 18:21 12.01.2020
4547 Drizzle 7 1012 93 7000 6.7 230 17:59 12.01.2020
4548 Clouds 6 1012 93 8000 8.2 230 17:41 12.01.2020
4549 Clouds 6 1012 93 8000 8.2 230 17:19 12.01.2020
4550 Clouds 6 1012 93 8000 8.2 230 16:56 12.01.2020
4551 Clouds 6 1012 93 8000 8.2 230 16:56 12.01.2020
4552 Clouds 6 1012 93 8000 8.7 220 16:37 12.01.2020
4553 Clouds 6 1012 93 8000 8.7 220 16:19 12.01.2020
4554 Clouds 6 1012 93 8000 8.7 220 15:43 12.01.2020
4555 Drizzle 6 1012 93 7000 8.2 220 15:25 12.01.2020
4556 Drizzle 5 1012 100 2000 7.2 220 14:57 12.01.2020
4557 Drizzle 5 1013 93 1500 8.7 220 14:38 12.01.2020
4558 Drizzle 5 1013 93 1500 8.7 220 14:20 12.01.2020
4559 Drizzle 5 1013 93 1500 8.7 220 13:55 12.01.2020
4560 Drizzle 5 1014 93 2600 7.2 220 13:36 12.01.2020
4561 Drizzle 5 1014 93 2600 7.2 220 13:18 12.01.2020
4562 Drizzle 5 1014 93 2600 7.2 220 13:18 12.01.2020
4563 Drizzle 5 1014 93 2600 7.2 220 13:18 12.01.2020
4564 Drizzle 5 1014 93 2600 7.2 220 12:43 12.01.2020
4565 Drizzle 5 1015 93 3000 7.2 220 12:21 12.01.2020
4566 Drizzle 5 1015 93 3000 7.2 220 11:59 12.01.2020
4567 Drizzle 5 1015 93 3000 7.7 220 11:39 12.01.2020
4568 Drizzle 5 1015 93 3000 7.7 220 11:21 12.01.2020
4569 Drizzle 5 1015 93 3000 8.2 220 10:42 12.01.2020
4570 Drizzle 6 1015 93 2000 7.7 230 10:23 12.01.2020
4571 Drizzle 5 1015 86 2800 7.7 220 09:59 12.01.2020
4572 Drizzle 5 1015 86 2800 7.7 220 09:41 12.01.2020
4573 Drizzle 5 1015 86 3000 8.7 230 09:21 12.01.2020
4574 Drizzle 6 1015 86 3000 8.7 230 08:47 12.01.2020
4575 Drizzle 6 1015 86 8000 7.2 230 08:21 12.01.2020
4576 Clouds 6 1016 81 10000 7.7 230 07:45 12.01.2020
4577 Clouds 6 1016 81 10000 7.7 240 07:25 12.01.2020
4578 Clouds 6 1016 81 10000 7.7 240 06:50 12.01.2020
4579 Clouds 7 1017 81 10000 8.2 230 06:32 12.01.2020
4580 Clouds 6 1017 81 10000 8.2 230 05:49 12.01.2020
4581 Clouds 6 1017 81 10000 8.2 230 04:53 12.01.2020
4582 Clouds 7 1018 81 10000 8.2 230 03:33 12.01.2020
4583 Clouds 7 1019 81 10000 7.2 230 02:43 12.01.2020
4584 Clouds 7 1019 81 10000 7.2 230 02:22 12.01.2020
4585 Drizzle 7 1019 81 6000 7.2 230 01:30 12.01.2020
4586 Drizzle 6 1019 81 6000 7.2 230 00:45 12.01.2020
4587 Clouds 6 1020 75 10000 7.7 220 00:22 12.01.2020
4588 Clouds 6 1020 75 10000 7.7 220 23:56 11.01.2020
4589 Clouds 6 1021 75 10000 7.2 230 23:37 11.01.2020
4590 Clouds 6 1021 75 10000 7.2 230 23:18 11.01.2020
4591 Clouds 6 1021 75 10000 7.2 230 22:56 11.01.2020
4592 Clouds 6 1021 75 10000 8.2 220 22:37 11.01.2020
4593 Clouds 6 1021 75 10000 8.2 220 22:18 11.01.2020
4594 Clouds 6 1021 75 10000 8.2 220 21:43 11.01.2020
4595 Clouds 6 1021 75 10000 8.7 220 21:19 11.01.2020
4596 Clouds 6 1021 75 10000 8.7 220 20:56 11.01.2020
4597 Clouds 6 1022 75 10000 8.2 220 20:37 11.01.2020
4598 Clouds 6 1022 75 10000 8.2 220 20:19 11.01.2020
4599 Clouds 6 1022 75 10000 8.2 220 19:55 11.01.2020
4600 Clouds 6 1022 75 10000 8.7 220 19:37 11.01.2020
4601 Clouds 6 1022 75 10000 8.7 220 19:19 11.01.2020
4602 Clouds 6 1022 75 10000 8.7 220 19:19 11.01.2020
4603 Clouds 6 1022 75 10000 8.7 220 18:55 11.01.2020
4604 Clouds 6 1023 75 10000 7.7 220 18:36 11.01.2020
4605 Clouds 6 1023 75 10000 7.7 220 18:18 11.01.2020
4606 Clouds 6 1023 75 10000 7.7 220 17:56 11.01.2020
4607 Clouds 6 1023 80 10000 6.7 220 17:37 11.01.2020
4608 Clouds 6 1023 80 10000 6.7 220 17:18 11.01.2020
4609 Clouds 6 1023 80 10000 6.7 220 16:43 11.01.2020
4610 Clouds 6 1024 80 10000 7.2 220 16:24 11.01.2020
4611 Clouds 6 1024 80 10000 7.2 220 15:56 11.01.2020
4612 Clouds 6 1025 80 10000 8.7 220 15:37 11.01.2020
4613 Clouds 6 1025 80 10000 8.7 220 15:19 11.01.2020
4614 Clouds 5 1025 80 10000 8.7 220 14:44 11.01.2020
4615 Clouds 5 1025 80 10000 7.2 220 14:24 11.01.2020
4616 Clouds 5 1025 80 10000 7.2 220 13:56 11.01.2020
4617 Clouds 5 1026 75 10000 7.2 220 13:37 11.01.2020
4618 Clouds 5 1026 75 10000 7.2 220 13:19 11.01.2020
4619 Clouds 5 1026 75 10000 7.2 220 12:44 11.01.2020
4620 Clouds 4 1026 80 10000 7.2 220 12:26 11.01.2020
4621 Clouds 4 1026 80 10000 7.2 220 11:56 11.01.2020
4622 Clouds 4 1027 80 10000 6.7 220 11:37 11.01.2020
4623 Clouds 4 1027 80 10000 6.7 220 11:18 11.01.2020
4624 Clouds 3 1027 86 10000 6.2 220 10:44 11.01.2020
4625 Clouds 3 1027 86 10000 6.2 220 10:24 11.01.2020
4626 Clouds 3 1027 86 10000 6.2 220 09:43 11.01.2020
4627 Clouds 2 1027 93 10000 5.1 230 09:21 11.01.2020
4628 Clouds 2 1027 93 10000 5.1 230 08:43 11.01.2020
4629 Clouds 2 1027 93 10000 5.7 230 08:23 11.01.2020
4630 Clouds 2 1027 93 10000 5.7 230 07:59 11.01.2020
4631 Clouds 2 1027 93 10000 5.7 230 07:41 11.01.2020
4632 Clouds 2 1027 93 10000 4.6 230 07:22 11.01.2020
4633 Clouds 2 1027 93 10000 4.6 230 06:42 11.01.2020
4634 Clouds 3 1028 93 10000 3.6 250 05:22 11.01.2020
4635 Clouds 3 1027 93 10000 3.6 250 04:38 11.01.2020
4636 Clouds 3 1027 93 10000 3.6 250 04:20 11.01.2020
4637 Clouds 5 1027 86 10000 3.6 270 02:46 11.01.2020
4638 Clouds 5 1027 93 10000 4.1 290 01:45 11.01.2020
4639 Clouds 5 1026 93 10000 3.6 290 01:22 11.01.2020
4640 Clouds 6 1026 93 10000 3.6 290 00:51 11.01.2020
4641 Clouds 6 1025 86 10000 4.6 310 00:24 11.01.2020
4642 Clouds 6 1025 86 10000 4.6 310 23:58 10.01.2020
4643 Clouds 6 1025 86 10000 3.6 300 23:38 10.01.2020
4644 Clouds 6 1025 86 10000 3.6 300 23:20 10.01.2020
4645 Clouds 6 1025 86 10000 3.6 300 22:41 10.01.2020
4646 Clouds 6 1024 86 10000 5.1 320 22:22 10.01.2020
4647 Clouds 6 1024 86 10000 5.1 320 21:58 10.01.2020
4648 Clouds 6 1024 86 10000 5.1 320 21:40 10.01.2020
4649 Clouds 6 1024 86 10000 5.1 320 21:40 10.01.2020
4650 Clouds 6 1022 80 10000 4.6 320 21:20 10.01.2020
4651 Clouds 6 1022 80 10000 4.6 320 20:57 10.01.2020
4652 Clouds 6 1022 80 10000 5.7 330 20:38 10.01.2020
4653 Clouds 6 1022 80 10000 5.7 330 20:19 10.01.2020
4654 Clouds 6 1022 80 10000 5.7 330 19:40 10.01.2020
4655 Clouds 6 1021 80 10000 6.7 350 19:21 10.01.2020
4656 Drizzle 6 1021 80 10000 5.7 340 18:55 10.01.2020
4657 Drizzle 6 1020 80 8000 7.7 340 18:37 10.01.2020
4658 Drizzle 6 1020 80 8000 7.7 340 18:18 10.01.2020
4659 Drizzle 6 1020 80 8000 7.7 340 17:56 10.01.2020
4660 Drizzle 6 1020 80 8000 7.7 340 17:56 10.01.2020
4661 Clouds 6 1018 80 10000 8.2 330 17:37 10.01.2020
4662 Clouds 6 1018 80 10000 8.2 330 17:19 10.01.2020
4663 Clouds 6 1016 75 10000 7.2 330 16:42 10.01.2020
4664 Clouds 6 1016 75 10000 7.2 330 16:21 10.01.2020
4665 Clouds 6 1016 75 10000 7.2 330 16:21 10.01.2020
4666 Clouds 6 1016 75 10000 7.2 330 15:57 10.01.2020
4667 Clouds 5 1015 86 10000 6.7 330 15:38 10.01.2020
4668 Clouds 5 1015 86 10000 6.7 330 15:20 10.01.2020
4669 Drizzle 5 1014 93 10000 7.7 340 14:59 10.01.2020
4670 Drizzle 6 1012 87 10000 9.8 330 14:40 10.01.2020
4671 Drizzle 6 1012 87 10000 9.8 330 14:19 10.01.2020
4672 Drizzle 6 1012 87 10000 9.8 330 13:57 10.01.2020
4673 Drizzle 6 1012 93 8000 8.2 330 13:38 10.01.2020
4674 Drizzle 6 1012 93 8000 8.2 330 13:19 10.01.2020
4675 Drizzle 6 1012 93 3000 9.3 330 12:56 10.01.2020
4676 Drizzle 7 1011 93 1200 8.2 260 12:38 10.01.2020
4677 Drizzle 7 1011 93 1200 8.2 260 12:18 10.01.2020
4678 Drizzle 8 1011 87 3000 8.2 260 11:42 10.01.2020
4679 Clouds 8 1010 87 10000 5.1 250 11:22 10.01.2020
4680 Clouds 8 1010 87 10000 5.1 250 11:22 10.01.2020
4681 Clouds 8 1010 87 10000 6.7 260 10:59 10.01.2020
4682 Rain 8 1009 87 8000 5.7 250 10:39 10.01.2020
4683 Rain 8 1009 87 8000 5.7 250 10:21 10.01.2020
4684 Rain 8 1009 87 8000 5.7 250 09:55 10.01.2020
4685 Clouds 8 1008 87 10000 6.2 250 09:36 10.01.2020
4686 Clouds 8 1008 87 10000 6.2 250 09:18 10.01.2020
4687 Clouds 9 1008 87 10000 4.6 240 08:40 10.01.2020
4688 Clouds 9 1008 87 10000 4.6 240 08:21 10.01.2020
4689 Clouds 9 1008 87 10000 4.6 240 07:44 10.01.2020
4690 Clouds 9 1007 87 10000 4.6 240 07:23 10.01.2020
4691 Clouds 9 1007 87 10000 4.6 240 06:45 10.01.2020
4692 Clouds 9 1007 87 10000 6.7 260 06:25 10.01.2020
4693 Clouds 9 1007 87 10000 6.7 260 05:46 10.01.2020
4694 Mist 11 1006 93 5000 5.1 220 03:35 10.01.2020
4695 Mist 11 1006 93 5000 5.1 220 02:58 10.01.2020
4696 Drizzle 11 1005 93 4000 5.7 230 02:38 10.01.2020
4697 Drizzle 11 1006 93 4800 6.2 220 01:38 10.01.2020
4698 Drizzle 11 1006 93 2500 5.1 220 00:58 10.01.2020
4699 Drizzle 11 1006 93 2200 5.1 220 00:38 10.01.2020
4700 Drizzle 11 1005 93 4500 2.6 220 23:57 09.01.2020
4701 Drizzle 11 1006 93 2500 3.6 260 23:38 09.01.2020
4702 Drizzle 11 1006 93 2500 3.6 260 23:20 09.01.2020
4703 Drizzle 11 1006 93 8000 4.1 270 22:57 09.01.2020
4704 Drizzle 11 1006 93 4500 3.1 270 22:37 09.01.2020
4705 Drizzle 11 1006 93 4500 3.1 270 22:19 09.01.2020
4706 Drizzle 11 1006 93 3500 4.1 220 21:56 09.01.2020
4707 Clouds 11 1006 93 10000 4.1 220 21:37 09.01.2020
4708 Clouds 11 1006 93 10000 4.1 220 21:37 09.01.2020
4709 Clouds 11 1006 93 10000 4.1 220 21:37 09.01.2020
4710 Clouds 11 1006 93 10000 4.1 220 21:18 09.01.2020
4711 Clouds 11 1006 93 10000 3.6 230 20:56 09.01.2020
4712 Clouds 11 1006 93 10000 3.6 230 20:38 09.01.2020
4713 Clouds 11 1006 93 10000 5.1 220 20:19 09.01.2020
4714 Clouds 11 1006 93 10000 5.1 220 20:19 09.01.2020
4715 Clouds 11 1006 93 10000 5.1 220 20:19 09.01.2020
4716 Clouds 11 1006 93 10000 5.1 220 19:56 09.01.2020
4717 Clouds 11 1006 93 10000 5.1 220 19:37 09.01.2020
4718 Clouds 11 1006 93 10000 5.1 220 19:18 09.01.2020
4719 Clouds 11 1006 93 10000 5.1 220 18:54 09.01.2020
4720 Clouds 11 1006 93 10000 5.1 220 18:36 09.01.2020
4721 Clouds 11 1006 93 10000 5.7 230 18:18 09.01.2020
4722 Clouds 11 1006 93 10000 5.7 230 17:41 09.01.2020
4723 Clouds 11 1006 93 8000 5.7 230 17:18 09.01.2020
4724 Drizzle 11 1006 93 3500 5.7 230 16:48 09.01.2020
4725 Drizzle 11 1006 93 3000 6.7 230 16:23 09.01.2020
4726 Drizzle 11 1006 93 3000 6.7 230 15:57 09.01.2020
4727 Drizzle 11 1006 93 3000 6.7 230 15:39 09.01.2020
4728 Clouds 11 1007 93 10000 7.7 230 15:18 09.01.2020
4729 Clouds 11 1007 93 10000 7.7 230 14:42 09.01.2020
4730 Drizzle 11 1007 93 8000 7.7 220 14:21 09.01.2020
4731 Drizzle 11 1007 93 8000 7.7 220 13:57 09.01.2020
4732 Drizzle 11 1007 93 8000 7.7 220 13:39 09.01.2020
4733 Drizzle 11 1007 93 8000 7.7 220 13:39 09.01.2020
4734 Drizzle 11 1007 93 8000 6.2 210 13:20 09.01.2020
4735 Drizzle 11 1008 87 7000 6.2 210 12:58 09.01.2020
4736 Drizzle 11 1008 87 7000 6.2 210 12:58 09.01.2020
4737 Drizzle 11 1008 87 7000 6.2 210 12:39 09.01.2020
4738 Drizzle 10 1009 93 5000 6.2 200 12:19 09.01.2020
4739 Drizzle 10 1009 93 5000 6.2 200 11:56 09.01.2020
4740 Drizzle 10 1009 93 5000 6.2 200 11:37 09.01.2020
4741 Drizzle 10 1009 93 2800 6.2 200 11:19 09.01.2020
4742 Drizzle 9 1010 100 3600 5.7 190 10:43 09.01.2020
4743 Drizzle 9 1010 93 3200 5.1 180 10:22 09.01.2020
4744 Drizzle 9 1011 93 2500 5.1 180 09:56 09.01.2020
4745 Drizzle 9 1011 93 2500 5.1 180 09:38 09.01.2020
4746 Drizzle 9 1011 93 2000 5.1 170 09:18 09.01.2020
4747 Drizzle 9 1012 93 3500 4.6 170 08:55 09.01.2020
4748 Drizzle 9 1012 93 3500 4.6 170 08:37 09.01.2020
4749 Drizzle 9 1012 93 2500 5.1 170 08:19 09.01.2020
4750 Mist 9 1013 93 4800 4.6 180 07:42 09.01.2020
4751 Mist 9 1014 93 3700 4.6 170 07:23 09.01.2020
4752 Mist 8 1014 100 2500 3.6 170 06:38 09.01.2020
4753 Fog 7 1016 100 50 1.5 160 06:19 09.01.2020
4754 Fog 7 1016 100 50 1.5 160 05:44 09.01.2020
4755 Fog 7 1017 100 50 1.5 170 04:42 09.01.2020
4756 Mist 7 1019 93 4000 1 190 03:31 09.01.2020
4757 Fog 7 1019 93 6000 2.1 190 02:52 09.01.2020
4758 Clouds 6 1020 100 9000 2.1 180 02:24 09.01.2020
4759 Clouds 6 1020 100 9000 2.1 180 01:38 09.01.2020
4760 Clouds 6 1020 93 10000 1.5 200 00:42 09.01.2020
4761 Clouds 6 1020 93 10000 1.5 210 00:21 09.01.2020
4762 Clouds 6 1020 93 10000 1.5 210 23:42 08.01.2020
4763 Clouds 7 1021 93 10000 1 0 23:24 08.01.2020
4764 Clouds 7 1021 93 10000 1 0 22:59 08.01.2020
4765 Clouds 7 1021 93 10000 1 0 22:39 08.01.2020
4766 Clouds 7 1021 93 10000 3.1 260 22:20 08.01.2020
4767 Clouds 7 1021 93 10000 3.1 260 22:20 08.01.2020
4768 Clouds 7 1021 93 10000 3.1 260 21:57 08.01.2020
4769 Clouds 7 1021 93 10000 3.1 260 21:38 08.01.2020
4770 Clouds 7 1021 93 10000 2.6 250 21:20 08.01.2020
4771 Clouds 7 1021 93 10000 2.6 250 20:58 08.01.2020
4772 Clouds 7 1021 93 10000 2.6 250 20:38 08.01.2020
4773 Clouds 7 1020 93 10000 2.1 250 20:20 08.01.2020
4774 Clouds 7 1020 93 10000 2.1 250 19:56 08.01.2020
4775 Clouds 7 1020 93 10000 2.1 250 19:37 08.01.2020
4776 Clouds 8 1021 87 10000 4.1 260 19:19 08.01.2020
4777 Clouds 8 1021 87 10000 4.1 260 18:55 08.01.2020
4778 Clouds 8 1021 87 10000 4.1 260 18:37 08.01.2020
4779 Clouds 8 1020 93 10000 4.1 270 18:18 08.01.2020
4780 Clouds 8 1020 93 10000 4.1 270 17:48 08.01.2020
4781 Clouds 8 1020 93 10000 5.7 280 17:24 08.01.2020
4782 Clouds 8 1020 93 10000 5.7 280 16:58 08.01.2020
4783 Clouds 8 1020 93 10000 5.7 280 16:39 08.01.2020
4784 Clouds 9 1019 87 10000 7.7 280 16:19 08.01.2020
4785 Clouds 9 1019 87 10000 7.7 280 15:59 08.01.2020
4786 Clouds 9 1019 87 10000 7.7 280 15:40 08.01.2020
4787 Drizzle 9 1018 93 10000 5.7 270 15:20 08.01.2020
4788 Drizzle 9 1018 93 10000 5.7 270 14:56 08.01.2020
4789 Drizzle 9 1018 93 10000 5.7 270 14:38 08.01.2020
4790 Clouds 10 1018 93 9000 5.1 270 14:19 08.01.2020
4791 Drizzle 10 1018 93 5000 5.7 260 13:39 08.01.2020
4792 Mist 10 1018 93 3000 4.6 250 13:19 08.01.2020
4793 Mist 10 1018 93 3000 4.6 250 12:42 08.01.2020
4794 Mist 9 1018 100 2500 4.1 240 12:19 08.01.2020
4795 Mist 9 1018 100 2500 4.1 240 12:19 08.01.2020
4796 Drizzle 9 1018 100 3500 4.6 240 11:55 08.01.2020
4797 Drizzle 9 1018 100 3500 4.6 240 11:37 08.01.2020
4798 Drizzle 9 1017 93 3000 5.1 240 11:18 08.01.2020
4799 Mist 9 1017 93 5000 5.7 240 10:54 08.01.2020
4800 Mist 9 1017 93 5000 5.7 240 10:36 08.01.2020
4801 Clouds 9 1017 93 7000 5.7 240 10:18 08.01.2020
4802 Clouds 9 1017 93 7000 5.7 240 09:41 08.01.2020
4803 Clouds 8 1017 100 7000 6.2 240 09:19 08.01.2020
4804 Drizzle 8 1016 93 4000 5.7 240 08:55 08.01.2020
4805 Drizzle 8 1016 93 4000 5.7 240 08:36 08.01.2020
4806 Drizzle 8 1016 93 5000 7.2 240 08:18 08.01.2020
4807 Drizzle 8 1016 93 5000 7.2 240 08:18 08.01.2020
4808 Drizzle 8 1016 93 5000 7.7 230 07:47 08.01.2020
4809 Drizzle 8 1016 93 4000 7.2 230 07:29 08.01.2020
4810 Drizzle 8 1016 93 4000 7.2 230 06:44 08.01.2020
4811 Drizzle 8 1016 93 4000 6.7 230 05:59 08.01.2020
4812 Drizzle 8 1016 93 4000 6.7 230 05:38 08.01.2020
4813 Clouds 8 1017 81 10000 7.2 230 04:54 08.01.2020
4814 Clouds 8 1017 75 10000 7.2 230 03:33 08.01.2020
4815 Clouds 8 1016 81 10000 8.2 220 02:44 08.01.2020
4816 Clouds 7 1017 81 10000 8.7 220 02:19 08.01.2020
4817 Clouds 7 1017 81 10000 8.7 220 01:42 08.01.2020
4818 Rain 7 1018 81 10000 8.7 220 00:59 08.01.2020
4819 Rain 7 1018 81 10000 7.7 210 00:27 08.01.2020
4820 Rain 7 1018 81 10000 7.7 210 23:47 07.01.2020
4821 Clouds 7 1020 81 10000 6.7 220 23:22 07.01.2020
4822 Clouds 7 1020 81 10000 6.7 220 22:58 07.01.2020
4823 Clouds 7 1020 81 10000 6.7 220 22:39 07.01.2020
4824 Clouds 7 1020 81 10000 7.7 220 22:20 07.01.2020
4825 Clouds 7 1020 81 10000 7.7 220 21:55 07.01.2020
4826 Clouds 7 1020 81 10000 7.7 220 21:37 07.01.2020
4827 Clouds 7 1021 87 9000 7.2 220 21:19 07.01.2020
4828 Clouds 7 1021 87 9000 7.2 220 20:55 07.01.2020
4829 Clouds 6 1021 87 9000 7.2 220 20:36 07.01.2020
4830 Clouds 6 1020 87 10000 6.7 210 20:18 07.01.2020
4831 Clouds 7 1020 87 10000 6.7 210 19:38 07.01.2020
4832 Clouds 7 1021 87 10000 5.7 200 19:19 07.01.2020
4833 Clouds 7 1021 87 10000 5.7 200 18:58 07.01.2020
4834 Clouds 7 1021 87 10000 5.7 200 18:58 07.01.2020
4835 Clouds 6 1021 87 10000 5.7 200 18:40 07.01.2020
4836 Clouds 6 1022 87 10000 5.7 210 18:19 07.01.2020
4837 Clouds 6 1022 87 10000 5.7 210 17:58 07.01.2020
4838 Clouds 6 1022 87 10000 5.7 210 17:39 07.01.2020
4839 Clouds 6 1023 87 8000 4.6 220 17:20 07.01.2020
4840 Clouds 6 1023 87 8000 4.6 220 16:56 07.01.2020
4841 Clouds 7 1023 87 8000 4.6 220 16:37 07.01.2020
4842 Clouds 7 1023 87 8000 4.6 220 16:37 07.01.2020
4843 Clouds 7 1023 87 10000 5.1 230 16:19 07.01.2020
4844 Clouds 7 1023 87 10000 5.1 230 15:57 07.01.2020
4845 Clouds 6 1023 87 10000 5.1 230 15:38 07.01.2020
4846 Clouds 6 1023 87 8000 5.7 240 15:19 07.01.2020
4847 Clouds 6 1023 93 7000 6.7 230 14:42 07.01.2020
4848 Clouds 6 1023 93 6000 5.7 240 14:24 07.01.2020
4849 Clouds 6 1022 93 10000 5.7 230 13:57 07.01.2020
4850 Clouds 6 1022 93 10000 5.7 230 13:39 07.01.2020
4851 Clouds 6 1023 93 10000 4.1 230 13:18 07.01.2020
4852 Clouds 6 1023 93 10000 4.1 230 12:41 07.01.2020
4853 Clouds 6 1023 93 7000 4.6 230 12:20 07.01.2020
4854 Clouds 6 1023 93 6000 4.6 230 11:55 07.01.2020
4855 Clouds 6 1022 87 7000 4.6 230 11:36 07.01.2020
4856 Clouds 6 1022 87 7000 4.6 230 11:18 07.01.2020
4857 Clouds 6 1022 87 8000 4.1 250 10:41 07.01.2020
4858 Clouds 6 1022 93 7000 5.7 260 10:23 07.01.2020
4859 Clouds 6 1022 93 7000 5.7 260 09:57 07.01.2020
4860 Clouds 6 1022 93 7000 5.7 260 09:38 07.01.2020
4861 Mist 6 1021 93 5000 5.7 260 09:20 07.01.2020
4862 Mist 6 1021 93 5000 5.7 260 08:42 07.01.2020
4863 Mist 6 1020 93 5000 4.6 250 08:23 07.01.2020
4864 Mist 6 1020 93 5000 4.6 250 07:54 07.01.2020
4865 Mist 5 1019 93 4000 5.1 250 07:28 07.01.2020
4866 Mist 5 1019 93 4000 5.1 250 07:28 07.01.2020
4867 Mist 5 1019 93 4000 5.1 250 06:53 07.01.2020
4868 Mist 5 1018 93 5000 4.6 240 06:34 07.01.2020
4869 Mist 5 1018 93 5000 4.6 240 05:54 07.01.2020
4870 Mist 5 1018 93 5000 4.6 240 04:39 07.01.2020
4871 Drizzle 4 1017 86 9000 4.6 230 03:27 07.01.2020
4872 Clouds 4 1017 86 10000 4.6 220 02:22 07.01.2020
4873 Clouds 4 1017 86 10000 4.6 220 01:52 07.01.2020
4874 Clouds 4 1017 85 10000 5.7 230 01:30 07.01.2020
4875 Clouds 4 1017 85 10000 5.7 230 00:37 07.01.2020
4876 Clouds 3 1017 85 10000 3.6 210 00:18 07.01.2020
4877 Clouds 4 1017 85 10000 3.6 210 23:39 06.01.2020
4878 Clouds 3 1017 82 10000 3.6 200 23:21 06.01.2020
4879 Clouds 3 1017 82 10000 3.6 200 22:58 06.01.2020
4880 Clouds 4 1017 82 10000 3.6 200 22:39 06.01.2020
4881 Clouds 3 1018 82 10000 4.1 190 22:21 06.01.2020
4882 Clouds 3 1018 82 10000 4.1 190 21:56 06.01.2020
4883 Clouds 4 1018 82 10000 4.1 190 21:38 06.01.2020
4884 Clouds 4 1019 82 10000 4.1 200 21:19 06.01.2020
4885 Clouds 4 1019 82 10000 4.1 200 20:56 06.01.2020
4886 Clouds 4 1019 82 10000 4.1 200 20:37 06.01.2020
4887 Clouds 4 1019 80 10000 4.6 210 20:19 06.01.2020
4888 Clouds 4 1019 80 10000 4.6 210 19:55 06.01.2020
4889 Clouds 4 1019 80 10000 4.6 210 19:37 06.01.2020
4890 Clouds 5 1020 80 10000 4.1 210 19:18 06.01.2020
4891 Clouds 5 1020 80 10000 4.1 210 18:45 06.01.2020
4892 Clouds 6 1020 81 10000 4.1 210 18:21 06.01.2020
4893 Clouds 6 1020 81 10000 4.1 210 17:40 06.01.2020
4894 Clouds 6 1021 81 10000 3.6 210 17:20 06.01.2020
4895 Clouds 6 1021 81 10000 3.6 210 17:20 06.01.2020
4896 Clouds 6 1021 87 7000 3.6 210 16:59 06.01.2020
4897 Clouds 6 1021 87 7000 3.6 210 16:41 06.01.2020
4898 Clouds 6 1022 87 8000 4.1 220 16:23 06.01.2020
4899 Clouds 6 1022 87 8000 4.1 220 15:59 06.01.2020
4900 Clouds 6 1022 87 8000 4.1 220 15:37 06.01.2020
4901 Clouds 6 1022 87 8000 4.1 220 15:37 06.01.2020
4902 Clouds 6 1022 87 10000 4.1 220 15:18 06.01.2020
4903 Clouds 6 1022 87 10000 4.1 220 14:42 06.01.2020
4904 Clouds 6 1023 87 9000 4.6 220 14:23 06.01.2020
4905 Clouds 6 1023 87 9000 4.6 220 14:23 06.01.2020
4906 Clouds 6 1023 87 6000 5.1 230 13:59 06.01.2020
4907 Clouds 6 1023 87 6000 5.1 230 13:40 06.01.2020
4908 Mist 6 1024 87 5000 5.1 230 13:22 06.01.2020
4909 Mist 6 1024 87 5000 5.1 230 12:59 06.01.2020
4910 Mist 6 1024 87 5000 5.1 230 12:41 06.01.2020
4911 Mist 6 1024 87 5000 4.6 220 12:20 06.01.2020
4912 Mist 6 1025 87 4500 4.6 220 11:55 06.01.2020
4913 Mist 6 1025 87 4500 4.6 220 11:37 06.01.2020
4914 Mist 5 1025 93 4500 4.6 220 11:18 06.01.2020
4915 Mist 5 1025 93 4500 4.6 220 10:42 06.01.2020
4916 Mist 5 1025 93 3500 5.1 230 10:21 06.01.2020
4917 Mist 5 1025 93 3500 5.1 230 09:42 06.01.2020
4918 Drizzle 5 1026 93 3500 5.1 230 09:24 06.01.2020
4919 Drizzle 5 1026 93 3500 5.1 230 08:58 06.01.2020
4920 Drizzle 5 1026 93 3500 5.1 230 08:39 06.01.2020
4921 Mist 5 1026 93 4500 5.1 230 08:21 06.01.2020
4922 Mist 5 1026 93 4500 5.1 230 07:45 06.01.2020
4923 Drizzle 5 1026 93 4500 4.6 230 07:21 06.01.2020
4924 Drizzle 5 1026 93 4500 4.6 230 06:38 06.01.2020
4925 Mist 5 1026 93 3500 4.6 230 05:49 06.01.2020
4926 Mist 5 1026 93 4000 4.1 230 05:28 06.01.2020
4927 Drizzle 5 1026 93 3000 4.6 230 04:24 06.01.2020
4928 Drizzle 5 1027 93 4500 4.1 230 03:52 06.01.2020
4929 Drizzle 5 1027 93 4000 5.1 230 02:32 06.01.2020
4930 Mist 5 1027 93 5000 5.1 230 01:55 06.01.2020
4931 Mist 5 1027 93 5000 5.1 230 01:32 06.01.2020
4932 Drizzle 5 1028 93 5000 4.6 240 00:48 06.01.2020
4933 Drizzle 5 1028 93 6000 5.1 230 00:29 06.01.2020
4934 Drizzle 5 1028 93 6000 5.1 230 00:29 06.01.2020
4935 Drizzle 5 1028 86 8000 5.1 230 23:59 05.01.2020
4936 Drizzle 6 1028 86 8000 5.1 230 23:40 05.01.2020
4937 Drizzle 6 1028 81 8000 4.6 230 23:21 05.01.2020
4938 Drizzle 6 1028 81 8000 4.6 230 22:40 05.01.2020
4939 Clouds 6 1028 81 10000 6.2 230 22:21 05.01.2020
4940 Clouds 6 1028 81 10000 6.2 230 21:59 05.01.2020
4941 Clouds 6 1028 81 10000 6.2 230 21:40 05.01.2020
4942 Clouds 6 1029 87 9000 5.7 230 21:20 05.01.2020
4943 Clouds 6 1029 87 9000 5.7 230 20:58 05.01.2020
4944 Clouds 6 1029 87 9000 5.7 230 20:39 05.01.2020
4945 Drizzle 6 1029 87 7000 4.1 230 20:20 05.01.2020
4946 Drizzle 6 1029 87 7000 4.1 230 19:59 05.01.2020
4947 Drizzle 6 1029 87 7000 4.1 230 19:39 05.01.2020
4948 Drizzle 6 1029 87 8000 3.6 240 19:21 05.01.2020
4949 Drizzle 6 1029 87 6000 4.1 230 18:56 05.01.2020
4950 Drizzle 6 1029 87 6000 4.1 230 18:38 05.01.2020
4951 Clouds 6 1029 87 10000 4.6 230 18:19 05.01.2020
4952 Mist 6 1029 93 5000 4.6 230 17:59 05.01.2020
4953 Mist 6 1029 93 5000 4.6 230 17:39 05.01.2020
4954 Mist 6 1030 93 3000 4.6 220 17:20 05.01.2020
4955 Mist 6 1030 93 3000 4.6 220 16:57 05.01.2020
4956 Mist 7 1030 93 3000 4.6 220 16:39 05.01.2020
4957 Mist 7 1030 93 2800 5.1 230 16:20 05.01.2020
4958 Mist 6 1030 93 2800 5.1 230 15:40 05.01.2020
4959 Mist 5 1030 93 2200 5.1 240 15:22 05.01.2020
4960 Mist 5 1030 93 2200 5.1 240 14:57 05.01.2020
4961 Mist 5 1030 93 2200 5.1 240 14:39 05.01.2020
4962 Mist 5 1030 93 1900 4.6 230 14:20 05.01.2020
4963 Mist 5 1030 93 1900 4.6 230 13:58 05.01.2020
4964 Mist 5 1030 93 1900 4.6 230 13:38 05.01.2020
4965 Mist 5 1031 93 3200 4.6 230 13:20 05.01.2020
4966 Mist 4 1031 93 3700 4.6 230 12:57 05.01.2020
4967 Mist 4 1031 93 3700 4.6 230 12:38 05.01.2020
4968 Clouds 4 1031 93 6000 4.6 230 12:19 05.01.2020
4969 Clouds 4 1031 93 7000 4.6 220 11:54 05.01.2020
4970 Clouds 3 1032 93 8000 3.1 220 11:36 05.01.2020
4971 Clouds 3 1032 93 8000 3.1 220 11:18 05.01.2020
4972 Clouds 3 1032 93 8000 3.1 220 10:40 05.01.2020
4973 Clouds 5 1032 86 7000 2.1 220 10:20 05.01.2020
4974 Clouds 4 1032 94 10000 2.6 210 09:55 05.01.2020
4975 Clouds 4 1032 94 10000 2.6 210 09:36 05.01.2020
4976 Clouds 4 1032 94 10000 3.1 240 09:18 05.01.2020
4977 Clouds 3 1032 94 10000 3.1 240 08:44 05.01.2020
4978 Clouds 2 1032 86 10000 2.1 250 08:21 05.01.2020
4979 Clouds 3 1032 86 10000 2.1 250 07:44 05.01.2020
4980 Clouds 3 1032 86 10000 2.1 250 07:44 05.01.2020
4981 Clouds 2 1032 84 10000 2.6 210 07:26 05.01.2020
4982 Clouds 2 1032 84 10000 2.6 210 06:54 05.01.2020
4983 Clouds 4 1031 84 10000 3.1 220 05:43 05.01.2020
4984 Clouds 3 1031 86 10000 2.1 240 04:56 05.01.2020
4985 Clouds 3 1032 80 10000 1.5 240 04:19 05.01.2020
4986 Clouds 4 1032 80 10000 1.5 240 03:38 05.01.2020
4987 Clouds 5 1031 80 10000 3.1 290 02:36 05.01.2020
4988 Clouds 6 1031 65 10000 3.1 310 02:18 05.01.2020
4989 Clouds 6 1030 65 10000 3.1 320 01:20 05.01.2020
4990 Clouds 6 1030 65 10000 3.1 320 00:58 05.01.2020
4991 Clouds 5 1030 65 10000 3.1 320 00:39 05.01.2020
4992 Clouds 5 1030 77 10000 2.6 320 00:20 05.01.2020
4993 Clouds 5 1030 77 10000 2.6 320 23:58 04.01.2020
4994 Clouds 5 1030 77 10000 2.6 320 23:38 04.01.2020
4995 Clouds 5 1029 73 10000 3.1 350 23:18 04.01.2020
4996 Clouds 6 1029 73 10000 3.1 350 22:39 04.01.2020
4997 Clouds 6 1028 75 10000 2.6 330 22:20 04.01.2020
4998 Clouds 6 1028 75 10000 2.6 330 21:56 04.01.2020
4999 Clouds 6 1027 75 10000 3.6 320 21:37 04.01.2020
5000 Clouds 6 1027 75 10000 3.6 320 21:19 04.01.2020
5001 Clouds 6 1027 75 10000 3.6 320 20:56 04.01.2020
5002 Clouds 6 1027 75 10000 3.6 320 20:37 04.01.2020
5003 Clouds 6 1026 75 10000 6.2 330 20:18 04.01.2020
5004 Clouds 6 1026 75 10000 6.2 330 19:42 04.01.2020
5005 Clouds 6 1025 71 10000 6.2 330 19:23 04.01.2020
5006 Clouds 6 1025 71 10000 6.2 330 18:58 04.01.2020
5007 Clouds 6 1025 71 10000 6.2 330 18:39 04.01.2020
5008 Clouds 6 1024 71 10000 7.2 320 18:20 04.01.2020
5009 Clouds 6 1024 71 10000 7.2 320 17:58 04.01.2020
5010 Clouds 6 1024 71 10000 7.2 320 17:40 04.01.2020
5011 Clouds 6 1023 67 10000 6.7 320 17:21 04.01.2020
5012 Clouds 6 1023 67 10000 6.7 320 16:42 04.01.2020
5013 Clouds 6 1022 67 10000 9.8 320 16:24 04.01.2020
5014 Clouds 6 1022 67 10000 9.8 320 15:59 04.01.2020
5015 Clouds 6 1022 67 10000 9.8 320 15:41 04.01.2020
5016 Clouds 6 1020 81 10000 6.7 310 15:19 04.01.2020
5017 Clouds 6 1020 81 10000 6.7 310 14:58 04.01.2020
5018 Clouds 6 1020 81 10000 6.7 310 14:58 04.01.2020
5019 Clouds 6 1020 81 10000 6.7 310 14:40 04.01.2020
5020 Clouds 6 1020 81 10000 6.2 330 14:19 04.01.2020
5021 Clouds 6 1020 81 10000 6.2 330 13:56 04.01.2020
5022 Clouds 7 1020 81 10000 6.2 330 13:37 04.01.2020
5023 Clouds 7 1020 81 10000 6.2 330 13:37 04.01.2020
5024 Rain 6 1019 93 5000 9.3 310 13:19 04.01.2020
5025 Rain 7 1019 93 5000 9.3 310 12:42 04.01.2020
5026 Rain 7 1019 86 3500 12.3 310 12:20 04.01.2020
5027 Rain 7 1018 87 5000 10.3 280 11:59 04.01.2020
5028 Rain 7 1018 87 5000 10.3 280 11:40 04.01.2020
5029 Rain 7 1018 87 5000 10.3 280 11:40 04.01.2020
5030 Clouds 7 1018 81 6000 10.8 270 11:20 04.01.2020
5031 Clouds 7 1018 81 6000 10.8 270 10:59 04.01.2020
5032 Clouds 7 1018 81 6000 10.8 270 10:38 04.01.2020
5033 Clouds 7 1018 81 7000 9.8 270 10:19 04.01.2020
5034 Clouds 7 1018 81 7000 9.8 270 09:43 04.01.2020
5035 Rain 6 1018 87 9000 9.3 270 09:25 04.01.2020
5036 Rain 6 1018 87 9000 9.3 270 08:47 04.01.2020
5037 Clouds 6 1019 87 10000 10.3 270 08:28 04.01.2020
5038 Clouds 6 1019 87 10000 10.3 270 07:55 04.01.2020
5039 Clouds 6 1019 87 10000 10.3 270 07:37 04.01.2020
5040 Clouds 6 1019 81 10000 9.3 270 06:43 04.01.2020
5041 Clouds 6 1019 81 10000 10.8 260 05:57 04.01.2020
5042 Clouds 6 1020 86 10000 8.2 260 04:50 04.01.2020
5043 Clouds 6 1020 86 10000 9.8 260 04:29 04.01.2020
5044 Clouds 6 1020 86 10000 8.2 260 03:28 04.01.2020
5045 Clouds 6 1020 86 10000 8.2 260 02:49 04.01.2020
5046 Clouds 6 1021 80 10000 6.7 270 02:18 04.01.2020
5047 Clouds 6 1021 80 10000 6.7 270 01:41 04.01.2020
5048 Rain 6 1021 80 10000 7.2 280 01:23 04.01.2020
5049 Clouds 6 1020 80 10000 6.7 290 00:29 04.01.2020
5050 Clouds 6 1020 80 10000 6.7 290 23:57 03.01.2020
5051 Clouds 5 1019 75 10000 4.1 320 23:30 03.01.2020
5052 Clouds 5 1019 75 10000 4.1 320 23:30 03.01.2020
5053 Clouds 5 1019 75 10000 4.1 320 22:59 03.01.2020
5054 Clouds 6 1019 75 10000 4.1 320 22:40 03.01.2020
5055 Clouds 6 1019 86 10000 5.7 290 22:19 03.01.2020
5056 Clouds 6 1019 86 10000 5.7 290 21:57 03.01.2020
5057 Clouds 6 1019 86 10000 5.7 290 21:38 03.01.2020
5058 Clouds 6 1018 75 10000 7.2 310 21:19 03.01.2020
5059 Clouds 6 1018 75 10000 7.2 310 20:55 03.01.2020
5060 Clouds 6 1018 75 10000 7.2 310 20:37 03.01.2020
5061 Clouds 6 1017 87 10000 4.6 320 20:18 03.01.2020
5062 Clouds 6 1017 87 10000 4.6 320 19:54 03.01.2020
5063 Clouds 6 1017 87 10000 4.6 320 19:36 03.01.2020
5064 Rain 5 1015 93 8000 4.1 330 19:18 03.01.2020
5065 Rain 5 1015 93 8000 4.1 330 18:39 03.01.2020
5066 Rain 5 1015 93 8000 4.1 330 18:39 03.01.2020
5067 Rain 5 1014 93 6000 4.6 350 18:20 03.01.2020
5068 Rain 5 1014 93 6000 4.6 350 17:54 03.01.2020
5069 Rain 5 1014 93 6000 4.6 350 17:36 03.01.2020
5070 Drizzle 6 1012 87 5000 5.1 10 17:18 03.01.2020
5071 Drizzle 6 1012 93 4500 6.2 20 16:42 03.01.2020
5072 Drizzle 8 1011 93 3000 5.7 260 16:22 03.01.2020
5073 Drizzle 8 1011 93 3000 5.7 260 15:43 03.01.2020
5074 Drizzle 8 1010 93 4500 4.6 250 15:19 03.01.2020
5075 Drizzle 8 1010 93 4500 4.6 250 15:19 03.01.2020
5076 Drizzle 8 1010 93 4500 4.6 250 14:56 03.01.2020
5077 Drizzle 8 1010 93 4500 4.6 250 14:37 03.01.2020
5078 Drizzle 8 1010 93 3700 5.1 240 14:19 03.01.2020
5079 Drizzle 8 1010 93 3700 5.1 240 13:41 03.01.2020
5080 Drizzle 7 1011 100 2500 5.7 230 13:23 03.01.2020
5081 Drizzle 7 1011 100 2500 5.7 230 12:57 03.01.2020
5082 Drizzle 7 1011 100 2500 5.7 230 12:38 03.01.2020
5083 Drizzle 7 1011 100 5000 6.7 230 12:20 03.01.2020
5084 Drizzle 7 1011 100 4500 6.7 230 11:44 03.01.2020
5085 Drizzle 7 1012 93 3000 6.7 230 11:19 03.01.2020
5086 Drizzle 7 1012 93 3000 6.7 230 10:44 03.01.2020
5087 Drizzle 7 1012 93 1800 6.2 230 10:25 03.01.2020
5088 Drizzle 7 1012 93 1800 6.2 230 09:57 03.01.2020
5089 Drizzle 7 1012 93 1800 6.2 230 09:39 03.01.2020
5090 Drizzle 6 1012 100 2000 5.7 230 09:21 03.01.2020
5091 Drizzle 6 1012 100 2000 5.7 230 08:56 03.01.2020
5092 Drizzle 6 1012 100 2000 5.7 230 08:36 03.01.2020
5093 Drizzle 6 1012 93 2000 6.2 220 08:18 03.01.2020
5094 Drizzle 6 1012 93 2000 6.2 220 07:39 03.01.2020
5095 Drizzle 6 1012 93 3000 7.2 220 07:18 03.01.2020
5096 Drizzle 6 1012 93 3000 7.2 220 06:47 03.01.2020
5097 Drizzle 6 1012 93 2500 6.7 220 06:28 03.01.2020
5098 Clouds 6 1013 87 10000 7.2 220 05:30 03.01.2020
5099 Clouds 5 1014 86 10000 7.2 220 04:19 03.01.2020
5100 Clouds 5 1014 86 10000 7.2 220 02:56 03.01.2020
5101 Clouds 5 1015 86 9000 7.2 220 02:26 03.01.2020
5102 Clouds 5 1015 86 9000 7.2 220 01:39 03.01.2020
5103 Mist 4 1017 93 5000 6.7 220 00:49 03.01.2020
5104 Mist 4 1017 93 5000 6.7 220 00:49 03.01.2020
5105 Mist 4 1017 93 4500 6.7 220 00:29 03.01.2020
5106 Mist 3 1017 100 4500 6.7 220 23:55 02.01.2020
5107 Mist 3 1018 93 3700 6.7 220 23:37 02.01.2020
5108 Mist 3 1018 93 3700 6.7 220 23:18 02.01.2020
5109 Mist 3 1018 93 4500 6.7 220 22:44 02.01.2020
5110 Mist 3 1018 93 4500 6.2 220 22:21 02.01.2020
5111 Mist 3 1018 93 4500 6.2 220 21:59 02.01.2020
5112 Mist 3 1018 93 4500 6.2 220 21:41 02.01.2020
5113 Mist 2 1019 100 4500 6.2 220 21:23 02.01.2020
5114 Mist 2 1019 93 4000 5.1 210 20:58 02.01.2020
5115 Mist 2 1019 93 4000 5.1 210 20:39 02.01.2020
5116 Mist 2 1019 93 4000 5.1 210 20:39 02.01.2020
5117 Mist 1 1020 100 3000 5.1 210 20:21 02.01.2020
5118 Mist 1 1020 100 3000 5.1 210 19:55 02.01.2020
5119 Mist 1 1020 100 3000 5.1 210 19:55 02.01.2020
5120 Mist 1 1020 100 3000 5.1 210 19:37 02.01.2020
5121 Mist 1 1020 85 3000 4.6 210 19:19 02.01.2020
5122 Mist 1 1020 85 3000 4.6 210 18:56 02.01.2020
5123 Mist 1 1020 85 3000 4.6 210 18:38 02.01.2020
5124 Mist 0 1021 85 1800 5.1 210 18:20 02.01.2020
5125 Mist 0 1021 85 1800 5.1 210 17:56 02.01.2020
5126 Mist 0 1021 85 1000 4.6 210 17:36 02.01.2020
5127 Mist 0 1021 93 1000 4.6 210 17:18 02.01.2020
5128 Fog 0 1022 93 700 5.1 220 16:56 02.01.2020
5129 Fog 0 1022 93 700 5.1 220 16:38 02.01.2020
5130 Fog 0 1022 93 400 5.1 210 16:19 02.01.2020
5131 Fog 0 1022 93 400 5.1 210 15:45 02.01.2020
5132 Fog -1 1023 100 400 4.1 220 15:24 02.01.2020
5133 Fog -1 1023 100 400 4.1 220 14:58 02.01.2020
5134 Fog -1 1023 100 400 4.1 220 14:38 02.01.2020
5135 Fog -1 1023 92 700 4.6 230 14:20 02.01.2020
5136 Fog -1 1023 92 700 4.6 230 13:58 02.01.2020
5137 Fog -1 1023 92 700 4.6 230 13:40 02.01.2020
5138 Mist -1 1024 100 2500 3.6 250 13:19 02.01.2020
5139 Mist -1 1024 100 2500 3.6 250 12:43 02.01.2020
5140 Mist -1 1025 100 2000 5.1 240 12:23 02.01.2020
5141 Mist -1 1025 100 2000 5.1 240 11:42 02.01.2020
5142 Fog 0 1025 96 450 3.6 240 11:23 02.01.2020
5143 Fog 0 1025 96 900 4.1 240 10:56 02.01.2020
5144 Fog 0 1025 96 900 4.1 240 10:36 02.01.2020
5145 Mist 0 1025 96 1400 4.1 260 10:18 02.01.2020
5146 Mist 0 1025 96 1400 4.1 260 09:41 02.01.2020
5147 Fog 0 1025 96 800 4.1 240 09:21 02.01.2020
5148 Fog 0 1025 96 450 3.6 240 08:41 02.01.2020
5149 Fog 0 1025 89 400 4.1 230 08:22 02.01.2020
5150 Fog 0 1025 89 400 4.1 230 07:47 02.01.2020
5151 Fog 0 1025 89 400 4.1 230 07:27 02.01.2020
5152 Fog 0 1026 89 500 2.6 230 06:43 02.01.2020
5153 Fog 0 1026 89 500 4.6 220 05:54 02.01.2020
5154 Fog -1 1026 100 600 4.1 230 04:37 02.01.2020
5155 Fog -1 1027 100 500 3.6 230 03:54 02.01.2020
5156 Fog -1 1028 100 500 3.6 230 02:21 02.01.2020
5157 Fog -1 1028 100 500 3.6 230 01:57 02.01.2020
5158 Mist -1 1028 92 3000 2.6 240 01:30 02.01.2020
5159 Mist -1 1028 92 3000 2.6 240 00:52 02.01.2020
5160 Mist -1 1029 92 3000 3.1 260 00:28 02.01.2020
5161 Mist -1 1029 92 3000 3.1 260 23:47 01.01.2020
5162 Mist -1 1029 92 1600 4.6 260 23:24 01.01.2020
5163 Mist -1 1029 92 1600 4.6 260 22:54 01.01.2020
5164 Mist -1 1029 92 1600 4.6 260 22:36 01.01.2020
5165 Mist -2 1029 100 1500 3.6 240 22:18 01.01.2020
5166 Mist -2 1029 100 1500 3.6 240 21:42 01.01.2020
5167 Fog -1 1029 92 800 3.1 220 21:21 01.01.2020
5168 Fog -1 1029 92 700 5.1 220 20:58 01.01.2020
5169 Fog -1 1029 92 700 5.1 220 20:39 01.01.2020
5170 Fog -1 1029 92 400 3.6 230 20:20 01.01.2020
5171 Fog -1 1029 92 400 3.6 230 19:58 01.01.2020
5172 Fog -1 1029 92 400 3.6 230 19:39 01.01.2020
5173 Fog -2 1029 100 500 3.1 210 19:20 01.01.2020
5174 Fog -1 1030 92 200 2.1 220 18:57 01.01.2020
5175 Fog -1 1030 92 200 2.1 220 18:39 01.01.2020
5176 Fog -1 1030 92 200 3.6 220 18:20 01.01.2020
5177 Fog -1 1030 92 200 3.6 220 17:59 01.01.2020
5178 Fog -1 1030 92 200 3.6 220 17:40 01.01.2020
5179 Fog 0 1030 100 100 3.1 220 17:20 01.01.2020
5180 Fog 0 1030 100 100 3.1 220 16:58 01.01.2020
5181 Fog 0 1030 100 100 3.1 220 16:38 01.01.2020
5182 Fog 0 1030 100 100 3.1 220 16:38 01.01.2020
5183 Fog 0 1030 100 100 2.1 200 16:19 01.01.2020
5184 Fog 0 1030 100 100 2.1 200 15:57 01.01.2020
5185 Fog 0 1030 100 100 2.1 200 15:57 01.01.2020
5186 Fog -1 1030 100 100 2.1 200 15:37 01.01.2020
5187 Fog 0 1031 82 200 1 200 15:19 01.01.2020
5188 Fog 0 1031 82 200 1 200 14:56 01.01.2020
5189 Fog 0 1031 82 200 1 200 14:37 01.01.2020
5190 Fog 0 1031 85 150 2.1 200 14:19 01.01.2020
5191 Fog 0 1031 85 150 2.1 200 13:55 01.01.2020
5192 Fog 0 1031 85 150 2.1 200 13:36 01.01.2020
5193 Fog 0 1032 85 200 2.1 230 13:18 01.01.2020
5194 Fog 0 1032 85 200 2.1 230 12:40 01.01.2020
5195 Fog 0 1033 85 200 2.1 210 12:20 01.01.2020
5196 Fog 0 1033 85 200 2.1 210 11:57 01.01.2020
5197 Fog 0 1033 85 200 2.1 210 11:57 01.01.2020
5198 Fog 0 1033 85 200 2.1 210 11:39 01.01.2020
5199 Fog 0 1033 86 200 3.6 220 11:20 01.01.2020
5200 Fog 0 1033 86 200 3.6 220 10:55 01.01.2020
5201 Fog 0 1033 86 200 3.6 220 10:37 01.01.2020
5202 Fog 0 1033 100 200 2.6 240 10:18 01.01.2020
5203 Fog 0 1033 100 200 2.6 240 09:40 01.01.2020
5204 Fog 0 1033 100 200 2.6 230 09:20 01.01.2020
5205 Fog 0 1033 100 200 2.6 230 08:57 01.01.2020
5206 Fog 0 1033 100 200 2.6 230 08:57 01.01.2020
5207 Fog 0 1033 100 200 2.6 230 08:38 01.01.2020
5208 Fog 1 1033 84 300 2.1 230 08:19 01.01.2020
5209 Fog 1 1033 84 300 2.1 230 07:57 01.01.2020
5210 Fog 1 1033 84 300 2.1 230 07:38 01.01.2020
5211 Mist 1 1033 84 1500 2.6 220 06:55 01.01.2020
5212 Mist 1 1033 84 1500 2.6 220 06:36 01.01.2020
5213 Mist 1 1033 84 2500 2.6 220 05:48 01.01.2020
5214 Clouds 2 1033 86 9000 2.1 230 04:20 01.01.2020
5215 Clouds 3 1033 86 9000 2.1 230 03:39 01.01.2020
5216 Clouds 3 1033 93 9000 2.1 260 03:21 01.01.2020
5217 Clouds 5 1033 93 9000 2.1 260 02:41 01.01.2020
5218 Clouds 4 1034 86 9000 1.5 260 02:22 01.01.2020
5219 Clouds 5 1034 86 9000 1.5 260 01:41 01.01.2020
5220 Clouds 5 1034 86 10000 1.5 260 01:22 01.01.2020
5221 Clouds 5 1034 86 10000 1.5 260 00:45 01.01.2020
5222 Clouds 5 1035 86 10000 1 0 00:26 01.01.2020
5223 Clouds 5 1035 86 10000 1 0 23:56 31.12.2019
5224 Clouds 5 1035 86 10000 1 0 23:36 31.12.2019
5225 Clouds 4 1034 93 10000 1.5 240 23:18 31.12.2019
5226 Clouds 4 1034 93 10000 1.5 240 22:55 31.12.2019
5227 Clouds 4 1034 93 10000 1.5 240 22:36 31.12.2019
5228 Clouds 5 1034 80 10000 2.6 280 22:18 31.12.2019
5229 Clouds 5 1034 80 10000 2.6 280 21:42 31.12.2019
5230 Clouds 4 1034 86 10000 2.1 250 21:24 31.12.2019
5231 Clouds 4 1034 86 10000 2.1 250 20:57 31.12.2019
5232 Clouds 5 1034 86 10000 2.1 250 20:38 31.12.2019
5233 Clouds 5 1034 86 10000 2.1 300 20:20 31.12.2019
5234 Clouds 5 1034 86 10000 2.1 300 19:55 31.12.2019
5235 Clouds 6 1034 86 10000 2.1 300 19:37 31.12.2019
5236 Clouds 6 1033 80 10000 3.1 320 19:18 31.12.2019
5237 Clouds 6 1033 80 10000 3.1 320 18:55 31.12.2019
5238 Clouds 6 1033 80 10000 3.1 320 18:37 31.12.2019
5239 Clouds 6 1033 81 10000 3.6 330 18:19 31.12.2019
5240 Clouds 6 1033 81 10000 3.6 330 17:55 31.12.2019
5241 Clouds 6 1033 81 10000 3.6 330 17:36 31.12.2019
5242 Clouds 6 1033 81 10000 3.6 330 17:36 31.12.2019
5243 Clouds 6 1033 80 10000 3.6 310 17:18 31.12.2019
5244 Clouds 6 1033 81 10000 4.1 320 16:56 31.12.2019
5245 Clouds 7 1032 75 10000 4.6 320 16:37 31.12.2019
5246 Clouds 7 1032 75 10000 4.6 320 16:18 31.12.2019
5247 Clouds 7 1032 75 10000 4.6 320 15:56 31.12.2019
5248 Clouds 8 1032 75 10000 4.6 320 15:37 31.12.2019
5249 Clouds 8 1032 75 10000 4.6 300 15:19 31.12.2019
5250 Clouds 8 1032 75 10000 4.6 300 14:55 31.12.2019
5251 Clouds 8 1032 75 10000 4.6 300 14:37 31.12.2019
5252 Clouds 8 1031 75 9000 6.7 310 14:18 31.12.2019
5253 Clouds 8 1031 75 9000 6.7 310 13:56 31.12.2019
5254 Clouds 8 1031 75 9000 6.7 310 13:37 31.12.2019
5255 Clouds 8 1031 87 9000 6.7 300 13:19 31.12.2019
5256 Clouds 8 1031 87 9000 6.7 300 12:55 31.12.2019
5257 Clouds 8 1031 87 9000 6.7 300 12:37 31.12.2019
5258 Clouds 8 1030 81 10000 6.7 300 12:18 31.12.2019
5259 Clouds 8 1030 81 10000 6.7 300 11:55 31.12.2019
5260 Clouds 7 1030 81 10000 6.7 300 11:36 31.12.2019
5261 Clouds 7 1030 87 10000 6.2 300 11:18 31.12.2019
5262 Clouds 7 1030 87 10000 6.2 300 10:55 31.12.2019
5263 Clouds 7 1030 87 10000 6.2 300 10:37 31.12.2019
5264 Clouds 7 1029 87 10000 6.2 310 10:19 31.12.2019
5265 Clouds 7 1029 87 10000 6.2 310 09:56 31.12.2019
5266 Clouds 7 1029 87 10000 6.2 310 09:38 31.12.2019
5267 Clouds 7 1028 81 10000 6.2 320 09:18 31.12.2019
5268 Clouds 7 1028 81 10000 6.2 320 09:18 31.12.2019
5269 Clouds 8 1028 81 10000 6.2 320 08:42 31.12.2019
5270 Clouds 7 1028 86 10000 4.1 310 08:23 31.12.2019
5271 Clouds 7 1028 87 10000 4.6 320 07:57 31.12.2019
5272 Clouds 7 1028 87 10000 4.6 320 07:38 31.12.2019
5273 Clouds 7 1027 81 10000 6.2 320 07:18 31.12.2019
5274 Clouds 7 1027 81 10000 6.2 320 06:40 31.12.2019
5275 Clouds 7 1025 87 10000 6.7 320 05:28 31.12.2019
5276 Clouds 7 1024 93 10000 6.7 310 04:25 31.12.2019
5277 Mist 7 1024 93 5000 6.2 300 03:24 31.12.2019
5278 Drizzle 7 1023 93 2000 6.7 300 02:36 31.12.2019
5279 Drizzle 7 1023 93 1700 7.7 290 01:51 31.12.2019
5280 Drizzle 7 1023 93 1700 7.7 290 01:32 31.12.2019
5281 Mist 6 1023 93 2800 5.7 270 00:56 31.12.2019
5282 Mist 6 1023 93 2800 5.7 270 00:37 31.12.2019
5283 Clouds 6 1022 93 10000 6.7 260 00:18 31.12.2019
5284 Clouds 6 1023 86 10000 6.2 260 23:55 30.12.2019
5285 Clouds 5 1023 86 10000 6.2 260 23:37 30.12.2019
5286 Clouds 5 1022 80 10000 6.7 260 23:18 30.12.2019
5287 Clouds 5 1022 80 10000 6.7 260 22:55 30.12.2019
5288 Clouds 4 1022 80 10000 6.7 260 22:37 30.12.2019
5289 Clouds 5 1022 75 10000 6.7 260 22:18 30.12.2019
5290 Clouds 5 1022 89 10000 6.7 260 21:55 30.12.2019
5291 Clouds 5 1022 89 10000 6.7 260 21:37 30.12.2019
5292 Clouds 5 1022 65 10000 7.7 260 21:18 30.12.2019
5293 Clear 5 1022 64 10000 5.1 250 20:55 30.12.2019
5294 Clear 5 1022 64 10000 5.1 250 20:55 30.12.2019
5295 Clear 5 1022 64 10000 5.1 250 20:37 30.12.2019
5296 Clear 5 1022 64 10000 5.1 240 20:18 30.12.2019
5297 Clear 5 1022 64 10000 5.1 240 19:55 30.12.2019
5298 Clear 5 1022 64 10000 5.1 240 19:36 30.12.2019
5299 Clear 5 1022 60 10000 5.1 240 19:18 30.12.2019
5300 Clear 5 1022 60 10000 5.1 240 18:42 30.12.2019
5301 Clear 6 1022 52 10000 6.2 230 18:21 30.12.2019
5302 Clear 6 1022 52 10000 6.2 230 17:59 30.12.2019
5303 Clear 6 1022 52 10000 6.2 230 17:41 30.12.2019
5304 Clouds 6 1023 52 10000 6.2 240 17:20 30.12.2019
5305 Clouds 6 1023 52 10000 6.2 240 17:00 30.12.2019
5306 Clouds 7 1023 52 10000 6.2 240 16:40 30.12.2019
5307 Clouds 7 1023 52 10000 5.1 240 16:20 30.12.2019
5308 Clouds 7 1023 52 10000 5.1 240 15:57 30.12.2019
5309 Clouds 7 1023 52 10000 5.1 240 15:39 30.12.2019
5310 Clouds 7 1023 45 10000 6.7 250 15:19 30.12.2019
5311 Clouds 7 1023 45 10000 6.7 250 15:19 30.12.2019
5312 Clouds 7 1023 45 10000 6.7 250 14:55 30.12.2019
5313 Clouds 8 1023 45 10000 6.7 250 14:37 30.12.2019
5314 Clouds 8 1023 45 10000 6.7 250 14:37 30.12.2019
5315 Clouds 7 1024 48 10000 6.7 240 14:18 30.12.2019
5316 Clouds 7 1024 48 10000 6.7 240 13:42 30.12.2019
5317 Clouds 7 1024 48 10000 6.7 240 13:24 30.12.2019
5318 Clouds 7 1024 48 10000 6.7 240 13:24 30.12.2019
5319 Clouds 7 1024 48 10000 6.7 240 12:59 30.12.2019
5320 Clouds 6 1024 48 10000 6.7 240 12:41 30.12.2019
5321 Clouds 6 1025 48 10000 6.2 240 12:19 30.12.2019
5322 Clouds 6 1025 48 10000 6.2 240 11:56 30.12.2019
5323 Clouds 5 1025 48 10000 6.2 240 11:38 30.12.2019
5324 Clouds 5 1025 48 10000 6.2 230 11:18 30.12.2019
5325 Clouds 5 1025 48 10000 6.2 230 10:43 30.12.2019
5326 Clouds 5 1025 48 10000 5.7 240 10:21 30.12.2019
5327 Clouds 5 1025 48 10000 5.7 240 09:55 30.12.2019
5328 Clouds 5 1025 48 10000 5.7 240 09:37 30.12.2019
5329 Clouds 5 1026 48 10000 6.2 230 09:18 30.12.2019
5330 Clouds 6 1026 48 10000 6.2 230 08:46 30.12.2019
5331 Clouds 6 1026 48 10000 6.7 230 08:23 30.12.2019
5332 Clouds 6 1026 48 10000 6.7 230 07:53 30.12.2019
5333 Clouds 6 1026 48 10000 6.7 230 07:33 30.12.2019
5334 Clouds 5 1027 48 10000 5.7 230 06:50 30.12.2019
5335 Clouds 5 1028 51 10000 6.2 230 04:50 30.12.2019
5336 Clouds 5 1028 55 10000 6.7 230 03:52 30.12.2019
5337 Clouds 4 1029 55 10000 6.2 230 02:50 30.12.2019
5338 Clouds 4 1029 55 10000 6.2 230 02:32 30.12.2019
5339 Clouds 4 1029 51 10000 5.7 240 01:50 30.12.2019
5340 Clouds 4 1029 51 10000 6.7 230 01:20 30.12.2019
5341 Clouds 4 1029 51 10000 6.7 230 00:43 30.12.2019
5342 Clouds 4 1030 48 10000 6.7 230 23:59 29.12.2019
5343 Clouds 4 1030 48 10000 6.7 230 23:39 29.12.2019
5344 Clouds 4 1030 51 10000 7.2 230 23:21 29.12.2019
5345 Clouds 4 1030 51 10000 7.2 230 22:42 29.12.2019
5346 Clouds 3 1031 59 10000 6.2 220 22:22 29.12.2019
5347 Clouds 3 1031 59 10000 6.2 220 22:22 29.12.2019
5348 Clouds 3 1031 59 10000 6.2 220 21:58 29.12.2019
5349 Clouds 3 1031 59 10000 6.2 220 21:40 29.12.2019
5350 Clouds 3 1032 59 10000 6.7 230 21:20 29.12.2019
5351 Clouds 3 1032 59 10000 6.7 230 20:57 29.12.2019
5352 Clouds 3 1032 59 10000 6.7 230 20:38 29.12.2019
5353 Clouds 3 1031 64 10000 6.7 220 20:20 29.12.2019
5354 Clouds 3 1031 64 10000 6.7 220 19:58 29.12.2019
5355 Clouds 3 1031 64 10000 6.7 220 19:39 29.12.2019
5356 Clouds 3 1033 69 10000 5.1 220 19:20 29.12.2019
5357 Clouds 3 1033 69 10000 5.1 220 18:57 29.12.2019
5358 Clouds 3 1033 69 10000 5.1 220 18:38 29.12.2019
5359 Clouds 3 1033 69 10000 5.1 220 18:38 29.12.2019
5360 Clouds 3 1033 74 10000 3.6 220 18:19 29.12.2019
5361 Clouds 3 1033 74 10000 3.6 220 17:57 29.12.2019
5362 Clouds 3 1033 74 10000 3.6 220 17:57 29.12.2019
5363 Clouds 3 1033 74 10000 3.6 220 17:39 29.12.2019
5364 Clouds 3 1033 74 10000 4.1 210 17:20 29.12.2019
5365 Clouds 3 1033 74 10000 4.1 210 16:56 29.12.2019
5366 Clouds 3 1033 74 10000 4.1 210 16:37 29.12.2019
5367 Clouds 2 1033 74 10000 5.1 200 16:19 29.12.2019
5368 Clouds 2 1033 74 10000 5.1 200 15:57 29.12.2019
5369 Clouds 3 1033 74 10000 5.1 200 15:39 29.12.2019
5370 Clouds 2 1034 74 10000 4.6 230 15:20 29.12.2019
5371 Clouds 2 1034 74 10000 4.6 230 14:57 29.12.2019
5372 Clouds 3 1034 74 10000 4.6 230 14:38 29.12.2019
5373 Clouds 2 1034 74 10000 4.6 220 14:18 29.12.2019
5374 Clouds 2 1034 74 10000 4.6 220 13:57 29.12.2019
5375 Clouds 2 1034 74 10000 4.6 220 13:57 29.12.2019
5376 Clouds 3 1034 74 10000 4.6 220 13:38 29.12.2019
5377 Clouds 2 1035 80 10000 4.6 230 13:19 29.12.2019
5378 Clouds 2 1035 80 10000 4.6 230 12:45 29.12.2019
5379 Clouds 2 1036 80 10000 5.1 220 12:27 29.12.2019
5380 Clouds 2 1036 80 10000 5.1 220 11:57 29.12.2019
5381 Clouds 1 1036 80 10000 5.1 220 11:38 29.12.2019
5382 Clouds 1 1036 74 10000 5.7 220 11:20 29.12.2019
5383 Clouds 1 1036 74 10000 5.7 220 10:43 29.12.2019
5384 Clouds 0 1036 76 10000 4.6 230 10:25 29.12.2019
5385 Clouds 0 1036 76 10000 4.6 230 09:58 29.12.2019
5386 Clouds 0 1036 76 10000 4.6 230 09:39 29.12.2019
5387 Clouds 0 1037 76 10000 4.1 220 09:21 29.12.2019
5388 Clouds 0 1037 76 10000 4.1 220 08:48 29.12.2019
5389 Clouds 0 1037 75 10000 4.1 210 08:28 29.12.2019
5390 Clouds 0 1037 76 10000 4.1 210 07:56 29.12.2019
5391 Clouds 0 1037 86 10000 3.6 210 07:28 29.12.2019
5392 Clouds 0 1037 86 10000 3.6 210 06:56 29.12.2019
5393 Clouds 0 1037 86 10000 2.6 200 06:26 29.12.2019
5394 Clouds 0 1037 86 10000 2.6 200 05:53 29.12.2019
5395 Clouds 0 1038 86 10000 2.6 190 04:36 29.12.2019
5396 Clouds 0 1038 86 10000 2.6 190 03:58 29.12.2019
5397 Clouds 0 1038 86 10000 3.1 210 03:21 29.12.2019
5398 Clouds 0 1039 79 10000 3.1 190 02:21 29.12.2019
5399 Clouds 0 1039 79 10000 3.1 190 01:40 29.12.2019
5400 Clouds 0 1038 79 10000 2.6 190 01:21 29.12.2019
5401 Clouds 0 1038 79 10000 2.6 190 00:42 29.12.2019
5402 Clouds 0 1039 79 10000 4.1 170 00:23 29.12.2019
5403 Clouds 0 1039 79 10000 4.1 170 00:23 29.12.2019
5404 Clouds 1 1039 79 10000 4.1 170 23:44 28.12.2019
5405 Clouds 1 1040 81 10000 3.1 180 23:18 28.12.2019
5406 Clouds 1 1040 81 10000 3.1 180 23:18 28.12.2019
5407 Clouds 0 1040 81 10000 3.1 180 22:39 28.12.2019
5408 Clouds 0 1040 81 10000 3.6 170 22:21 28.12.2019
5409 Clouds 0 1040 81 10000 3.6 170 21:58 28.12.2019
5410 Clouds 0 1040 81 10000 3.6 170 21:40 28.12.2019
5411 Clouds 0 1040 81 10000 4.1 170 21:22 28.12.2019
5412 Clouds 0 1040 81 10000 4.1 170 20:59 28.12.2019
5413 Clouds 1 1040 81 10000 4.1 170 20:38 28.12.2019
5414 Clouds 1 1040 78 10000 4.1 170 20:20 28.12.2019
5415 Clouds 1 1040 78 10000 4.1 170 19:58 28.12.2019
5416 Clouds 1 1040 78 10000 4.1 170 19:39 28.12.2019
5417 Clouds 1 1040 78 10000 3.1 160 19:21 28.12.2019
5418 Clouds 1 1040 78 10000 3.1 160 18:58 28.12.2019
5419 Clouds 1 1040 78 10000 3.1 160 18:40 28.12.2019
5420 Clouds 1 1040 78 10000 3.6 160 18:19 28.12.2019
5421 Clouds 1 1040 78 10000 3.6 160 17:56 28.12.2019
5422 Clouds 1 1040 78 10000 3.6 160 17:38 28.12.2019
5423 Clouds 1 1040 78 10000 3.1 150 17:18 28.12.2019
5424 Clouds 1 1040 78 10000 3.1 150 16:46 28.12.2019
5425 Clouds 1 1041 78 10000 3.1 140 16:26 28.12.2019
5426 Clouds 1 1041 78 10000 3.1 140 15:57 28.12.2019
5427 Clouds 1 1041 78 10000 3.1 140 15:39 28.12.2019
5428 Clouds 1 1041 78 10000 1.5 140 15:19 28.12.2019
5429 Clouds 1 1041 78 10000 1.5 140 14:44 28.12.2019
5430 Clouds 1 1041 78 10000 1 140 14:24 28.12.2019
5431 Clouds 1 1041 79 10000 1 140 13:57 28.12.2019
5432 Clouds 1 1041 79 10000 1 140 13:38 28.12.2019
5433 Clouds 1 1041 79 10000 2.6 150 13:19 28.12.2019
5434 Clouds 1 1041 79 10000 2.6 150 13:19 28.12.2019
5435 Clouds 1 1041 79 10000 2.6 150 12:43 28.12.2019
5436 Clouds 0 1042 86 10000 2.1 150 12:24 28.12.2019
5437 Clouds 0 1042 86 10000 2.1 150 12:24 28.12.2019
5438 Clouds 0 1042 86 10000 2.1 150 11:57 28.12.2019
5439 Clouds 0 1042 86 10000 2.1 150 11:39 28.12.2019
5440 Clouds 0 1042 86 10000 2.6 150 11:20 28.12.2019
5441 Clouds 0 1042 86 10000 2.6 150 10:46 28.12.2019
5442 Clouds 0 1042 86 10000 2.6 150 10:46 28.12.2019
5443 Clouds -1 1041 92 10000 2.6 140 10:22 28.12.2019
5444 Clouds -1 1041 92 10000 2.6 140 10:22 28.12.2019
5445 Clouds -1 1041 92 10000 2.6 140 10:22 28.12.2019
5446 Clouds -1 1041 92 10000 2.6 140 10:22 28.12.2019
5447 Clouds -1 1041 92 10000 2.6 140 09:58 28.12.2019
5448 Clouds -1 1041 92 10000 2.6 140 09:40 28.12.2019
5449 Clouds -1 1041 86 10000 2.1 150 09:20 28.12.2019
5450 Clouds -1 1041 86 10000 2.1 150 09:20 28.12.2019
5451 Clouds -1 1041 86 10000 2.1 150 08:44 28.12.2019
5452 Clouds -1 1041 92 10000 2.1 140 08:26 28.12.2019
5453 Clouds -1 1041 92 10000 2.1 140 07:55 28.12.2019
5454 Clouds -1 1041 92 10000 1.5 140 07:32 28.12.2019
5455 Clouds -1 1041 92 10000 1.5 140 06:42 28.12.2019
5456 Clouds 0 1041 92 10000 1.5 130 05:19 28.12.2019
5457 Clouds 1 1040 92 10000 1.5 130 03:47 28.12.2019
5458 Clouds 1 1040 92 10000 1.5 130 02:49 28.12.2019
5459 Clouds 0 1040 92 10000 4.54 138 02:19 28.12.2019
5460 Clouds 1 1040 92 10000 4.54 138 01:42 28.12.2019
5461 Clouds 0 1039 92 10000 0.5 0 01:18 28.12.2019
5462 Clouds 1 1039 92 10000 0.5 0 00:40 28.12.2019
5463 Clouds 0 1039 86 10000 1 160 00:21 28.12.2019
5464 Clouds 1 1039 86 10000 1 160 23:45 27.12.2019
5465 Clouds 0 1038 86 10000 0.5 0 23:20 27.12.2019
5466 Clouds 0 1038 86 10000 0.5 0 22:58 27.12.2019
5467 Clouds 0 1038 86 10000 0.5 0 22:39 27.12.2019
5468 Clouds 0 1038 68 10000 1.5 130 22:20 27.12.2019
5469 Clouds 0 1038 68 10000 1.5 130 22:20 27.12.2019
5470 Clouds 0 1038 68 10000 1.5 130 21:59 27.12.2019
5471 Clouds 2 1038 68 10000 1.5 130 21:40 27.12.2019
5472 Clouds 2 1037 74 10000 2.6 110 21:22 27.12.2019
5473 Clouds 3 1037 74 10000 2.6 110 20:42 27.12.2019
5474 Clouds 2 1037 80 10000 2.6 80 20:23 27.12.2019
5475 Clouds 2 1037 80 10000 2.6 80 19:55 27.12.2019
5476 Clouds 3 1037 80 10000 2.6 80 19:36 27.12.2019
5477 Clouds 2 1037 80 10000 2.1 90 19:18 27.12.2019
5478 Clouds 2 1037 80 10000 2.1 90 19:18 27.12.2019
5479 Clouds 2 1037 80 10000 2.1 90 19:18 27.12.2019
5480 Clouds 3 1036 72 10000 1 50 18:41 27.12.2019
5481 Clouds 2 1036 80 10000 1 10 18:23 27.12.2019
5482 Clouds 2 1036 80 10000 1 10 17:59 27.12.2019
5483 Clouds 3 1036 80 10000 1 10 17:41 27.12.2019
5484 Clouds 3 1035 74 10000 0.5 0 17:20 27.12.2019
5485 Clouds 3 1035 74 10000 0.5 0 16:59 27.12.2019
5486 Clouds 3 1035 74 10000 0.5 0 16:59 27.12.2019
5487 Clouds 3 1035 74 10000 0.5 0 16:59 27.12.2019
5488 Clouds 3 1035 74 10000 0.5 0 16:39 27.12.2019
5489 Clouds 3 1033 74 10000 2.1 110 16:21 27.12.2019
5490 Clouds 3 1033 74 10000 2.1 110 15:56 27.12.2019
5491 Clouds 3 1033 74 10000 2.1 110 15:37 27.12.2019
5492 Clouds 3 1033 74 10000 2.6 110 15:18 27.12.2019
5493 Clouds 3 1033 74 10000 2.6 110 14:55 27.12.2019
5494 Clouds 3 1033 74 10000 2.6 110 14:36 27.12.2019
5495 Clouds 2 1032 80 10000 2.1 110 14:18 27.12.2019
5496 Clouds 3 1032 74 10000 3.1 100 13:43 27.12.2019
5497 Clouds 3 1032 80 10000 3.6 100 13:22 27.12.2019
5498 Clouds 3 1032 80 10000 3.6 100 12:48 27.12.2019
5499 Clouds 3 1031 78 10000 4.1 70 12:29 27.12.2019
5500 Clouds 3 1031 78 10000 4.1 70 11:59 27.12.2019
5501 Clouds 3 1031 78 10000 4.1 70 11:41 27.12.2019
5502 Clouds 2 1031 86 10000 5.1 60 11:20 27.12.2019
5503 Clouds 3 1031 86 10000 5.1 60 10:46 27.12.2019
5504 Clouds 2 1029 86 10000 3.1 80 10:24 27.12.2019
5505 Clouds 2 1029 86 10000 3.1 80 09:57 27.12.2019
5506 Clouds 3 1029 86 10000 3.1 80 09:37 27.12.2019
5507 Clouds 3 1028 84 10000 2.6 80 09:19 27.12.2019
5508 Clouds 4 1028 84 10000 2.6 80 08:46 27.12.2019
5509 Clouds 4 1027 86 10000 3.1 90 08:27 27.12.2019
5510 Clouds 4 1027 86 10000 3.1 90 07:41 27.12.2019
5511 Clouds 4 1026 93 8000 2.6 80 07:22 27.12.2019
5512 Mist 3 1026 100 4500 3.1 80 06:27 27.12.2019
5513 Mist 3 1025 100 4000 1.5 70 04:48 27.12.2019
5514 Mist 2 1023 100 2500 1.5 140 02:29 27.12.2019
5515 Mist 2 1023 100 3500 2.1 130 01:48 27.12.2019
5516 Fog 1 1023 100 200 1.5 110 01:23 27.12.2019
5517 Fog 3 1023 83 200 2.1 100 00:52 27.12.2019
5518 Fog 3 1023 83 200 2.1 100 00:34 27.12.2019
5519 Fog 2 1023 83 800 1 120 23:57 26.12.2019
5520 Fog 2 1023 83 800 1 120 23:38 26.12.2019
5521 Fog 2 1023 83 1500 0.5 110 23:20 26.12.2019
5522 Fog 3 1023 100 600 1 80 22:42 26.12.2019
5523 Fog 3 1023 93 1500 0.5 0 22:21 26.12.2019
5524 Fog 3 1023 93 10000 1 200 21:56 26.12.2019
5525 Fog 4 1023 93 10000 1 200 21:37 26.12.2019
5526 Clouds 4 1023 93 10000 0.5 210 21:19 26.12.2019
5527 Clouds 4 1023 93 10000 0.5 210 20:44 26.12.2019
5528 Clouds 4 1023 93 10000 1.5 0 20:22 26.12.2019
5529 Clouds 4 1023 93 10000 1.5 0 19:58 26.12.2019
5530 Clouds 4 1023 93 10000 1.5 0 19:39 26.12.2019
5531 Clouds 4 1023 93 10000 2.1 220 19:20 26.12.2019
5532 Clouds 4 1023 93 10000 2.1 220 18:57 26.12.2019
5533 Clouds 4 1023 93 10000 2.1 220 18:38 26.12.2019
5534 Clouds 4 1022 86 10000 2.6 220 18:19 26.12.2019
5535 Clouds 5 1022 86 10000 2.6 220 17:42 26.12.2019
5536 Clouds 5 1022 86 10000 1.5 210 17:22 26.12.2019
5537 Clouds 5 1022 86 10000 1.5 210 16:58 26.12.2019
5538 Clouds 6 1022 86 10000 1.5 210 16:40 26.12.2019
5539 Clouds 6 1022 86 10000 1.5 240 16:21 26.12.2019
5540 Clouds 5 1022 86 10000 1.5 240 15:41 26.12.2019
5541 Clouds 5 1022 93 10000 1.5 250 15:21 26.12.2019
5542 Clouds 5 1022 93 10000 1.5 250 14:59 26.12.2019
5543 Clouds 6 1022 93 10000 1.5 250 14:39 26.12.2019
5544 Clouds 6 1023 87 10000 2.1 240 14:20 26.12.2019
5545 Clouds 6 1023 87 10000 2.1 240 13:43 26.12.2019
5546 Clouds 6 1023 87 10000 2.1 260 13:21 26.12.2019
5547 Clouds 6 1023 87 10000 2.1 260 12:58 26.12.2019
5548 Clouds 7 1023 87 10000 2.1 260 12:38 26.12.2019
5549 Drizzle 7 1023 87 10000 2.1 260 12:19 26.12.2019
5550 Rain 6 1023 93 10000 2.6 270 11:57 26.12.2019
5551 Rain 5 1023 93 10000 2.6 270 11:38 26.12.2019
5552 Rain 5 1023 93 10000 3.1 260 11:19 26.12.2019
5553 Rain 5 1023 93 10000 3.1 260 10:42 26.12.2019
5554 Rain 5 1023 93 10000 2.1 250 10:18 26.12.2019
5555 Rain 5 1023 93 10000 2.1 250 09:49 26.12.2019
5556 Rain 5 1023 86 10000 3.1 260 09:31 26.12.2019
5557 Rain 5 1023 86 10000 3.1 260 08:43 26.12.2019
5558 Clouds 5 1023 93 10000 2.1 270 08:24 26.12.2019
5559 Clouds 6 1023 93 10000 2.1 270 07:53 26.12.2019
5560 Clouds 6 1023 93 10000 2.6 270 07:28 26.12.2019
5561 Clouds 6 1023 93 10000 2.6 270 06:54 26.12.2019
5562 Clouds 6 1023 93 10000 2.6 270 06:32 26.12.2019
5563 Clouds 6 1022 93 10000 3.1 280 05:45 26.12.2019
5564 Rain 6 1023 93 10000 3.6 290 04:59 26.12.2019
5565 Rain 6 1023 87 10000 3.6 270 04:30 26.12.2019
5566 Clouds 6 1023 93 10000 4.1 280 02:58 26.12.2019
5567 Clouds 6 1023 93 10000 4.1 280 02:34 26.12.2019
5568 Rain 6 1023 87 10000 5.1 280 01:51 26.12.2019
5569 Clouds 6 1022 87 10000 4.1 270 01:33 26.12.2019
5570 Clouds 6 1022 87 10000 4.1 270 00:50 26.12.2019
5571 Clouds 6 1022 87 10000 3.1 270 00:27 26.12.2019
5572 Clouds 6 1022 87 10000 3.1 270 23:59 25.12.2019
5573 Clouds 6 1022 87 10000 3.1 270 23:40 25.12.2019
5574 Clouds 6 1022 87 10000 3.1 280 23:21 25.12.2019
5575 Clouds 6 1022 87 10000 3.1 280 22:59 25.12.2019
5576 Clouds 6 1022 87 10000 3.1 280 22:40 25.12.2019
5577 Clouds 6 1021 93 10000 2.6 270 22:22 25.12.2019
5578 Clouds 6 1021 93 10000 2.6 270 21:59 25.12.2019
5579 Clouds 6 1021 93 10000 2.6 270 21:40 25.12.2019
5580 Clouds 6 1021 87 10000 2.1 270 21:21 25.12.2019
5581 Clouds 6 1021 87 10000 2.1 270 20:57 25.12.2019
5582 Clouds 6 1021 87 10000 2.1 270 20:39 25.12.2019
5583 Clouds 6 1021 87 10000 2.6 290 20:18 25.12.2019
5584 Clouds 6 1021 87 10000 2.6 290 20:18 25.12.2019
5585 Clouds 6 1021 87 10000 2.6 290 19:43 25.12.2019
5586 Clouds 6 1021 87 10000 3.1 280 19:25 25.12.2019
5587 Clouds 6 1021 87 10000 3.1 280 18:59 25.12.2019
5588 Clouds 6 1021 87 10000 3.1 280 18:38 25.12.2019
5589 Clouds 6 1020 87 10000 2.1 300 18:19 25.12.2019
5590 Clouds 7 1020 87 10000 2.1 300 17:42 25.12.2019
5591 Clouds 7 1019 87 10000 3.1 330 17:20 25.12.2019
5592 Clouds 7 1019 87 10000 3.1 330 16:59 25.12.2019
5593 Clouds 7 1019 87 10000 3.1 330 16:38 25.12.2019
5594 Rain 7 1019 87 10000 3.6 310 16:19 25.12.2019
5595 Rain 7 1019 87 10000 3.6 310 15:57 25.12.2019
5596 Rain 7 1019 87 10000 3.6 310 15:39 25.12.2019
5597 Clouds 7 1017 81 10000 4.1 330 15:20 25.12.2019
5598 Clouds 7 1017 81 10000 4.1 330 14:58 25.12.2019
5599 Clouds 8 1017 81 10000 4.1 330 14:39 25.12.2019
5600 Clouds 8 1017 81 10000 4.1 330 14:39 25.12.2019
5601 Clouds 8 1017 81 10000 4.1 330 14:39 25.12.2019
5602 Clouds 7 1016 81 10000 5.1 300 14:20 25.12.2019
5603 Clouds 8 1016 81 10000 5.1 300 13:46 25.12.2019
5604 Clouds 7 1016 93 10000 4.1 310 13:22 25.12.2019
5605 Clouds 7 1016 93 10000 4.1 310 12:58 25.12.2019
5606 Clouds 7 1016 93 10000 4.1 310 12:39 25.12.2019
5607 Rain 7 1015 87 10000 4.1 300 12:20 25.12.2019
5608 Rain 7 1015 87 10000 4.1 300 11:54 25.12.2019
5609 Rain 7 1015 87 10000 4.1 300 11:36 25.12.2019
5610 Clouds 6 1014 93 10000 3.1 310 11:18 25.12.2019
5611 Clouds 6 1014 93 10000 3.1 310 10:38 25.12.2019
5612 Clouds 6 1013 93 10000 3.6 290 10:19 25.12.2019
5613 Clouds 6 1013 93 10000 3.6 290 10:19 25.12.2019
5614 Clouds 6 1013 93 10000 3.6 290 09:50 25.12.2019
5615 Clouds 5 1012 100 8000 2.6 280 09:32 25.12.2019
5616 Clouds 5 1012 100 8000 2.6 280 08:51 25.12.2019
5617 Mist 5 1011 100 4000 1.5 280 08:30 25.12.2019
5618 Mist 5 1011 100 4000 1.5 280 07:50 25.12.2019
5619 Mist 5 1011 100 4000 1.5 280 07:32 25.12.2019
5620 Mist 5 1011 100 3000 2.1 260 06:51 25.12.2019
5621 Drizzle 6 1010 93 1500 1.5 260 06:22 25.12.2019
5622 Mist 5 1009 100 2000 1.5 270 05:18 25.12.2019
5623 Mist 5 1009 100 2000 1.5 270 04:39 25.12.2019
5624 Mist 5 1009 100 1000 1.5 270 04:20 25.12.2019
5625 Mist 5 1009 100 1000 1.5 270 03:41 25.12.2019
5626 Fog 5 1009 100 500 1 260 02:53 25.12.2019
5627 Fog 5 1008 100 500 0.5 260 02:20 25.12.2019
5628 Drizzle 5 1007 100 3500 1.5 60 01:25 25.12.2019
5629 Drizzle 5 1007 100 3500 1.5 60 00:54 25.12.2019
5630 Drizzle 5 1007 100 3000 0.5 140 00:32 25.12.2019
5631 Drizzle 5 1007 100 3000 0.5 140 23:57 24.12.2019
5632 Drizzle 5 1007 100 3000 0.5 140 23:38 24.12.2019
5633 Drizzle 5 1006 100 3500 1.5 90 23:20 24.12.2019
5634 Drizzle 5 1006 100 3500 1.5 90 22:41 24.12.2019
5635 Drizzle 5 1006 100 3500 1.5 90 22:41 24.12.2019
5636 Drizzle 5 1006 100 5000 1 60 22:21 24.12.2019
5637 Drizzle 5 1006 100 5000 1 60 21:44 24.12.2019
5638 Drizzle 5 1006 100 5000 1 60 21:44 24.12.2019
5639 Clouds 5 1005 100 10000 2.1 80 21:23 24.12.2019
5640 Clouds 5 1005 100 10000 2.1 80 20:59 24.12.2019
5641 Clouds 5 1005 100 10000 2.1 80 20:40 24.12.2019
5642 Clouds 5 1005 93 10000 2.1 80 20:19 24.12.2019
5643 Clouds 5 1005 93 10000 2.1 80 20:19 24.12.2019
5644 Clouds 5 1005 93 10000 2.1 80 19:45 24.12.2019
5645 Clouds 5 1004 93 10000 1.5 70 19:21 24.12.2019
5646 Rain 5 1004 93 10000 2.1 70 18:58 24.12.2019
5647 Rain 5 1004 93 10000 2.1 70 18:40 24.12.2019
5648 Drizzle 5 1004 93 10000 2.1 60 18:18 24.12.2019
5649 Drizzle 5 1004 93 10000 2.1 60 17:42 24.12.2019
5650 Rain 5 1004 93 10000 2.1 60 17:21 24.12.2019
5651 Rain 5 1004 93 10000 2.1 60 16:57 24.12.2019
5652 Rain 5 1004 93 10000 2.1 60 16:38 24.12.2019
5653 Rain 5 1004 93 10000 0.5 210 16:20 24.12.2019
5654 Rain 5 1004 93 10000 0.5 210 15:56 24.12.2019
5655 Rain 5 1004 93 10000 0.5 210 15:36 24.12.2019
5656 Rain 6 1004 93 5000 2.6 180 15:18 24.12.2019
5657 Rain 6 1004 93 5000 2.6 180 14:57 24.12.2019
5658 Rain 6 1004 93 5000 2.6 180 14:38 24.12.2019
5659 Rain 6 1004 93 5000 2.1 180 14:20 24.12.2019
5660 Rain 6 1004 93 5000 2.1 180 13:55 24.12.2019
5661 Rain 6 1004 93 5000 2.1 180 13:37 24.12.2019
5662 Rain 7 1005 87 6000 3.1 200 13:19 24.12.2019
5663 Rain 7 1005 87 6000 3.1 200 12:55 24.12.2019
5664 Rain 7 1005 87 6000 3.1 200 12:36 24.12.2019
5665 Rain 7 1005 87 6000 3.1 200 12:36 24.12.2019
5666 Rain 7 1005 87 7000 3.1 200 12:18 24.12.2019
5667 Clouds 7 1006 87 8000 3.6 200 11:55 24.12.2019
5668 Clouds 7 1006 87 8000 3.6 200 11:37 24.12.2019
5669 Clouds 7 1006 87 8000 3.1 200 11:19 24.12.2019
5670 Clouds 6 1007 87 7000 3.6 220 10:56 24.12.2019
5671 Clouds 6 1007 87 7000 3.6 220 10:37 24.12.2019
5672 Clouds 6 1007 87 7000 3.6 220 10:37 24.12.2019
5673 Clouds 6 1008 87 7000 4.6 220 10:19 24.12.2019
5674 Clouds 6 1008 87 7000 4.6 220 09:55 24.12.2019
5675 Clouds 6 1008 87 7000 4.6 220 09:37 24.12.2019
5676 Clouds 6 1008 87 7000 5.1 220 09:18 24.12.2019
5677 Clouds 6 1008 87 7000 5.1 220 08:45 24.12.2019
5678 Clouds 6 1008 87 9000 5.7 220 08:21 24.12.2019
5679 Clouds 6 1008 87 9000 5.1 220 07:46 24.12.2019
5680 Clouds 6 1008 87 9000 5.1 220 07:46 24.12.2019
5681 Clouds 6 1009 87 10000 5.1 230 07:26 24.12.2019
5682 Clouds 6 1009 87 10000 5.1 230 06:58 24.12.2019
5683 Clouds 6 1009 87 10000 5.1 230 06:38 24.12.2019
5684 Clouds 6 1009 87 10000 5.1 220 06:19 24.12.2019
5685 Clouds 6 1009 87 10000 5.1 220 05:40 24.12.2019
5686 Clouds 6 1009 87 10000 5.7 230 05:18 24.12.2019
5687 Clouds 7 1009 87 10000 5.1 230 03:50 24.12.2019
5688 Clouds 7 1009 93 10000 4.6 230 03:23 24.12.2019
5689 Clouds 7 1009 93 10000 4.6 240 02:25 24.12.2019
5690 Clouds 7 1009 93 10000 4.6 240 02:25 24.12.2019
5691 Clouds 7 1009 93 10000 4.6 240 01:51 24.12.2019
5692 Clouds 7 1009 93 10000 4.6 240 01:23 24.12.2019
5693 Clouds 7 1009 93 10000 4.6 240 00:46 24.12.2019
5694 Clouds 7 1008 87 10000 4.6 250 00:26 24.12.2019
5695 Clouds 7 1008 87 10000 4.6 250 23:59 23.12.2019
5696 Clouds 7 1008 87 10000 4.6 250 23:59 23.12.2019
5697 Clouds 7 1008 87 10000 4.6 250 23:41 23.12.2019
5698 Clouds 7 1007 87 10000 5.1 250 23:23 23.12.2019
5699 Clouds 7 1007 87 10000 5.1 250 22:56 23.12.2019
5700 Clouds 7 1007 87 10000 5.1 250 22:56 23.12.2019
5701 Clouds 7 1007 87 10000 5.1 250 22:56 23.12.2019
5702 Clouds 7 1007 87 10000 5.1 250 22:37 23.12.2019
5703 Clouds 7 1007 87 10000 5.7 260 22:19 23.12.2019
5704 Clouds 7 1007 87 10000 5.7 260 21:55 23.12.2019
5705 Clouds 7 1007 87 10000 5.7 260 21:36 23.12.2019
5706 Clouds 7 1007 87 10000 5.7 260 21:36 23.12.2019
5707 Clouds 7 1006 87 10000 6.2 260 21:18 23.12.2019
5708 Clouds 7 1006 87 10000 6.2 260 20:57 23.12.2019
5709 Clouds 7 1006 87 10000 6.2 260 20:39 23.12.2019
5710 Clouds 7 1006 87 10000 6.2 260 20:39 23.12.2019
5711 Clouds 7 1006 87 10000 4.6 250 20:18 23.12.2019
5712 Clouds 7 1006 93 10000 4.1 240 19:56 23.12.2019
5713 Clouds 7 1006 93 10000 4.1 240 19:38 23.12.2019
5714 Clouds 7 1005 87 10000 3.6 250 19:19 23.12.2019
5715 Clouds 7 1005 87 10000 5.1 260 18:58 23.12.2019
5716 Clouds 7 1005 87 10000 5.1 260 18:58 23.12.2019
5717 Clouds 7 1005 87 10000 5.1 260 18:38 23.12.2019
5718 Clouds 7 1004 87 10000 4.6 260 18:20 23.12.2019
5719 Clouds 7 1004 87 10000 4.6 260 17:56 23.12.2019
5720 Clouds 7 1004 87 10000 4.6 260 17:38 23.12.2019
5721 Clouds 8 1004 81 10000 6.2 260 17:19 23.12.2019
5722 Clouds 8 1004 81 10000 6.2 260 17:19 23.12.2019
5723 Clouds 8 1004 81 10000 6.2 260 16:55 23.12.2019
5724 Clouds 8 1004 81 10000 6.2 260 16:37 23.12.2019
5725 Clouds 8 1003 81 10000 5.7 270 16:18 23.12.2019
5726 Clouds 8 1003 81 10000 5.7 270 15:55 23.12.2019
5727 Clouds 8 1003 81 10000 5.7 270 15:36 23.12.2019
5728 Rain 7 1002 81 10000 6.2 280 15:18 23.12.2019
5729 Rain 8 1002 81 10000 6.2 280 14:45 23.12.2019
5730 Clouds 7 1001 87 10000 6.7 260 14:26 23.12.2019
5731 Clouds 7 1001 87 10000 6.7 260 13:59 23.12.2019
5732 Clouds 8 1001 87 10000 6.7 260 13:41 23.12.2019
5733 Rain 7 1000 87 8000 7.7 260 13:22 23.12.2019
5734 Rain 7 1000 87 5000 7.2 250 12:59 23.12.2019
5735 Rain 8 1000 87 5000 7.2 250 12:40 23.12.2019
5736 Clouds 7 999 87 10000 5.1 250 12:21 23.12.2019
5737 Clouds 7 999 87 10000 5.1 250 11:56 23.12.2019
5738 Clouds 8 999 87 10000 5.1 250 11:38 23.12.2019
5739 Clouds 7 999 87 10000 5.7 250 11:20 23.12.2019
5740 Clouds 7 999 87 10000 5.7 250 11:20 23.12.2019
5741 Clouds 7 999 87 10000 5.7 250 10:55 23.12.2019
5742 Clouds 7 999 87 10000 5.7 250 10:55 23.12.2019
5743 Clouds 7 999 87 10000 5.7 250 10:37 23.12.2019
5744 Clouds 7 997 81 10000 5.7 250 10:18 23.12.2019
5745 Clouds 7 997 81 10000 5.7 250 09:54 23.12.2019
5746 Clouds 7 997 81 10000 5.7 250 09:36 23.12.2019
5747 Clouds 7 997 87 10000 4.6 250 09:18 23.12.2019
5748 Clouds 7 997 87 10000 4.6 250 08:41 23.12.2019
5749 Clouds 7 995 87 10000 6.2 260 08:22 23.12.2019
5750 Clouds 7 995 87 10000 6.2 260 07:56 23.12.2019
5751 Clouds 7 995 87 10000 6.2 260 07:37 23.12.2019
5752 Clouds 7 995 87 10000 7.7 260 07:18 23.12.2019
5753 Drizzle 7 994 87 8000 7.7 260 06:39 23.12.2019
5754 Clouds 7 994 93 10000 7.7 260 06:21 23.12.2019
5755 Clouds 7 993 87 10000 8.2 260 05:44 23.12.2019
5756 Clouds 7 992 87 10000 7.7 260 04:40 23.12.2019
5757 Clouds 7 991 87 10000 7.7 260 03:58 23.12.2019
5758 Rain 7 990 93 10000 7.2 260 02:47 23.12.2019
5759 Rain 7 989 93 8000 6.2 270 02:19 23.12.2019
5760 Rain 8 989 93 8000 6.2 270 01:50 23.12.2019
5761 Rain 8 989 93 8000 6.2 270 01:31 23.12.2019
5762 Drizzle 7 988 93 3500 2.1 220 00:48 23.12.2019
5763 Drizzle 7 987 93 5000 2.1 150 00:27 23.12.2019
5764 Drizzle 7 987 93 5000 2.1 150 23:57 22.12.2019
5765 Drizzle 7 987 93 5000 2.1 150 23:37 22.12.2019
5766 Drizzle 7 987 93 6000 2.1 160 23:19 22.12.2019
5767 Clouds 7 987 93 8000 2.1 140 22:55 22.12.2019
5768 Clouds 6 987 93 8000 2.1 140 22:37 22.12.2019
5769 Clouds 6 986 93 8000 2.6 140 22:18 22.12.2019
5770 Clouds 6 986 93 8000 2.6 140 21:54 22.12.2019
5771 Clouds 6 986 93 8000 2.6 140 21:36 22.12.2019
5772 Rain 6 986 93 8000 3.1 130 21:18 22.12.2019
5773 Rain 6 986 93 8000 3.1 130 20:40 22.12.2019
5774 Drizzle 6 985 93 6000 3.1 140 20:19 22.12.2019
5775 Drizzle 6 985 93 6000 3.1 140 19:57 22.12.2019
5776 Drizzle 6 985 93 6000 3.1 140 19:39 22.12.2019
5777 Clouds 6 985 87 10000 3.1 140 19:20 22.12.2019
5778 Clouds 6 985 87 10000 3.1 140 18:55 22.12.2019
5779 Clouds 6 985 87 10000 3.1 140 18:37 22.12.2019
5780 Clouds 6 984 87 10000 3.6 130 18:18 22.12.2019
5781 Clouds 6 984 87 10000 3.6 130 17:54 22.12.2019
5782 Clouds 6 984 87 10000 3.6 130 17:36 22.12.2019
5783 Clouds 6 984 93 8000 3.6 130 17:18 22.12.2019
5784 Clouds 7 984 93 8000 3.6 130 16:42 22.12.2019
5785 Drizzle 7 984 93 6000 3.6 130 16:23 22.12.2019
5786 Drizzle 7 984 93 6000 3.6 130 16:23 22.12.2019
5787 Clouds 7 984 87 10000 3.6 130 15:57 22.12.2019
5788 Clouds 6 984 87 10000 3.6 130 15:39 22.12.2019
5789 Clouds 6 984 87 10000 3.1 130 15:21 22.12.2019
5790 Clouds 6 984 87 10000 3.1 130 14:59 22.12.2019
5791 Clouds 7 984 87 10000 3.1 130 14:38 22.12.2019
5792 Clouds 7 984 81 10000 3.6 140 14:19 22.12.2019
5793 Clouds 7 984 81 10000 3.6 140 13:56 22.12.2019
5794 Clouds 7 984 81 10000 3.6 140 13:38 22.12.2019
5795 Clouds 6 984 87 10000 3.6 140 13:19 22.12.2019
5796 Clouds 6 984 87 10000 3.6 140 12:57 22.12.2019
5797 Clouds 6 984 87 10000 3.6 140 12:57 22.12.2019
5798 Clouds 6 984 87 10000 3.6 140 12:38 22.12.2019
5799 Clouds 6 984 87 10000 3.6 140 12:19 22.12.2019
5800 Clouds 6 984 87 10000 3.6 140 12:19 22.12.2019
5801 Clouds 6 984 87 10000 3.6 140 12:19 22.12.2019
5802 Clouds 6 984 87 10000 3.6 140 11:58 22.12.2019
5803 Clouds 6 984 87 10000 3.6 140 11:39 22.12.2019
5804 Clouds 5 984 86 10000 3.1 150 11:20 22.12.2019
5805 Clouds 5 984 86 10000 3.6 140 10:57 22.12.2019
5806 Clouds 5 984 86 10000 3.6 140 10:39 22.12.2019
5807 Clouds 5 984 86 10000 3.1 150 10:19 22.12.2019
5808 Clouds 5 984 86 10000 3.1 150 09:58 22.12.2019
5809 Clouds 5 984 86 10000 3.1 150 09:39 22.12.2019
5810 Rain 5 983 80 10000 3.6 140 09:21 22.12.2019
5811 Rain 5 983 80 10000 3.6 140 08:45 22.12.2019
5812 Clouds 5 983 86 10000 3.6 140 08:23 22.12.2019
5813 Clouds 5 983 86 10000 3.6 140 07:50 22.12.2019
5814 Clouds 5 983 86 10000 3.1 120 07:22 22.12.2019
5815 Clouds 5 983 86 10000 3.1 120 06:57 22.12.2019
5816 Clouds 5 983 86 10000 2.6 120 06:27 22.12.2019
5817 Clouds 5 983 86 10000 2.6 120 05:43 22.12.2019
5818 Clouds 5 984 86 10000 3.6 140 05:21 22.12.2019
5819 Clouds 5 984 86 10000 3.1 110 04:27 22.12.2019
5820 Clouds 5 985 86 10000 3.6 160 03:28 22.12.2019
5821 Clouds 5 985 86 10000 3.6 160 02:35 22.12.2019
5822 Clouds 6 985 86 10000 3.6 150 01:33 22.12.2019
5823 Clouds 6 985 86 10000 3.1 140 00:59 22.12.2019
5824 Clouds 6 985 86 10000 3.1 140 00:41 22.12.2019
5825 Clouds 6 986 81 10000 3.1 160 00:21 22.12.2019
5826 Clouds 6 986 81 10000 3.1 160 23:42 21.12.2019
5827 Clouds 6 986 81 10000 3.6 150 23:24 21.12.2019
5828 Clouds 6 986 81 10000 3.6 150 22:58 21.12.2019
5829 Clouds 7 986 81 10000 3.6 150 22:39 21.12.2019
5830 Clouds 7 987 81 10000 3.1 160 22:19 21.12.2019
5831 Clouds 7 987 81 10000 3.1 160 21:56 21.12.2019
5832 Clouds 7 987 81 10000 3.1 160 21:37 21.12.2019
5833 Clouds 7 987 75 10000 4.6 170 21:19 21.12.2019
5834 Clouds 7 987 75 10000 4.6 170 20:57 21.12.2019
5835 Clouds 7 987 75 10000 4.6 170 20:39 21.12.2019
5836 Clouds 7 987 81 10000 5.1 160 20:21 21.12.2019
5837 Clouds 7 987 81 10000 5.1 160 19:57 21.12.2019
5838 Clouds 8 987 81 10000 5.1 160 19:39 21.12.2019
5839 Clouds 8 987 75 10000 4.6 160 19:19 21.12.2019
5840 Clouds 7 987 75 10000 4.6 160 18:44 21.12.2019
5841 Clouds 8 988 75 10000 4.1 160 18:24 21.12.2019
5842 Clouds 8 988 75 10000 4.1 160 17:57 21.12.2019
5843 Clouds 8 988 75 10000 4.1 160 17:39 21.12.2019
5844 Clouds 8 988 75 10000 4.1 160 17:39 21.12.2019
5845 Clouds 8 988 75 10000 3.6 160 17:21 21.12.2019
5846 Clouds 8 988 75 10000 3.6 160 16:58 21.12.2019
5847 Clouds 9 988 75 10000 3.6 160 16:40 21.12.2019
5848 Clouds 8 989 75 10000 3.1 170 16:18 21.12.2019
5849 Clouds 8 989 75 10000 3.1 170 16:18 21.12.2019
5850 Clouds 8 989 75 10000 3.1 170 15:57 21.12.2019
5851 Clouds 8 989 75 10000 3.1 170 15:57 21.12.2019
5852 Clouds 9 989 75 10000 3.1 170 15:38 21.12.2019
5853 Clouds 9 989 70 10000 3.6 180 15:19 21.12.2019
5854 Clouds 9 989 70 10000 3.6 180 14:56 21.12.2019
5855 Clouds 10 989 70 10000 3.6 180 14:37 21.12.2019
5856 Clouds 10 989 70 10000 3.6 200 14:18 21.12.2019
5857 Clouds 10 989 70 10000 3.6 200 13:55 21.12.2019
5858 Clouds 10 989 70 10000 3.6 200 13:37 21.12.2019
5859 Clouds 9 990 75 10000 3.6 210 13:18 21.12.2019
5860 Clouds 9 990 75 10000 3.6 210 12:54 21.12.2019
5861 Clouds 9 990 75 10000 3.6 210 12:36 21.12.2019
5862 Clouds 8 990 81 10000 3.1 200 12:18 21.12.2019
5863 Clouds 7 990 81 10000 3.1 200 11:41 21.12.2019
5864 Clouds 7 991 81 10000 3.6 200 11:23 21.12.2019
5865 Clouds 7 991 81 10000 3.6 200 10:54 21.12.2019
5866 Clouds 7 991 81 10000 3.6 200 10:36 21.12.2019
5867 Clouds 6 990 87 10000 3.6 200 10:18 21.12.2019
5868 Clouds 6 990 87 10000 3.6 200 09:42 21.12.2019
5869 Clouds 7 990 81 10000 3.6 210 09:21 21.12.2019
5870 Clouds 7 990 81 10000 3.6 210 08:57 21.12.2019
5871 Clouds 7 990 81 10000 3.6 210 08:37 21.12.2019
5872 Clouds 7 990 81 10000 2.6 200 08:18 21.12.2019
5873 Clouds 7 990 81 10000 2.6 200 07:41 21.12.2019
5874 Clouds 7 990 81 10000 3.6 210 07:22 21.12.2019
5875 Clouds 7 990 81 10000 4.6 220 06:44 21.12.2019
5876 Clouds 7 989 81 10000 5.1 230 06:25 21.12.2019
5877 Clouds 8 989 81 10000 5.1 230 05:47 21.12.2019
5878 Clouds 8 989 75 10000 5.1 210 04:58 21.12.2019
5879 Clouds 8 989 75 10000 5.7 210 03:57 21.12.2019
5880 Clouds 8 988 75 10000 5.1 220 02:52 21.12.2019
5881 Clouds 8 988 75 10000 4.1 230 01:59 21.12.2019
5882 Clouds 8 987 81 10000 4.1 230 01:28 21.12.2019
5883 Clouds 8 987 81 10000 4.1 230 00:53 21.12.2019
5884 Clouds 9 987 81 10000 4.1 230 00:33 21.12.2019
5885 Clouds 9 987 81 10000 3.6 230 23:59 20.12.2019
5886 Clouds 9 987 81 10000 3.6 230 23:38 20.12.2019
5887 Drizzle 9 986 87 10000 3.6 220 23:18 20.12.2019
5888 Drizzle 10 986 87 10000 3.6 220 22:41 20.12.2019
5889 Drizzle 10 985 87 10000 4.1 200 22:21 20.12.2019
5890 Drizzle 10 985 87 10000 4.1 200 21:59 20.12.2019
5891 Drizzle 10 985 87 10000 4.1 200 21:40 20.12.2019
5892 Drizzle 10 985 93 10000 3.6 170 21:20 20.12.2019
5893 Drizzle 10 985 93 10000 3.6 170 20:41 20.12.2019
5894 Rain 11 985 66 10000 5.1 170 20:22 20.12.2019
5895 Rain 11 985 66 10000 5.1 170 19:59 20.12.2019
5896 Rain 11 985 66 10000 5.1 170 19:59 20.12.2019
5897 Clouds 11 985 66 10000 4.6 160 19:40 20.12.2019
5898 Clouds 11 985 66 10000 4.6 160 19:20 20.12.2019
5899 Clouds 11 985 66 10000 4.6 160 18:56 20.12.2019
5900 Clouds 11 985 66 10000 4.6 160 18:38 20.12.2019
5901 Clouds 11 985 62 10000 5.7 160 18:20 20.12.2019
5902 Clouds 10 985 61 10000 4.1 140 17:42 20.12.2019
5903 Clouds 10 985 61 10000 4.1 140 17:22 20.12.2019
5904 Clouds 10 985 61 10000 4.1 140 16:59 20.12.2019
5905 Clouds 9 985 66 10000 4.6 130 16:40 20.12.2019
5906 Clouds 9 985 66 10000 4.6 130 16:20 20.12.2019
5907 Clouds 9 985 66 10000 4.1 130 15:57 20.12.2019
5908 Clouds 10 986 61 10000 4.6 130 15:39 20.12.2019
5909 Clouds 10 986 61 10000 4.6 130 15:19 20.12.2019
5910 Clouds 10 986 61 10000 4.6 130 14:58 20.12.2019
5911 Clouds 10 987 61 10000 5.1 140 14:39 20.12.2019
5912 Clouds 10 987 61 10000 5.1 140 14:21 20.12.2019
5913 Clouds 10 987 61 10000 5.1 140 13:42 20.12.2019
5914 Clouds 9 988 70 10000 4.6 140 13:21 20.12.2019
5915 Clouds 9 988 70 10000 4.6 140 12:59 20.12.2019
5916 Clouds 9 988 70 10000 4.6 140 12:41 20.12.2019
5917 Clouds 8 989 75 10000 6.7 130 12:19 20.12.2019
5918 Clouds 8 989 75 10000 6.7 130 11:59 20.12.2019
5919 Clouds 7 990 75 10000 6.7 130 11:40 20.12.2019
5920 Clouds 7 990 75 10000 6.7 130 11:21 20.12.2019
5921 Clouds 7 990 75 10000 6.7 130 10:59 20.12.2019
5922 Clouds 6 990 75 10000 6.7 130 10:41 20.12.2019
5923 Clouds 6 992 75 10000 5.1 130 10:20 20.12.2019
5924 Clouds 6 992 75 10000 5.1 130 09:56 20.12.2019
5925 Clouds 6 993 81 10000 5.7 130 09:38 20.12.2019
5926 Clouds 6 993 81 10000 5.7 130 09:19 20.12.2019
5927 Clouds 6 993 81 10000 5.7 130 08:43 20.12.2019
5928 Clouds 6 994 86 10000 5.1 130 08:24 20.12.2019
5929 Clouds 6 994 86 10000 5.1 130 07:58 20.12.2019
5930 Clouds 6 995 86 10000 5.7 130 07:40 20.12.2019
5931 Clouds 6 995 86 10000 5.7 130 07:19 20.12.2019
5932 Clouds 6 995 86 10000 5.7 130 06:52 20.12.2019
5933 Clouds 6 995 86 10000 5.1 130 06:32 20.12.2019
5934 Clouds 6 995 86 10000 5.1 130 05:53 20.12.2019
5935 Clouds 6 997 86 10000 4.6 120 05:35 20.12.2019
5936 Clouds 6 998 81 10000 4.6 130 04:33 20.12.2019
5937 Clouds 7 999 81 10000 4.1 140 03:30 20.12.2019
5938 Clouds 7 1000 81 10000 4.6 140 02:43 20.12.2019
5939 Clouds 7 1000 81 10000 4.6 140 01:49 20.12.2019
5940 Clouds 7 1000 81 10000 4.6 140 01:49 20.12.2019
5941 Clouds 7 1001 81 10000 3.1 140 01:30 20.12.2019
5942 Clouds 6 1001 81 10000 3.1 140 00:43 20.12.2019
5943 Clouds 7 1002 75 10000 3.1 140 00:25 20.12.2019
5944 Clouds 7 1003 75 10000 3.1 150 23:44 19.12.2019
5945 Clouds 7 1003 75 10000 3.1 150 23:26 19.12.2019
5946 Clouds 7 1003 75 10000 3.1 150 22:59 19.12.2019
5947 Clouds 8 1004 70 10000 3.6 140 22:37 19.12.2019
5948 Clouds 8 1004 70 10000 3.6 140 22:19 19.12.2019
5949 Clouds 8 1004 76 10000 4.6 150 21:55 19.12.2019
5950 Clouds 8 1004 76 10000 4.6 150 21:37 19.12.2019
5951 Clouds 8 1004 76 10000 4.6 150 21:18 19.12.2019
5952 Clouds 8 1004 76 10000 4.1 150 20:55 19.12.2019
5953 Clouds 8 1005 81 10000 3.6 130 20:36 19.12.2019
5954 Clouds 8 1005 81 10000 3.6 130 20:18 19.12.2019
5955 Clouds 8 1005 81 10000 3.6 130 19:56 19.12.2019
5956 Clouds 8 1006 81 10000 4.6 130 19:37 19.12.2019
5957 Clouds 8 1006 81 10000 4.6 130 19:19 19.12.2019
5958 Clouds 8 1006 81 10000 4.6 130 18:41 19.12.2019
5959 Clouds 9 1007 81 10000 3.1 130 18:22 19.12.2019
5960 Clouds 9 1007 81 10000 3.1 130 17:58 19.12.2019
5961 Clouds 9 1008 81 10000 2.6 130 17:39 19.12.2019
5962 Clouds 9 1008 81 10000 2.6 130 17:19 19.12.2019
5963 Clouds 9 1008 81 10000 2.6 130 16:58 19.12.2019
5964 Clouds 10 1008 71 10000 3.6 150 16:40 19.12.2019
5965 Clouds 10 1008 71 10000 3.6 150 16:22 19.12.2019
5966 Clouds 10 1008 71 10000 3.6 150 15:59 19.12.2019
5967 Clouds 10 1008 71 10000 3.6 150 15:59 19.12.2019
5968 Clouds 12 1009 66 10000 3.1 160 15:39 19.12.2019
5969 Clouds 12 1009 66 10000 3.1 160 15:20 19.12.2019
5970 Clouds 12 1009 66 10000 3.1 160 14:59 19.12.2019
5971 Clouds 11 1009 71 10000 5.1 170 14:41 19.12.2019
5972 Clouds 11 1009 66 10000 3.1 160 14:41 19.12.2019
5973 Clouds 11 1009 71 10000 5.1 170 14:19 19.12.2019
5974 Clouds 11 1009 71 10000 5.1 170 13:57 19.12.2019
5975 Clouds 10 1010 76 10000 4.6 150 13:38 19.12.2019
5976 Clouds 10 1010 76 10000 4.6 150 13:19 19.12.2019
5977 Clouds 10 1010 76 10000 4.6 150 12:55 19.12.2019
5978 Clouds 10 1011 76 10000 4.6 150 12:37 19.12.2019
5979 Clouds 10 1011 76 10000 4.6 150 12:18 19.12.2019
5980 Clouds 10 1011 76 10000 4.6 150 11:57 19.12.2019
5981 Clouds 8 1011 87 10000 4.6 160 11:39 19.12.2019
5982 Clouds 8 1011 87 10000 4.6 160 11:18 19.12.2019
5983 Clouds 8 1011 87 10000 4.6 160 11:18 19.12.2019
5984 Clouds 8 1011 87 10000 4.6 160 10:55 19.12.2019
5985 Clouds 6 1012 87 10000 4.6 150 10:36 19.12.2019
5986 Clouds 6 1012 87 10000 4.6 150 10:18 19.12.2019
5987 Clouds 6 1012 87 10000 3.6 150 09:38 19.12.2019
5988 Clouds 6 1012 87 10000 3.6 150 09:38 19.12.2019
5989 Clouds 6 1012 87 10000 3.6 150 09:20 19.12.2019
5990 Clouds 6 1012 87 10000 3.6 150 09:20 19.12.2019
5991 Clouds 6 1012 87 10000 3.6 150 09:20 19.12.2019
5992 Clouds 6 1012 87 10000 3.6 150 08:58 19.12.2019
5993 Clouds 5 1012 93 10000 3.6 140 08:40 19.12.2019
5994 Clouds 5 1012 93 10000 3.6 140 08:19 19.12.2019
5995 Clouds 5 1012 93 10000 3.6 140 07:56 19.12.2019
5996 Clouds 5 1012 86 10000 3.6 130 07:38 19.12.2019
5997 Clouds 5 1012 86 10000 3.6 130 07:19 19.12.2019
5998 Clouds 5 1012 86 10000 3.6 130 06:49 19.12.2019
5999 Clouds 5 1013 93 10000 3.1 130 06:28 19.12.2019
6000 Clouds 5 1013 93 10000 3.1 130 05:55 19.12.2019
6001 Clouds 5 1013 86 8000 4.1 130 05:33 19.12.2019
6002 Clouds 5 1013 86 8000 4.1 130 04:48 19.12.2019
6003 Mist 4 1014 93 5000 4.1 140 02:49 19.12.2019
6004 Mist 4 1015 93 5000 3.6 140 01:51 19.12.2019
6005 Mist 4 1016 93 5000 3.6 130 01:22 19.12.2019
6006 Clouds 4 1017 93 7000 3.1 130 00:40 19.12.2019
6007 Clouds 4 1017 93 7000 3.1 130 00:21 19.12.2019
6008 Clouds 4 1017 93 7000 3.1 130 23:56 18.12.2019
6009 Clouds 4 1017 93 9000 2.1 140 23:38 18.12.2019
6010 Clouds 4 1017 93 9000 2.1 140 23:18 18.12.2019
6011 Clouds 4 1017 93 9000 2.1 140 22:55 18.12.2019
6012 Clouds 5 1017 86 10000 2.1 140 22:36 18.12.2019
6013 Clouds 5 1017 86 10000 2.1 140 22:18 18.12.2019
6014 Clouds 5 1017 86 10000 2.1 140 21:55 18.12.2019
6015 Clouds 5 1017 86 10000 2.1 150 21:37 18.12.2019
6016 Clouds 5 1017 86 10000 2.1 150 21:18 18.12.2019
6017 Clouds 5 1017 81 10000 2.6 160 20:54 18.12.2019
6018 Clouds 6 1017 81 10000 2.1 180 20:36 18.12.2019
6019 Clouds 6 1017 81 10000 2.1 180 20:18 18.12.2019
6020 Clouds 6 1017 81 10000 2.1 180 19:54 18.12.2019
6021 Clouds 6 1017 87 10000 2.1 190 19:36 18.12.2019
6022 Clouds 6 1017 87 10000 2.1 190 19:18 18.12.2019
6023 Clouds 6 1017 87 10000 2.1 190 18:43 18.12.2019
6024 Clouds 6 1017 87 10000 2.1 220 18:25 18.12.2019
6025 Clouds 6 1017 87 10000 2.1 220 18:25 18.12.2019
6026 Clouds 6 1017 87 10000 2.1 220 17:57 18.12.2019
6027 Clouds 7 1017 81 10000 2.6 230 17:38 18.12.2019
6028 Clouds 7 1017 81 10000 2.6 230 17:19 18.12.2019
6029 Clouds 7 1017 81 10000 2.6 230 16:54 18.12.2019
6030 Clouds 7 1016 87 10000 3.6 220 16:36 18.12.2019
6031 Clouds 7 1016 87 10000 3.6 220 16:18 18.12.2019
6032 Clouds 7 1016 87 10000 3.6 220 15:54 18.12.2019
6033 Clouds 7 1016 87 10000 4.1 230 15:36 18.12.2019
6034 Clouds 7 1016 87 10000 4.1 230 15:18 18.12.2019
6035 Clouds 8 1016 87 10000 4.1 230 14:40 18.12.2019
6036 Clouds 7 1015 87 8000 4.1 230 14:20 18.12.2019
6037 Clouds 7 1015 87 8000 4.6 230 13:57 18.12.2019
6038 Clouds 7 1015 87 8000 4.6 230 13:57 18.12.2019
6039 Clouds 7 1015 87 8000 4.6 230 13:57 18.12.2019
6040 Clouds 8 1015 87 8000 4.6 230 13:37 18.12.2019
6041 Clouds 8 1014 87 10000 4.6 230 13:19 18.12.2019
6042 Clouds 8 1014 87 10000 4.6 230 12:57 18.12.2019
6043 Clouds 8 1014 87 10000 4.6 230 12:38 18.12.2019
6044 Clouds 7 1014 87 10000 4.6 230 12:19 18.12.2019
6045 Clouds 7 1014 87 10000 4.6 230 11:55 18.12.2019
6046 Clouds 7 1014 87 10000 4.6 230 11:55 18.12.2019
6047 Clouds 6 1014 87 10000 4.6 230 11:37 18.12.2019
6048 Clouds 6 1013 93 10000 3.6 240 11:18 18.12.2019
6049 Clouds 6 1013 93 10000 3.6 240 10:55 18.12.2019
6050 Clouds 6 1013 93 10000 3.6 240 10:37 18.12.2019
6051 Clouds 6 1013 93 10000 4.1 230 10:19 18.12.2019
6052 Clouds 6 1013 93 10000 4.1 230 09:50 18.12.2019
6053 Clouds 6 1011 93 10000 4.6 220 09:18 18.12.2019
6054 Clouds 5 1011 93 10000 4.6 220 08:41 18.12.2019
6055 Clouds 5 1010 93 10000 4.6 230 08:22 18.12.2019
6056 Clouds 6 1010 93 10000 4.6 230 07:43 18.12.2019
6057 Clouds 6 1009 93 10000 4.1 230 07:23 18.12.2019
6058 Clouds 6 1009 93 10000 4.1 230 06:56 18.12.2019
6059 Clouds 6 1009 87 10000 4.6 230 06:27 18.12.2019
6060 Clouds 6 1009 93 10000 4.6 230 05:54 18.12.2019
6061 Clouds 6 1008 87 10000 4.6 250 04:57 18.12.2019
6062 Drizzle 7 1004 87 10000 7.7 300 02:55 18.12.2019
6063 Drizzle 7 1004 87 10000 7.7 300 02:36 18.12.2019
6064 Drizzle 7 1003 93 9000 9.8 290 02:18 18.12.2019
6065 Drizzle 7 1002 93 5000 9.3 280 01:40 18.12.2019
6066 Drizzle 8 1000 93 10000 5.1 240 01:21 18.12.2019
6067 Drizzle 8 1000 93 10000 5.1 240 00:41 18.12.2019
6068 Drizzle 9 1000 87 8000 4.6 250 00:23 18.12.2019
6069 Drizzle 9 1000 87 8000 4.6 250 00:23 18.12.2019
6070 Drizzle 9 1000 87 7000 6.7 260 23:56 17.12.2019
6071 Drizzle 10 1000 87 7000 6.7 260 23:38 17.12.2019
6072 Drizzle 12 999 76 7000 6.7 220 23:19 17.12.2019
6073 Clouds 13 999 62 10000 5.7 200 22:56 17.12.2019
6074 Clouds 11 999 62 10000 5.7 200 22:38 17.12.2019
6075 Clouds 12 999 66 10000 5.1 200 22:18 17.12.2019
6076 Clouds 12 999 66 10000 5.1 200 21:55 17.12.2019
6077 Clouds 12 999 66 10000 5.1 200 21:37 17.12.2019
6078 Clouds 12 999 66 10000 5.1 200 21:37 17.12.2019
6079 Clouds 12 999 66 10000 5.1 200 21:19 17.12.2019
6080 Clouds 12 999 66 10000 5.1 200 20:56 17.12.2019
6081 Clouds 12 999 66 10000 5.1 200 20:38 17.12.2019
6082 Clouds 12 1000 66 10000 5.7 210 20:18 17.12.2019
6083 Clouds 12 1000 66 10000 5.7 210 19:55 17.12.2019
6084 Clouds 12 1000 66 10000 5.7 210 19:37 17.12.2019
6085 Clouds 12 999 66 10000 5.7 200 19:18 17.12.2019
6086 Clouds 12 999 66 10000 5.7 200 18:42 17.12.2019
6087 Clouds 12 999 66 10000 5.7 200 18:42 17.12.2019
6088 Clouds 12 999 66 10000 5.1 200 18:22 17.12.2019
6089 Clouds 12 999 66 10000 5.1 200 17:59 17.12.2019
6090 Clouds 12 999 66 10000 5.1 200 17:59 17.12.2019
6091 Clouds 12 999 66 10000 5.1 200 17:41 17.12.2019
6092 Clouds 12 999 66 10000 5.1 200 17:19 17.12.2019
6093 Clouds 12 999 66 10000 5.1 200 16:56 17.12.2019
6094 Clouds 12 999 66 10000 5.1 200 16:37 17.12.2019
6095 Clouds 12 999 66 10000 5.1 200 16:37 17.12.2019
6096 Clouds 12 999 71 10000 4.6 200 16:19 17.12.2019
6097 Clouds 12 999 71 10000 4.6 200 15:56 17.12.2019
6098 Clouds 11 999 71 10000 4.6 200 15:37 17.12.2019
6099 Clouds 12 999 71 10000 4.6 200 15:19 17.12.2019
6100 Clouds 12 999 71 10000 4.6 200 14:55 17.12.2019
6101 Clouds 12 999 71 10000 4.6 200 14:37 17.12.2019
6102 Clouds 12 999 71 10000 5.1 200 14:18 17.12.2019
6103 Clouds 12 999 71 10000 5.1 200 13:55 17.12.2019
6104 Clouds 12 999 71 10000 5.1 200 13:37 17.12.2019
6105 Clouds 11 999 76 10000 5.1 200 13:18 17.12.2019
6106 Clouds 11 999 76 10000 5.1 200 12:41 17.12.2019
6107 Clouds 9 1000 76 10000 4.1 200 12:19 17.12.2019
6108 Clouds 9 1000 76 10000 4.1 200 11:59 17.12.2019
6109 Clouds 9 999 81 10000 3.6 190 11:38 17.12.2019
6110 Clouds 9 999 81 10000 3.6 190 11:38 17.12.2019
6111 Clouds 9 999 81 10000 3.6 190 11:19 17.12.2019
6112 Clouds 9 999 81 10000 3.6 190 10:59 17.12.2019
6113 Clouds 9 999 81 10000 3.6 190 10:59 17.12.2019
6114 Clouds 7 999 81 10000 3.6 190 10:41 17.12.2019
6115 Clouds 7 1000 87 8000 3.1 190 10:23 17.12.2019
6116 Clouds 7 1000 93 7000 2.6 170 09:59 17.12.2019
6117 Clouds 6 1000 93 7000 2.6 170 09:41 17.12.2019
6118 Mist 6 999 93 2500 3.1 150 09:21 17.12.2019
6119 Mist 6 999 93 2500 3.1 150 08:56 17.12.2019
6120 Mist 6 999 93 2500 3.1 150 08:38 17.12.2019
6121 Mist 6 999 93 2500 3.1 150 08:38 17.12.2019
6122 Mist 6 999 93 2500 3.1 150 08:38 17.12.2019
6123 Mist 6 999 93 1600 2.6 150 08:20 17.12.2019
6124 Fog 6 999 100 800 2.1 140 07:55 17.12.2019
6125 Fog 6 999 100 800 2.1 140 07:36 17.12.2019
6126 Fog 6 999 100 800 1.5 90 07:18 17.12.2019
6127 Mist 6 1000 93 3500 2.6 110 06:35 17.12.2019
6128 Mist 6 1000 93 3500 2.6 100 05:57 17.12.2019
6129 Mist 6 1001 93 2500 3.1 90 05:38 17.12.2019
6130 Mist 6 1001 93 2500 3.1 90 04:45 17.12.2019
6131 Rain 6 1002 93 3500 1.5 110 02:47 17.12.2019
6132 Rain 6 1002 93 4500 1.5 120 01:56 17.12.2019
6133 Rain 7 1003 93 7000 2.6 160 01:20 17.12.2019
6134 Rain 6 1003 93 7000 2.6 160 00:38 17.12.2019
6135 Clouds 7 1003 87 9000 2.6 170 00:20 17.12.2019
6136 Clouds 6 1003 87 9000 2.6 170 23:42 16.12.2019
6137 Clouds 6 1003 87 9000 2.6 170 23:42 16.12.2019
6138 Clouds 6 1003 87 9000 2.6 170 23:42 16.12.2019
6139 Clouds 7 1004 81 10000 2.6 180 23:19 16.12.2019
6140 Clouds 7 1004 81 10000 2.6 180 22:58 16.12.2019
6141 Clouds 6 1004 81 10000 2.6 180 22:38 16.12.2019
6142 Clouds 6 1004 87 10000 3.1 200 22:20 16.12.2019
6143 Clouds 6 1004 87 10000 3.1 200 22:20 16.12.2019
6144 Clouds 6 1004 87 10000 3.1 200 21:56 16.12.2019
6145 Clouds 6 1004 87 10000 3.1 200 21:38 16.12.2019
6146 Clouds 6 1004 87 10000 3.1 200 21:38 16.12.2019
6147 Clouds 6 1004 87 10000 3.1 200 21:20 16.12.2019
6148 Clouds 7 1004 87 10000 2.6 200 20:58 16.12.2019
6149 Clouds 7 1004 87 10000 2.6 200 20:38 16.12.2019
6150 Clouds 7 1004 87 10000 4.1 200 20:19 16.12.2019
6151 Clouds 7 1004 87 10000 4.1 200 19:56 16.12.2019
6152 Clouds 7 1004 87 10000 4.1 200 19:56 16.12.2019
6153 Clouds 7 1004 87 10000 4.1 200 19:37 16.12.2019
6154 Clouds 7 1004 87 10000 4.1 210 19:19 16.12.2019
6155 Clouds 7 1004 87 10000 4.1 210 18:56 16.12.2019
6156 Clouds 7 1004 87 10000 4.1 210 18:56 16.12.2019
6157 Clouds 7 1004 87 10000 4.1 210 18:38 16.12.2019
6158 Clouds 7 1003 87 10000 4.6 210 18:19 16.12.2019
6159 Clouds 7 1003 87 10000 4.6 210 17:57 16.12.2019
6160 Clouds 7 1003 87 10000 4.6 210 17:57 16.12.2019
6161 Clouds 7 1003 87 10000 4.6 210 17:38 16.12.2019
6162 Clouds 7 1004 87 10000 4.6 210 17:20 16.12.2019
6163 Clouds 7 1004 87 10000 4.6 210 16:57 16.12.2019
6164 Clouds 8 1004 87 10000 4.6 210 16:38 16.12.2019
6165 Clouds 8 1004 81 10000 4.6 210 16:19 16.12.2019
6166 Clouds 8 1004 81 10000 4.6 210 15:58 16.12.2019
6167 Clouds 8 1004 81 10000 4.6 210 15:38 16.12.2019
6168 Clouds 7 1003 87 10000 7.29 199 15:20 16.12.2019
6169 Clouds 7 1003 87 10000 7.29 199 14:55 16.12.2019
6170 Clouds 8 1003 87 10000 7.29 199 14:37 16.12.2019
6171 Clouds 7 1004 81 10000 5.1 220 14:19 16.12.2019
6172 Clouds 7 1004 81 10000 5.1 220 13:56 16.12.2019
6173 Clouds 7 1004 81 10000 5.1 220 13:37 16.12.2019
6174 Clouds 7 1004 81 10000 6.2 220 13:19 16.12.2019
6175 Clouds 7 1004 81 10000 6.2 220 12:57 16.12.2019
6176 Clouds 7 1004 81 10000 6.2 220 12:39 16.12.2019
6177 Clouds 7 1004 81 10000 5.1 210 12:18 16.12.2019
6178 Clouds 7 1004 81 10000 5.1 210 11:57 16.12.2019
6179 Clouds 7 1004 81 10000 5.1 210 11:39 16.12.2019
6180 Clouds 6 1004 81 10000 6.2 210 11:19 16.12.2019
6181 Clouds 6 1004 81 10000 6.2 210 10:55 16.12.2019
6182 Clouds 6 1004 80 10000 5.7 200 10:36 16.12.2019
6183 Clouds 6 1004 80 10000 5.7 200 10:18 16.12.2019
6184 Clouds 5 1004 80 10000 5.7 200 09:44 16.12.2019
6185 Clouds 5 1004 80 10000 5.7 200 09:44 16.12.2019
6186 Clouds 5 1004 80 10000 4.6 200 09:26 16.12.2019
6187 Clouds 5 1004 80 10000 4.6 200 08:41 16.12.2019
6188 Clouds 5 1003 80 10000 5.1 200 08:21 16.12.2019
6189 Clouds 5 1003 80 10000 5.1 200 07:57 16.12.2019
6190 Clouds 5 1003 80 10000 5.1 200 07:38 16.12.2019
6191 Clouds 5 1004 80 10000 5.1 200 07:19 16.12.2019
6192 Clouds 5 1004 80 10000 5.1 200 06:40 16.12.2019
6193 Clouds 5 1004 75 10000 5.7 210 06:22 16.12.2019
6194 Clouds 5 1004 75 10000 5.7 210 06:22 16.12.2019
6195 Clouds 5 1004 75 10000 5.7 210 05:44 16.12.2019
6196 Clouds 5 1004 80 10000 4.6 210 05:26 16.12.2019
6197 Clouds 4 1004 86 10000 5.1 210 03:33 16.12.2019
6198 Clouds 5 1004 80 10000 5.7 220 01:57 16.12.2019
6199 Clouds 5 1004 80 10000 5.7 220 01:39 16.12.2019
6200 Clouds 5 1003 86 10000 5.7 220 00:41 16.12.2019
6201 Clouds 5 1003 86 10000 6.2 220 00:23 16.12.2019
6202 Clouds 5 1003 86 10000 6.2 220 23:58 15.12.2019
6203 Clouds 6 1003 86 10000 6.2 220 23:38 15.12.2019
6204 Clouds 6 1002 81 10000 5.1 230 23:19 15.12.2019
6205 Clouds 6 1002 81 10000 5.1 230 22:55 15.12.2019
6206 Clouds 6 1002 81 10000 5.1 230 22:37 15.12.2019
6207 Clouds 6 1001 87 10000 6.2 230 22:18 15.12.2019
6208 Clouds 6 1001 87 10000 6.2 230 21:55 15.12.2019
6209 Clouds 6 1001 87 10000 6.2 230 21:37 15.12.2019
6210 Clouds 6 1000 87 10000 7.2 240 21:18 15.12.2019
6211 Clouds 6 1000 87 10000 7.2 240 20:55 15.12.2019
6212 Clouds 6 1000 87 10000 7.2 240 20:36 15.12.2019
6213 Rain 6 1000 87 6000 5.1 260 20:18 15.12.2019
6214 Rain 6 1000 87 9000 6.2 250 19:55 15.12.2019
6215 Rain 6 1000 87 9000 6.2 250 19:37 15.12.2019
6216 Rain 6 999 87 7000 7.7 250 19:18 15.12.2019
6217 Clouds 6 998 87 10000 6.2 240 18:55 15.12.2019
6218 Clouds 6 998 87 10000 6.2 240 18:55 15.12.2019
6219 Clouds 6 998 87 9000 5.7 240 18:36 15.12.2019
6220 Clouds 6 998 87 9000 5.7 240 18:18 15.12.2019
6221 Rain 6 998 87 6000 6.7 240 17:55 15.12.2019
6222 Clouds 7 996 70 10000 8.7 260 17:36 15.12.2019
6223 Clouds 7 996 70 10000 8.7 260 17:18 15.12.2019
6224 Clouds 7 996 70 10000 8.7 260 16:42 15.12.2019
6225 Clouds 7 995 65 10000 11.8 260 16:23 15.12.2019
6226 Clouds 7 995 65 10000 11.8 260 15:57 15.12.2019
6227 Clouds 8 995 65 10000 11.8 260 15:39 15.12.2019
6228 Clouds 7 993 65 10000 13.4 260 15:19 15.12.2019
6229 Clouds 7 993 65 10000 13.4 260 14:56 15.12.2019
6230 Clouds 8 993 65 10000 13.4 260 14:38 15.12.2019
6231 Clouds 8 993 65 10000 13.4 260 14:38 15.12.2019
6232 Clouds 8 993 66 10000 15.4 260 14:19 15.12.2019
6233 Clouds 8 992 62 10000 12.3 250 13:59 15.12.2019
6234 Clouds 8 992 66 10000 12.3 250 13:39 15.12.2019
6235 Clouds 7 991 62 10000 12.9 250 13:20 15.12.2019
6236 Clouds 7 991 62 10000 12.9 250 12:57 15.12.2019
6237 Clouds 7 991 62 10000 12.9 250 12:57 15.12.2019
6238 Clouds 8 991 62 10000 12.9 250 12:39 15.12.2019
6239 Clouds 7 990 65 10000 13.4 260 12:21 15.12.2019
6240 Clouds 7 990 65 10000 13.4 260 11:59 15.12.2019
6241 Clouds 8 990 65 10000 13.4 260 11:38 15.12.2019
6242 Clouds 7 989 65 10000 12.3 250 11:19 15.12.2019
6243 Clouds 7 988 75 10000 10.8 250 10:56 15.12.2019
6244 Clouds 8 988 75 10000 10.8 250 10:37 15.12.2019
6245 Clouds 8 988 75 10000 10.3 250 10:19 15.12.2019
6246 Clouds 8 987 81 10000 8.7 240 09:57 15.12.2019
6247 Clouds 8 987 81 10000 8.7 240 09:37 15.12.2019
6248 Clouds 7 986 93 10000 7.2 200 09:19 15.12.2019
6249 Clouds 7 986 93 10000 7.2 200 08:42 15.12.2019
6250 Clouds 6 986 93 10000 7.2 190 08:23 15.12.2019
6251 Drizzle 6 987 93 9000 6.7 180 07:59 15.12.2019
6252 Drizzle 5 987 93 9000 6.7 180 07:38 15.12.2019
6253 Rain 5 987 93 8000 6.2 180 07:19 15.12.2019
6254 Clouds 5 989 80 10000 6.7 170 06:24 15.12.2019
6255 Clouds 4 989 80 10000 6.7 170 05:42 15.12.2019
6256 Clouds 4 991 82 10000 6.2 190 05:21 15.12.2019
6257 Clouds 3 993 82 10000 5.1 210 04:20 15.12.2019
6258 Clouds 3 993 82 10000 5.7 210 02:55 15.12.2019
6259 Clouds 3 994 86 10000 5.7 230 02:32 15.12.2019
6260 Rain 4 994 86 10000 5.7 230 01:41 15.12.2019
6261 Clouds 4 993 80 10000 7.2 230 01:19 15.12.2019
6262 Clouds 5 993 80 10000 7.2 230 00:49 15.12.2019
6263 Clouds 5 992 80 10000 6.7 240 00:31 15.12.2019
6264 Clouds 5 992 80 10000 6.7 240 23:41 14.12.2019
6265 Clouds 5 991 86 10000 7.7 240 23:23 14.12.2019
6266 Clouds 5 991 86 10000 7.7 240 22:59 14.12.2019
6267 Clouds 5 991 86 10000 7.7 240 22:41 14.12.2019
6268 Clouds 5 991 86 10000 8.2 250 22:22 14.12.2019
6269 Clouds 5 991 86 10000 8.2 250 21:58 14.12.2019
6270 Clouds 4 991 86 10000 8.2 250 21:39 14.12.2019
6271 Clouds 5 989 80 10000 9.8 260 21:20 14.12.2019
6272 Clouds 5 989 80 10000 9.8 260 20:59 14.12.2019
6273 Clouds 6 989 80 10000 9.8 260 20:41 14.12.2019
6274 Clouds 6 988 80 10000 6.2 230 20:20 14.12.2019
6275 Clouds 6 988 80 10000 6.2 230 19:57 14.12.2019
6276 Clouds 6 988 80 10000 6.2 230 19:39 14.12.2019
6277 Clouds 6 988 80 10000 6.2 230 19:39 14.12.2019
6278 Clouds 6 987 80 10000 6.2 230 19:20 14.12.2019
6279 Clouds 6 987 80 10000 6.2 230 18:56 14.12.2019
6280 Clouds 6 987 80 10000 6.2 230 18:38 14.12.2019
6281 Clouds 6 986 80 10000 7.2 230 18:20 14.12.2019
6282 Clouds 6 986 80 10000 7.2 230 17:54 14.12.2019
6283 Rain 6 986 80 10000 6.2 250 17:36 14.12.2019
6284 Rain 6 986 80 10000 6.2 250 17:18 14.12.2019
6285 Rain 5 986 80 10000 6.2 250 16:40 14.12.2019
6286 Rain 5 985 80 10000 7.7 240 16:19 14.12.2019
6287 Rain 5 985 80 10000 7.7 240 15:55 14.12.2019
6288 Rain 5 985 80 10000 7.7 240 15:36 14.12.2019
6289 Clouds 5 983 80 10000 9.8 260 15:18 14.12.2019
6290 Clouds 5 983 80 10000 9.8 260 14:40 14.12.2019
6291 Rain 6 983 81 10000 9.3 260 14:21 14.12.2019
6292 Rain 6 983 81 10000 11.3 260 13:59 14.12.2019
6293 Rain 6 983 81 10000 11.3 260 13:41 14.12.2019
6294 Rain 6 983 81 10000 11.3 260 13:41 14.12.2019
6295 Rain 5 983 86 8000 5.7 270 13:19 14.12.2019
6296 Rain 6 982 81 8000 6.2 250 12:57 14.12.2019
6297 Rain 6 982 81 8000 6.2 250 12:38 14.12.2019
6298 Clouds 6 982 86 10000 7.2 230 12:20 14.12.2019
6299 Clouds 6 982 86 10000 7.2 230 12:20 14.12.2019
6300 Rain 6 978 83 0 15.34 257 11:56 14.12.2019
6301 Rain 6 977 81 0 15.34 257 11:38 14.12.2019
6302 Rain 5 981 93 9000 6.7 230 11:19 14.12.2019
6303 Rain 5 981 93 9000 6.7 230 10:56 14.12.2019
6304 Rain 5 981 93 9000 6.7 230 10:38 14.12.2019
6305 Rain 5 981 93 7000 6.2 230 10:19 14.12.2019
6306 Rain 4 980 93 9000 6.7 240 09:43 14.12.2019
6307 Rain 4 979 93 7000 5.7 230 09:23 14.12.2019
6308 Rain 4 979 93 7000 5.7 230 08:57 14.12.2019
6309 Rain 5 979 93 7000 5.7 230 08:38 14.12.2019
6310 Rain 5 979 93 7000 6.7 220 08:19 14.12.2019
6311 Rain 5 979 93 7000 6.7 220 07:40 14.12.2019
6312 Clouds 5 979 93 10000 5.7 220 07:21 14.12.2019
6313 Clouds 5 979 93 10000 5.7 220 06:48 14.12.2019
6314 Clouds 5 979 86 10000 5.7 210 06:30 14.12.2019
6315 Clouds 5 979 86 10000 5.7 210 05:50 14.12.2019
6316 Clouds 5 980 100 6000 5.7 220 04:29 14.12.2019
6317 Mist 4 980 100 3000 3.6 190 02:24 14.12.2019
6318 Mist 4 980 100 3000 3.6 190 01:44 14.12.2019
6319 Mist 3 980 93 4000 3.1 180 01:22 14.12.2019
6320 Mist 3 980 93 5000 3.1 180 00:43 14.12.2019
6321 Mist 2 981 93 5000 3.1 190 00:24 14.12.2019
6322 Mist 2 981 93 5000 3.1 190 23:42 13.12.2019
6323 Mist 2 981 90 4000 2.6 180 23:20 13.12.2019
6324 Mist 2 981 90 4000 2.6 180 22:59 13.12.2019
6325 Mist 2 981 90 4000 2.6 180 22:40 13.12.2019
6326 Mist 2 981 90 4000 2.6 180 22:19 13.12.2019
6327 Drizzle 2 981 90 4500 3.1 180 21:55 13.12.2019
6328 Drizzle 2 981 90 4500 3.1 180 21:36 13.12.2019
6329 Mist 2 981 90 4500 2.1 170 21:18 13.12.2019
6330 Mist 2 981 90 4500 2.1 170 20:40 13.12.2019
6331 Mist 2 981 93 4500 2.1 140 20:21 13.12.2019
6332 Mist 2 981 93 4500 2.1 140 19:58 13.12.2019
6333 Clouds 2 980 93 6000 2.6 140 19:40 13.12.2019
6334 Clouds 2 980 93 6000 2.6 140 19:20 13.12.2019
6335 Clouds 2 980 93 6000 2.6 140 18:57 13.12.2019
6336 Clouds 2 980 93 6000 3.6 130 18:39 13.12.2019
6337 Clouds 2 980 93 6000 3.6 130 18:18 13.12.2019
6338 Mist 2 980 93 5000 3.6 120 17:41 13.12.2019
6339 Mist 2 980 90 5000 3.6 120 17:19 13.12.2019
6340 Mist 2 980 90 5000 3.6 120 17:19 13.12.2019
6341 Mist 2 980 90 5000 3.6 120 17:19 13.12.2019
6342 Mist 2 980 90 5000 3.6 120 16:59 13.12.2019
6343 Mist 3 979 90 5000 3.6 120 16:39 13.12.2019
6344 Mist 2 979 90 5000 3.6 120 16:20 13.12.2019
6345 Clouds 3 979 80 10000 4.1 120 15:43 13.12.2019
6346 Clouds 3 979 80 10000 4.1 120 15:23 13.12.2019
6347 Clouds 3 979 80 10000 3.6 120 14:58 13.12.2019
6348 Clouds 3 978 80 10000 3.6 110 14:40 13.12.2019
6349 Clouds 3 978 80 10000 3.6 110 14:20 13.12.2019
6350 Clouds 3 978 80 10000 3.6 110 13:56 13.12.2019
6351 Clouds 2 978 86 10000 3.6 110 13:37 13.12.2019
6352 Clouds 2 978 86 10000 3.6 110 13:19 13.12.2019
6353 Clouds 2 978 86 10000 4.1 120 12:42 13.12.2019
6354 Clouds 2 978 86 10000 4.1 120 12:20 13.12.2019
6355 Clouds 2 978 86 10000 4.1 120 11:57 13.12.2019
6356 Clouds 2 978 86 10000 4.1 120 11:57 13.12.2019
6357 Clouds 2 978 86 10000 5.1 120 11:39 13.12.2019
6358 Clouds 2 978 86 10000 5.1 120 11:20 13.12.2019
6359 Clouds 2 978 86 10000 5.1 120 10:42 13.12.2019
6360 Clouds 2 978 80 10000 5.7 130 10:23 13.12.2019
6361 Clouds 2 979 80 10000 5.7 130 09:55 13.12.2019
6362 Clouds 2 979 80 10000 5.7 130 09:36 13.12.2019
6363 Clouds 2 979 80 10000 5.7 130 09:18 13.12.2019
6364 Clouds 2 979 80 10000 6.2 130 08:41 13.12.2019
6365 Clouds 2 979 80 10000 6.2 130 08:23 13.12.2019
6366 Clouds 1 979 80 10000 6.2 130 07:45 13.12.2019
6367 Clouds 1 980 80 10000 6.7 130 07:21 13.12.2019
6368 Clouds 1 980 80 10000 6.7 130 06:54 13.12.2019
6369 Clouds 1 980 86 10000 6.7 140 06:28 13.12.2019
6370 Clouds 1 980 86 10000 6.7 140 05:46 13.12.2019
6371 Clouds 1 981 86 10000 6.7 140 05:26 13.12.2019
6372 Clouds 2 983 80 10000 6.7 140 04:35 13.12.2019
6373 Clouds 2 984 86 10000 6.7 140 03:39 13.12.2019
6374 Clouds 2 986 86 10000 6.2 140 02:34 13.12.2019
6375 Clouds 2 986 86 10000 6.2 140 01:44 13.12.2019
6376 Clouds 2 987 86 10000 4.6 140 00:56 13.12.2019
6377 Clouds 2 989 78 10000 4.1 150 00:37 13.12.2019
6378 Clouds 2 989 78 10000 4.1 150 23:57 12.12.2019
6379 Clouds 2 990 78 10000 4.1 150 23:39 12.12.2019
6380 Clear 2 990 78 10000 4.1 150 23:20 12.12.2019
6381 Clear 2 990 78 10000 4.1 150 22:55 12.12.2019
6382 Clear 2 991 78 10000 5.1 170 22:37 12.12.2019
6383 Clear 2 991 78 10000 5.1 170 22:18 12.12.2019
6384 Clear 2 991 78 10000 5.1 170 21:54 12.12.2019
6385 Clear 2 992 78 10000 4.6 160 21:36 12.12.2019
6386 Clear 2 992 78 10000 4.6 160 21:18 12.12.2019
6387 Clear 2 992 78 10000 4.6 160 20:55 12.12.2019
6388 Clouds 3 993 86 10000 4.1 170 20:37 12.12.2019
6389 Clouds 3 993 86 10000 4.1 170 20:19 12.12.2019
6390 Clouds 3 995 86 10000 3.6 170 19:42 12.12.2019
6391 Clouds 3 995 86 10000 3.6 170 19:22 12.12.2019
6392 Clouds 3 995 86 10000 3.6 170 18:58 12.12.2019
6393 Clouds 3 995 86 10000 3.1 200 18:40 12.12.2019
6394 Clouds 3 995 86 10000 3.1 200 18:20 12.12.2019
6395 Clouds 3 995 86 10000 3.1 200 17:58 12.12.2019
6396 Clouds 3 995 86 10000 3.1 200 17:58 12.12.2019
6397 Clouds 4 996 86 10000 3.6 210 17:39 12.12.2019
6398 Clouds 4 996 86 10000 3.6 210 17:20 12.12.2019
6399 Clouds 4 996 86 10000 3.6 210 16:58 12.12.2019
6400 Clouds 5 996 80 10000 4.6 210 16:39 12.12.2019
6401 Clouds 5 996 80 10000 4.6 210 16:20 12.12.2019
6402 Clouds 5 996 80 10000 4.6 210 15:57 12.12.2019
6403 Clouds 5 997 86 10000 5.1 220 15:39 12.12.2019
6404 Clouds 5 997 86 10000 5.1 220 15:18 12.12.2019
6405 Clouds 6 997 86 10000 5.1 230 14:38 12.12.2019
6406 Clouds 6 997 86 10000 5.1 230 14:38 12.12.2019
6407 Clouds 6 997 86 10000 5.1 230 14:20 12.12.2019
6408 Clouds 6 997 86 10000 5.1 230 13:58 12.12.2019
6409 Clouds 7 998 87 8000 6.7 230 13:40 12.12.2019
6410 Clouds 7 998 87 8000 6.7 230 13:21 12.12.2019
6411 Clouds 7 998 87 8000 6.7 230 12:59 12.12.2019
6412 Clouds 6 998 93 8000 5.1 220 12:40 12.12.2019
6413 Clouds 6 998 93 8000 5.1 220 12:22 12.12.2019
6414 Clouds 6 998 93 8000 5.1 220 11:57 12.12.2019
6415 Clouds 5 998 86 7000 5.1 230 11:38 12.12.2019
6416 Clouds 5 998 86 7000 5.1 230 11:38 12.12.2019
6417 Clouds 5 998 86 7000 5.1 230 11:20 12.12.2019
6418 Clouds 5 999 86 7000 5.1 220 10:57 12.12.2019
6419 Clouds 5 999 86 6000 5.1 220 10:39 12.12.2019
6420 Clouds 5 999 86 6000 5.1 220 10:21 12.12.2019
6421 Clouds 5 999 86 6000 5.1 220 09:55 12.12.2019
6422 Clouds 5 999 86 6000 5.1 220 09:55 12.12.2019
6423 Clouds 5 999 86 6000 4.1 210 09:37 12.12.2019
6424 Clouds 5 999 86 6000 4.1 210 09:19 12.12.2019
6425 Clouds 5 999 86 6000 4.1 210 08:46 12.12.2019
6426 Clouds 5 999 93 6000 3.6 210 08:27 12.12.2019
6427 Clouds 5 999 93 6000 3.6 210 07:50 12.12.2019
6428 Clouds 5 999 86 6000 3.1 200 07:28 12.12.2019
6429 Clouds 5 999 86 6000 3.1 200 06:57 12.12.2019
6430 Clouds 5 999 86 7000 2.6 200 06:36 12.12.2019
6431 Clouds 5 999 86 7000 2.6 200 05:49 12.12.2019
6432 Clouds 5 1000 93 7000 3.1 220 05:25 12.12.2019
6433 Clouds 5 1000 93 6000 3.6 230 04:31 12.12.2019
6434 Mist 5 1001 93 5000 3.6 230 02:41 12.12.2019
6435 Mist 5 1001 93 5000 3.6 230 02:23 12.12.2019
6436 Mist 5 1001 93 5000 3.6 230 01:58 12.12.2019
6437 Mist 5 1001 93 5000 3.1 220 01:35 12.12.2019
6438 Mist 5 1001 93 5000 3.6 220 00:49 12.12.2019
6439 Mist 5 1002 93 5000 2.1 220 00:22 12.12.2019
6440 Mist 5 1002 93 5000 2.1 220 23:58 11.12.2019
6441 Mist 5 1002 100 5000 2.6 220 23:36 11.12.2019
6442 Mist 5 1002 100 5000 2.6 220 23:18 11.12.2019
6443 Mist 5 1002 100 5000 2.6 220 22:55 11.12.2019
6444 Mist 5 1003 93 5000 2.6 230 22:37 11.12.2019
6445 Mist 5 1003 93 5000 2.6 230 22:18 11.12.2019
6446 Mist 5 1003 93 5000 2.6 230 21:54 11.12.2019
6447 Mist 5 1003 100 4800 2.6 230 21:36 11.12.2019
6448 Mist 5 1003 100 4800 2.6 230 21:18 11.12.2019
6449 Mist 5 1003 93 5000 3.1 220 20:54 11.12.2019
6450 Mist 5 1003 100 4000 3.1 220 20:36 11.12.2019
6451 Mist 5 1003 100 4000 3.1 220 20:18 11.12.2019
6452 Mist 5 1003 100 3000 1.5 210 19:41 11.12.2019
6453 Mist 5 1003 100 3000 1.5 210 19:23 11.12.2019
6454 Mist 5 1003 100 3000 1.5 210 18:59 11.12.2019
6455 Mist 6 1004 93 4000 2.1 220 18:39 11.12.2019
6456 Mist 6 1004 93 4000 2.1 220 18:19 11.12.2019
6457 Mist 6 1004 93 4000 2.1 220 17:56 11.12.2019
6458 Clouds 6 1004 93 6000 2.6 220 17:38 11.12.2019
6459 Clouds 6 1004 93 6000 2.6 220 17:18 11.12.2019
6460 Clouds 6 1004 93 6000 3.1 220 16:55 11.12.2019
6461 Clouds 6 1004 93 8000 3.6 220 16:37 11.12.2019
6462 Clouds 6 1004 93 8000 3.6 220 16:18 11.12.2019
6463 Clouds 6 1004 93 8000 3.6 220 15:56 11.12.2019
6464 Clouds 6 1004 93 8000 3.6 220 15:37 11.12.2019
6465 Clouds 6 1004 93 8000 3.6 220 15:18 11.12.2019
6466 Clouds 6 1004 93 8000 3.6 220 14:54 11.12.2019
6467 Clouds 6 1005 93 8000 4.1 230 14:36 11.12.2019
6468 Clouds 6 1005 93 8000 4.1 230 14:36 11.12.2019
6469 Clouds 6 1005 93 8000 4.1 230 14:18 11.12.2019
6470 Clouds 6 1005 93 8000 4.1 230 13:42 11.12.2019
6471 Clouds 6 1006 93 8000 4.6 220 13:22 11.12.2019
6472 Clouds 6 1006 93 8000 4.6 220 12:58 11.12.2019
6473 Clouds 6 1006 93 9000 4.1 220 12:39 11.12.2019
6474 Clouds 6 1006 93 9000 4.1 220 12:21 11.12.2019
6475 Clouds 6 1006 87 9000 4.1 220 11:58 11.12.2019
6476 Clouds 5 1007 93 9000 4.6 220 11:39 11.12.2019
6477 Clouds 6 1007 93 9000 4.6 220 11:19 11.12.2019
6478 Clouds 6 1007 93 9000 4.6 220 10:59 11.12.2019
6479 Clouds 6 1007 93 10000 5.7 220 10:39 11.12.2019
6480 Clouds 6 1007 93 10000 5.7 220 10:21 11.12.2019
6481 Clouds 6 1006 93 10000 5.7 220 09:56 11.12.2019
6482 Clouds 6 1006 93 10000 6.7 220 09:38 11.12.2019
6483 Clouds 6 1006 93 10000 6.7 220 09:19 11.12.2019
6484 Clouds 6 1006 93 10000 6.7 220 08:55 11.12.2019
6485 Rain 6 1006 93 8000 6.7 220 08:36 11.12.2019
6486 Rain 6 1006 93 8000 6.7 220 08:18 11.12.2019
6487 Rain 6 1006 93 8000 6.7 220 07:42 11.12.2019
6488 Drizzle 6 1006 93 7000 7.2 220 07:22 11.12.2019
6489 Drizzle 5 1006 93 7000 7.2 220 06:46 11.12.2019
6490 Drizzle 6 1006 81 10000 7.2 220 06:24 11.12.2019
6491 Drizzle 6 1006 81 10000 7.2 220 05:53 11.12.2019
6492 Clouds 6 1006 75 10000 8.7 220 05:33 11.12.2019
6493 Clouds 6 1006 75 10000 8.7 220 04:49 11.12.2019
6494 Clouds 6 1007 60 10000 8.7 210 03:19 11.12.2019
6495 Clouds 6 1007 60 10000 8.7 210 02:31 11.12.2019
6496 Clouds 6 1008 60 10000 10.3 210 01:21 11.12.2019
6497 Clouds 6 1009 65 10000 8.7 210 00:37 11.12.2019
6498 Clouds 6 1009 65 10000 8.7 210 00:18 11.12.2019
6499 Clouds 6 1009 65 10000 8.7 210 23:43 10.12.2019
6500 Clouds 6 1010 65 10000 7.7 200 23:22 10.12.2019
6501 Clouds 6 1010 65 10000 7.7 200 22:56 10.12.2019
6502 Clouds 5 1011 70 10000 8.7 190 22:38 10.12.2019
6503 Clouds 5 1011 70 10000 8.7 190 22:20 10.12.2019
6504 Clouds 5 1011 70 10000 8.7 190 21:54 10.12.2019
6505 Clouds 5 1012 70 10000 8.2 200 21:36 10.12.2019
6506 Clouds 5 1012 70 10000 8.2 200 21:18 10.12.2019
6507 Clouds 5 1012 70 10000 8.2 190 20:55 10.12.2019
6508 Clouds 5 1012 70 10000 8.2 190 20:55 10.12.2019
6509 Clouds 5 1014 80 10000 7.7 190 20:36 10.12.2019
6510 Clouds 5 1014 80 10000 7.7 190 20:18 10.12.2019
6511 Clouds 5 1014 80 10000 7.7 190 20:18 10.12.2019
6512 Clouds 5 1014 80 10000 7.7 190 19:44 10.12.2019
6513 Clouds 5 1015 80 10000 7.2 190 19:25 10.12.2019
6514 Clouds 5 1015 80 10000 7.2 190 18:57 10.12.2019
6515 Clouds 4 1016 80 10000 6.2 200 18:39 10.12.2019
6516 Clouds 4 1016 80 10000 6.2 200 18:19 10.12.2019
6517 Clouds 4 1016 80 10000 6.2 200 17:54 10.12.2019
6518 Clouds 5 1017 75 10000 5.7 200 17:36 10.12.2019
6519 Clouds 5 1017 75 10000 5.7 200 17:18 10.12.2019
6520 Clouds 5 1017 75 10000 5.7 200 16:42 10.12.2019
6521 Clouds 5 1018 75 10000 5.1 210 16:20 10.12.2019
6522 Clouds 6 1018 75 10000 5.1 210 15:54 10.12.2019
6523 Clouds 6 1019 70 10000 5.1 220 15:36 10.12.2019
6524 Clouds 6 1019 70 10000 5.1 220 15:18 10.12.2019
6525 Clouds 6 1019 70 10000 5.1 220 15:18 10.12.2019
6526 Clouds 6 1019 70 10000 5.1 220 14:54 10.12.2019
6527 Clouds 6 1020 70 10000 5.7 220 14:36 10.12.2019
6528 Clouds 6 1020 70 10000 5.7 220 14:18 10.12.2019
6529 Clouds 6 1020 70 10000 5.7 220 14:18 10.12.2019
6530 Clouds 6 1020 70 10000 5.7 220 13:54 10.12.2019
6531 Clouds 6 1021 80 10000 4.6 220 13:36 10.12.2019
6532 Clouds 6 1021 80 10000 4.6 220 13:18 10.12.2019
6533 Clouds 6 1021 80 10000 4.1 230 12:38 10.12.2019
6534 Clouds 6 1021 80 10000 4.1 230 12:20 10.12.2019
6535 Clouds 6 1021 80 10000 3.6 230 11:41 10.12.2019
6536 Clouds 6 1021 80 10000 3.6 230 11:23 10.12.2019
6537 Clouds 6 1021 80 10000 3.6 230 10:56 10.12.2019
6538 Clouds 6 1021 80 10000 3.6 230 10:56 10.12.2019
6539 Clouds 5 1021 80 10000 3.6 250 10:37 10.12.2019
6540 Clouds 5 1021 80 10000 3.6 250 10:19 10.12.2019
6541 Clouds 5 1021 80 10000 3.6 250 09:55 10.12.2019
6542 Clouds 5 1020 75 10000 3.1 260 09:37 10.12.2019
6543 Clouds 5 1020 75 10000 3.1 260 09:18 10.12.2019
6544 Clouds 5 1020 75 10000 3.1 260 08:54 10.12.2019
6545 Clouds 6 1020 80 10000 2.1 320 08:36 10.12.2019
6546 Clouds 6 1020 80 10000 2.1 320 08:18 10.12.2019
6547 Clouds 6 1020 80 10000 2.1 320 07:42 10.12.2019
6548 Clouds 6 1019 75 10000 4.1 330 07:24 10.12.2019
6549 Clouds 6 1019 75 10000 4.1 330 06:46 10.12.2019
6550 Clouds 6 1019 70 10000 5.1 330 06:19 10.12.2019
6551 Clouds 6 1019 70 10000 5.1 330 05:54 10.12.2019
6552 Clouds 6 1018 63 10000 4.1 330 04:52 10.12.2019
6553 Clouds 6 1015 63 10000 6.7 340 03:38 10.12.2019
6554 Clouds 6 1014 75 10000 7.7 320 02:46 10.12.2019
6555 Clouds 6 1013 75 10000 6.7 320 01:45 10.12.2019
6556 Clouds 6 1013 75 10000 6.7 320 01:21 10.12.2019
6557 Clouds 7 1013 75 10000 6.7 320 00:42 10.12.2019
6558 Clouds 6 1011 80 10000 6.7 350 00:21 10.12.2019
6559 Clouds 6 1011 80 10000 6.7 350 23:42 09.12.2019
6560 Rain 6 1011 75 10000 11.8 330 23:23 09.12.2019
6561 Rain 6 1011 75 10000 11.8 330 23:23 09.12.2019
6562 Clouds 6 1010 75 10000 9.8 320 22:58 09.12.2019
6563 Clouds 7 1008 70 10000 8.7 320 22:40 09.12.2019
6564 Clouds 7 1008 70 10000 8.7 320 22:20 09.12.2019
6565 Clouds 7 1008 70 10000 8.7 320 21:57 09.12.2019
6566 Clouds 6 1007 70 10000 9.3 320 21:38 09.12.2019
6567 Clouds 6 1007 70 10000 9.3 320 21:19 09.12.2019
6568 Clouds 6 1007 70 10000 9.3 320 20:57 09.12.2019
6569 Clouds 6 1007 70 10000 9.3 320 20:57 09.12.2019
6570 Clouds 7 1005 65 10000 8.7 340 20:39 09.12.2019
6571 Clouds 7 1005 65 10000 8.7 340 20:20 09.12.2019
6572 Clouds 7 1005 65 10000 8.7 340 19:56 09.12.2019
6573 Clouds 7 1003 75 10000 8.2 330 19:37 09.12.2019
6574 Clouds 7 1003 75 10000 8.2 330 19:19 09.12.2019
6575 Clouds 7 1003 75 10000 8.2 330 18:56 09.12.2019
6576 Clouds 7 1001 70 10000 8.2 340 18:38 09.12.2019
6577 Clouds 7 1001 70 10000 8.2 340 18:19 09.12.2019
6578 Clouds 7 1001 70 10000 8.2 340 17:58 09.12.2019
6579 Clouds 7 999 81 10000 3.1 350 17:39 09.12.2019
6580 Clouds 7 999 81 10000 3.1 350 17:20 09.12.2019
6581 Clouds 7 999 81 10000 3.1 350 16:56 09.12.2019
6582 Clouds 8 999 81 10000 6.7 360 16:37 09.12.2019
6583 Clouds 7 999 81 10000 6.7 360 16:19 09.12.2019
6584 Rain 7 997 93 8000 7.2 300 15:55 09.12.2019
6585 Rain 7 997 87 4000 6.2 280 15:37 09.12.2019
6586 Rain 7 997 87 4000 6.2 280 15:19 09.12.2019
6587 Rain 7 996 81 10000 5.7 260 14:55 09.12.2019
6588 Clouds 7 995 81 10000 6.2 260 14:37 09.12.2019
6589 Clouds 7 995 81 10000 6.2 260 14:18 09.12.2019
6590 Clouds 7 994 81 10000 5.7 250 13:40 09.12.2019
6591 Clouds 7 994 81 10000 5.7 250 13:20 09.12.2019
6592 Clouds 7 994 81 10000 5.7 250 12:58 09.12.2019
6593 Clouds 7 994 81 10000 5.1 250 12:39 09.12.2019
6594 Clouds 7 994 81 10000 5.1 250 12:21 09.12.2019
6595 Clouds 7 994 81 10000 5.1 250 11:59 09.12.2019
6596 Clouds 7 993 87 10000 5.1 230 11:39 09.12.2019
6597 Clouds 7 993 87 10000 5.1 230 11:39 09.12.2019
6598 Clouds 7 993 87 10000 5.1 230 11:21 09.12.2019
6599 Clouds 7 993 87 10000 5.1 230 10:57 09.12.2019
6600 Clouds 6 992 87 10000 6.2 220 10:38 09.12.2019
6601 Clouds 6 992 87 10000 6.2 220 10:19 09.12.2019
6602 Clouds 6 992 87 10000 5.7 220 09:41 09.12.2019
6603 Clouds 6 992 87 10000 5.7 220 09:23 09.12.2019
6604 Clouds 6 992 87 10000 5.7 220 08:55 09.12.2019
6605 Clouds 6 992 81 10000 6.7 220 08:37 09.12.2019
6606 Clouds 6 992 81 10000 6.7 220 08:19 09.12.2019
6607 Clouds 6 992 81 10000 6.7 220 07:44 09.12.2019
6608 Clouds 6 991 81 10000 7.7 220 07:25 09.12.2019
6609 Clouds 6 991 81 10000 7.7 220 06:55 09.12.2019
6610 Clouds 6 991 81 10000 6.7 230 06:28 09.12.2019
6611 Clouds 6 991 86 10000 6.7 220 05:30 09.12.2019
6612 Clouds 6 991 86 10000 6.7 220 04:54 09.12.2019
6613 Clouds 6 991 87 10000 6.7 230 04:23 09.12.2019
6614 Clouds 6 991 81 10000 7.2 230 02:28 09.12.2019
6615 Clouds 6 991 81 10000 7.2 230 01:45 09.12.2019
6616 Clouds 6 991 87 10000 7.2 230 00:57 09.12.2019
6617 Clouds 7 991 81 10000 6.7 220 00:32 09.12.2019
6618 Clouds 7 991 81 10000 6.7 220 23:54 08.12.2019
6619 Clouds 6 991 87 10000 6.2 230 23:36 08.12.2019
6620 Clouds 6 991 87 10000 6.2 230 23:18 08.12.2019
6621 Clouds 6 991 87 10000 6.2 230 22:56 08.12.2019
6622 Rain 7 992 87 9000 10.3 260 22:37 08.12.2019
6623 Rain 7 992 87 9000 10.3 260 22:18 08.12.2019
6624 Rain 7 992 87 9000 10.3 260 21:55 08.12.2019
6625 Rain 8 992 75 10000 8.7 250 21:36 08.12.2019
6626 Rain 7 992 75 10000 8.7 250 21:18 08.12.2019
6627 Clouds 7 992 87 10000 7.7 240 20:54 08.12.2019
6628 Clouds 7 992 81 10000 8.2 240 20:36 08.12.2019
6629 Clouds 7 992 81 10000 8.2 240 20:18 08.12.2019
6630 Clouds 7 992 81 10000 8.2 240 19:54 08.12.2019
6631 Clouds 8 993 81 10000 7.2 250 19:36 08.12.2019
6632 Clouds 8 993 81 10000 7.2 250 19:18 08.12.2019
6633 Clouds 9 993 81 10000 7.2 250 18:54 08.12.2019
6634 Clouds 8 993 81 10000 9.3 260 18:36 08.12.2019
6635 Clouds 8 993 81 10000 9.3 260 18:18 08.12.2019
6636 Clouds 8 993 81 10000 9.3 260 17:54 08.12.2019
6637 Clouds 9 993 81 10000 8.2 260 17:36 08.12.2019
6638 Clouds 9 993 81 10000 8.2 260 17:18 08.12.2019
6639 Clouds 9 993 81 10000 8.2 260 16:42 08.12.2019
6640 Clouds 9 993 81 10000 10.3 260 16:23 08.12.2019
6641 Clouds 9 993 81 10000 10.3 260 15:58 08.12.2019
6642 Clouds 9 992 87 10000 8.7 260 15:37 08.12.2019
6643 Clouds 9 992 87 10000 8.7 260 15:18 08.12.2019
6644 Clouds 9 992 87 10000 8.7 260 15:18 08.12.2019
6645 Clouds 10 992 87 10000 8.7 260 14:46 08.12.2019
6646 Rain 10 992 93 10000 9.3 250 14:25 08.12.2019
6647 Rain 10 992 93 10000 9.3 250 13:59 08.12.2019
6648 Drizzle 10 992 93 3500 8.2 240 13:41 08.12.2019
6649 Drizzle 10 992 93 3500 8.2 240 13:22 08.12.2019
6650 Drizzle 10 992 93 7000 8.7 230 12:59 08.12.2019
6651 Drizzle 9 993 93 4500 10.3 230 12:40 08.12.2019
6652 Drizzle 9 993 93 4500 10.3 230 12:19 08.12.2019
6653 Drizzle 9 993 93 4500 10.3 230 11:58 08.12.2019
6654 Drizzle 8 994 93 4000 9.8 220 11:38 08.12.2019
6655 Drizzle 8 994 93 4000 9.8 220 11:19 08.12.2019
6656 Drizzle 8 994 93 4000 9.8 220 10:57 08.12.2019
6657 Drizzle 9 994 93 7000 10.8 230 10:38 08.12.2019
6658 Drizzle 9 994 93 7000 10.8 230 10:19 08.12.2019
6659 Drizzle 9 994 93 7000 10.8 230 09:55 08.12.2019
6660 Rain 8 994 87 6000 9.8 220 09:37 08.12.2019
6661 Rain 8 995 87 8000 9.8 230 09:18 08.12.2019
6662 Rain 8 995 81 10000 9.8 220 08:43 08.12.2019
6663 Rain 8 995 81 10000 9.8 220 08:43 08.12.2019
6664 Rain 8 995 81 10000 9.8 220 08:23 08.12.2019
6665 Clouds 9 996 76 10000 9.3 230 07:58 08.12.2019
6666 Clouds 9 997 76 10000 10.3 230 07:40 08.12.2019
6667 Clouds 9 997 76 10000 10.3 230 07:19 08.12.2019
6668 Clouds 9 998 76 10000 8.7 230 06:41 08.12.2019
6669 Clouds 9 998 76 10000 8.7 230 06:21 08.12.2019
6670 Clouds 9 1001 81 10000 9.3 230 05:27 08.12.2019
6671 Clouds 9 1001 81 10000 9.3 230 04:57 08.12.2019
6672 Clouds 8 1002 81 10000 8.2 220 03:41 08.12.2019
6673 Clouds 8 1003 81 10000 7.2 220 02:52 08.12.2019
6674 Clouds 8 1003 81 10000 7.2 220 02:52 08.12.2019
6675 Clouds 8 1005 81 10000 6.7 220 02:27 08.12.2019
6676 Clouds 8 1005 81 10000 6.7 220 01:48 08.12.2019
6677 Clouds 8 1006 87 10000 7.2 230 00:56 08.12.2019
6678 Clouds 8 1007 87 10000 5.7 240 00:38 08.12.2019
6679 Clouds 8 1007 87 10000 5.7 240 00:19 08.12.2019
6680 Clouds 8 1007 87 10000 6.7 250 23:40 07.12.2019
6681 Clouds 8 1007 87 10000 6.7 250 23:40 07.12.2019
6682 Clouds 8 1007 87 10000 6.7 250 23:20 07.12.2019
6683 Clouds 8 1007 87 10000 6.7 250 22:56 07.12.2019
6684 Clouds 8 1008 93 10000 5.7 260 22:38 07.12.2019
6685 Clouds 8 1008 93 10000 5.7 260 22:19 07.12.2019
6686 Clouds 8 1008 93 10000 5.7 260 22:19 07.12.2019
6687 Clouds 8 1008 93 10000 5.7 260 21:56 07.12.2019
6688 Clouds 8 1008 87 10000 6.2 250 21:38 07.12.2019
6689 Clouds 8 1008 87 10000 6.2 250 21:19 07.12.2019
6690 Clouds 8 1008 87 10000 6.2 250 20:55 07.12.2019
6691 Clouds 8 1008 87 10000 6.2 250 20:36 07.12.2019
6692 Clouds 8 1008 87 10000 6.2 250 20:18 07.12.2019
6693 Clouds 8 1008 87 10000 6.2 250 19:55 07.12.2019
6694 Clouds 8 1008 93 10000 7.7 260 19:36 07.12.2019
6695 Clouds 8 1008 93 10000 7.7 260 19:18 07.12.2019
6696 Clouds 8 1008 93 10000 7.7 260 18:44 07.12.2019
6697 Clouds 8 1008 93 10000 8.2 260 18:19 07.12.2019
6698 Clouds 8 1008 93 10000 8.2 260 17:58 07.12.2019
6699 Rain 8 1008 93 8000 6.7 260 17:39 07.12.2019
6700 Rain 8 1008 93 8000 6.7 260 17:21 07.12.2019
6701 Rain 8 1008 93 8000 6.7 260 16:56 07.12.2019
6702 Clouds 8 1007 87 10000 7.2 270 16:38 07.12.2019
6703 Clouds 8 1007 87 10000 7.2 270 16:19 07.12.2019
6704 Clouds 9 1007 87 10000 7.2 270 15:42 07.12.2019
6705 Clouds 8 1006 93 10000 6.7 270 15:24 07.12.2019
6706 Clouds 8 1006 93 10000 6.7 270 14:58 07.12.2019
6707 Rain 8 1006 93 10000 8.2 280 14:40 07.12.2019
6708 Rain 8 1006 93 10000 8.2 280 14:18 07.12.2019
6709 Rain 9 1006 93 10000 8.2 280 13:41 07.12.2019
6710 Clouds 8 1006 93 10000 8.7 280 13:21 07.12.2019
6711 Clouds 8 1006 93 100